# Wetter Temperatur Luftdruck Luftfeuchtigkeit Sichtweite Windgeschwindigkeit Windrichtung Zeit
1 Clouds 28 1011 83 10000 3.1 200 19:59 17.10.2019
2 Clouds 28 1011 83 10000 3.1 200 19:59 17.10.2019
3 Clouds 28 1011 76 0 4.85 136.672 19:40 17.10.2019
4 Clouds 28 1010 83 10000 3.6 210 19:20 17.10.2019
5 Clouds 28 1010 83 10000 3.6 210 18:58 17.10.2019
6 Clouds 28 1011 76 0 4.85 136.672 18:38 17.10.2019
7 Clouds 28 1009 83 10000 4.1 200 18:20 17.10.2019
8 Clouds 28 1009 83 10000 4.1 200 17:42 17.10.2019
9 Clouds 28 1009 78 10000 3.6 200 17:23 17.10.2019
10 Clouds 28 1009 78 10000 3.6 200 16:58 17.10.2019
11 Clouds 28 1010 73 0 3.515 146 16:39 17.10.2019
12 Clouds 29 1008 74 10000 4.1 200 16:18 17.10.2019
13 Clouds 29 1008 74 10000 4.1 200 15:56 17.10.2019
14 Clouds 28 1010 73 0 3.515 146 15:38 17.10.2019
15 Clouds 29 1008 74 10000 3.6 200 15:20 17.10.2019
16 Clouds 29 1008 74 10000 3.6 200 14:55 17.10.2019
17 Clouds 28 1008 76 0 3.367 151 14:37 17.10.2019
18 Clouds 29 1008 79 10000 4.6 210 14:18 17.10.2019
19 Clouds 28 1008 76 0 3.367 151 13:39 17.10.2019
20 Clouds 28 1008 83 10000 5.1 210 13:19 17.10.2019
21 Clouds 28 1008 83 10000 5.1 210 12:55 17.10.2019
22 Clouds 28 1008 83 10000 5.1 210 12:55 17.10.2019
23 Clouds 28 1008 76 0 3.367 151 12:36 17.10.2019
24 Clouds 28 1008 83 10000 5.1 150 12:18 17.10.2019
25 Clouds 27 1007 76 0 2.717 170 11:41 17.10.2019
26 Clouds 27 1007 76 0 2.717 170 11:41 17.10.2019
27 Clouds 29 1009 79 10000 7.7 130 11:22 17.10.2019
28 Clouds 29 1009 79 10000 7.7 130 10:58 17.10.2019
29 Clouds 27 1007 76 0 2.717 170 10:39 17.10.2019
30 Clouds 29 1010 79 10000 2.6 200 10:19 17.10.2019
31 Clouds 29 1010 79 10000 2.6 200 09:55 17.10.2019
32 -273 0 0 0 0 0 09:55 17.10.2019
33 Clouds 29 1010 79 10000 2.6 200 09:55 17.10.2019
34 Clouds 27 1007 76 0 2.717 170 09:37 17.10.2019
35 -273 0 0 0 0 0 09:19 17.10.2019
36 Clouds 29 1010 79 10000 2.6 200 08:46 17.10.2019
37 Clouds 28 1011 73 0 1.95 103 08:26 17.10.2019
38 Clouds 28 1011 73 0 1.95 103 07:58 17.10.2019
39 -273 0 0 0 0 0 07:40 17.10.2019
40 Clouds 28 1011 73 0 1.95 103 07:20 17.10.2019
41 Clouds 28 1011 73 0 1.95 103 07:20 17.10.2019
42 Clouds 28 1011 73 0 1.95 103 06:42 17.10.2019
43 Clouds 28 1011 73 0 1.95 103 06:42 17.10.2019
44 Clouds 28 1011 83 10000 4.6 220 06:23 17.10.2019
45 Clouds 28 1011 83 10000 4.6 220 05:58 17.10.2019
46 Clouds 27 1010 74 0 0.913 192 05:34 17.10.2019
47 Clouds 27 1010 88 10000 5.1 200 04:57 17.10.2019
48 Rain 27 1009 88 9000 5.7 200 03:58 17.10.2019
49 Clouds 27 1010 74 0 0.913 192 03:38 17.10.2019
50 Rain 28 1008 78 9000 4.6 210 01:55 17.10.2019
51 Rain 27 1008 78 0 1.476 135 00:41 17.10.2019
52 Rain 26 1009 94 8000 1.5 230 00:20 17.10.2019
53 Rain 26 1009 94 8000 1.5 230 23:42 16.10.2019
54 Rain 26 1009 88 8000 1.5 250 23:21 16.10.2019
55 Rain 26 1009 88 8000 1.5 250 22:57 16.10.2019
56 Rain 26 1008 83 0 4.487 136 22:38 16.10.2019
57 Clouds 28 1010 78 10000 2.6 200 22:19 16.10.2019
58 Clouds 28 1010 78 10000 2.6 200 21:58 16.10.2019
59 Rain 26 1008 83 0 4.765 137 21:38 16.10.2019
60 Rain 26 1008 83 0 4.765 137 21:38 16.10.2019
61 Clouds 28 1010 78 10000 3.6 200 21:20 16.10.2019
62 Clouds 28 1010 78 10000 3.6 200 20:58 16.10.2019
63 Rain 27 1011 81 0 5.675 174 20:40 16.10.2019
64 Clouds 28 1011 78 10000 5.1 210 20:21 16.10.2019
65 Clouds 28 1011 78 10000 5.1 210 19:59 16.10.2019
66 Rain 27 1011 81 0 5.675 174 19:39 16.10.2019
67 Rain 27 1011 81 0 5.675 174 19:39 16.10.2019
68 Clouds 28 1011 78 10000 4.1 210 19:21 16.10.2019
69 Clouds 28 1011 78 10000 4.1 210 18:55 16.10.2019
70 Rain 27 1011 81 0 5.675 174 18:37 16.10.2019
71 Clouds 28 1010 83 10000 3.1 220 18:18 16.10.2019
72 Clouds 28 1010 83 10000 3.1 220 17:54 16.10.2019
73 Clouds 28 1010 83 10000 3.1 220 17:54 16.10.2019
74 Rain 28 1010 76 0 2.968 209 17:36 16.10.2019
75 Clouds 28 1008 83 10000 4.1 240 17:18 16.10.2019
76 Clouds 28 1008 83 10000 4.1 240 16:43 16.10.2019
77 Clouds 28 1008 83 10000 4.6 250 16:21 16.10.2019
78 Clouds 28 1008 83 10000 4.6 250 15:58 16.10.2019
79 Rain 28 1010 76 0 2.968 209 15:39 16.10.2019
80 Clouds 29 1008 79 10000 3.6 250 15:19 16.10.2019
81 Clouds 29 1008 79 10000 3.6 250 14:58 16.10.2019
82 Clouds 29 1008 79 10000 3.6 250 14:39 16.10.2019
83 Clouds 29 1008 79 10000 3.6 250 14:39 16.10.2019
84 Clouds 30 1008 74 10000 3.6 250 14:20 16.10.2019
85 Clouds 30 1008 74 10000 3.6 250 13:57 16.10.2019
86 Clouds 30 1008 74 10000 3.6 250 13:39 16.10.2019
87 Clouds 30 1008 74 10000 4.1 250 13:20 16.10.2019
88 Clouds 30 1008 74 10000 4.1 250 12:42 16.10.2019
89 Clouds 29 1008 74 10000 4.6 240 12:20 16.10.2019
90 Clouds 29 1008 74 10000 4.6 240 11:45 16.10.2019
91 Clouds 29 1009 83 10000 4.6 250 11:19 16.10.2019
92 Clouds 29 1009 83 10000 4.6 250 10:56 16.10.2019
93 Clouds 29 1009 83 10000 4.6 250 10:36 16.10.2019
94 Clouds 28 1009 83 10000 3.6 290 10:18 16.10.2019
95 -273 0 0 0 0 0 09:40 16.10.2019
96 Clouds 28 1009 83 10000 3.6 290 09:40 16.10.2019
97 Clouds 28 1010 83 10000 5.1 260 09:21 16.10.2019
98 -273 0 0 0 0 0 08:46 16.10.2019
99 Clouds 29 1011 79 10000 2.1 290 08:26 16.10.2019
100 Clouds 29 1011 79 10000 2.1 290 07:59 16.10.2019
101 Clouds 29 1011 79 10000 2.1 290 07:41 16.10.2019
102 Clouds 29 1011 74 10000 2.1 320 07:22 16.10.2019
103 Clouds 29 1011 74 10000 2.1 320 06:47 16.10.2019
104 Clouds 28 1010 78 10000 1.5 290 06:28 16.10.2019
105 Rain 28 1011 73 0 2.695 240 04:25 16.10.2019
106 Thunderstorm 26 1009 88 9000 7.7 280 02:51 16.10.2019
107 Thunderstorm 28 1008 83 10000 2.6 330 01:20 16.10.2019
108 Thunderstorm 28 1008 83 10000 2.6 330 00:58 16.10.2019
109 Thunderstorm 28 1008 83 10000 2.6 330 00:39 16.10.2019
110 Clouds 29 1008 66 0 1.748 240 23:58 15.10.2019
111 Clouds 29 1008 66 0 1.748 240 23:38 15.10.2019
112 Clouds 28 1009 83 10000 3.1 290 23:19 15.10.2019
113 Clouds 28 1009 83 10000 3.1 290 22:55 15.10.2019
114 Clouds 28 1009 83 10000 3.1 290 22:37 15.10.2019
115 Clouds 28 1010 78 10000 3.6 270 22:18 15.10.2019
116 Clouds 28 1010 78 10000 3.6 270 22:18 15.10.2019
117 Clouds 28 1010 78 10000 3.6 270 21:54 15.10.2019
118 Clouds 28 1010 78 10000 3.6 270 21:36 15.10.2019
119 Clouds 28 1011 78 10000 0.5 0 21:18 15.10.2019
120 -273 0 0 0 0 0 20:54 15.10.2019
121 Clouds 28 1011 78 10000 0.5 0 20:36 15.10.2019
122 Clouds 28 1011 78 10000 1 0 20:18 15.10.2019
123 Clouds 28 1011 78 10000 1 0 19:41 15.10.2019
124 Clouds 28 1011 78 10000 1 0 19:41 15.10.2019
125 Clouds 28 1010 83 10000 2.1 320 19:20 15.10.2019
126 Clouds 28 1010 83 10000 2.1 320 18:57 15.10.2019
127 Clouds 28 1010 83 10000 2.1 320 18:39 15.10.2019
128 Clouds 28 1010 83 10000 2.1 290 18:20 15.10.2019
129 Clouds 28 1010 83 10000 2.1 290 17:54 15.10.2019
130 Clouds 28 1010 83 10000 2.1 290 17:36 15.10.2019
131 Clouds 27 1009 88 10000 3.1 290 17:18 15.10.2019
132 Clouds 27 1009 88 10000 3.1 290 16:42 15.10.2019
133 Clouds 27 1009 88 10000 6.7 290 16:21 15.10.2019
134 Clouds 27 1009 88 10000 6.7 290 15:56 15.10.2019
135 Clouds 27 1009 88 10000 6.7 290 15:38 15.10.2019
136 Clouds 27 1008 78 10000 3.1 360 15:19 15.10.2019
137 Clouds 27 1008 78 10000 3.1 360 14:55 15.10.2019
138 Clouds 27 1008 78 10000 3.1 360 14:55 15.10.2019
139 Clouds 27 1008 78 10000 3.1 360 14:36 15.10.2019
140 Clouds 31 1008 70 10000 2.6 290 14:18 15.10.2019
141 Clouds 31 1008 70 10000 2.6 290 13:43 15.10.2019
142 Clouds 31 1008 70 10000 2.6 290 13:43 15.10.2019
143 Clouds 30 1008 70 10000 4.1 280 13:20 15.10.2019
144 Clouds 30 1008 70 10000 4.1 280 13:20 15.10.2019
145 Clouds 30 1008 70 10000 4.1 280 12:56 15.10.2019
146 Clouds 30 1008 70 10000 4.1 280 12:56 15.10.2019
147 Rain 29 1008 71 0 3.675 299 12:38 15.10.2019
148 Clouds 30 1008 74 10000 4.6 270 12:19 15.10.2019
149 Clouds 30 1008 74 10000 4.6 270 11:42 15.10.2019
150 Clouds 30 1008 74 10000 4.6 270 11:42 15.10.2019
151 Clouds 31 1009 70 10000 3.1 290 11:20 15.10.2019
152 Clouds 31 1009 70 10000 3.1 290 10:55 15.10.2019
153 Clouds 31 1009 70 10000 3.1 290 10:37 15.10.2019
154 Clouds 30 1010 70 10000 3.6 310 10:18 15.10.2019
155 -273 0 0 0 0 0 09:40 15.10.2019
156 Clouds 30 1010 70 10000 3.6 310 09:40 15.10.2019
157 Clouds 31 1011 70 10000 2.1 300 09:21 15.10.2019
158 Clouds 31 1011 70 10000 2.1 300 08:58 15.10.2019
159 Clouds 31 1011 70 10000 2.1 300 08:58 15.10.2019
160 Clouds 31 1011 70 10000 2.1 300 08:40 15.10.2019
161 Clouds 31 1011 70 10000 2.1 300 08:20 15.10.2019
162 Clouds 30 1011 70 10000 2.1 300 07:44 15.10.2019
163 Clouds 30 1011 74 10000 1 0 07:23 15.10.2019
164 Clouds 30 1011 74 10000 1 0 06:58 15.10.2019
165 Clouds 30 1011 74 10000 1 0 06:39 15.10.2019
166 Clouds 29 1010 79 10000 2.1 250 05:56 15.10.2019
167 Clouds 29 1010 79 10000 2.1 250 05:37 15.10.2019
168 Clouds 28 1010 83 10000 1.5 250 04:49 15.10.2019
169 Clouds 28 1009 83 10000 1.5 250 04:19 15.10.2019
170 Clouds 28 1009 78 10000 1.5 230 03:35 15.10.2019
171 Clouds 28 1009 78 10000 0.5 0 01:57 15.10.2019
172 Clouds 28 1009 78 10000 0.5 0 01:39 15.10.2019
173 Clouds 28 1008 78 10000 1 0 00:59 15.10.2019
174 Clouds 28 1009 78 10000 2.96 327.642 00:25 15.10.2019
175 Clouds 28 1009 78 10000 2.14 330.225 23:59 14.10.2019
176 Clouds 28 1009 78 10000 2.14 330.225 23:37 14.10.2019
177 Clouds 28 1009 78 10000 0.5 0 23:18 14.10.2019
178 Clouds 28 1009 78 10000 0.5 0 22:39 14.10.2019
179 Clouds 28 1010 78 10000 0.5 0 22:20 14.10.2019
180 Clouds 28 1010 78 10000 0.5 0 21:58 14.10.2019
181 Clouds 28 1010 78 10000 0.5 0 21:39 14.10.2019
182 Clouds 28 1011 78 10000 0.5 0 21:21 14.10.2019
183 Clouds 28 1011 78 10000 0.5 0 20:57 14.10.2019
184 Clouds 28 1011 78 10000 0.5 0 20:57 14.10.2019
185 Clouds 28 1011 78 10000 0.5 0 20:38 14.10.2019
186 Clouds 28 1011 78 10000 0.5 0 20:38 14.10.2019
187 Clouds 28 1011 78 10000 0.5 0 20:19 14.10.2019
188 Clouds 28 1011 78 10000 0.5 0 19:43 14.10.2019
189 Clouds 28 1011 78 10000 0.5 0 19:25 14.10.2019
190 Clouds 28 1011 78 10000 0.5 0 18:59 14.10.2019
191 Clouds 28 1011 66 0 0.42 30.306 18:40 14.10.2019
192 Clouds 29 1010 74 10000 1 0 18:20 14.10.2019
193 Clouds 29 1010 74 10000 1 0 18:20 14.10.2019
194 Clouds 29 1010 74 10000 1 0 17:58 14.10.2019
195 Clear 29 1010 66 0 1.54 61.689 17:40 14.10.2019
196 Clouds 29 1010 74 10000 0.5 0 17:22 14.10.2019
197 Clouds 29 1010 74 10000 0.5 0 16:44 14.10.2019
198 Clouds 29 1009 74 10000 1.5 300 16:22 14.10.2019
199 Clouds 29 1009 74 10000 1.5 300 15:57 14.10.2019
200 Clear 29 1010 66 0 1.54 61.689 15:38 14.10.2019
201 Clouds 30 1008 70 10000 1.5 300 15:20 14.10.2019
202 Clouds 30 1008 70 10000 1.5 300 14:43 14.10.2019
203 Clouds 30 1008 70 10000 1.5 300 14:24 14.10.2019
204 Clouds 30 1008 70 10000 1.5 300 13:57 14.10.2019
205 Clear 29 1008 65 0 1.29 38.473 13:38 14.10.2019
206 Clouds 31 1008 89 10000 1.5 290 13:19 14.10.2019
207 Clouds 29 1009 61 0 0.98 3.353 12:41 14.10.2019
208 Clouds 30 1008 94 10000 1.5 60 12:19 14.10.2019
209 Clouds 30 1008 94 10000 1.5 60 11:47 14.10.2019
210 Clouds 30 1009 94 10000 2.1 60 11:27 14.10.2019
211 Clouds 30 1009 94 10000 2.1 60 10:59 14.10.2019
212 Clear 28 1008 63 0 1.12 26.679 10:40 14.10.2019
213 Clouds 31 1010 79 10000 3.1 90 10:20 14.10.2019
214 Clouds 31 1010 79 10000 3.1 90 09:56 14.10.2019
215 Clear 28 1008 63 0 1.12 26.679 09:37 14.10.2019
216 Clouds 31 1011 79 10000 3.1 90 09:18 14.10.2019
217 Clouds 31 1011 79 10000 3.1 90 08:44 14.10.2019
218 Clouds 30 1012 89 10000 2.6 70 08:22 14.10.2019
219 Clear 28 1011 65 0 2.39 35.356 07:43 14.10.2019
220 Clouds 30 1012 89 10000 2.6 70 07:19 14.10.2019
221 Clouds 30 1012 89 10000 2.6 70 06:53 14.10.2019
222 Clouds 29 1011 83 10000 2.6 30 06:26 14.10.2019
223 Clouds 29 1011 83 10000 2.6 30 05:49 14.10.2019
224 Clouds 28 1011 88 10000 1.5 30 04:48 14.10.2019
225 Clouds 27 1009 94 10000 2.1 50 03:28 14.10.2019
226 Clouds 27 1009 94 10000 2.1 50 02:49 14.10.2019
227 Clouds 27 1009 94 10000 1.5 70 01:24 14.10.2019
228 Clouds 27 1009 94 10000 1.5 70 00:58 14.10.2019
229 Clouds 27 1009 94 10000 2.1 70 00:20 14.10.2019
230 Clouds 27 1009 94 10000 2.1 70 23:45 13.10.2019
231 Clouds 28 1010 88 10000 2.6 90 23:20 13.10.2019
232 Clouds 28 1010 88 10000 2.6 90 22:58 13.10.2019
233 Clouds 28 1010 88 10000 2.6 90 22:58 13.10.2019
234 Clouds 28 1009 71 0 2.18 332.202 22:40 13.10.2019
235 Clouds 28 1011 88 10000 2.1 90 22:21 13.10.2019
236 Clouds 28 1011 88 10000 2.1 90 22:21 13.10.2019
237 Clouds 28 1011 88 10000 2.1 90 21:58 13.10.2019
238 Clouds 28 1009 71 0 2.18 332.202 21:38 13.10.2019
239 Clouds 28 1012 88 10000 2.1 110 21:19 13.10.2019
240 -273 0 0 0 0 0 20:57 13.10.2019
241 Clouds 28 1011 70 0 0.72 205.429 20:39 13.10.2019
242 Clouds 28 1012 88 10000 2.6 120 20:20 13.10.2019
243 Clouds 28 1012 88 10000 2.6 120 19:58 13.10.2019
244 Clouds 28 1011 70 0 0.72 205.429 19:39 13.10.2019
245 Clouds 28 1011 88 10000 2.1 120 19:21 13.10.2019
246 Clouds 28 1011 88 10000 2.1 120 18:57 13.10.2019
247 -273 0 0 0 0 0 18:57 13.10.2019
248 Clouds 28 1011 70 0 0.72 205.429 18:37 13.10.2019
249 Clouds 28 1011 88 10000 2.6 130 18:19 13.10.2019
250 Clouds 28 1011 88 10000 2.6 130 18:19 13.10.2019
251 Clouds 28 1011 88 10000 2.6 130 17:57 13.10.2019
252 Clouds 28 1011 69 0 0.94 218.469 17:38 13.10.2019
253 Clouds 28 1011 69 0 0.94 218.469 17:38 13.10.2019
254 Clouds 28 1010 88 10000 2.1 110 17:20 13.10.2019
255 Clouds 28 1010 88 10000 2.1 110 16:41 13.10.2019
256 Clouds 28 1009 88 10000 2.6 110 16:18 13.10.2019
257 -273 0 0 0 0 0 15:57 13.10.2019
258 Clouds 28 1011 69 0 0.94 218.469 15:38 13.10.2019
259 Clouds 29 1008 83 10000 2.6 90 15:18 13.10.2019
260 Clouds 29 1008 83 10000 2.6 90 14:57 13.10.2019
261 Clouds 28 1009 71 0 2.62 243.171 14:38 13.10.2019
262 Clouds 29 1008 83 10000 2.6 90 14:19 13.10.2019
263 Clouds 29 1008 83 10000 2.6 90 13:41 13.10.2019
264 Clouds 29 1008 89 10000 3.1 80 13:23 13.10.2019
265 Clouds 29 1008 89 10000 3.1 80 12:59 13.10.2019
266 Clouds 28 1009 72 0 3.07 227.51 12:39 13.10.2019
267 Clouds 29 1009 83 10000 2.6 100 12:21 13.10.2019
268 Clouds 29 1009 83 10000 2.6 100 11:59 13.10.2019
269 Clouds 28 1008 70 0 2.49 235.061 11:39 13.10.2019
270 Clouds 29 1009 83 10000 2.6 90 11:20 13.10.2019
271 Clouds 29 1009 83 10000 2.6 90 10:57 13.10.2019
272 Clouds 28 1008 70 0 2.49 235.061 10:38 13.10.2019
273 Clouds 29 1010 79 10000 1.5 90 10:20 13.10.2019
274 Clouds 28 1008 70 0 2.49 235.061 09:39 13.10.2019
275 Clouds 30 1010 74 10000 2.1 90 09:21 13.10.2019
276 Clouds 30 1010 74 10000 2.1 90 08:45 13.10.2019
277 Clouds 29 1011 79 10000 2.1 90 08:26 13.10.2019
278 Clouds 29 1011 79 10000 2.1 90 07:52 13.10.2019
279 Clouds 29 1011 79 10000 2.1 90 07:33 13.10.2019
280 -273 0 0 0 0 0 06:54 13.10.2019
281 Clouds 28 1012 83 10000 2.6 110 06:24 13.10.2019
282 Clouds 28 1012 83 10000 2.6 110 06:24 13.10.2019
283 Clouds 26 1011 88 10000 1.5 100 05:27 13.10.2019
284 Clouds 26 1011 88 10000 1.5 100 05:27 13.10.2019
285 Clouds 25 1009 94 10000 2.7 335.63 04:35 13.10.2019
286 Clouds 27 1011 76 0 2.7 335.63 03:35 13.10.2019
287 Clouds 25 1009 94 10000 0.5 0 02:32 13.10.2019
288 Rain 26 1009 82 0 5.21 315.591 01:37 13.10.2019
289 Rain 25 1009 94 8000 0.5 0 01:18 13.10.2019
290 Rain 25 1009 94 8000 0.5 0 00:42 13.10.2019
291 Rain 25 1009 94 8000 0.5 0 00:42 13.10.2019
292 Rain 25 1010 94 8000 1 0 00:19 13.10.2019
293 Rain 25 1010 94 8000 1 0 23:42 12.10.2019
294 Rain 26 1010 94 8000 6.2 110 23:23 12.10.2019
295 Rain 26 1010 94 8000 6.2 110 22:59 12.10.2019
296 Rain 27 1008 80 0 4.58 270.826 22:40 12.10.2019
297 Rain 27 1008 80 0 4.58 270.826 22:40 12.10.2019
298 Rain 26 1011 94 8000 5.7 210 22:22 12.10.2019
299 Rain 26 1011 94 8000 5.7 210 21:59 12.10.2019
300 Rain 27 1008 80 0 4.58 270.826 21:40 12.10.2019
301 Clouds 25 1012 94 9000 2.1 220 21:22 12.10.2019
302 Clouds 25 1012 94 9000 2.1 220 20:56 12.10.2019
303 Rain 25 1012 94 7000 2.1 150 20:37 12.10.2019
304 Rain 25 1012 94 7000 2.1 150 20:19 12.10.2019
305 Rain 27 1011 80 0 5.49 279.577 19:36 12.10.2019
306 Rain 25 1012 100 7000 4.6 220 19:18 12.10.2019
307 Rain 25 1012 100 7000 4.6 220 18:44 12.10.2019
308 Clouds 26 1011 94 8000 6.2 230 18:26 12.10.2019
309 Clouds 26 1011 94 8000 6.2 230 17:56 12.10.2019
310 Clouds 26 1011 94 8000 6.2 230 17:56 12.10.2019
311 Rain 27 1010 79 0 5.78 282.635 17:37 12.10.2019
312 Rain 27 1010 79 0 5.78 282.635 17:18 12.10.2019
313 Rain 27 1010 79 0 5.78 282.635 16:40 12.10.2019
314 Rain 27 1010 79 0 5.78 282.635 16:21 12.10.2019
315 Rain 27 1010 79 0 5.78 282.635 15:57 12.10.2019
316 Rain 27 1010 79 0 5.78 282.635 15:38 12.10.2019
317 Rain 28 1008 88 10000 5.7 230 15:19 12.10.2019
318 Rain 28 1008 88 10000 5.7 230 14:41 12.10.2019
319 Rain 29 1008 83 10000 3.6 250 14:20 12.10.2019
320 Rain 29 1008 83 10000 3.6 250 13:51 12.10.2019
321 Rain 30 1008 79 10000 2.6 200 13:32 12.10.2019
322 Rain 30 1008 79 10000 2.6 200 12:57 12.10.2019
323 Rain 28 1008 76 0 3.88 257.67 12:38 12.10.2019
324 Clouds 31 1009 74 10000 4.1 210 12:20 12.10.2019
325 Clouds 31 1009 74 10000 4.1 210 11:47 12.10.2019
326 Clouds 30 1009 74 10000 3.1 240 11:24 12.10.2019
327 Clouds 30 1009 74 10000 3.1 240 10:58 12.10.2019
328 Rain 28 1007 71 0 0.52 262.559 10:40 12.10.2019
329 Clouds 30 1010 79 10000 3.1 240 10:21 12.10.2019
330 Clouds 30 1010 79 10000 3.1 240 09:57 12.10.2019
331 -273 0 0 0 0 0 09:57 12.10.2019
332 Rain 28 1007 71 0 0.52 262.559 09:38 12.10.2019
333 Clouds 31 1011 74 10000 2.1 200 09:19 12.10.2019
334 Clouds 31 1011 74 10000 2.1 200 08:44 12.10.2019
335 Clouds 31 1011 74 10000 2.1 200 08:44 12.10.2019
336 Clouds 31 1011 74 10000 2.6 200 08:24 12.10.2019
337 Clouds 31 1011 74 10000 2.6 200 07:57 12.10.2019
338 Clouds 29 1011 79 10000 2.6 200 07:31 12.10.2019
339 Clouds 29 1011 74 10000 3.1 240 06:28 12.10.2019
340 Clouds 29 1011 74 10000 3.1 240 05:43 12.10.2019
341 Clouds 28 1010 83 10000 4.6 230 04:43 12.10.2019
342 Clouds 27 1009 88 10000 4.1 230 03:54 12.10.2019
343 Clouds 27 1008 83 10000 2.6 230 02:50 12.10.2019
344 Rain 28 1008 71 0 0.93 181.723 01:34 12.10.2019
345 Clouds 27 1008 88 10000 2.1 200 00:56 12.10.2019
346 Clouds 27 1009 88 10000 2.1 200 00:38 12.10.2019
347 Clouds 27 1009 88 10000 2.1 200 23:55 11.10.2019
348 Clouds 26 1009 94 10000 0.88 170.879 23:36 11.10.2019
349 Clouds 26 1009 94 10000 0.88 170.879 23:18 11.10.2019
350 Clouds 27 1010 88 10000 0.88 170.879 22:38 11.10.2019
351 Clouds 27 1010 88 10000 0.88 170.879 22:19 11.10.2019
352 Rain 28 1008 73 0 0.88 170.879 21:43 11.10.2019
353 Rain 27 1011 88 8000 1 0 21:22 11.10.2019
354 Rain 28 1010 71 0 1.95 167.838 20:59 11.10.2019
355 Rain 28 1010 71 0 1.95 167.838 20:41 11.10.2019
356 Rain 28 1010 71 0 1.95 167.838 20:23 11.10.2019
357 Rain 28 1010 71 0 1.95 167.838 19:55 11.10.2019
358 Rain 28 1010 71 0 1.95 167.838 19:37 11.10.2019
359 Rain 28 1010 71 0 1.95 167.838 19:37 11.10.2019
360 Rain 28 1010 71 0 1.95 167.838 19:18 11.10.2019
361 Rain 28 1010 71 0 1.95 167.838 19:18 11.10.2019
362 Rain 28 1010 71 0 1.95 167.838 19:18 11.10.2019
363 Rain 28 1010 71 0 1.95 167.838 18:56 11.10.2019
364 Rain 28 1010 71 0 1.95 167.838 18:37 11.10.2019
365 Rain 28 1010 75 0 1.84 100.503 18:18 11.10.2019
366 Rain 28 1010 75 0 1.84 100.503 17:55 11.10.2019
367 Rain 28 1010 75 0 1.84 100.503 17:36 11.10.2019
368 Rain 28 1010 75 0 1.84 100.503 17:18 11.10.2019
369 Rain 28 1010 75 0 1.84 100.503 16:41 11.10.2019
370 Rain 28 1010 75 0 1.84 100.503 16:20 11.10.2019
371 Rain 28 1010 75 0 1.84 100.503 16:20 11.10.2019
372 Rain 28 1010 75 0 1.84 100.503 15:59 11.10.2019
373 Rain 28 1010 75 0 1.84 100.503 15:38 11.10.2019
374 Clouds 29 1008 68 0 1.48 118.916 15:19 11.10.2019
375 Clouds 29 1008 68 0 1.48 118.916 14:47 11.10.2019
376 Clouds 29 1008 68 0 1.48 118.916 14:29 11.10.2019
377 Clouds 29 1008 68 0 1.48 118.916 13:56 11.10.2019
378 Clouds 29 1008 68 0 1.48 118.916 13:37 11.10.2019
379 Clouds 29 1009 64 0 0.73 141.254 13:19 11.10.2019
380 Clouds 29 1009 64 0 0.73 141.254 12:54 11.10.2019
381 Clouds 29 1009 64 0 0.73 141.254 12:36 11.10.2019
382 Clouds 29 1008 65 0 0.81 238.671 12:18 11.10.2019
383 Clouds 29 1008 65 0 0.81 238.671 11:41 11.10.2019
384 Clouds 29 1008 65 0 0.81 238.671 11:22 11.10.2019
385 Clouds 29 1008 65 0 0.81 238.671 10:56 11.10.2019
386 Clouds 29 1008 65 0 0.81 238.671 10:38 11.10.2019
387 Clouds 29 1008 65 0 0.81 238.671 10:20 11.10.2019
388 Clouds 29 1008 65 0 0.81 238.671 09:55 11.10.2019
389 Clouds 28 1008 64 0 0.98 284.732 09:37 11.10.2019
390 Clouds 28 1011 65 0 0.36 138.073 09:18 11.10.2019
391 Clouds 28 1011 65 0 0.36 138.073 09:18 11.10.2019
392 Clouds 28 1011 65 0 0.36 138.073 08:54 11.10.2019
393 Clouds 28 1011 65 0 0.36 138.073 08:36 11.10.2019
394 Clouds 28 1011 65 0 0.36 138.073 08:18 11.10.2019
395 Clouds 28 1011 65 0 0.36 138.073 07:41 11.10.2019
396 Clouds 28 1011 65 0 0.36 138.073 07:22 11.10.2019
397 Clouds 28 1011 65 0 0.36 138.073 06:47 11.10.2019
398 Clouds 28 1011 65 0 0.66 208.052 06:22 11.10.2019
399 Clouds 28 1011 65 0 0.66 208.052 05:37 11.10.2019
400 Clouds 28 1011 65 0 0.66 208.052 04:59 11.10.2019
401 Clouds 28 1011 65 0 0.66 208.052 04:24 11.10.2019
402 Clouds 28 1009 66 0 1.43 233.66 02:19 11.10.2019
403 Clouds 28 1009 72 0 2.19 204.066 00:43 11.10.2019
404 Clouds 28 1009 72 0 2.19 204.066 00:25 11.10.2019
405 Rain 28 1009 73 0 3.05 197.692 23:43 10.10.2019
406 Rain 28 1009 73 0 3.05 197.692 23:21 10.10.2019
407 Rain 28 1009 73 0 3.05 197.692 22:57 10.10.2019
408 Rain 28 1009 73 0 3.05 197.692 22:39 10.10.2019
409 Rain 28 1009 73 0 3.05 197.692 22:20 10.10.2019
410 Rain 28 1009 73 0 3.05 197.692 21:57 10.10.2019
411 Rain 28 1009 73 0 3.05 197.692 21:38 10.10.2019
412 Rain 28 1011 73 0 3.19 200.457 21:20 10.10.2019
413 Rain 28 1011 73 0 4.07 203.635 20:42 10.10.2019
414 Rain 28 1011 73 0 4.07 203.635 20:21 10.10.2019
415 Rain 28 1011 73 0 4.07 203.635 19:58 10.10.2019
416 Rain 28 1011 73 0 4.07 203.635 19:40 10.10.2019
417 Rain 28 1011 73 0 4.07 203.635 19:40 10.10.2019
418 Rain 28 1011 73 0 4.07 203.635 19:20 10.10.2019
419 Rain 28 1011 73 0 4.07 203.635 18:57 10.10.2019
420 Rain 28 1011 73 0 4.07 203.635 18:39 10.10.2019
421 Rain 28 1011 76 0 4.51 220.862 18:20 10.10.2019
422 Rain 28 1011 76 0 4.51 220.862 17:54 10.10.2019
423 Rain 28 1011 76 0 4.51 220.862 17:36 10.10.2019
424 Rain 28 1011 76 0 4.51 220.862 17:36 10.10.2019
425 Rain 28 1011 76 0 4.51 220.862 17:18 10.10.2019
426 Rain 28 1011 76 0 4.51 220.862 17:18 10.10.2019
427 Rain 28 1011 76 0 4.51 220.862 16:41 10.10.2019
428 Rain 28 1011 76 0 4.51 220.862 16:22 10.10.2019
429 Rain 28 1011 76 0 4.51 220.862 15:44 10.10.2019
430 Rain 28 1011 76 0 4.51 220.862 15:25 10.10.2019
431 Rain 27 1009 78 0 5.68 223.545 14:59 10.10.2019
432 Rain 27 1009 78 0 5.68 223.545 14:38 10.10.2019
433 Rain 27 1009 78 0 5.68 223.545 14:19 10.10.2019
434 Rain 27 1009 78 0 5.68 223.545 13:59 10.10.2019
435 Rain 27 1009 78 0 5.68 223.545 13:41 10.10.2019
436 Rain 27 1009 82 0 6.71 253.241 13:20 10.10.2019
437 Rain 27 1009 82 0 6.71 253.241 12:57 10.10.2019
438 Rain 27 1009 82 0 6.71 253.241 12:39 10.10.2019
439 Rain 26 1009 78 0 2 298.796 12:19 10.10.2019
440 Rain 26 1009 78 0 2 298.796 11:55 10.10.2019
441 Rain 26 1009 78 0 2 298.796 11:37 10.10.2019
442 Rain 26 1009 78 0 2 298.796 11:18 10.10.2019
443 Rain 26 1009 78 0 2 298.796 10:44 10.10.2019
444 Rain 26 1009 78 0 2 298.796 10:26 10.10.2019
445 Rain 26 1009 78 0 2 298.796 09:56 10.10.2019
446 Rain 26 1009 78 0 2 298.796 09:38 10.10.2019
447 Rain 28 1011 77 0 5.35 225.81 09:19 10.10.2019
448 Rain 28 1011 77 0 5.35 225.81 08:41 10.10.2019
449 Rain 28 1011 77 0 5.35 225.81 08:23 10.10.2019
450 Rain 28 1011 77 0 5.35 225.81 07:59 10.10.2019
451 Rain 28 1011 77 0 5.35 225.81 07:40 10.10.2019
452 Rain 28 1011 77 0 5.35 225.81 07:20 10.10.2019
453 Rain 28 1011 77 0 5.35 225.81 06:45 10.10.2019
454 Rain 28 1011 76 0 5.3 226.307 06:24 10.10.2019
455 Rain 28 1011 76 0 5.3 226.307 05:25 10.10.2019
456 Rain 28 1011 76 0 5.3 226.307 04:37 10.10.2019
457 Rain 28 1011 76 0 5.3 226.307 03:42 10.10.2019
458 Rain 28 1009 78 0 6.89 227.895 01:43 10.10.2019
459 Rain 28 1009 78 0 6.37 220.66 01:24 10.10.2019
460 Rain 28 1009 78 0 6.37 220.66 00:53 10.10.2019
461 Rain 28 1009 77 0 5.49 227.561 00:21 10.10.2019
462 Rain 28 1009 77 0 5.49 227.561 23:39 09.10.2019
463 Rain 28 1009 77 0 5.49 227.561 23:20 09.10.2019
464 Rain 28 1009 77 0 5.49 227.561 22:43 09.10.2019
465 Rain 28 1009 77 0 5.49 227.561 22:24 09.10.2019
466 Rain 28 1009 77 0 5.49 227.561 21:59 09.10.2019
467 Rain 28 1009 77 0 5.49 227.561 21:40 09.10.2019
468 Rain 28 1011 78 0 5.15 218.269 21:20 09.10.2019
469 Clouds 28 1011 78 0 4.34 217.442 20:56 09.10.2019
470 Clouds 28 1011 78 0 4.34 217.442 20:56 09.10.2019
471 Clouds 28 1011 78 0 4.34 217.442 20:37 09.10.2019
472 Clouds 28 1011 78 0 4.34 217.442 20:37 09.10.2019
473 Clouds 28 1011 78 0 4.34 217.442 20:18 09.10.2019
474 Clouds 28 1011 78 0 4.34 217.442 19:46 09.10.2019
475 Clouds 28 1011 78 0 4.34 217.442 19:24 09.10.2019
476 Clouds 28 1011 78 0 4.34 217.442 18:58 09.10.2019
477 Clouds 28 1011 78 0 4.34 217.442 18:38 09.10.2019
478 Clouds 28 1011 72 0 3.17 218.295 18:18 09.10.2019
479 Clouds 28 1011 72 0 3.17 218.295 17:56 09.10.2019
480 Clouds 28 1011 72 0 3.17 218.295 17:37 09.10.2019
481 Clouds 28 1011 72 0 3.17 218.295 17:19 09.10.2019
482 Clouds 28 1011 72 0 3.17 218.295 16:42 09.10.2019
483 Clouds 28 1011 72 0 3.17 218.295 16:23 09.10.2019
484 Clouds 28 1011 72 0 3.17 218.295 15:58 09.10.2019
485 Clouds 28 1011 72 0 3.17 218.295 15:39 09.10.2019
486 Clouds 28 1009 70 0 2.92 227.634 15:20 09.10.2019
487 Clouds 28 1009 70 0 2.92 227.634 14:59 09.10.2019
488 Clouds 28 1009 70 0 2.92 227.634 14:41 09.10.2019
489 Clouds 28 1009 70 0 2.92 227.634 14:18 09.10.2019
490 Clouds 28 1009 70 0 2.92 227.634 14:18 09.10.2019
491 Clouds 28 1009 70 0 2.92 227.634 13:40 09.10.2019
492 Clouds 28 1009 71 0 3.14 211.384 13:22 09.10.2019
493 Clouds 28 1009 71 0 3.14 211.384 12:59 09.10.2019
494 Clouds 28 1009 71 0 3.14 211.384 12:41 09.10.2019
495 Clear 28 1009 71 0 3.07 224.432 12:21 09.10.2019
496 Clear 28 1009 71 0 3.07 224.432 11:56 09.10.2019
497 Clear 28 1009 71 0 3.07 224.432 11:37 09.10.2019
498 Clear 28 1009 71 0 3.07 224.432 11:19 09.10.2019
499 Clear 28 1009 71 0 3.07 224.432 10:44 09.10.2019
500 Clear 28 1009 71 0 3.07 224.432 10:22 09.10.2019
501 Clear 28 1009 71 0 3.07 224.432 09:59 09.10.2019
502 Clear 28 1009 71 0 3.07 224.432 09:41 09.10.2019
503 Clouds 28 1011 72 0 2.54 212.638 09:19 09.10.2019
504 Clouds 28 1011 70 0 2.31 219.174 08:43 09.10.2019
505 Clouds 28 1011 70 0 2.31 219.174 08:23 09.10.2019
506 Clouds 28 1011 70 0 2.31 219.174 07:59 09.10.2019
507 Clouds 28 1011 70 0 2.31 219.174 07:39 09.10.2019
508 Clouds 28 1011 70 0 2.31 219.174 07:21 09.10.2019
509 Clouds 28 1011 70 0 2.31 219.174 06:52 09.10.2019
510 Clouds 28 1011 70 0 2.31 219.174 06:52 09.10.2019
511 Clouds 28 1012 70 0 1.64 210.231 06:19 09.10.2019
512 Clouds 28 1012 70 0 1.64 210.231 05:44 09.10.2019
513 Clouds 28 1012 70 0 1.64 210.231 04:26 09.10.2019
514 Clouds 28 1010 72 0 2.75 201.021 02:53 09.10.2019
515 Clouds 28 1010 72 0 2.75 201.021 01:44 09.10.2019
516 Clouds 28 1010 73 0 2.65 203.738 01:21 09.10.2019
517 Clouds 28 1010 73 0 2.65 203.738 00:57 09.10.2019
518 Clouds 28 1010 73 0 2.65 203.738 00:38 09.10.2019
519 Rain 27 1009 75 0 2.49 200.292 00:20 09.10.2019
520 Rain 27 1009 75 0 2.49 200.292 23:39 08.10.2019
521 Rain 27 1009 75 0 2.49 200.292 23:19 08.10.2019
522 Rain 27 1009 75 0 2.49 200.292 23:19 08.10.2019
523 Rain 27 1009 75 0 2.49 200.292 22:57 08.10.2019
524 Rain 27 1009 75 0 2.49 200.292 22:38 08.10.2019
525 Rain 27 1009 75 0 2.49 200.292 22:19 08.10.2019
526 Rain 27 1009 75 0 2.49 200.292 21:57 08.10.2019
527 Rain 27 1009 75 0 2.49 200.292 21:39 08.10.2019
528 Clouds 28 1012 71 0 1.87 178.009 21:19 08.10.2019
529 Clouds 28 1012 71 0 1.87 178.009 20:56 08.10.2019
530 Clouds 28 1012 71 0 1.87 178.009 20:56 08.10.2019
531 Clouds 28 1012 71 0 2.3 180 20:37 08.10.2019
532 Clouds 28 1012 71 0 2.3 180 20:19 08.10.2019
533 Clouds 28 1012 71 0 2.3 180 19:57 08.10.2019
534 Clouds 28 1012 71 0 2.3 180 19:38 08.10.2019
535 Clouds 28 1012 71 0 2.3 180 19:20 08.10.2019
536 Clouds 28 1012 71 0 2.3 180 18:46 08.10.2019
537 Clouds 28 1012 71 0 2.3 180 18:28 08.10.2019
538 Clouds 28 1012 68 0 1.41 191.82 17:59 08.10.2019
539 Clouds 28 1012 68 0 1.41 191.82 17:40 08.10.2019
540 Clouds 28 1012 68 0 1.41 191.82 17:40 08.10.2019
541 Rain 26 1010 94 9000 2.1 210 17:20 08.10.2019
542 Rain 26 1010 94 9000 2.1 210 16:58 08.10.2019
543 Clouds 28 1012 68 0 1.41 191.82 16:38 08.10.2019
544 Rain 26 1010 88 9000 2.1 190 16:20 08.10.2019
545 Rain 26 1010 88 9000 2.1 190 15:41 08.10.2019
546 Thunderstorm 26 1010 94 6000 5.7 150 15:21 08.10.2019
547 Thunderstorm 26 1010 94 6000 5.7 150 14:58 08.10.2019
548 Clouds 28 1010 67 0 1.24 217.399 14:39 08.10.2019
549 Clouds 30 1009 79 10000 1.5 220 14:20 08.10.2019
550 Clouds 30 1009 79 10000 1.5 220 13:57 08.10.2019
551 Clouds 28 1010 67 0 1.24 217.399 13:38 08.10.2019
552 Clouds 30 1009 70 10000 1.5 220 13:19 08.10.2019
553 Clouds 30 1009 70 10000 1.5 220 12:56 08.10.2019
554 Clouds 28 1010 69 0 1.23 172.95 12:37 08.10.2019
555 Clouds 28 1010 69 0 1.23 172.95 12:37 08.10.2019
556 Clouds 30 1009 70 10000 2.1 220 12:18 08.10.2019
557 Clouds 30 1009 70 10000 2.1 220 11:41 08.10.2019
558 Clouds 30 1009 70 10000 2.1 220 11:41 08.10.2019
559 Clouds 30 1010 70 10000 2.6 230 11:23 08.10.2019
560 Clouds 30 1010 70 10000 2.6 230 10:56 08.10.2019
561 Clouds 28 1009 70 0 0.87 171.571 10:37 08.10.2019
562 Clouds 29 1011 74 10000 1 0 10:19 08.10.2019
563 Clouds 29 1011 74 10000 1 0 09:55 08.10.2019
564 Clouds 28 1009 70 0 0.87 171.571 09:37 08.10.2019
565 Clouds 30 1012 70 10000 1.5 180 09:18 08.10.2019
566 Clouds 30 1012 70 10000 1.5 180 08:42 08.10.2019
567 Clouds 30 1012 70 10000 0.5 0 08:23 08.10.2019
568 Clouds 30 1012 70 10000 0.5 0 07:44 08.10.2019
569 Clouds 29 1012 74 10000 1.5 290 07:21 08.10.2019
570 Clouds 29 1012 74 10000 1.5 290 06:50 08.10.2019
571 Clouds 29 1012 74 10000 0.5 0 06:28 08.10.2019
572 Clouds 29 1012 74 10000 0.5 0 05:46 08.10.2019
573 Clouds 29 1012 74 10000 0.5 0 05:46 08.10.2019
574 Clouds 28 1011 78 10000 0.5 0 05:25 08.10.2019
575 Clouds 27 1010 83 10000 0.5 0 04:31 08.10.2019
576 Clouds 27 1010 83 10000 2.1 240 03:27 08.10.2019
577 Clouds 27 1010 69 0 1.44 214.418 02:36 08.10.2019
578 Clouds 27 1009 83 10000 3.1 210 01:45 08.10.2019
579 Clouds 27 1009 83 10000 2.1 210 01:26 08.10.2019
580 Clouds 27 1009 83 10000 2.1 210 00:46 08.10.2019
581 Clouds 27 1010 83 10000 2.1 210 00:20 08.10.2019
582 Clouds 27 1009 70 0 1.41 215.547 23:39 07.10.2019
583 Clouds 27 1011 88 10000 1.41 215.547 23:20 07.10.2019
584 Clouds 27 1011 88 10000 1.41 215.547 22:56 07.10.2019
585 Clouds 27 1009 70 0 1.41 215.547 22:38 07.10.2019
586 Clouds 27 1009 70 0 1.41 215.547 22:38 07.10.2019
587 Clouds 27 1012 88 10000 0.5 0 22:20 07.10.2019
588 Clouds 27 1012 88 10000 0.5 0 21:56 07.10.2019
589 Clouds 27 1009 70 0 1.41 215.547 21:38 07.10.2019
590 Clouds 27 1012 88 10000 1.62 183.427 21:20 07.10.2019
591 Clouds 27 1012 88 10000 1.72 175.504 20:57 07.10.2019
592 Clouds 28 1012 68 0 1.72 175.504 20:39 07.10.2019
593 Clouds 27 1012 88 10000 1 0 20:20 07.10.2019
594 Clouds 27 1012 88 10000 1 0 19:57 07.10.2019
595 Clouds 28 1012 68 0 1.72 175.504 19:39 07.10.2019
596 Clouds 27 1013 83 10000 1 0 19:18 07.10.2019
597 Clouds 27 1013 83 10000 1 0 18:56 07.10.2019
598 Clouds 28 1012 68 0 1.72 175.504 18:38 07.10.2019
599 Clouds 27 1012 83 10000 2.1 230 18:18 07.10.2019
600 Clouds 27 1012 83 10000 2.1 230 17:42 07.10.2019
601 Clouds 28 1011 83 10000 1.5 320 17:20 07.10.2019
602 Clouds 28 1011 83 10000 1.5 320 16:56 07.10.2019
603 Clouds 28 1011 69 0 1.69 159.84 16:38 07.10.2019
604 Clouds 28 1010 83 10000 1 0 16:19 07.10.2019
605 Clouds 28 1011 69 0 1.69 159.84 15:44 07.10.2019
606 Clouds 29 1010 79 10000 1 0 15:25 07.10.2019
607 Clouds 29 1010 79 10000 1 0 14:55 07.10.2019
608 Rain 28 1010 66 0 1.57 94.758 14:37 07.10.2019
609 Clouds 29 1009 79 10000 1.5 150 14:18 07.10.2019
610 Rain 28 1010 66 0 1.57 94.758 13:41 07.10.2019
611 Clouds 28 1009 83 10000 1 0 13:20 07.10.2019
612 Clouds 28 1009 83 10000 1 0 12:55 07.10.2019
613 Rain 28 1010 71 0 3.11 84.612 12:37 07.10.2019
614 Clouds 27 1009 88 10000 1 0 12:19 07.10.2019
615 Clouds 27 1009 88 10000 1 0 11:57 07.10.2019
616 Clouds 26 1011 83 10000 1 0 11:37 07.10.2019
617 Clouds 26 1011 83 10000 1 0 11:18 07.10.2019
618 Rain 28 1009 72 0 0.82 124.021 10:41 07.10.2019
619 Rain 28 1009 72 0 0.82 124.021 10:41 07.10.2019
620 Rain 28 1009 72 0 0.82 124.021 10:41 07.10.2019
621 Rain 28 1009 72 0 0.82 124.021 10:20 07.10.2019
622 Rain 28 1009 72 0 0.82 124.021 10:20 07.10.2019
623 Rain 28 1009 72 0 0.82 124.021 09:42 07.10.2019
624 Rain 28 1009 72 0 0.82 124.021 09:42 07.10.2019
625 Rain 29 1012 79 10000 2.1 130 09:23 07.10.2019
626 Rain 29 1012 79 10000 2.1 130 08:56 07.10.2019
627 Rain 28 1012 72 0 1.22 178.169 08:38 07.10.2019
628 Clouds 28 1013 83 10000 2.1 130 08:19 07.10.2019
629 Rain 28 1012 72 0 1.22 178.169 07:41 07.10.2019
630 Clouds 28 1013 83 10000 2.1 130 07:21 07.10.2019
631 Clouds 28 1013 83 10000 2.1 130 06:49 07.10.2019
632 Clouds 27 1012 88 10000 2.6 120 06:27 07.10.2019
633 Clouds 27 1012 88 10000 2.6 120 05:47 07.10.2019
634 Clouds 28 1011 78 10000 2.6 170 05:21 07.10.2019
635 Clouds 28 1011 78 10000 3.6 160 04:24 07.10.2019
636 Clouds 28 1011 78 10000 3.6 160 03:44 07.10.2019
637 Clouds 28 1011 78 10000 3.6 160 03:44 07.10.2019
638 Clouds 28 1010 83 10000 3.1 210 03:20 07.10.2019
639 Clouds 28 1010 78 10000 2.1 210 02:21 07.10.2019
640 Clouds 28 1010 78 10000 2.1 210 01:50 07.10.2019
641 Rain 28 1010 74 0 5.24 181.006 01:21 07.10.2019
642 Clouds 28 1010 78 10000 2.6 220 00:39 07.10.2019
643 Clouds 28 1010 78 10000 2.6 220 00:20 07.10.2019
644 Clouds 28 1010 78 10000 2.6 220 23:42 06.10.2019
645 Clouds 28 1010 78 10000 2.6 220 23:42 06.10.2019
646 Clouds 28 1010 78 10000 2.6 220 23:42 06.10.2019
647 Clouds 28 1011 78 10000 2.1 210 23:21 06.10.2019
648 Clouds 28 1011 78 10000 2.1 210 22:59 06.10.2019
649 Rain 28 1009 74 0 4.46 169.546 22:41 06.10.2019
650 Clouds 28 1011 78 10000 2.6 210 22:22 06.10.2019
651 Clouds 28 1011 78 10000 2.6 210 21:57 06.10.2019
652 Rain 28 1009 74 0 4.46 169.546 21:38 06.10.2019
653 Rain 28 1009 74 0 4.46 169.546 21:38 06.10.2019
654 Clouds 28 1011 78 10000 4.1 200 21:19 06.10.2019
655 Clouds 28 1011 78 10000 4.1 200 20:58 06.10.2019
656 Rain 28 1012 74 0 4.28 169.204 20:39 06.10.2019
657 Clouds 27 1012 83 10000 4.1 200 20:20 06.10.2019
658 Clouds 27 1012 83 10000 4.1 200 19:57 06.10.2019
659 Clouds 27 1012 83 10000 4.1 200 19:57 06.10.2019
660 Rain 28 1012 74 0 4.28 169.204 19:37 06.10.2019
661 Clouds 28 1012 78 10000 4.1 160 19:19 06.10.2019
662 Clouds 28 1012 78 10000 4.1 160 19:19 06.10.2019
663 Clouds 28 1012 78 10000 4.1 160 18:56 06.10.2019
664 Rain 28 1012 74 0 4.28 169.204 18:38 06.10.2019
665 Clouds 27 1011 88 10000 4.1 190 18:19 06.10.2019
666 Clouds 27 1011 88 10000 4.1 190 17:57 06.10.2019
667 Rain 28 1011 73 0 5.04 172.204 17:38 06.10.2019
668 Clouds 27 1010 83 10000 4.6 200 17:18 06.10.2019
669 Clouds 27 1010 83 10000 4.6 200 17:18 06.10.2019
670 Clouds 27 1010 83 10000 4.6 200 16:42 06.10.2019
671 Clouds 28 1010 78 10000 4.6 150 16:23 06.10.2019
672 Clouds 28 1010 78 10000 4.6 150 15:45 06.10.2019
673 Clouds 28 1009 83 10000 6.2 150 15:23 06.10.2019
674 Clouds 28 1009 83 10000 6.2 150 14:59 06.10.2019
675 Clouds 28 1009 83 10000 6.2 150 14:41 06.10.2019
676 Clouds 28 1009 83 10000 5.1 150 14:23 06.10.2019
677 Clouds 28 1009 83 10000 5.1 150 13:56 06.10.2019
678 Rain 28 1010 74 0 3.55 198.955 13:37 06.10.2019
679 Clouds 29 1009 79 10000 4.1 140 13:19 06.10.2019
680 Clouds 29 1009 79 10000 4.1 140 12:56 06.10.2019
681 Clouds 28 1009 70 0 3.42 207.725 12:37 06.10.2019
682 Rain 29 1009 79 10000 2.6 50 12:19 06.10.2019
683 Rain 29 1009 79 10000 2.6 50 11:43 06.10.2019
684 Rain 31 1012 70 9000 2.6 200 11:25 06.10.2019
685 Rain 31 1012 70 9000 2.6 200 10:58 06.10.2019
686 Clouds 28 1009 68 0 2.98 181.616 10:39 06.10.2019
687 Clouds 31 1012 74 10000 3.1 210 10:21 06.10.2019
688 Clouds 28 1009 68 0 2.98 181.616 09:42 06.10.2019
689 Clouds 31 1011 70 10000 2.1 210 09:21 06.10.2019
690 Clouds 31 1011 70 10000 2.1 210 09:21 06.10.2019
691 Clouds 31 1011 70 10000 2.1 210 08:59 06.10.2019
692 Clouds 28 1012 72 0 3.25 188.608 08:39 06.10.2019
693 Clouds 30 1012 74 10000 2.1 170 08:19 06.10.2019
694 Clouds 30 1012 74 10000 2.1 170 07:42 06.10.2019
695 Clouds 30 1012 74 10000 3.1 190 07:18 06.10.2019
696 Clouds 29 1011 79 10000 3.6 200 06:18 06.10.2019
697 Clouds 29 1011 79 10000 2.1 170 05:27 06.10.2019
698 Clouds 28 1010 83 10000 2.6 210 03:23 06.10.2019
699 Clouds 28 1010 76 0 3.95 226.417 02:40 06.10.2019
700 Clouds 28 1010 76 0 3.95 226.417 02:40 06.10.2019
701 Clouds 27 1010 83 10000 2.6 210 01:57 06.10.2019
702 Clouds 28 1010 76 0 3.95 226.417 01:37 06.10.2019
703 Clouds 27 1009 83 10000 2.6 210 01:18 06.10.2019
704 Clouds 28 1010 75 0 4.32 225.995 00:45 06.10.2019
705 Clouds 28 1009 78 10000 3.6 220 00:21 06.10.2019
706 Clouds 28 1009 78 10000 3.6 220 23:43 05.10.2019
707 Clouds 28 1010 78 10000 4.1 230 23:21 05.10.2019
708 Clouds 28 1010 78 10000 4.1 230 22:57 05.10.2019
709 Clouds 27 1009 76 0 5.42 233.619 22:38 05.10.2019
710 Clouds 27 1009 76 0 5.42 233.619 22:38 05.10.2019
711 Clouds 27 1009 76 0 5.42 233.619 22:38 05.10.2019
712 Clouds 28 1011 78 10000 4.6 230 22:19 05.10.2019
713 Clouds 28 1011 78 10000 4.6 230 21:42 05.10.2019
714 Clouds 28 1011 78 10000 4.6 230 21:42 05.10.2019
715 Clouds 28 1011 83 10000 5.7 240 21:24 05.10.2019
716 Clouds 28 1011 83 10000 5.7 240 20:59 05.10.2019
717 Clouds 28 1011 83 10000 5.7 240 20:59 05.10.2019
718 Rain 27 1012 77 0 4.78 220.873 20:40 05.10.2019
719 Clouds 28 1012 78 10000 6.2 250 20:20 05.10.2019
720 Clouds 28 1012 78 10000 6.2 250 19:58 05.10.2019
721 Clouds 27 1011 83 8000 6.7 250 19:37 05.10.2019
722 Clouds 27 1011 83 8000 6.7 250 19:18 05.10.2019
723 Clouds 27 1011 83 8000 6.7 250 18:55 05.10.2019
724 Rain 27 1012 77 0 4.78 220.873 18:36 05.10.2019
725 Rain 26 1011 88 8000 3.6 250 18:18 05.10.2019
726 Rain 27 1011 78 0 4.64 221.91 17:42 05.10.2019
727 Rain 25 1010 94 6000 3.1 280 17:22 05.10.2019
728 Rain 25 1010 94 6000 3.1 280 16:56 05.10.2019
729 Rain 25 1010 94 6000 3.1 280 16:56 05.10.2019
730 Rain 27 1011 78 0 4.64 221.91 16:37 05.10.2019
731 Rain 25 1010 88 6000 4.6 300 16:19 05.10.2019
732 Rain 25 1010 88 6000 4.6 300 15:56 05.10.2019
733 Rain 27 1011 78 0 4.64 221.91 15:38 05.10.2019
734 Rain 26 1010 88 6000 4.6 240 15:19 05.10.2019
735 Rain 26 1010 88 6000 4.6 240 14:42 05.10.2019
736 Rain 27 1010 74 0 3.47 239.164 14:23 05.10.2019
737 Rain 27 1010 74 0 3.47 239.164 13:44 05.10.2019
738 Rain 27 1010 78 0 2.46 293.611 13:26 05.10.2019
739 Rain 27 1010 78 0 2.46 293.611 13:26 05.10.2019
740 Rain 27 1010 78 0 2.46 293.611 12:59 05.10.2019
741 Rain 27 1010 78 0 2.46 293.611 12:59 05.10.2019
742 Rain 27 1010 78 0 2.46 293.611 12:41 05.10.2019
743 Rain 29 1009 79 9000 3.6 230 12:19 05.10.2019
744 Rain 27 1009 74 0 2.53 295.178 11:41 05.10.2019
745 Rain 27 1009 74 0 2.53 295.178 11:41 05.10.2019
746 Rain 29 1010 74 9000 5.7 220 11:20 05.10.2019
747 Rain 29 1010 74 9000 5.7 220 10:57 05.10.2019
748 Rain 27 1009 74 0 2.53 295.178 10:38 05.10.2019
749 Clouds 30 1011 70 10000 4.1 270 10:20 05.10.2019
750 Rain 27 1009 74 0 2.53 295.178 09:42 05.10.2019
751 Clouds 30 1011 70 10000 3.6 300 09:23 05.10.2019
752 Clouds 30 1011 70 10000 3.6 300 08:56 05.10.2019
753 Clouds 28 1012 72 0 3.15 268.146 08:38 05.10.2019
754 Clouds 30 1012 74 10000 3.1 280 08:18 05.10.2019
755 Clouds 30 1012 74 10000 3.1 280 07:46 05.10.2019
756 Clouds 30 1012 74 10000 3.6 290 07:28 05.10.2019
757 Clouds 30 1012 74 10000 3.6 290 06:56 05.10.2019
758 Clouds 29 1012 74 10000 3.6 260 06:22 05.10.2019
759 Clouds 28 1011 73 0 3.59 269.617 05:39 05.10.2019
760 Clouds 28 1009 78 10000 3.6 290 03:32 05.10.2019
761 Clouds 28 1010 74 0 4.02 276.284 02:38 05.10.2019
762 Clouds 27 1009 83 10000 3.1 290 01:27 05.10.2019
763 Clouds 27 1009 83 10000 3.1 290 00:49 05.10.2019
764 Clouds 27 1009 83 10000 3.1 290 00:49 05.10.2019
765 Clouds 27 1010 88 10000 3.1 260 00:28 05.10.2019
766 Clouds 27 1010 88 10000 3.1 260 23:58 04.10.2019
767 Clouds 27 1009 74 0 3.01 261.019 23:40 04.10.2019
768 Clouds 27 1010 83 10000 2.1 260 23:21 04.10.2019
769 Clouds 27 1010 83 10000 2.1 260 22:56 04.10.2019
770 Clouds 27 1009 74 0 3.01 261.019 22:37 04.10.2019
771 Clouds 27 1009 74 0 3.01 261.019 22:37 04.10.2019
772 Clouds 27 1011 83 10000 5.7 260 22:19 04.10.2019
773 Clouds 27 1009 74 0 3.01 261.019 21:40 04.10.2019
774 Clouds 27 1012 74 10000 4.1 150 21:22 04.10.2019
775 Clouds 27 1012 74 10000 4.1 150 20:59 04.10.2019
776 Clouds 27 1012 74 10000 4.1 150 20:59 04.10.2019
777 Rain 28 1012 74 0 3.31 272.268 20:41 04.10.2019
778 Rain 28 1012 74 0 3.31 272.268 20:22 04.10.2019
779 Rain 28 1012 74 0 3.31 272.268 19:56 04.10.2019
780 Rain 28 1012 74 0 3.31 272.268 19:37 04.10.2019
781 Rain 28 1012 74 0 3.31 272.268 19:19 04.10.2019
782 Rain 28 1012 74 0 3.31 272.268 18:55 04.10.2019
783 Rain 28 1012 74 0 3.31 272.268 18:36 04.10.2019
784 Clouds 28 1011 83 10000 2.6 310 18:18 04.10.2019
785 Rain 28 1011 75 0 3.44 272.981 17:40 04.10.2019
786 Clouds 28 1010 83 10000 2.6 310 17:22 04.10.2019
787 Clouds 28 1010 83 10000 2.6 310 16:58 04.10.2019
788 Rain 28 1011 75 0 3.44 272.981 16:39 04.10.2019
789 Rain 28 1011 75 0 3.44 272.981 16:39 04.10.2019
790 Clouds 28 1010 83 10000 3.1 290 16:18 04.10.2019
791 Clouds 28 1010 83 10000 3.1 290 16:18 04.10.2019
792 Clouds 28 1010 83 10000 3.1 290 16:18 04.10.2019
793 Clouds 28 1010 83 10000 3.1 290 15:56 04.10.2019
794 Rain 28 1011 75 0 3.44 272.981 15:37 04.10.2019
795 Clouds 29 1009 79 10000 3.1 300 15:19 04.10.2019
796 Rain 28 1010 72 0 2.92 287.158 14:55 04.10.2019
797 Clouds 29 1009 79 10000 3.1 300 14:37 04.10.2019
798 Clouds 29 1009 79 10000 3.1 300 14:19 04.10.2019
799 Clouds 29 1009 79 10000 3.1 300 13:44 04.10.2019
800 Clouds 30 1009 74 10000 3.1 300 13:21 04.10.2019
801 Clouds 30 1009 74 10000 3.1 300 12:47 04.10.2019
802 Clouds 29 1010 74 10000 2.6 310 12:29 04.10.2019
803 Clouds 29 1010 74 10000 2.6 310 11:59 04.10.2019
804 Clouds 28 1009 68 0 3.26 253.808 11:41 04.10.2019
805 Clouds 29 1011 74 10000 2.6 320 11:20 04.10.2019
806 Clouds 29 1011 74 10000 2.6 320 11:20 04.10.2019
807 Clouds 29 1011 74 10000 2.6 320 10:41 04.10.2019
808 Clouds 29 1012 74 10000 1.5 290 10:21 04.10.2019
809 Clouds 29 1012 74 10000 1.5 290 09:50 04.10.2019
810 Clouds 29 1012 79 10000 2.6 290 09:31 04.10.2019
811 Clouds 29 1012 79 10000 2.6 290 08:57 04.10.2019
812 Clouds 28 1012 65 0 1.66 244.532 08:38 04.10.2019
813 Clouds 28 1012 65 0 1.66 244.532 08:38 04.10.2019
814 Clouds 29 1013 79 10000 2.6 290 08:20 04.10.2019
815 Clouds 29 1013 79 10000 2.6 290 07:46 04.10.2019
816 Clouds 29 1014 79 10000 2.6 250 07:23 04.10.2019
817 Clouds 29 1014 79 10000 2.6 250 06:47 04.10.2019
818 Clouds 28 1013 78 10000 2.6 250 06:27 04.10.2019
819 Clouds 28 1013 78 10000 2.6 250 05:52 04.10.2019
820 Clouds 27 1012 83 10000 2.6 220 05:19 04.10.2019
821 Clouds 27 1012 83 10000 3.1 230 03:56 04.10.2019
822 Clouds 27 1011 83 10000 2.6 230 02:54 04.10.2019
823 Clouds 26 1010 88 10000 2.1 210 02:21 04.10.2019
824 Clouds 26 1010 88 10000 2.1 210 01:43 04.10.2019
825 Clouds 27 1010 83 10000 2.6 210 01:24 04.10.2019
826 Clouds 26 1011 88 10000 4.6 150 00:18 04.10.2019
827 Rain 28 1010 71 0 1.96 165.27 23:37 03.10.2019
828 Clouds 27 1012 83 10000 1.5 130 23:18 03.10.2019
829 Clouds 27 1012 83 10000 1.5 130 22:57 03.10.2019
830 Clouds 27 1012 83 10000 1.5 130 22:57 03.10.2019
831 Rain 28 1010 71 0 1.96 165.27 22:39 03.10.2019
832 Clouds 28 1013 83 10000 1.5 200 22:21 03.10.2019
833 Clouds 28 1013 83 10000 1.5 200 22:21 03.10.2019
834 Clouds 28 1013 83 10000 1.5 200 21:56 03.10.2019
835 Rain 28 1010 71 0 1.96 165.27 21:37 03.10.2019
836 Clouds 28 1014 83 10000 1.5 210 21:19 03.10.2019
837 Clouds 28 1014 83 10000 1.5 210 20:56 03.10.2019
838 Clouds 28 1014 83 10000 1.5 210 20:56 03.10.2019
839 Rain 28 1012 75 0 2.82 140.288 20:37 03.10.2019
840 Rain 28 1012 75 0 2.82 140.288 20:37 03.10.2019
841 Clouds 27 1013 88 10000 1 0 20:19 03.10.2019
842 Clouds 27 1013 88 10000 1 0 19:55 03.10.2019
843 Clouds 27 1013 88 10000 1 0 19:55 03.10.2019
844 Rain 28 1012 75 0 2.82 140.288 19:36 03.10.2019
845 Clouds 27 1013 83 10000 2.1 210 19:18 03.10.2019
846 Rain 28 1012 75 0 2.82 140.288 18:40 03.10.2019
847 Clouds 27 1012 83 10000 2.1 270 18:19 03.10.2019
848 Clouds 27 1012 83 10000 2.1 270 18:19 03.10.2019
849 Clouds 27 1012 83 10000 2.1 270 18:19 03.10.2019
850 Clouds 27 1012 83 10000 2.1 270 17:59 03.10.2019
851 Rain 29 1012 74 0 2.11 115.074 17:41 03.10.2019
852 Clouds 27 1011 83 10000 1 0 17:20 03.10.2019
853 Clouds 27 1011 83 10000 1 0 16:44 03.10.2019
854 Clouds 27 1011 83 10000 1.5 240 16:26 03.10.2019
855 Clouds 27 1011 83 10000 1.5 240 15:57 03.10.2019
856 Rain 29 1012 74 0 2.11 115.074 15:39 03.10.2019
857 Clouds 28 1011 83 10000 2.6 250 15:21 03.10.2019
858 Clouds 28 1011 83 10000 2.6 250 14:47 03.10.2019
859 Clouds 27 1010 88 10000 0.5 0 14:27 03.10.2019
860 Clouds 27 1010 88 10000 0.5 0 13:59 03.10.2019
861 Clouds 29 1010 62 0 1.87 111.847 13:41 03.10.2019
862 Clouds 27 1010 83 10000 0.5 0 13:19 03.10.2019
863 Clouds 27 1010 83 10000 0.5 0 12:57 03.10.2019
864 Clouds 29 1010 63 0 1.68 124.391 12:38 03.10.2019
865 Clouds 29 1009 65 0 1.78 71.912 12:19 03.10.2019
866 Clouds 29 1009 65 0 1.78 71.912 11:42 03.10.2019
867 Rain 28 1011 78 10000 1.5 340 11:23 03.10.2019
868 Rain 28 1011 78 10000 1.5 340 10:59 03.10.2019
869 Clouds 29 1009 65 0 1.78 71.912 10:40 03.10.2019
870 Clouds 28 1012 83 10000 0.5 0 10:19 03.10.2019
871 Clouds 28 1012 83 10000 0.5 0 10:19 03.10.2019
872 Clouds 28 1012 83 10000 0.5 0 09:58 03.10.2019
873 Clouds 29 1009 65 0 1.78 71.912 09:40 03.10.2019
874 Rain 27 1013 94 8000 2.1 140 09:21 03.10.2019
875 Rain 27 1013 94 8000 2.1 140 08:46 03.10.2019
876 Clouds 28 1014 78 10000 2.1 360 08:27 03.10.2019
877 Clouds 28 1014 78 10000 2.1 360 07:59 03.10.2019
878 Clouds 28 1014 78 10000 2.1 360 07:59 03.10.2019
879 Rain 29 1013 68 0 2.64 74.081 07:41 03.10.2019
880 Rain 29 1013 68 0 2.64 74.081 07:19 03.10.2019
881 Rain 29 1013 68 0 2.64 74.081 06:50 03.10.2019
882 Thunderstorm 27 1013 94 9000 1.5 80 06:24 03.10.2019
883 Thunderstorm 27 1013 94 9000 1.5 80 05:46 03.10.2019
884 Rain 28 1012 72 0 3.33 66.544 05:20 03.10.2019
885 Clouds 27 1011 88 10000 2.6 20 04:31 03.10.2019
886 Clouds 27 1010 88 10000 3.1 290 03:24 03.10.2019
887 Rain 28 1010 75 0 3.79 62.109 02:39 03.10.2019
888 Rain 28 1010 75 0 3.79 62.109 01:52 03.10.2019
889 Thunderstorm 26 1010 94 10000 0.5 0 01:33 03.10.2019
890 Thunderstorm 26 1010 94 10000 0.5 0 00:49 03.10.2019
891 Thunderstorm 26 1010 94 10000 1 0 00:19 03.10.2019
892 Thunderstorm 26 1010 94 10000 1 0 23:43 02.10.2019
893 Thunderstorm 26 1010 94 10000 4.68 109.557 23:22 02.10.2019
894 Thunderstorm 26 1010 94 10000 4.68 109.557 22:44 02.10.2019
895 Rain 28 1010 77 0 4.68 109.557 22:22 02.10.2019
896 Rain 28 1010 77 0 4.68 109.557 21:58 02.10.2019
897 Rain 28 1010 77 0 4.68 109.557 21:39 02.10.2019
898 Thunderstorm 28 1012 83 10000 2.6 70 21:20 02.10.2019
899 Thunderstorm 28 1012 83 10000 2.6 70 20:57 02.10.2019
900 Rain 28 1012 78 0 6.42 114.401 20:38 02.10.2019
901 Thunderstorm 28 1012 83 10000 3.1 60 20:20 02.10.2019
902 Thunderstorm 28 1012 83 10000 3.1 60 19:56 02.10.2019
903 Rain 28 1012 78 0 6.42 114.401 19:38 02.10.2019
904 Rain 28 1012 78 0 6.42 114.401 19:19 02.10.2019
905 Rain 28 1012 78 0 6.42 114.401 18:56 02.10.2019
906 Rain 28 1012 78 0 6.42 114.401 18:38 02.10.2019
907 Clouds 28 1012 83 10000 2.6 30 18:19 02.10.2019
908 Clouds 28 1012 83 10000 2.6 30 17:43 02.10.2019
909 Clouds 28 1010 83 10000 4.1 30 17:21 02.10.2019
910 Clouds 28 1010 83 10000 4.1 30 17:21 02.10.2019
911 Clouds 28 1010 83 10000 4.1 30 17:21 02.10.2019
912 Clouds 28 1010 83 10000 4.1 30 16:59 02.10.2019
913 Clouds 28 1010 83 10000 4.1 30 16:41 02.10.2019
914 Clouds 27 1010 83 10000 1.5 90 16:21 02.10.2019
915 Clouds 27 1010 83 10000 1.5 90 15:57 02.10.2019
916 Rain 28 1011 77 0 6.34 127.36 15:38 02.10.2019
917 Clouds 28 1009 83 10000 1 0 15:19 02.10.2019
918 Clouds 28 1009 83 10000 1 0 14:56 02.10.2019
919 Rain 28 1010 76 0 6.01 126.095 14:38 02.10.2019
920 Clouds 28 1009 83 9000 3.6 130 14:19 02.10.2019
921 Clouds 28 1009 83 9000 3.6 130 13:43 02.10.2019
922 Clouds 28 1009 83 9000 3.6 130 13:23 02.10.2019
923 Rain 28 1010 78 0 5.72 125.554 12:56 02.10.2019
924 Rain 28 1010 78 0 5.72 125.554 12:37 02.10.2019
925 Rain 28 1010 78 0 5.72 125.554 12:37 02.10.2019
926 Thunderstorm 26 1010 94 7000 7.2 60 12:18 02.10.2019
927 Rain 28 1009 80 0 5.95 115.459 11:43 02.10.2019
928 Rain 28 1009 80 0 5.95 115.459 11:22 02.10.2019
929 Rain 28 1009 80 0 5.95 115.459 10:42 02.10.2019
930 Clouds 31 1011 74 10000 4.6 90 10:20 02.10.2019
931 Clouds 31 1011 74 10000 4.6 90 09:57 02.10.2019
932 Clouds 31 1012 74 10000 5.7 100 09:36 02.10.2019
933 Clouds 31 1012 74 10000 5.7 100 09:18 02.10.2019
934 Rain 28 1012 78 0 4.32 107.689 08:43 02.10.2019
935 Clouds 31 1012 74 10000 5.1 100 08:22 02.10.2019
936 Clouds 31 1012 74 10000 5.1 100 07:56 02.10.2019
937 Clouds 31 1012 74 10000 5.1 100 07:56 02.10.2019
938 Clouds 31 1012 74 10000 5.1 100 07:37 02.10.2019
939 Clouds 30 1012 74 10000 4.6 120 07:19 02.10.2019
940 Clouds 30 1012 74 10000 4.6 120 06:31 02.10.2019
941 Clouds 30 1012 74 10000 3.1 110 05:52 02.10.2019
942 Clouds 29 1011 79 10000 2.6 110 05:23 02.10.2019
943 Rain 28 1012 78 0 5.32 91.184 04:43 02.10.2019
944 Clouds 28 1010 83 10000 2.1 110 03:51 02.10.2019
945 Clouds 28 1010 79 0 5.67 115.752 02:40 02.10.2019
946 Clouds 28 1009 83 10000 3.6 80 02:22 02.10.2019
947 Clouds 28 1010 76 0 5.51 127.028 01:21 02.10.2019
948 Clouds 28 1010 76 0 5.51 127.028 00:43 02.10.2019
949 Clouds 28 1009 83 10000 6.2 120 00:23 02.10.2019
950 Clouds 28 1009 75 0 6.65 102.382 23:42 01.10.2019
951 Clouds 28 1010 83 10000 6.2 140 23:24 01.10.2019
952 Clouds 28 1010 83 10000 6.2 140 22:58 01.10.2019
953 Clouds 28 1009 75 0 6.65 102.382 22:39 01.10.2019
954 Clouds 28 1011 78 10000 6.2 140 22:19 01.10.2019
955 Clouds 28 1011 78 10000 6.2 140 21:55 01.10.2019
956 Clouds 28 1012 78 10000 6.2 110 21:36 01.10.2019
957 Clouds 28 1012 78 10000 6.2 110 21:18 01.10.2019
958 Clouds 28 1012 78 10000 6.2 110 20:54 01.10.2019
959 Clouds 28 1012 78 10000 5.7 120 20:36 01.10.2019
960 Clouds 28 1012 78 10000 5.7 120 20:18 01.10.2019
961 Clouds 28 1012 76 0 7.89 123.841 19:43 01.10.2019
962 Clouds 28 1012 78 10000 5.7 120 19:24 01.10.2019
963 Clouds 28 1012 78 10000 5.7 120 18:58 01.10.2019
964 Clouds 28 1012 78 10000 5.7 120 18:39 01.10.2019
965 Clouds 28 1011 78 10000 4.6 120 18:21 01.10.2019
966 Clouds 28 1011 78 10000 4.6 120 17:55 01.10.2019
967 Clouds 28 1011 78 10000 4.6 120 17:54 01.10.2019
968 Clouds 28 1011 76 0 8.08 127.647 17:36 01.10.2019
969 Clouds 28 1011 76 0 8.08 127.647 17:36 01.10.2019
970 Clouds 28 1010 78 10000 4.6 120 17:18 01.10.2019
971 Clouds 28 1011 76 0 8.08 127.647 16:41 01.10.2019
972 Clouds 28 1011 76 0 8.08 127.647 16:41 01.10.2019
973 Clouds 28 1009 78 10000 4.1 120 16:22 01.10.2019
974 Clouds 28 1009 78 10000 4.1 120 15:59 01.10.2019
975 Clouds 28 1011 76 0 8.08 127.647 15:40 01.10.2019
976 Clouds 29 1009 74 10000 4.6 120 15:21 01.10.2019
977 Clouds 28 1010 70 0 5.58 125.509 14:40 01.10.2019
978 Clouds 29 1009 79 10000 5.7 130 14:20 01.10.2019
979 -273 0 0 0 0 0 13:57 01.10.2019
980 Clouds 28 1010 70 0 5.58 125.509 13:38 01.10.2019
981 Clouds 30 1009 74 10000 6.2 130 13:18 01.10.2019
982 Clouds 30 1009 74 10000 6.2 130 12:56 01.10.2019
983 Clouds 30 1009 74 10000 6.2 130 12:37 01.10.2019
984 Clouds 30 1009 74 10000 6.2 130 12:18 01.10.2019
985 Clouds 30 1010 70 10000 7.2 140 11:56 01.10.2019
986 Clouds 29 1010 65 0 2.23 133.005 11:37 01.10.2019
987 Clouds 31 1010 70 10000 7.2 150 11:18 01.10.2019
988 Clouds 31 1010 70 10000 7.2 150 10:47 01.10.2019
989 Clouds 31 1010 70 10000 7.2 150 10:28 01.10.2019
990 Clouds 30 1011 58 10000 5.7 140 09:46 01.10.2019
991 Clouds 30 1012 74 10000 5.7 140 09:26 01.10.2019
992 Clouds 28 1013 66 0 2.48 145.22 08:46 01.10.2019
993 Clouds 29 1013 79 10000 4.6 140 08:27 01.10.2019
994 Clouds 29 1013 79 10000 4.6 140 07:58 01.10.2019
995 Clouds 29 1013 79 10000 4.6 140 07:40 01.10.2019
996 Clouds 29 1013 79 10000 4.6 140 07:20 01.10.2019
997 Clouds 28 1013 83 10000 5.1 150 06:42 01.10.2019
998 Clouds 28 1013 78 10000 5.1 150 06:18 01.10.2019
999 Rain 28 1013 73 0 5.69 177.161 05:44 01.10.2019
1000 Rain 28 1013 73 0 5.69 177.161 04:42 01.10.2019
1001 Rain 26 1011 83 9000 3.6 130 03:46 01.10.2019
1002 Rain 26 1011 94 9000 2.1 110 02:20 01.10.2019
1003 Rain 26 1011 94 9000 2.1 110 01:56 01.10.2019
1004 Rain 26 1011 94 9000 2.1 110 01:56 01.10.2019
1005 Rain 26 1011 88 10000 2.1 60 00:52 01.10.2019
1006 Rain 26 1011 88 10000 2.1 60 00:25 01.10.2019
1007 Rain 26 1010 84 0 6.54 139.131 23:42 30.09.2019
1008 Clouds 26 1012 88 10000 4.1 290 23:23 30.09.2019
1009 Clouds 26 1012 88 10000 4.1 290 22:59 30.09.2019
1010 Rain 26 1010 84 0 6.54 139.131 22:40 30.09.2019
1011 Clouds 27 1013 83 10000 1.5 250 22:21 30.09.2019
1012 Clouds 27 1013 83 10000 1.5 250 21:55 30.09.2019
1013 Clouds 27 1013 83 10000 2.6 210 21:37 30.09.2019
1014 Clouds 27 1013 83 10000 2.6 210 21:19 30.09.2019
1015 Clouds 27 1013 83 10000 2.6 210 20:55 30.09.2019
1016 Rain 28 1013 74 0 3.42 140.617 20:37 30.09.2019
1017 Rain 28 1013 74 0 3.42 140.617 20:37 30.09.2019
1018 Rain 28 1013 74 0 3.42 140.617 20:19 30.09.2019
1019 Rain 28 1013 74 0 3.42 140.617 20:19 30.09.2019
1020 Rain 28 1013 74 0 3.42 140.617 19:55 30.09.2019
1021 Rain 28 1013 74 0 3.42 140.617 19:55 30.09.2019
1022 Rain 28 1013 74 0 3.42 140.617 19:37 30.09.2019
1023 Rain 28 1013 74 0 3.42 140.617 19:18 30.09.2019
1024 Rain 28 1013 74 0 3.42 140.617 19:18 30.09.2019
1025 Rain 28 1013 74 0 3.42 140.617 18:41 30.09.2019
1026 Clouds 27 1012 83 10000 3.6 180 18:22 30.09.2019
1027 Clouds 27 1012 83 10000 3.6 180 17:58 30.09.2019
1028 Clouds 28 1012 70 0 1.85 181.77 17:39 30.09.2019
1029 Clouds 26 1012 88 10000 6.2 150 17:21 30.09.2019
1030 Clouds 26 1012 88 10000 6.2 150 16:55 30.09.2019
1031 Clouds 28 1012 70 0 1.85 181.77 16:36 30.09.2019
1032 Clouds 28 1011 83 10000 3.1 130 16:18 30.09.2019
1033 Clouds 28 1011 83 10000 3.1 130 15:54 30.09.2019
1034 Clouds 28 1010 83 10000 2.1 120 15:36 30.09.2019
1035 Clouds 28 1010 83 10000 2.1 120 15:18 30.09.2019
1036 Clouds 28 1010 83 10000 2.1 120 14:54 30.09.2019
1037 Clouds 28 1010 83 10000 4.1 90 14:36 30.09.2019
1038 Clouds 28 1010 83 10000 4.1 90 14:18 30.09.2019
1039 Clouds 28 1010 83 10000 4.1 90 13:43 30.09.2019
1040 Clouds 28 1010 83 10000 4.1 90 13:22 30.09.2019
1041 Clouds 28 1010 83 10000 4.6 80 12:57 30.09.2019
1042 Clouds 28 1010 83 10000 4.6 80 12:38 30.09.2019
1043 Clouds 29 1010 74 9000 3.6 140 12:18 30.09.2019
1044 Rain 28 1010 71 0 2.98 157.827 11:43 30.09.2019
1045 Clouds 30 1011 70 10000 5.1 150 11:21 30.09.2019
1046 Clouds 30 1011 70 10000 5.1 150 10:58 30.09.2019
1047 Rain 28 1010 71 0 2.98 157.827 10:38 30.09.2019
1048 Clouds 30 1012 70 10000 2.6 110 10:18 30.09.2019
1049 Clouds 30 1012 70 10000 2.6 110 09:57 30.09.2019
1050 Rain 28 1010 71 0 2.98 157.827 09:38 30.09.2019
1051 Clouds 30 1013 70 10000 2.6 90 09:18 30.09.2019
1052 Clouds 30 1013 70 10000 2.6 90 08:46 30.09.2019
1053 Clouds 30 1013 70 10000 3.6 100 08:27 30.09.2019
1054 Clouds 30 1013 70 10000 3.6 100 07:42 30.09.2019
1055 Clouds 29 1013 74 10000 3.6 100 07:20 30.09.2019
1056 Clouds 29 1013 74 10000 3.6 100 06:50 30.09.2019
1057 Clouds 29 1013 74 10000 3.6 100 06:31 30.09.2019
1058 Rain 28 1013 71 0 2.37 100.892 05:45 30.09.2019
1059 Clouds 26 1010 88 10000 2.6 140 02:55 30.09.2019
1060 Rain 27 1010 79 0 3.28 12.362 02:37 30.09.2019
1061 Rain 26 1010 88 10000 2.1 150 01:31 30.09.2019
1062 Clouds 26 1010 88 10000 2.6 120 00:38 30.09.2019
1063 Clouds 26 1010 88 10000 2.6 120 00:20 30.09.2019
1064 Rain 27 1011 77 0 4.23 23.35 23:44 29.09.2019
1065 Rain 25 1012 94 9000 4.1 50 23:21 29.09.2019
1066 Rain 25 1012 94 9000 4.1 50 22:55 29.09.2019
1067 Rain 25 1012 94 9000 4.1 50 22:55 29.09.2019
1068 Rain 27 1012 83 10000 4.1 20 22:36 29.09.2019
1069 Rain 27 1012 83 10000 4.1 20 22:18 29.09.2019
1070 Rain 27 1012 83 10000 4.1 20 21:56 29.09.2019
1071 Rain 27 1011 77 0 4.23 23.35 21:37 29.09.2019
1072 Rain 27 1011 77 0 4.23 23.35 21:37 29.09.2019
1073 Clouds 27 1013 88 10000 2.6 110 21:18 29.09.2019
1074 Rain 26 1013 80 0 4.72 9.275 20:43 29.09.2019
1075 Clouds 27 1013 88 10000 2.6 100 20:20 29.09.2019
1076 Clouds 27 1013 88 10000 2.6 100 19:58 29.09.2019
1077 Clouds 27 1013 88 10000 2.6 100 19:37 29.09.2019
1078 Clouds 27 1012 83 10000 2.1 60 19:19 29.09.2019
1079 Clouds 27 1012 83 10000 2.1 60 18:55 29.09.2019
1080 Clouds 27 1012 83 10000 2.1 60 18:37 29.09.2019
1081 Clouds 27 1012 83 10000 2.1 60 18:19 29.09.2019
1082 Clouds 26 1012 88 10000 2.6 30 17:56 29.09.2019
1083 Rain 27 1012 77 0 3.45 21.394 17:38 29.09.2019
1084 Rain 27 1011 83 8000 1.5 30 17:19 29.09.2019
1085 Rain 27 1011 83 8000 1.5 30 16:57 29.09.2019
1086 Rain 27 1011 83 8000 1.5 30 16:57 29.09.2019
1087 Rain 27 1012 77 0 3.45 21.394 16:39 29.09.2019
1088 Rain 26 1011 88 8000 2.1 70 16:18 29.09.2019
1089 Rain 27 1012 77 0 3.45 21.394 15:41 29.09.2019
1090 Rain 27 1010 78 8000 1 0 15:20 29.09.2019
1091 Rain 27 1010 78 8000 1 0 14:59 29.09.2019
1092 Clouds 27 1011 70 0 0.86 287.589 14:40 29.09.2019
1093 Clouds 27 1010 78 10000 0.5 0 14:20 29.09.2019
1094 Clouds 27 1010 78 10000 0.5 0 13:57 29.09.2019
1095 Clouds 27 1010 78 10000 0.5 0 13:39 29.09.2019
1096 Clouds 27 1010 78 10000 2.1 340 13:19 29.09.2019
1097 Clouds 27 1010 78 10000 2.1 340 12:57 29.09.2019
1098 Clouds 27 1010 78 10000 2.1 340 12:39 29.09.2019
1099 Clouds 27 1010 78 10000 2.1 340 12:39 29.09.2019
1100 Clouds 27 1010 78 10000 2.1 340 12:21 29.09.2019
1101 Rain 24 1010 100 8000 1.5 290 11:55 29.09.2019
1102 Rain 25 1012 94 7000 2.1 60 11:37 29.09.2019
1103 Rain 25 1012 94 7000 2.1 60 11:18 29.09.2019
1104 Rain 25 1012 94 7000 2.1 60 10:55 29.09.2019
1105 Rain 24 1013 100 6000 2.1 80 10:36 29.09.2019
1106 Rain 24 1013 100 6000 2.1 80 10:18 29.09.2019
1107 Rain 28 1010 69 0 2.12 1.915 09:43 29.09.2019
1108 Rain 28 1013 72 0 3.9 26.893 09:20 29.09.2019
1109 Rain 28 1013 72 0 3.9 26.893 08:57 29.09.2019
1110 Rain 28 1013 72 0 3.54 21.429 08:37 29.09.2019
1111 Clouds 28 1014 78 10000 5.1 80 08:18 29.09.2019
1112 Clouds 28 1014 78 10000 5.1 80 07:41 29.09.2019
1113 Clouds 28 1014 78 10000 5.1 80 07:22 29.09.2019
1114 Clouds 29 1013 79 10000 3.1 70 06:42 29.09.2019
1115 Clouds 29 1012 79 10000 1.5 40 04:56 29.09.2019
1116 Clouds 28 1011 83 10000 1 0 04:25 29.09.2019
1117 Clouds 28 1011 83 10000 1 0 03:49 29.09.2019
1118 Rain 28 1011 70 0 2.55 17.439 02:28 29.09.2019
1119 Rain 28 1011 70 0 2.55 17.439 01:51 29.09.2019
1120 Rain 28 1011 70 0 2.69 62.3 01:29 29.09.2019
1121 Rain 28 1011 70 0 2.69 62.3 00:42 29.09.2019
1122 Clouds 28 1011 83 10000 1.5 20 00:19 29.09.2019
1123 Rain 28 1011 69 0 2.34 84.418 23:42 28.09.2019
1124 Rain 28 1011 69 0 2.34 84.418 23:22 28.09.2019
1125 Rain 28 1011 69 0 2.34 84.418 22:56 28.09.2019
1126 Rain 28 1011 69 0 2.34 84.418 22:37 28.09.2019
1127 Clouds 29 1012 79 10000 1.5 20 22:19 28.09.2019
1128 Clouds 29 1012 79 10000 1.5 20 21:55 28.09.2019
1129 Clouds 29 1012 79 10000 1.5 20 21:55 28.09.2019
1130 Rain 28 1011 69 0 2.34 84.418 21:36 28.09.2019
1131 Clouds 29 1013 79 10000 1.5 20 21:18 28.09.2019
1132 Clouds 29 1013 79 10000 1.5 20 20:55 28.09.2019
1133 Clouds 29 1014 74 10000 2.1 30 20:36 28.09.2019
1134 Clouds 29 1014 74 10000 2.1 30 20:18 28.09.2019
1135 Clouds 29 1014 74 10000 2.1 30 19:54 28.09.2019
1136 Clouds 29 1014 74 10000 2.1 30 19:36 28.09.2019
1137 Clouds 28 1013 83 10000 2.1 30 19:18 28.09.2019
1138 Clouds 28 1013 83 10000 2.1 30 18:41 28.09.2019
1139 Clouds 28 1013 83 10000 2.1 30 18:21 28.09.2019
1140 Clouds 29 1012 74 10000 2.1 40 17:59 28.09.2019
1141 Clouds 29 1012 70 0 2.68 93.418 17:40 28.09.2019
1142 Clouds 29 1012 74 10000 2.1 30 17:21 28.09.2019
1143 Clouds 29 1012 74 10000 2.1 30 16:49 28.09.2019
1144 Clouds 30 1011 70 10000 2.6 20 16:29 28.09.2019
1145 Clouds 30 1011 70 10000 2.6 20 15:59 28.09.2019
1146 Clouds 29 1012 70 0 2.68 93.418 15:39 28.09.2019
1147 Clouds 29 1012 70 0 2.68 93.418 15:39 28.09.2019
1148 Clouds 30 1010 66 10000 3.1 20 15:21 28.09.2019
1149 Clouds 30 1010 66 10000 3.1 20 14:54 28.09.2019
1150 Clouds 30 1010 70 10000 2.1 20 14:36 28.09.2019
1151 Clouds 30 1010 70 10000 2.1 20 14:18 28.09.2019
1152 Clouds 30 1010 70 10000 2.1 20 14:18 28.09.2019
1153 Clouds 29 1011 68 0 2.33 60.167 13:43 28.09.2019
1154 Clouds 30 1010 70 10000 2.1 360 13:20 28.09.2019
1155 Clouds 30 1010 70 10000 2.1 360 12:55 28.09.2019
1156 Clouds 30 1010 70 10000 2.1 360 12:36 28.09.2019
1157 Clouds 30 1010 74 10000 2.1 340 12:18 28.09.2019
1158 Rain 28 1010 73 0 3.4 97.665 11:40 28.09.2019
1159 Clouds 30 1011 70 10000 2.1 340 11:20 28.09.2019
1160 Rain 28 1010 73 0 3.4 97.665 10:44 28.09.2019
1161 Clouds 30 1012 74 10000 2.6 350 10:21 28.09.2019
1162 Clouds 30 1012 74 10000 2.6 350 09:59 28.09.2019
1163 Rain 28 1010 73 0 3.4 97.665 09:40 28.09.2019
1164 Clouds 30 1013 74 10000 1.5 340 09:19 28.09.2019
1165 Clouds 30 1013 74 10000 1.5 340 09:19 28.09.2019
1166 Clouds 30 1013 74 10000 1.5 340 08:48 28.09.2019
1167 Clouds 30 1014 74 10000 1.5 30 08:29 28.09.2019
1168 Clouds 30 1014 74 10000 1.5 30 07:57 28.09.2019
1169 Clouds 30 1014 74 10000 1.5 30 07:38 28.09.2019
1170 Clouds 30 1014 70 10000 1.5 30 07:19 28.09.2019
1171 Clouds 30 1014 70 10000 1.5 30 06:40 28.09.2019
1172 Clouds 30 1014 70 10000 1.5 30 06:21 28.09.2019
1173 Clouds 29 1012 74 10000 2.6 70 05:25 28.09.2019
1174 Clouds 29 1012 74 10000 2.6 70 04:56 28.09.2019
1175 Clouds 27 1012 88 10000 2.6 90 04:30 28.09.2019
1176 Rain 29 1013 70 0 2.66 24.094 03:42 28.09.2019
1177 Clouds 27 1011 88 10000 2.6 90 02:59 28.09.2019
1178 Clouds 29 1012 69 0 2.3 59.37 02:40 28.09.2019
1179 Clouds 29 1012 69 0 2.3 59.37 02:22 28.09.2019
1180 Clouds 29 1012 69 0 2.3 59.37 01:43 28.09.2019
1181 Thunderstorm 27 1011 88 10000 2.6 90 01:19 28.09.2019
1182 Thunderstorm 27 1011 88 10000 2.6 90 00:46 28.09.2019
1183 Thunderstorm 27 1011 88 10000 2.6 90 00:28 28.09.2019
1184 Clouds 28 1011 71 0 2.83 89.777 23:39 27.09.2019
1185 Clouds 28 1013 78 10000 4.1 100 23:21 27.09.2019
1186 Clouds 28 1013 78 10000 4.1 100 22:56 27.09.2019
1187 Clouds 28 1011 71 0 2.83 89.777 22:37 27.09.2019
1188 Clouds 28 1011 71 0 2.83 89.777 22:18 27.09.2019
1189 Clouds 28 1011 71 0 2.83 89.777 21:41 27.09.2019
1190 Clouds 28 1014 78 10000 4.6 80 21:21 27.09.2019
1191 Clouds 28 1014 78 10000 4.6 80 20:59 27.09.2019
1192 Rain 29 1013 74 0 4.16 84.155 20:40 27.09.2019
1193 Clouds 28 1014 78 10000 4.6 80 20:20 27.09.2019
1194 Clouds 28 1014 78 10000 4.6 80 19:58 27.09.2019
1195 Clouds 28 1014 78 10000 4.6 80 19:39 27.09.2019
1196 Clouds 28 1014 78 10000 4.6 80 19:39 27.09.2019
1197 Clouds 28 1014 78 10000 4.6 80 19:20 27.09.2019
1198 Clouds 28 1012 74 10000 4.1 90 18:43 27.09.2019
1199 Clouds 28 1012 74 10000 4.1 90 18:25 27.09.2019
1200 Clouds 28 1013 78 10000 4.6 80 17:57 27.09.2019
1201 Clouds 29 1013 72 0 4.24 72.211 17:39 27.09.2019
1202 Drizzle 28 1012 78 10000 3.6 70 17:20 27.09.2019
1203 Drizzle 28 1012 78 10000 3.6 70 16:57 27.09.2019
1204 Clouds 29 1013 72 0 4.24 72.211 16:39 27.09.2019
1205 Drizzle 27 1011 83 10000 2.6 40 16:19 27.09.2019
1206 Drizzle 27 1011 83 10000 2.6 40 15:55 27.09.2019
1207 Clouds 29 1013 72 0 4.24 72.211 15:36 27.09.2019
1208 Rain 27 1011 83 10000 2.6 20 15:36 27.09.2019
1209 Rain 27 1011 83 10000 2.6 20 15:18 27.09.2019
1210 Clouds 28 1011 71 0 3.71 96.313 14:41 27.09.2019
1211 Clouds 28 1011 71 0 3.71 96.313 14:41 27.09.2019
1212 Clouds 28 1011 78 10000 2.1 50 14:23 27.09.2019
1213 Clouds 28 1011 78 10000 2.1 50 14:23 27.09.2019
1214 Clouds 28 1011 78 10000 2.1 50 13:59 27.09.2019
1215 Clouds 28 1011 78 10000 2.1 50 13:40 27.09.2019
1216 Clouds 28 1011 78 10000 2.1 50 13:21 27.09.2019
1217 Clouds 28 1011 74 10000 2.6 50 12:57 27.09.2019
1218 Clouds 28 1011 74 10000 2.6 50 12:38 27.09.2019
1219 Rain 28 1011 78 9000 2.1 70 12:19 27.09.2019
1220 Clouds 28 1011 69 0 2.23 69.435 11:39 27.09.2019
1221 Clouds 28 1011 69 0 2.23 69.435 11:39 27.09.2019
1222 Clouds 28 1011 69 0 2.23 69.435 11:39 27.09.2019
1223 Clouds 28 1011 69 0 2.23 69.435 11:20 27.09.2019
1224 Clouds 28 1011 69 0 2.23 69.435 10:55 27.09.2019
1225 Rain 27 1014 78 9000 3.1 150 10:37 27.09.2019
1226 Rain 27 1014 78 9000 3.1 150 10:37 27.09.2019
1227 Rain 27 1014 78 9000 3.1 150 10:18 27.09.2019
1228 Clouds 28 1011 69 0 2.23 69.435 09:41 27.09.2019
1229 Rain 26 1014 83 8000 4.1 150 09:20 27.09.2019
1230 Rain 26 1014 83 8000 4.1 150 08:55 27.09.2019
1231 Rain 28 1015 66 0 1.75 150.312 08:37 27.09.2019
1232 Rain 25 1015 88 7000 5.1 150 08:19 27.09.2019
1233 Rain 25 1015 88 7000 5.1 150 07:45 27.09.2019
1234 Rain 28 1015 66 0 1.75 150.312 07:21 27.09.2019
1235 Rain 28 1015 66 0 1.75 150.312 06:41 27.09.2019
1236 Rain 25 1015 94 5000 8.7 140 06:22 27.09.2019
1237 Rain 28 1015 67 0 2.88 181.076 05:49 27.09.2019
1238 Rain 26 1014 88 9000 2.1 160 05:30 27.09.2019
1239 Clouds 25 1013 88 10000 1 0 03:53 27.09.2019
1240 Rain 24 1012 94 7000 1 0 01:58 27.09.2019
1241 Rain 24 1012 94 7000 1 0 01:58 27.09.2019
1242 Rain 24 1012 94 7000 1 0 01:35 27.09.2019
1243 Clouds 29 1012 65 0 3.36 158.297 00:55 27.09.2019
1244 Clouds 29 1012 65 0 3.36 158.297 00:55 27.09.2019
1245 Clouds 26 1012 83 10000 1.5 170 00:19 27.09.2019
1246 Clouds 26 1012 83 10000 1.5 170 23:55 26.09.2019
1247 Clouds 26 1012 83 10000 1.5 170 23:55 26.09.2019
1248 Clouds 29 1012 70 0 4.27 162.986 23:37 26.09.2019
1249 Rain 26 1013 83 9000 4.1 130 23:18 26.09.2019
1250 Rain 26 1013 83 9000 4.1 130 22:55 26.09.2019
1251 Clouds 29 1012 70 0 4.27 162.986 22:36 26.09.2019
1252 Clouds 28 1014 83 10000 0.5 0 22:18 26.09.2019
1253 Clouds 28 1014 83 10000 0.5 0 21:54 26.09.2019
1254 Clouds 29 1012 70 0 4.27 162.986 21:36 26.09.2019
1255 Clouds 28 1014 83 10000 1.5 200 21:18 26.09.2019
1256 Clouds 28 1014 83 10000 1.5 200 20:55 26.09.2019
1257 Rain 29 1014 83 10000 1.5 180 20:37 26.09.2019
1258 Rain 29 1014 83 10000 1.5 180 20:19 26.09.2019
1259 Rain 29 1014 83 10000 1.5 180 20:19 26.09.2019
1260 Rain 29 1014 83 10000 1.5 180 19:40 26.09.2019
1261 Clouds 29 1014 79 10000 2.1 160 19:18 26.09.2019
1262 Clouds 29 1014 79 10000 2.1 160 18:58 26.09.2019
1263 Clouds 29 1014 79 10000 2.1 160 18:39 26.09.2019
1264 Clouds 27 1013 88 10000 1.5 140 18:21 26.09.2019
1265 Clouds 29 1013 66 0 3.28 126.922 17:39 26.09.2019
1266 Clouds 29 1012 79 10000 1 0 17:19 26.09.2019
1267 Clouds 29 1012 79 10000 1 0 17:19 26.09.2019
1268 Clouds 29 1012 79 10000 1 0 16:59 26.09.2019
1269 Clouds 29 1013 66 0 3.28 126.922 16:39 26.09.2019
1270 Clouds 29 1011 74 10000 2.6 110 16:20 26.09.2019
1271 Clouds 29 1011 74 10000 2.6 110 15:58 26.09.2019
1272 Clouds 29 1013 66 0 3.28 126.922 15:38 26.09.2019
1273 Clouds 29 1010 74 10000 2.1 100 15:19 26.09.2019
1274 Clouds 29 1010 74 10000 2.1 100 14:57 26.09.2019
1275 Clouds 28 1010 66 0 1.6 146.797 14:37 26.09.2019
1276 Clouds 28 1010 66 0 1.6 146.797 14:37 26.09.2019
1277 Clouds 29 1010 79 10000 2.1 90 14:19 26.09.2019
1278 Clouds 29 1010 79 10000 2.1 90 13:41 26.09.2019
1279 Clouds 30 1009 74 10000 2.6 80 13:20 26.09.2019
1280 Clouds 30 1009 74 10000 2.6 80 12:59 26.09.2019
1281 Clouds 30 1009 74 10000 2.6 80 12:41 26.09.2019
1282 Clouds 30 1009 74 10000 2.6 80 12:20 26.09.2019
1283 Clouds 28 1009 71 0 3.76 128.862 11:42 26.09.2019
1284 Rain 29 1010 74 10000 4.1 100 11:22 26.09.2019
1285 Rain 29 1010 74 10000 4.1 100 10:56 26.09.2019
1286 Clouds 28 1009 71 0 3.76 128.862 10:38 26.09.2019
1287 Clouds 29 1012 70 10000 4.6 90 10:20 26.09.2019
1288 Clouds 28 1009 71 0 3.76 128.862 09:45 26.09.2019
1289 Clouds 29 1012 74 10000 5.1 100 09:26 26.09.2019
1290 Clouds 29 1012 74 10000 5.1 100 08:58 26.09.2019
1291 Clouds 28 1012 72 0 5.29 119.149 08:40 26.09.2019
1292 Clouds 29 1012 74 10000 5.1 110 08:22 26.09.2019
1293 Clouds 29 1012 74 10000 5.1 110 07:44 26.09.2019
1294 Clouds 29 1012 74 10000 5.1 110 07:22 26.09.2019
1295 Clouds 28 1012 83 10000 2.1 80 06:47 26.09.2019
1296 Clouds 28 1012 83 10000 2.1 80 06:27 26.09.2019
1297 Clouds 27 1013 71 0 2.1 82.638 05:46 26.09.2019
1298 Clouds 27 1012 83 10000 2.1 130 05:25 26.09.2019
1299 Rain 25 1012 94 8000 2.1 150 03:18 26.09.2019
1300 Rain 25 1012 94 8000 1.5 150 01:54 26.09.2019
1301 Rain 25 1012 94 8000 1.5 150 01:31 26.09.2019
1302 Rain 25 1012 94 8000 2.6 220 00:58 26.09.2019
1303 Rain 25 1012 94 8000 2.6 220 00:38 26.09.2019
1304 Rain 25 1012 94 8000 2.6 220 00:20 26.09.2019
1305 Rain 27 1011 76 0 3.33 183.845 23:42 25.09.2019
1306 Rain 25 1013 94 7000 10.3 290 23:19 25.09.2019
1307 Rain 27 1011 76 0 3.33 183.845 22:43 25.09.2019
1308 Rain 27 1011 76 0 3.33 183.845 22:21 25.09.2019
1309 Rain 27 1011 76 0 3.33 183.845 21:58 25.09.2019
1310 Rain 27 1011 76 0 3.33 183.845 21:40 25.09.2019
1311 Rain 27 1014 78 0 5.51 150.705 21:19 25.09.2019
1312 Rain 27 1014 78 0 5.51 150.705 20:59 25.09.2019
1313 Rain 27 1014 80 0 5.99 145.62 20:40 25.09.2019
1314 Clouds 28 1014 74 10000 6.2 200 20:22 25.09.2019
1315 Clouds 28 1014 74 10000 6.2 200 19:59 25.09.2019
1316 Clouds 28 1014 74 10000 6.2 200 19:38 25.09.2019
1317 Clouds 27 1013 83 10000 5.7 150 19:19 25.09.2019
1318 Clouds 27 1013 83 10000 5.7 150 18:56 25.09.2019
1319 Clouds 27 1013 83 10000 5.7 150 18:37 25.09.2019
1320 Clouds 27 1012 83 10000 4.6 160 18:18 25.09.2019
1321 Rain 27 1013 72 0 2.14 113.072 17:40 25.09.2019
1322 Clouds 27 1011 88 10000 4.1 160 17:21 25.09.2019
1323 Clouds 27 1011 88 10000 4.1 160 16:57 25.09.2019
1324 Rain 27 1013 72 0 2.14 113.072 16:37 25.09.2019
1325 Clouds 27 1010 78 10000 3.1 150 16:19 25.09.2019
1326 Clouds 27 1010 78 10000 3.1 150 16:19 25.09.2019
1327 -273 0 0 0 0 0 15:42 25.09.2019
1328 Rain 27 1010 69 10000 4.1 160 15:23 25.09.2019
1329 Rain 27 1010 69 10000 4.1 160 14:59 25.09.2019
1330 Rain 27 1010 69 10000 4.1 160 14:59 25.09.2019
1331 Rain 27 1011 69 0 1.99 41.33 14:41 25.09.2019
1332 Rain 26 1009 83 8000 3.6 150 14:22 25.09.2019
1333 Rain 26 1009 83 8000 3.6 150 13:56 25.09.2019
1334 Rain 26 1009 83 8000 3.6 150 13:38 25.09.2019
1335 Rain 29 1009 79 10000 2.1 200 13:19 25.09.2019
1336 Rain 29 1009 79 10000 2.1 200 12:42 25.09.2019
1337 Rain 29 1009 79 10000 2.1 200 12:24 25.09.2019
1338 Clouds 30 1010 74 10000 3.1 190 11:59 25.09.2019
1339 Clouds 30 1010 74 10000 3.1 190 11:59 25.09.2019
1340 Clouds 28 1009 64 0 2.05 280.07 11:40 25.09.2019
1341 Clouds 30 1010 74 10000 2.1 200 11:19 25.09.2019
1342 Clouds 28 1009 64 0 2.05 280.07 10:45 25.09.2019
1343 Clouds 30 1011 74 10000 2.6 250 10:26 25.09.2019
1344 Clouds 30 1011 74 10000 2.6 250 09:58 25.09.2019
1345 Clouds 30 1011 74 10000 3.1 250 09:38 25.09.2019
1346 Clouds 30 1011 74 10000 3.1 250 09:20 25.09.2019
1347 Clouds 30 1011 74 10000 3.1 250 08:45 25.09.2019
1348 Clouds 30 1011 74 10000 3.6 250 08:22 25.09.2019
1349 Clouds 30 1011 74 10000 3.6 250 07:59 25.09.2019
1350 Clouds 30 1011 74 10000 3.6 250 07:40 25.09.2019
1351 Clouds 30 1011 74 10000 3.6 250 07:40 25.09.2019
1352 Clouds 30 1010 74 10000 2.1 290 07:21 25.09.2019
1353 Clouds 30 1010 74 10000 2.1 290 06:45 25.09.2019
1354 Clouds 30 1010 74 10000 2.1 290 06:22 25.09.2019
1355 Rain 27 1012 73 0 4.45 290.738 05:37 25.09.2019
1356 Clouds 28 1009 78 10000 5.1 330 04:55 25.09.2019
1357 Rain 28 1008 74 9000 5.1 290 02:31 25.09.2019
1358 Rain 28 1009 83 7000 5.1 280 00:56 25.09.2019
1359 Rain 28 1009 83 7000 5.1 280 00:36 25.09.2019
1360 Rain 28 1009 78 7000 7.2 250 00:18 25.09.2019
1361 Rain 27 1009 72 0 7.53 270.594 23:40 24.09.2019
1362 Rain 28 1010 83 7000 7.7 280 23:21 24.09.2019
1363 Rain 28 1010 83 7000 7.7 280 22:56 24.09.2019
1364 Rain 27 1009 72 0 7.53 270.594 22:36 24.09.2019
1365 Rain 28 1011 83 6000 8.2 280 22:18 24.09.2019
1366 Rain 28 1011 83 6000 8.2 280 21:54 24.09.2019
1367 Rain 27 1009 77 0 9.32 258.595 21:36 24.09.2019
1368 Rain 28 1012 78 8000 9.3 270 21:18 24.09.2019
1369 Rain 28 1012 78 8000 9.3 270 20:54 24.09.2019
1370 Clouds 29 1011 74 9000 10.8 280 20:36 24.09.2019
1371 Clouds 29 1011 74 9000 10.8 280 20:18 24.09.2019
1372 Clouds 29 1011 74 9000 10.8 280 19:41 24.09.2019
1373 Clouds 29 1011 74 9000 11.8 290 19:19 24.09.2019
1374 Clouds 29 1011 74 9000 11.8 290 18:56 24.09.2019
1375 Clouds 29 1011 74 9000 11.8 290 18:38 24.09.2019
1376 Clouds 29 1011 79 9000 10.8 290 18:20 24.09.2019
1377 Clouds 29 1011 79 9000 10.8 290 17:55 24.09.2019
1378 Clouds 29 1009 79 9000 11.8 290 17:37 24.09.2019
1379 Clouds 29 1009 79 9000 11.8 290 17:19 24.09.2019
1380 Rain 26 1011 86 0 10.67 277.256 16:41 24.09.2019
1381 Clouds 28 1008 78 9000 11.8 290 16:20 24.09.2019
1382 Clouds 28 1008 78 9000 11.8 290 15:57 24.09.2019
1383 Rain 28 1008 78 9000 11.8 290 15:38 24.09.2019
1384 Rain 28 1008 78 9000 11.8 290 15:19 24.09.2019
1385 Rain 26 1010 88 0 10.73 274.553 14:38 24.09.2019
1386 Rain 28 1008 78 9000 11.8 290 14:18 24.09.2019
1387 Rain 28 1008 78 9000 11.8 290 13:45 24.09.2019
1388 Clouds 28 1008 78 10000 10.3 290 13:21 24.09.2019
1389 Clouds 28 1008 78 10000 10.3 290 12:44 24.09.2019
1390 Clouds 27 1008 78 9000 11.8 290 12:22 24.09.2019
1391 Clouds 27 1008 78 9000 11.8 290 11:58 24.09.2019
1392 Rain 26 1008 89 0 9.99 281.48 11:40 24.09.2019
1393 Rain 27 1009 83 9000 11.3 290 11:21 24.09.2019
1394 Rain 26 1008 89 0 9.99 281.48 10:42 24.09.2019
1395 Rain 27 1010 88 9000 12.3 270 10:22 24.09.2019
1396 Rain 27 1010 88 9000 12.3 270 09:59 24.09.2019
1397 Rain 26 1008 89 0 9.99 281.48 09:41 24.09.2019
1398 Clouds 28 1011 83 9000 11.3 270 09:20 24.09.2019
1399 Clouds 28 1011 83 9000 11.3 270 08:56 24.09.2019
1400 Rain 27 1011 83 0 9.71 281.113 08:38 24.09.2019
1401 Rain 27 1011 83 0 9.71 281.113 08:19 24.09.2019
1402 Rain 27 1011 83 0 9.71 281.113 07:46 24.09.2019
1403 Rain 29 1012 79 10000 6.7 250 07:24 24.09.2019
1404 Rain 29 1012 79 10000 6.7 250 06:48 24.09.2019
1405 Rain 29 1012 79 10000 6.7 250 06:30 24.09.2019
1406 Rain 28 1011 80 0 8.57 263.613 05:51 24.09.2019
1407 Clouds 28 1009 83 10000 7.7 260 05:18 24.09.2019
1408 Rain 28 1011 80 0 8.57 263.613 03:43 24.09.2019
1409 Rain 28 1009 80 0 8.9 262.849 02:46 24.09.2019
1410 Clouds 27 1009 83 10000 8.2 250 01:51 24.09.2019
1411 Rain 25 1008 94 9000 4.6 220 00:43 24.09.2019
1412 Rain 25 1008 94 9000 4.6 220 00:23 24.09.2019
1413 Rain 25 1009 100 7000 3.1 220 23:56 23.09.2019
1414 Rain 25 1009 100 6000 4.6 240 23:38 23.09.2019
1415 Rain 25 1009 100 6000 4.6 240 23:20 23.09.2019
1416 Rain 28 1009 77 0 6.89 237.929 22:39 23.09.2019
1417 Rain 26 1011 88 10000 7.7 250 22:20 23.09.2019
1418 Rain 26 1011 88 10000 7.7 250 21:57 23.09.2019
1419 Rain 28 1009 77 0 6.89 237.929 21:39 23.09.2019
1420 Rain 26 1012 88 8000 8.2 250 21:19 23.09.2019
1421 Rain 29 1011 74 0 6.7 204.825 20:41 23.09.2019
1422 Rain 29 1011 74 0 6.7 204.825 20:41 23.09.2019
1423 Rain 26 1013 94 7000 10.3 250 20:20 23.09.2019
1424 Rain 26 1013 94 7000 10.3 250 19:59 23.09.2019
1425 Rain 29 1011 74 0 6.7 204.825 19:39 23.09.2019
1426 Rain 29 1011 74 0 6.7 204.825 19:39 23.09.2019
1427 Rain 26 1012 94 6000 9.3 260 19:21 23.09.2019
1428 Rain 26 1012 94 6000 9.3 260 18:55 23.09.2019
1429 Rain 26 1012 94 6000 9.3 260 18:37 23.09.2019
1430 Clouds 29 1010 78 0 6.83 211.397 18:18 23.09.2019
1431 Clouds 29 1010 78 0 6.83 211.397 17:55 23.09.2019
1432 Clouds 29 1010 78 0 6.83 211.397 17:55 23.09.2019
1433 Clouds 29 1010 78 0 6.83 211.397 17:36 23.09.2019
1434 Clouds 29 1010 78 0 6.83 211.397 17:36 23.09.2019
1435 Rain 26 1011 88 6000 3.6 250 17:18 23.09.2019
1436 Rain 26 1011 88 6000 3.6 250 16:39 23.09.2019
1437 Rain 27 1010 88 7000 8.2 280 16:21 23.09.2019
1438 Rain 27 1010 88 7000 8.2 280 15:59 23.09.2019
1439 Clouds 29 1010 78 0 6.83 211.397 15:40 23.09.2019
1440 Rain 26 1009 88 8000 7.7 260 15:19 23.09.2019
1441 Rain 26 1009 88 8000 7.7 260 14:58 23.09.2019
1442 Rain 26 1009 88 8000 7.7 260 14:37 23.09.2019
1443 Clouds 29 1008 74 0 6.99 241.351 14:19 23.09.2019
1444 Clouds 29 1008 74 0 6.99 241.351 13:42 23.09.2019
1445 Clouds 30 1008 74 10000 4.6 240 13:19 23.09.2019
1446 Clouds 30 1008 74 10000 4.6 240 12:59 23.09.2019
1447 Clouds 30 1008 74 10000 4.6 240 12:40 23.09.2019
1448 Clouds 30 1008 74 10000 5.1 250 12:21 23.09.2019
1449 Clouds 30 1008 74 10000 5.1 250 11:55 23.09.2019
1450 Clouds 30 1008 74 10000 5.1 250 11:36 23.09.2019
1451 Clouds 30 1008 74 10000 5.1 250 11:18 23.09.2019
1452 Clouds 30 1009 74 10000 5.7 240 10:41 23.09.2019
1453 Clouds 30 1009 74 10000 5.7 240 10:20 23.09.2019
1454 Clouds 30 1010 74 10000 5.1 250 09:40 23.09.2019
1455 Clouds 30 1010 74 10000 5.1 250 09:40 23.09.2019
1456 Clouds 30 1010 74 10000 5.1 250 09:21 23.09.2019
1457 Clouds 30 1011 74 10000 5.1 250 08:58 23.09.2019
1458 Clouds 28 1010 76 0 7.83 251.778 08:38 23.09.2019
1459 Clouds 30 1011 79 10000 4.1 250 08:18 23.09.2019
1460 Clouds 30 1011 79 10000 4.1 250 08:18 23.09.2019
1461 Clouds 30 1011 79 10000 4.1 250 08:18 23.09.2019
1462 Clouds 30 1011 79 10000 4.1 250 07:33 23.09.2019
1463 Clouds 30 1011 74 10000 4.1 260 06:53 23.09.2019
1464 Clouds 29 1011 79 10000 5.1 250 06:20 23.09.2019
1465 Clouds 29 1011 79 10000 5.1 250 05:28 23.09.2019
1466 Clouds 29 1010 74 10000 5.7 250 04:56 23.09.2019
1467 Clouds 29 1010 70 10000 6.7 250 03:59 23.09.2019
1468 Clouds 28 1009 78 10000 6.2 260 01:25 23.09.2019
1469 Clouds 28 1009 78 10000 6.2 260 00:26 23.09.2019
1470 Clouds 28 1009 78 10000 5.7 270 23:58 22.09.2019
1471 Clouds 28 1009 78 10000 5.7 270 23:39 22.09.2019
1472 Clouds 28 1009 78 10000 5.7 270 23:21 22.09.2019
1473 Rain 28 1010 83 9000 4.1 250 22:54 22.09.2019
1474 Rain 26 1010 86 0 8.41 261.91 22:36 22.09.2019
1475 Clouds 28 1011 83 10000 5.1 290 22:18 22.09.2019
1476 Clouds 28 1011 83 10000 5.1 290 21:42 22.09.2019
1477 Clouds 28 1011 83 10000 5.1 290 21:20 22.09.2019
1478 Clouds 28 1011 78 10000 5.1 280 20:45 22.09.2019
1479 Clouds 28 1011 78 10000 5.1 280 20:27 22.09.2019
1480 Clouds 28 1012 78 10000 6.2 280 19:57 22.09.2019
1481 Clouds 28 1012 78 10000 6.2 280 19:39 22.09.2019
1482 Rain 27 1012 88 8000 6.2 280 19:20 22.09.2019
1483 Rain 27 1012 88 8000 6.2 280 18:57 22.09.2019
1484 Rain 27 1012 88 8000 6.2 280 18:37 22.09.2019
1485 Rain 27 1011 88 10000 6.2 260 18:18 22.09.2019
1486 Rain 27 1011 88 10000 6.2 260 17:45 22.09.2019
1487 Rain 27 1011 88 10000 6.2 260 17:26 22.09.2019
1488 Rain 27 1011 83 10000 7.2 270 16:56 22.09.2019
1489 Rain 27 1011 83 10000 7.2 270 16:56 22.09.2019
1490 Rain 27 1011 83 10000 7.2 270 16:56 22.09.2019
1491 Rain 26 1012 87 0 6.56 247.715 16:38 22.09.2019
1492 Rain 26 1010 88 10000 8.2 290 16:19 22.09.2019
1493 Rain 26 1010 88 10000 8.2 290 15:43 22.09.2019
1494 Rain 26 1010 88 10000 8.2 290 15:25 22.09.2019
1495 Rain 27 1009 83 8000 8.7 290 14:55 22.09.2019
1496 Rain 26 1010 87 0 5.85 235.486 14:36 22.09.2019
1497 Rain 26 1010 87 0 5.85 235.486 14:36 22.09.2019
1498 Clouds 27 1009 78 10000 9.8 290 14:18 22.09.2019
1499 Clouds 27 1009 78 10000 9.8 290 13:41 22.09.2019
1500 Rain 26 1010 86 0 5.06 221.67 13:23 22.09.2019
1501 Rain 26 1010 86 0 5.06 221.67 12:56 22.09.2019
1502 Rain 26 1010 86 0 5.06 221.67 12:38 22.09.2019
1503 Rain 27 1009 88 9000 7.2 290 12:18 22.09.2019
1504 Rain 27 1009 88 9000 7.2 290 12:18 22.09.2019
1505 Rain 27 1009 88 9000 7.2 290 11:43 22.09.2019
1506 Rain 27 1009 88 9000 7.2 290 11:43 22.09.2019
1507 Rain 27 1009 88 9000 7.2 290 11:25 22.09.2019
1508 Rain 27 1009 88 9000 7.2 290 11:25 22.09.2019
1509 Rain 26 1009 94 7000 9.8 290 10:57 22.09.2019
1510 Rain 25 1009 91 0 4.84 224.38 10:39 22.09.2019
1511 Rain 27 1010 88 7000 5.7 320 10:19 22.09.2019
1512 Rain 25 1009 91 0 4.84 224.38 09:43 22.09.2019
1513 Clouds 29 1011 79 10000 5.7 260 09:21 22.09.2019
1514 Clouds 29 1011 79 10000 5.7 260 08:55 22.09.2019
1515 Clouds 29 1011 79 10000 5.7 260 08:37 22.09.2019
1516 Clouds 28 1011 83 10000 5.1 240 08:18 22.09.2019
1517 Clouds 28 1011 83 10000 5.1 240 07:41 22.09.2019
1518 Clouds 28 1012 78 9000 6.7 250 07:23 22.09.2019
1519 Clouds 28 1012 78 9000 6.7 250 06:57 22.09.2019
1520 Clouds 28 1012 78 9000 6.7 250 06:31 22.09.2019
1521 Clouds 28 1009 78 10000 3.1 290 03:54 22.09.2019
1522 Rain 26 1008 88 9000 5.7 320 02:44 22.09.2019
1523 Rain 26 1008 88 9000 5.7 320 02:24 22.09.2019
1524 Clouds 29 1008 74 10000 5.7 270 01:35 22.09.2019
1525 Clouds 29 1008 74 10000 5.7 250 00:40 22.09.2019
1526 Clouds 29 1008 74 10000 5.7 250 00:21 22.09.2019
1527 Clouds 29 1008 74 10000 5.7 250 00:21 22.09.2019
1528 Clouds 29 1008 74 10000 6.2 260 23:45 21.09.2019
1529 Clouds 29 1008 74 10000 6.2 260 23:27 21.09.2019
1530 Clouds 29 1009 74 10000 6.2 250 22:40 21.09.2019
1531 Clouds 29 1009 74 10000 6.2 250 22:21 21.09.2019
1532 Clouds 29 1009 74 10000 7.2 260 21:58 21.09.2019
1533 Rain 27 1008 78 0 5.92 282.811 21:40 21.09.2019
1534 Clouds 29 1010 74 10000 4.6 250 21:18 21.09.2019
1535 Clouds 29 1010 74 10000 4.6 250 21:18 21.09.2019
1536 Clouds 29 1010 74 10000 4.6 250 20:41 21.09.2019
1537 Clouds 29 1010 74 10000 4.6 250 20:23 21.09.2019
1538 Clouds 28 1011 78 10000 4.1 250 19:57 21.09.2019
1539 Clouds 28 1011 78 10000 4.1 250 19:57 21.09.2019
1540 Clouds 28 1011 78 10000 4.1 250 19:39 21.09.2019
1541 Clouds 28 1011 78 10000 3.1 250 19:18 21.09.2019
1542 Clouds 28 1011 78 10000 3.1 250 18:39 21.09.2019
1543 Clouds 28 1010 78 10000 3.1 290 18:20 21.09.2019
1544 Clouds 27 1010 82 0 9.63 284.44 17:42 21.09.2019
1545 Clouds 27 1010 82 0 9.63 284.44 17:42 21.09.2019
1546 Clouds 28 1010 78 10000 2.6 290 17:23 21.09.2019
1547 Clouds 28 1010 78 10000 2.6 290 17:23 21.09.2019
1548 Clouds 28 1010 78 10000 2.6 290 17:23 21.09.2019
1549 Clouds 28 1010 78 10000 2.6 290 16:56 21.09.2019
1550 Clouds 28 1010 78 10000 2.6 290 16:37 21.09.2019
1551 Clouds 28 1008 78 10000 3.1 300 16:18 21.09.2019
1552 Clouds 28 1008 78 10000 3.1 300 15:42 21.09.2019
1553 Clouds 28 1008 78 10000 3.1 300 15:20 21.09.2019
1554 Rain 27 1009 86 0 10.65 286.818 14:47 21.09.2019
1555 Clouds 28 1007 74 10000 5.7 310 14:28 21.09.2019
1556 Clouds 28 1007 74 10000 5.7 310 13:45 21.09.2019
1557 Clouds 28 1007 78 10000 6.2 310 13:25 21.09.2019
1558 Clouds 28 1007 78 10000 6.2 310 12:59 21.09.2019
1559 Clouds 28 1007 78 10000 6.2 310 12:41 21.09.2019
1560 Clouds 28 1008 78 10000 7.7 290 12:20 21.09.2019
1561 Clouds 28 1008 78 10000 7.7 290 11:58 21.09.2019
1562 Rain 26 1008 91 0 7.9 236.946 11:39 21.09.2019
1563 Clouds 26 1008 88 10000 7.7 300 11:19 21.09.2019
1564 Clouds 26 1008 88 10000 7.7 300 10:40 21.09.2019
1565 Rain 27 1010 83 7000 7.2 320 10:21 21.09.2019
1566 Rain 27 1010 83 7000 7.2 320 09:57 21.09.2019
1567 Rain 28 1010 78 7000 6.7 290 09:38 21.09.2019
1568 Rain 28 1010 78 7000 6.7 290 09:19 21.09.2019
1569 Rain 28 1010 78 7000 6.7 290 08:50 21.09.2019
1570 Rain 27 1011 88 9000 7.7 290 08:22 21.09.2019
1571 Rain 27 1011 88 9000 7.7 290 07:40 21.09.2019
1572 Rain 27 1010 88 0 9.32 252.348 07:20 21.09.2019
1573 Rain 27 1010 88 0 9.32 252.348 06:36 21.09.2019
1574 Rain 25 1011 88 4000 7.2 290 05:51 21.09.2019
1575 Rain 25 1010 100 4000 7.7 270 04:48 21.09.2019
1576 Rain 25 1010 100 4000 7.7 270 04:29 21.09.2019
1577 Rain 25 1009 100 2500 7.7 280 02:26 21.09.2019
1578 Rain 27 1008 82 0 8.32 247.833 01:50 21.09.2019
1579 Rain 27 1008 82 0 8.32 247.833 01:32 21.09.2019
1580 Clouds 27 1009 88 9000 2.6 320 00:26 21.09.2019
1581 Clouds 27 1009 88 9000 2.6 320 23:58 20.09.2019
1582 Clouds 27 1009 88 9000 2.6 320 23:31 20.09.2019
1583 Rain 26 1009 94 6000 6.7 270 22:59 20.09.2019
1584 Rain 26 1009 94 6000 6.7 270 22:38 20.09.2019
1585 Rain 26 1009 94 6000 6.7 270 22:20 20.09.2019
1586 Rain 27 1010 88 6000 5.7 270 21:55 20.09.2019
1587 Rain 27 1011 88 9000 5.1 250 21:37 20.09.2019
1588 Rain 27 1011 88 9000 5.1 250 21:18 20.09.2019
1589 Rain 27 1011 88 9000 5.1 250 20:41 20.09.2019
1590 Rain 27 1011 88 9000 5.1 250 20:41 20.09.2019
1591 Rain 27 1011 88 9000 5.1 250 20:21 20.09.2019
1592 Clouds 27 1011 83 8000 5.7 280 19:59 20.09.2019
1593 Clouds 27 1011 83 8000 5.7 280 19:40 20.09.2019
1594 Rain 27 1011 83 8000 6.7 290 19:20 20.09.2019
1595 Rain 27 1011 83 8000 6.7 290 18:40 20.09.2019
1596 Clouds 28 1011 78 10000 6.2 260 18:21 20.09.2019
1597 Clouds 28 1011 78 10000 6.2 260 17:59 20.09.2019
1598 Clouds 28 1011 78 10000 6.2 260 17:41 20.09.2019
1599 Clouds 28 1011 78 10000 6.2 260 17:22 20.09.2019
1600 Clouds 29 1010 72 0 5.43 266.059 16:43 20.09.2019
1601 Clouds 26 1009 88 10000 5.1 220 16:19 20.09.2019
1602 Clouds 26 1009 88 10000 5.1 220 15:56 20.09.2019
1603 Clouds 29 1010 72 0 5.43 266.059 15:37 20.09.2019
1604 Rain 26 1009 94 6000 7.2 220 15:19 20.09.2019
1605 Rain 26 1009 94 6000 7.2 220 14:42 20.09.2019
1606 Clouds 30 1008 67 0 3.85 252.614 14:19 20.09.2019
1607 Clouds 30 1008 67 0 3.85 252.614 13:48 20.09.2019
1608 Rain 26 1008 88 7000 7.2 240 13:28 20.09.2019
1609 Rain 26 1008 88 7000 7.2 240 12:57 20.09.2019
1610 Rain 26 1008 88 7000 7.2 240 12:37 20.09.2019
1611 Rain 30 1008 74 10000 3.6 310 12:18 20.09.2019
1612 Rain 30 1008 74 10000 3.6 310 11:49 20.09.2019
1613 Rain 30 1008 74 10000 3.6 310 11:49 20.09.2019
1614 Rain 30 1008 74 10000 3.6 310 11:21 20.09.2019
1615 Clouds 29 1008 67 0 4.1 255.473 10:43 20.09.2019
1616 Clouds 30 1009 79 10000 2.6 290 10:24 20.09.2019
1617 Clouds 30 1009 79 10000 2.6 290 09:59 20.09.2019
1618 Clouds 29 1008 67 0 4.1 255.473 09:38 20.09.2019
1619 Clouds 31 1010 70 10000 2.6 310 09:18 20.09.2019
1620 Rain 29 1011 74 0 4.26 275.079 08:42 20.09.2019
1621 Clouds 31 1011 70 10000 4.1 300 08:23 20.09.2019
1622 Clouds 31 1011 70 10000 4.1 300 07:47 20.09.2019
1623 Clouds 31 1011 70 10000 4.1 300 07:28 20.09.2019
1624 Clouds 30 1011 74 10000 5.7 270 06:45 20.09.2019
1625 Clouds 30 1011 74 10000 5.7 270 06:25 20.09.2019
1626 Clouds 30 1011 74 10000 2.6 290 05:47 20.09.2019
1627 Clouds 29 1009 74 10000 2.6 270 03:42 20.09.2019
1628 Clouds 29 1009 74 10000 2.6 270 03:19 20.09.2019
1629 Clouds 29 1008 79 10000 3.6 280 01:45 20.09.2019
1630 Clouds 29 1008 74 10000 3.1 270 01:18 20.09.2019
1631 Clouds 29 1008 74 10000 3.1 270 00:26 20.09.2019
1632 Rain 28 1009 76 0 4.82 242.994 23:44 19.09.2019
1633 Clouds 29 1010 74 10000 4.1 280 23:20 19.09.2019
1634 Clouds 29 1010 74 10000 4.1 280 22:57 19.09.2019
1635 Clouds 29 1010 74 10000 4.1 280 22:38 19.09.2019
1636 Clouds 29 1010 79 10000 3.6 270 22:19 19.09.2019
1637 Clouds 29 1010 79 10000 3.6 270 21:56 19.09.2019
1638 Clouds 29 1010 79 10000 3.6 270 21:37 19.09.2019
1639 Clouds 29 1011 74 10000 2.6 290 21:18 19.09.2019
1640 Clouds 29 1011 74 10000 2.6 290 21:18 19.09.2019
1641 Clouds 29 1011 74 10000 2.6 290 20:43 19.09.2019
1642 Clouds 29 1011 74 10000 2.6 290 20:22 19.09.2019
1643 Clouds 29 1011 79 10000 2.1 200 19:56 19.09.2019
1644 Clouds 29 1011 79 10000 2.1 200 19:38 19.09.2019
1645 Clouds 29 1011 79 10000 4.6 230 19:19 19.09.2019
1646 Clouds 29 1011 79 10000 4.6 230 19:19 19.09.2019
1647 Clouds 29 1011 79 10000 4.6 230 18:43 19.09.2019
1648 Clouds 30 1011 74 10000 3.6 260 18:24 19.09.2019
1649 Clouds 30 1011 74 10000 3.6 260 17:57 19.09.2019
1650 Clouds 30 1011 74 10000 3.6 260 17:39 19.09.2019
1651 Clouds 30 1011 74 10000 3.6 260 17:21 19.09.2019
1652 Clouds 30 1010 70 10000 4.6 250 16:57 19.09.2019
1653 Clouds 30 1010 70 10000 4.6 250 16:38 19.09.2019
1654 Clouds 30 1009 70 10000 5.7 250 16:18 19.09.2019
1655 Clouds 30 1009 70 10000 5.7 250 15:38 19.09.2019
1656 Clouds 30 1009 70 10000 5.7 250 15:18 19.09.2019
1657 Rain 29 1009 75 0 4.82 221.973 14:42 19.09.2019
1658 Clouds 30 1008 74 10000 4.6 270 14:23 19.09.2019
1659 Clouds 30 1008 74 10000 4.6 270 13:59 19.09.2019
1660 Clouds 30 1008 74 10000 4.6 270 13:39 19.09.2019
1661 Clouds 32 1008 66 10000 5.1 250 13:19 19.09.2019
1662 Clouds 32 1008 66 10000 5.1 250 12:40 19.09.2019
1663 Clouds 32 1008 66 10000 5.7 250 12:19 19.09.2019
1664 Clouds 32 1008 66 10000 5.7 250 11:57 19.09.2019
1665 Rain 29 1009 74 0 4.65 227.468 11:38 19.09.2019
1666 Clouds 32 1009 66 10000 6.2 250 11:19 19.09.2019
1667 Clouds 32 1009 66 10000 6.2 250 10:41 19.09.2019
1668 Clouds 32 1009 66 10000 6.2 250 10:22 19.09.2019
1669 Clouds 32 1010 66 10000 4.6 260 09:58 19.09.2019
1670 Clouds 32 1010 66 10000 4.6 260 09:40 19.09.2019
1671 Clouds 32 1010 66 10000 4.6 260 09:21 19.09.2019
1672 Clouds 31 1011 70 10000 4.6 240 08:55 19.09.2019
1673 Clouds 31 1011 70 10000 4.6 240 08:28 19.09.2019
1674 Clouds 31 1011 70 10000 4.6 250 07:56 19.09.2019
1675 Clouds 31 1011 70 10000 4.6 250 07:38 19.09.2019
1676 Clouds 30 1011 70 10000 4.6 240 07:19 19.09.2019
1677 Clouds 30 1011 70 10000 4.6 240 06:43 19.09.2019
1678 Clouds 30 1011 70 10000 4.6 240 06:43 19.09.2019
1679 -273 0 0 0 0 0 06:25 19.09.2019
1680 Clouds 30 1011 70 10000 4.1 230 05:50 19.09.2019
1681 Clouds 29 1010 74 10000 3.1 230 04:27 19.09.2019
1682 Clouds 29 1009 74 10000 4.1 230 03:22 19.09.2019
1683 Clouds 29 1009 74 10000 3.1 230 01:53 19.09.2019
1684 Clouds 29 1009 74 10000 3.1 230 01:21 19.09.2019
1685 Clouds 29 1009 74 10000 3.1 230 00:47 19.09.2019
1686 Clouds 29 1009 74 10000 3.1 230 00:25 19.09.2019
1687 Clouds 29 1009 74 10000 3.6 230 23:39 18.09.2019
1688 Clouds 29 1009 74 10000 3.6 230 23:21 18.09.2019
1689 Clouds 29 1010 74 10000 3.1 230 22:43 18.09.2019
1690 Clouds 29 1010 74 10000 3.1 230 22:20 18.09.2019
1691 Clouds 29 1011 79 10000 3.1 220 21:58 18.09.2019
1692 Clouds 29 1011 79 10000 3.1 220 21:40 18.09.2019
1693 Clouds 29 1011 74 10000 2.6 230 21:19 18.09.2019
1694 Clouds 29 1011 74 10000 2.6 230 20:58 18.09.2019
1695 Clouds 29 1011 74 10000 2.6 230 20:40 18.09.2019
1696 Clouds 29 1012 74 10000 3.1 230 20:22 18.09.2019
1697 Clouds 29 1012 74 10000 3.1 230 19:57 18.09.2019
1698 Clouds 29 1012 74 10000 3.1 230 19:38 18.09.2019
1699 Clouds 29 1011 74 10000 3.6 240 19:19 18.09.2019
1700 Clouds 29 1011 74 10000 3.6 240 19:19 18.09.2019
1701 Clouds 29 1011 74 10000 3.6 240 18:56 18.09.2019
1702 Clear 29 1011 70 0 4.61 247.432 18:37 18.09.2019
1703 Clouds 29 1011 74 10000 3.6 240 18:19 18.09.2019
1704 Clouds 29 1011 74 10000 3.6 240 17:57 18.09.2019
1705 Clouds 29 1011 74 10000 3.6 240 17:57 18.09.2019
1706 Clouds 29 1011 74 10000 3.6 240 17:57 18.09.2019
1707 Clouds 29 1011 74 10000 3.6 240 17:57 18.09.2019
1708 Clouds 29 1011 74 10000 3.6 240 17:39 18.09.2019
1709 Clouds 29 1011 74 10000 3.6 240 17:18 18.09.2019
1710 Clouds 29 1011 74 10000 3.6 240 17:18 18.09.2019
1711 Clouds 29 1010 79 10000 2.6 240 16:55 18.09.2019
1712 Clouds 29 1010 79 10000 2.6 240 16:37 18.09.2019
1713 Clouds 30 1009 70 10000 2.1 220 16:18 18.09.2019
1714 Clouds 30 1009 70 10000 2.1 220 15:55 18.09.2019
1715 Rain 29 1011 71 0 4 261.23 15:36 18.09.2019
1716 Clouds 30 1009 70 10000 2.1 200 15:18 18.09.2019
1717 Clouds 30 1009 70 10000 2.1 200 14:57 18.09.2019
1718 Clouds 30 1009 70 10000 2.1 200 14:37 18.09.2019
1719 Clouds 30 1009 70 10000 2.1 200 14:19 18.09.2019
1720 Clouds 29 1008 79 10000 3.6 200 13:42 18.09.2019
1721 Clouds 29 1008 79 10000 1 0 13:19 18.09.2019
1722 Clouds 29 1008 79 10000 1 0 13:19 18.09.2019
1723 Clouds 29 1008 79 10000 1 0 12:53 18.09.2019
1724 Clouds 29 1008 79 10000 1 0 12:32 18.09.2019
1725 Clouds 29 1008 79 10000 1 0 12:32 18.09.2019
1726 Clouds 29 1009 74 9000 4.6 230 11:59 18.09.2019
1727 Clear 29 1009 70 0 4.02 270.827 11:39 18.09.2019
1728 Clouds 31 1010 74 10000 2.1 230 11:19 18.09.2019
1729 Clouds 31 1010 74 10000 2.1 230 10:40 18.09.2019
1730 Clouds 31 1010 74 10000 2.1 230 10:40 18.09.2019
1731 Clouds 31 1010 74 10000 2.1 230 10:21 18.09.2019
1732 Rain 30 1010 74 10000 4.6 240 09:58 18.09.2019
1733 Rain 30 1010 74 10000 4.6 240 09:58 18.09.2019
1734 Clear 29 1009 70 0 4.02 270.827 09:39 18.09.2019
1735 Clouds 31 1011 70 10000 3.1 240 09:21 18.09.2019
1736 Clouds 31 1011 70 10000 3.1 240 08:45 18.09.2019
1737 Clouds 31 1011 70 10000 3.1 240 08:26 18.09.2019
1738 Clouds 30 1011 74 10000 4.6 200 07:59 18.09.2019
1739 Clouds 30 1011 74 10000 4.6 200 07:40 18.09.2019
1740 Clouds 30 1011 74 10000 4.6 200 07:40 18.09.2019
1741 Clouds 29 1011 74 10000 3.1 200 07:22 18.09.2019
1742 Clouds 29 1011 74 10000 3.1 200 06:41 18.09.2019
1743 Rain 28 1011 74 0 3.34 256.655 05:51 18.09.2019
1744 Clouds 29 1010 74 10000 2.6 250 05:21 18.09.2019
1745 Clouds 28 1009 78 10000 3.1 230 03:23 18.09.2019
1746 Rain 28 1009 73 0 2.64 248.336 02:39 18.09.2019
1747 Clouds 28 1009 83 10000 3.6 220 01:34 18.09.2019
1748 Clouds 29 1008 74 10000 3.1 230 00:50 18.09.2019
1749 Clouds 29 1008 74 10000 3.1 230 00:25 18.09.2019
1750 Rain 28 1009 73 0 2.21 234.734 23:46 17.09.2019
1751 Clouds 29 1009 79 10000 2.1 250 23:23 17.09.2019
1752 Clouds 29 1009 79 10000 2.1 250 22:44 17.09.2019
1753 Clouds 29 1009 79 10000 2.1 250 22:25 17.09.2019
1754 Clouds 29 1010 74 10000 2.6 260 21:56 17.09.2019
1755 Clouds 29 1010 74 10000 2.6 260 21:37 17.09.2019
1756 Clouds 29 1010 74 10000 2.6 260 21:37 17.09.2019
1757 Clouds 29 1010 74 10000 2.6 260 21:19 17.09.2019
1758 Clouds 29 1010 79 10000 2.1 260 20:58 17.09.2019
1759 Clouds 29 1010 79 10000 2.1 260 20:40 17.09.2019
1760 Clouds 29 1010 79 10000 2.1 260 20:40 17.09.2019
1761 Clouds 29 1010 79 10000 2.1 260 20:22 17.09.2019
1762 Clouds 29 1010 79 10000 2.1 260 20:22 17.09.2019
1763 Clouds 29 1011 74 10000 2.1 270 19:59 17.09.2019
1764 Clouds 29 1011 74 10000 2.1 270 19:39 17.09.2019
1765 Clouds 30 1010 70 10000 1.5 290 19:20 17.09.2019
1766 Clouds 30 1010 70 10000 1.5 290 19:20 17.09.2019
1767 Clouds 30 1010 70 10000 1.5 290 18:57 17.09.2019
1768 Clouds 30 1010 70 10000 1.5 290 18:57 17.09.2019
1769 Clouds 30 1010 70 10000 1.5 290 18:39 17.09.2019
1770 Clouds 29 1010 74 10000 1.5 290 18:20 17.09.2019
1771 Clouds 29 1010 74 10000 1.5 290 17:46 17.09.2019
1772 Clouds 29 1009 74 10000 2.6 290 17:20 17.09.2019
1773 Clouds 29 1009 74 10000 2.6 290 16:58 17.09.2019
1774 Rain 29 1010 71 0 2.36 265.236 16:40 17.09.2019
1775 Clouds 30 1008 74 10000 1.5 250 16:21 17.09.2019
1776 Clouds 30 1008 74 10000 1.5 250 15:40 17.09.2019
1777 Clouds 30 1008 74 10000 1.5 250 15:21 17.09.2019
1778 Clouds 30 1008 74 10000 1.5 250 15:21 17.09.2019
1779 Clouds 31 1008 70 10000 2.1 250 14:57 17.09.2019
1780 Clouds 31 1008 70 10000 2.1 250 14:39 17.09.2019
1781 Clouds 31 1008 70 10000 2.1 250 14:19 17.09.2019
1782 Clouds 32 1008 66 10000 3.1 270 13:57 17.09.2019
1783 Clouds 32 1008 66 10000 3.1 270 13:38 17.09.2019
1784 Clouds 31 1008 70 10000 3.6 290 13:20 17.09.2019
1785 Clouds 31 1008 70 10000 3.6 290 12:42 17.09.2019
1786 Clouds 31 1008 66 10000 4.1 250 12:20 17.09.2019
1787 Clouds 31 1008 66 10000 4.1 250 11:47 17.09.2019
1788 Clouds 31 1008 66 10000 4.1 250 11:28 17.09.2019
1789 Clouds 32 1009 62 10000 2.6 300 10:59 17.09.2019
1790 Clouds 32 1009 62 10000 2.6 300 10:41 17.09.2019
1791 Clouds 32 1009 62 10000 2.6 300 10:21 17.09.2019
1792 Clouds 32 1010 66 10000 2.6 300 09:56 17.09.2019
1793 Clouds 32 1010 66 10000 2.6 300 09:37 17.09.2019
1794 Clouds 31 1011 70 10000 2.1 300 09:19 17.09.2019
1795 Clouds 28 1011 69 0 2.15 272.927 08:43 17.09.2019
1796 Clouds 31 1011 70 10000 2.6 300 08:25 17.09.2019
1797 Clouds 31 1011 70 10000 2.6 300 07:45 17.09.2019
1798 Clouds 31 1011 70 10000 2.6 300 07:27 17.09.2019
1799 Clouds 30 1011 74 10000 2.6 300 06:57 17.09.2019
1800 Clouds 30 1011 74 10000 2.6 300 06:36 17.09.2019
1801 Clouds 30 1011 74 10000 1.5 310 05:54 17.09.2019
1802 Clouds 28 1010 83 10000 1.5 270 04:56 17.09.2019
1803 Clouds 27 1010 83 10000 1 0 03:49 17.09.2019
1804 Clouds 27 1010 83 10000 1 0 03:49 17.09.2019
1805 Clouds 26 1009 88 10000 1.5 20 02:40 17.09.2019
1806 Clouds 28 1009 83 10000 1 0 01:50 17.09.2019
1807 Clouds 29 1009 79 10000 2.1 290 00:56 17.09.2019
1808 Clouds 29 1009 79 10000 1.5 340 23:42 16.09.2019
1809 Clouds 29 1010 79 10000 1.5 290 23:20 16.09.2019
1810 Clouds 29 1010 79 10000 1.5 290 22:59 16.09.2019
1811 Clouds 29 1010 79 10000 1.5 290 22:41 16.09.2019
1812 Clouds 29 1010 79 10000 1.5 290 22:23 16.09.2019
1813 Clouds 29 1010 79 10000 2.6 290 21:58 16.09.2019
1814 Clouds 29 1010 79 10000 2.6 290 21:38 16.09.2019
1815 Clouds 29 1010 79 10000 2.6 290 21:20 16.09.2019
1816 Clouds 29 1010 79 10000 2.6 290 21:20 16.09.2019
1817 Clouds 29 1011 79 10000 2.1 290 20:55 16.09.2019
1818 Clouds 29 1011 79 10000 2.1 290 20:37 16.09.2019
1819 Clouds 29 1011 79 10000 2.1 290 20:18 16.09.2019
1820 Clouds 29 1011 79 10000 1.5 350 19:42 16.09.2019
1821 Clouds 29 1011 79 10000 1.5 320 19:20 16.09.2019
1822 Clouds 29 1011 79 10000 1.5 320 18:57 16.09.2019
1823 Clouds 29 1011 79 10000 1.5 320 18:39 16.09.2019
1824 Clouds 29 1010 74 10000 1.5 290 18:20 16.09.2019
1825 Clouds 29 1010 74 10000 1.5 290 17:43 16.09.2019
1826 Clouds 29 1010 74 10000 1.5 290 17:24 16.09.2019
1827 Clouds 29 1010 79 10000 3.1 290 16:58 16.09.2019
1828 Clouds 29 1010 79 10000 3.1 290 16:39 16.09.2019
1829 Clouds 30 1009 70 10000 1.5 290 16:20 16.09.2019
1830 Clouds 30 1009 70 10000 1.5 290 15:56 16.09.2019
1831 Clouds 29 1011 68 0 2.8 278.853 15:37 16.09.2019
1832 Clouds 30 1009 70 10000 3.1 290 15:19 16.09.2019
1833 Clouds 30 1009 70 10000 3.1 290 14:44 16.09.2019
1834 Clouds 30 1009 70 10000 3.1 290 14:24 16.09.2019
1835 Clouds 32 1009 66 10000 2.1 260 13:59 16.09.2019
1836 Clouds 32 1009 66 10000 2.1 260 13:39 16.09.2019
1837 Clouds 32 1009 66 10000 2.1 260 13:21 16.09.2019
1838 Clouds 32 1009 66 10000 2.1 290 12:46 16.09.2019
1839 Clouds 32 1009 66 10000 2.1 290 12:27 16.09.2019
1840 Clouds 32 1009 66 10000 3.1 300 11:58 16.09.2019
1841 Clouds 32 1009 66 10000 3.1 300 11:39 16.09.2019
1842 Clouds 32 1009 66 10000 3.1 300 11:21 16.09.2019
1843 Clouds 31 1010 66 10000 3.1 300 10:39 16.09.2019
1844 Clouds 31 1011 66 10000 3.1 310 10:21 16.09.2019
1845 Clouds 31 1011 66 10000 3.1 310 09:58 16.09.2019
1846 Clouds 31 1011 66 10000 3.1 310 09:58 16.09.2019
1847 Clouds 31 1011 66 10000 3.1 310 09:39 16.09.2019
1848 Clouds 31 1011 66 10000 3.1 310 09:19 16.09.2019
1849 Clouds 29 1012 70 0 3.34 296.381 08:47 16.09.2019
1850 Clouds 30 1012 74 10000 2.1 290 08:28 16.09.2019
1851 Clouds 30 1012 74 10000 2.1 290 07:57 16.09.2019
1852 Clouds 30 1012 74 10000 2.1 290 07:57 16.09.2019
1853 Clouds 30 1012 74 10000 2.1 290 07:38 16.09.2019
1854 Clouds 30 1012 74 10000 2.1 290 07:20 16.09.2019
1855 Clouds 30 1012 74 10000 2.1 290 06:46 16.09.2019
1856 Clouds 30 1012 74 10000 2.1 290 06:28 16.09.2019
1857 Clouds 29 1011 79 10000 2.6 280 05:53 16.09.2019
1858 Clouds 29 1011 79 10000 2.6 280 05:32 16.09.2019
1859 Clouds 29 1011 79 10000 2.6 250 04:49 16.09.2019
1860 Clouds 29 1010 79 10000 2.6 240 02:58 16.09.2019
1861 Clouds 29 1010 79 10000 2.6 240 00:44 16.09.2019
1862 Clouds 29 1010 79 10000 2.6 240 00:26 16.09.2019
1863 Clouds 29 1010 79 10000 2.6 240 23:44 15.09.2019
1864 Clouds 29 1010 79 10000 2.6 240 23:21 15.09.2019
1865 Clouds 29 1011 79 10000 2.1 210 22:59 15.09.2019
1866 Clouds 29 1012 79 10000 1 0 22:37 15.09.2019
1867 Clouds 29 1012 79 10000 1 0 22:18 15.09.2019
1868 Clouds 29 1012 79 10000 1 0 21:55 15.09.2019
1869 Clouds 29 1012 79 10000 1 0 21:37 15.09.2019
1870 Clouds 29 1012 79 10000 1 0 21:18 15.09.2019
1871 Clouds 29 1012 79 10000 1 0 20:44 15.09.2019
1872 Clouds 29 1012 79 10000 1 0 20:25 15.09.2019
1873 Clouds 30 1013 70 10000 1.5 180 19:47 15.09.2019
1874 Clouds 30 1013 70 10000 1.5 180 19:27 15.09.2019
1875 Clouds 30 1012 70 10000 1.5 200 18:55 15.09.2019
1876 Clouds 30 1012 70 10000 1.5 200 18:36 15.09.2019
1877 Clouds 30 1012 74 10000 0.5 0 18:18 15.09.2019
1878 Clouds 29 1012 68 0 1.67 211.21 17:41 15.09.2019
1879 Clouds 30 1011 74 10000 1.5 230 17:22 15.09.2019
1880 Clouds 30 1011 74 10000 1.5 230 16:57 15.09.2019
1881 Clouds 30 1011 74 10000 1.5 230 16:38 15.09.2019
1882 Clouds 30 1011 74 10000 1.5 230 16:20 15.09.2019
1883 Clouds 30 1010 74 10000 2.6 250 15:41 15.09.2019
1884 Clouds 30 1010 74 10000 2.6 250 15:21 15.09.2019
1885 Clouds 30 1010 74 10000 1.5 230 14:59 15.09.2019
1886 Clouds 30 1010 74 10000 1.5 230 14:41 15.09.2019
1887 Clouds 30 1010 74 10000 1.5 230 14:23 15.09.2019
1888 Clouds 31 1009 70 10000 1.5 250 13:48 15.09.2019
1889 Clouds 31 1009 70 10000 1.5 250 13:26 15.09.2019
1890 Clouds 31 1009 70 10000 1.5 220 12:59 15.09.2019
1891 Clouds 31 1009 70 10000 1.5 220 12:40 15.09.2019
1892 Clouds 31 1010 70 10000 1.5 220 12:20 15.09.2019
1893 Clouds 31 1010 70 10000 1.5 220 11:43 15.09.2019
1894 Clouds 31 1010 70 10000 1.5 220 11:23 15.09.2019
1895 Clouds 31 1010 66 10000 1 0 10:59 15.09.2019
1896 Clouds 31 1010 66 10000 1 0 10:40 15.09.2019
1897 Clouds 31 1010 66 10000 1 0 10:21 15.09.2019
1898 Clouds 31 1011 70 10000 2.1 190 09:44 15.09.2019
1899 Clouds 31 1011 70 10000 2.1 190 09:21 15.09.2019
1900 Clouds 31 1012 70 10000 2.1 200 08:59 15.09.2019
1901 Clouds 31 1012 70 10000 2.1 200 08:40 15.09.2019
1902 Clouds 31 1012 70 10000 2.1 200 08:19 15.09.2019
1903 Clouds 30 1013 74 10000 1.5 150 07:47 15.09.2019
1904 Clouds 30 1013 74 10000 2.1 200 06:46 15.09.2019
1905 Clouds 30 1013 74 10000 2.1 200 06:27 15.09.2019
1906 Clouds 28 1010 83 10000 0.5 0 03:20 15.09.2019
1907 Clouds 28 1010 83 10000 0.5 0 02:23 15.09.2019
1908 Clouds 28 1011 83 10000 1 0 01:37 15.09.2019
1909 Clouds 28 1011 83 10000 1 0 01:37 15.09.2019
1910 Clouds 28 1010 78 10000 1.19 20.663 00:57 15.09.2019
1911 Clouds 28 1010 78 10000 1.19 20.663 00:37 15.09.2019
1912 Clouds 28 1011 78 10000 1.28 78.356 00:19 15.09.2019
1913 Clouds 28 1011 78 10000 1.28 78.356 23:56 14.09.2019
1914 Clouds 28 1011 78 10000 1.28 78.356 23:38 14.09.2019
1915 Clouds 28 1011 78 10000 1.28 78.356 23:19 14.09.2019
1916 Clouds 28 1011 78 10000 1.5 130 22:57 14.09.2019
1917 Clouds 28 1011 78 10000 1.5 130 22:57 14.09.2019
1918 Clouds 28 1011 78 10000 1.5 130 22:38 14.09.2019
1919 Clouds 29 1012 74 10000 1 0 22:18 14.09.2019
1920 Clouds 28 1010 71 0 1.28 78.356 21:40 14.09.2019
1921 Clouds 29 1013 74 10000 0.5 0 21:21 14.09.2019
1922 Clouds 29 1013 74 10000 0.5 0 20:59 14.09.2019
1923 Clouds 29 1013 69 0 1.36 121.384 20:40 14.09.2019
1924 Clouds 29 1013 74 10000 2.1 120 20:21 14.09.2019
1925 Clouds 29 1013 74 10000 2.1 120 19:49 14.09.2019
1926 Clouds 29 1013 74 10000 2.1 120 19:23 14.09.2019
1927 Clouds 29 1012 74 10000 2.1 160 18:58 14.09.2019
1928 Clouds 29 1012 74 10000 2.1 160 18:39 14.09.2019
1929 Clouds 29 1012 74 10000 2.1 160 18:20 14.09.2019
1930 Clouds 29 1012 74 10000 2.1 120 17:45 14.09.2019
1931 Clouds 29 1012 74 10000 2.1 120 17:24 14.09.2019
1932 Clouds 29 1011 74 10000 1.5 110 16:59 14.09.2019
1933 Clouds 29 1011 74 10000 1.5 110 16:40 14.09.2019
1934 Clouds 30 1011 70 10000 1.5 110 16:19 14.09.2019
1935 Clouds 30 1011 70 10000 1.5 110 15:42 14.09.2019
1936 Clouds 30 1011 70 10000 1.5 110 15:23 14.09.2019
1937 Clouds 30 1010 74 10000 1.5 90 14:57 14.09.2019
1938 Clouds 30 1010 70 10000 3.1 90 14:39 14.09.2019
1939 Clouds 30 1010 70 10000 3.1 90 14:18 14.09.2019
1940 Clouds 30 1010 70 10000 3.1 90 13:47 14.09.2019
1941 Clouds 30 1010 70 10000 3.1 90 13:22 14.09.2019
1942 Clouds 30 1010 74 10000 2.6 80 12:46 14.09.2019
1943 Clouds 30 1010 74 10000 2.6 80 12:24 14.09.2019
1944 Clouds 29 1010 67 0 1.19 91.733 11:41 14.09.2019
1945 Clouds 31 1011 70 10000 4.1 70 11:20 14.09.2019
1946 Clouds 31 1011 70 10000 4.1 70 10:41 14.09.2019
1947 Clouds 31 1011 70 10000 4.1 70 10:23 14.09.2019
1948 Clouds 31 1012 70 10000 5.1 70 09:59 14.09.2019
1949 Clouds 31 1012 70 10000 5.1 70 09:40 14.09.2019
1950 Clouds 31 1012 70 10000 5.1 70 09:21 14.09.2019
1951 Clouds 31 1013 70 10000 4.1 90 08:59 14.09.2019
1952 Clear 29 1013 67 0 2.2 71.161 08:41 14.09.2019
1953 Clouds 31 1013 70 10000 4.1 90 08:21 14.09.2019
1954 Clouds 31 1013 70 10000 4.1 90 07:43 14.09.2019
1955 Clouds 31 1013 70 10000 4.1 90 07:23 14.09.2019
1956 Clouds 30 1013 74 10000 2.6 80 06:36 14.09.2019
1957 Clouds 29 1013 79 10000 2.6 100 05:55 14.09.2019
1958 Clouds 28 1012 83 10000 2.6 110 04:34 14.09.2019
1959 Thunderstorm 28 1012 83 10000 1 0 03:32 14.09.2019
1960 Thunderstorm 28 1011 83 10000 1.5 80 02:48 14.09.2019
1961 Thunderstorm 28 1011 83 10000 1.5 80 02:48 14.09.2019
1962 Thunderstorm 29 1011 79 10000 2.6 40 01:45 14.09.2019
1963 Rain 28 1011 73 0 2.27 66.411 01:20 14.09.2019
1964 Rain 28 1011 73 0 2.27 66.411 00:41 14.09.2019
1965 Clouds 29 1011 79 10000 1.5 40 00:22 14.09.2019
1966 Clouds 29 1011 79 10000 1.5 40 23:56 13.09.2019
1967 Clouds 29 1011 79 10000 1.5 40 23:37 13.09.2019
1968 Clouds 29 1011 79 10000 1.5 30 23:18 13.09.2019
1969 Clouds 29 1011 79 10000 1.5 30 22:55 13.09.2019
1970 Clouds 29 1011 79 10000 1.5 30 22:37 13.09.2019
1971 Clouds 29 1011 79 10000 1.5 30 22:19 13.09.2019
1972 Clouds 29 1012 79 10000 2.1 30 21:40 13.09.2019
1973 Clouds 29 1012 79 10000 2.1 30 21:19 13.09.2019
1974 Clouds 28 1013 88 10000 1.5 40 20:58 13.09.2019
1975 Clouds 28 1013 88 10000 1.5 40 20:38 13.09.2019
1976 Clouds 28 1013 83 10000 1.5 80 20:19 13.09.2019
1977 Clouds 28 1013 83 10000 1.5 80 19:54 13.09.2019
1978 Clouds 28 1013 83 10000 1.5 80 19:36 13.09.2019
1979 Clouds 29 1013 79 10000 2.1 20 19:18 13.09.2019
1980 Clouds 29 1013 79 10000 2.1 20 18:38 13.09.2019
1981 Clouds 29 1012 79 10000 2.1 20 18:20 13.09.2019
1982 Clouds 29 1012 79 10000 2.1 20 17:58 13.09.2019
1983 Clouds 29 1012 79 10000 2.1 20 17:37 13.09.2019
1984 Clouds 29 1012 79 10000 2.1 20 17:18 13.09.2019
1985 Clouds 29 1012 79 10000 2.1 20 17:18 13.09.2019
1986 Clouds 30 1012 74 10000 1 0 16:40 13.09.2019
1987 Clouds 29 1013 69 0 0.41 159.201 16:20 13.09.2019
1988 Clouds 29 1013 69 0 0.41 159.201 15:45 13.09.2019
1989 Clouds 30 1011 70 10000 2.6 360 15:27 13.09.2019
1990 Clouds 30 1011 70 10000 2.6 360 14:57 13.09.2019
1991 Clouds 30 1011 70 10000 2.6 360 14:39 13.09.2019
1992 Clouds 30 1011 70 10000 2.6 360 14:19 13.09.2019
1993 Clouds 31 1011 70 10000 1.5 360 13:45 13.09.2019
1994 Clouds 31 1011 70 10000 1.5 360 13:23 13.09.2019
1995 Clouds 30 1011 74 10000 2.6 360 12:56 13.09.2019
1996 Clouds 30 1011 74 10000 2.6 360 12:38 13.09.2019
1997 Clouds 30 1011 70 10000 3.1 90 12:20 13.09.2019
1998 Clouds 30 1011 70 10000 3.1 90 11:54 13.09.2019
1999 Clouds 30 1011 70 10000 3.1 90 11:18 13.09.2019
2000 Clouds 30 1012 66 10000 4.1 20 10:38 13.09.2019
2001 Clouds 30 1012 66 10000 4.1 20 10:19 13.09.2019
2002 Rain 30 1014 74 10000 4.6 20 09:44 13.09.2019
2003 Rain 30 1014 74 10000 4.6 20 09:24 13.09.2019
2004 Clouds 31 1014 70 10000 5.7 350 08:58 13.09.2019
2005 Clouds 31 1014 70 10000 5.7 350 08:40 13.09.2019
2006 Clouds 31 1014 70 10000 5.7 350 08:40 13.09.2019
2007 Clouds 31 1014 70 10000 5.7 350 08:20 13.09.2019
2008 Clouds 28 1014 71 0 1.07 173.89 07:45 13.09.2019
2009 Clouds 29 1014 79 10000 1 0 07:27 13.09.2019
2010 Clouds 29 1014 79 10000 1 0 06:45 13.09.2019
2011 Clouds 29 1013 83 10000 1 0 05:47 13.09.2019
2012 Clouds 28 1013 83 10000 0.5 0 04:53 13.09.2019
2013 Clouds 28 1014 70 0 1.77 158.783 03:39 13.09.2019
2014 Thunderstorm 28 1011 78 10000 2.6 30 02:20 13.09.2019
2015 Thunderstorm 28 1011 78 10000 2.6 30 01:42 13.09.2019
2016 Thunderstorm 28 1011 78 10000 2.6 30 01:22 13.09.2019
2017 Thunderstorm 28 1011 83 10000 1.5 100 00:38 13.09.2019
2018 Thunderstorm 28 1011 83 10000 0.5 0 23:58 12.09.2019
2019 Thunderstorm 28 1011 83 10000 0.5 0 23:36 12.09.2019
2020 Thunderstorm 29 1012 79 10000 1 0 22:59 12.09.2019
2021 Clouds 29 1011 68 0 1.51 326.215 22:41 12.09.2019
2022 Clouds 29 1012 79 10000 0.5 0 22:23 12.09.2019
2023 Clouds 29 1012 79 10000 0.5 0 21:57 12.09.2019
2024 Clouds 29 1011 68 0 1.51 326.215 21:37 12.09.2019
2025 Clouds 29 1014 66 0 0.84 306.87 21:19 12.09.2019
2026 Clouds 29 1013 79 10000 1 0 20:55 12.09.2019
2027 Clouds 29 1013 79 10000 1 0 20:37 12.09.2019
2028 Clouds 29 1013 79 10000 1 0 20:19 12.09.2019
2029 Clouds 29 1013 79 10000 1 0 20:19 12.09.2019
2030 Clouds 29 1013 79 10000 1 0 19:41 12.09.2019
2031 Clouds 29 1013 79 10000 1.5 140 19:20 12.09.2019
2032 Clouds 29 1013 79 10000 1.5 140 18:58 12.09.2019
2033 Clouds 29 1013 79 10000 1.5 140 18:37 12.09.2019
2034 Clouds 29 1012 79 10000 0.71 35.631 18:18 12.09.2019
2035 Clouds 29 1012 79 10000 0.71 35.631 17:54 12.09.2019
2036 Clouds 29 1012 79 10000 0.71 35.631 17:36 12.09.2019
2037 Clouds 29 1012 79 10000 0.71 35.631 17:18 12.09.2019
2038 Clouds 29 1012 79 10000 0.5 0 16:41 12.09.2019
2039 Clouds 29 1012 79 10000 0.5 0 16:21 12.09.2019
2040 Clouds 30 1011 74 10000 1 0 15:43 12.09.2019
2041 Clouds 30 1011 74 10000 1 0 15:24 12.09.2019
2042 Clouds 31 1010 70 10000 1.5 290 14:58 12.09.2019
2043 Clouds 29 1011 64 0 1.21 16.786 14:39 12.09.2019
2044 Clouds 30 1010 74 10000 1 0 14:20 12.09.2019
2045 Clouds 30 1010 74 10000 1 0 13:39 12.09.2019
2046 Clouds 30 1010 74 10000 1 0 13:21 12.09.2019
2047 Clouds 30 1010 79 10000 1.5 90 12:49 12.09.2019
2048 Clouds 31 1010 70 10000 2.1 100 12:20 12.09.2019
2049 Clouds 31 1010 70 10000 2.1 100 11:58 12.09.2019
2050 Clouds 31 1010 70 10000 2.1 100 11:40 12.09.2019
2051 Clouds 31 1010 70 10000 2.1 100 11:21 12.09.2019
2052 Clouds 31 1011 70 10000 1.5 230 10:54 12.09.2019
2053 Clouds 31 1011 70 10000 1.5 230 10:36 12.09.2019
2054 Clouds 30 1012 79 10000 1.5 230 10:18 12.09.2019
2055 Clouds 30 1012 79 10000 1.5 230 09:42 12.09.2019
2056 Clouds 31 1013 74 10000 1 0 09:20 12.09.2019
2057 Clouds 29 1013 68 0 1.62 176.716 08:44 12.09.2019
2058 Clouds 30 1013 79 10000 1 0 08:25 12.09.2019
2059 Clouds 30 1013 79 10000 1 0 07:55 12.09.2019
2060 Clouds 30 1013 79 10000 1 0 07:36 12.09.2019
2061 Clouds 30 1013 74 10000 1 0 07:18 12.09.2019
2062 Clouds 30 1013 74 10000 1 0 06:45 12.09.2019
2063 Clouds 30 1013 74 10000 0.5 0 06:18 12.09.2019
2064 Clouds 30 1013 74 10000 0.5 0 05:42 12.09.2019
2065 Clouds 30 1013 74 10000 0.5 0 05:19 12.09.2019
2066 Clouds 29 1012 79 10000 1 0 03:58 12.09.2019
2067 Clouds 29 1011 79 10000 1.5 220 01:44 12.09.2019
2068 Clouds 29 1011 79 10000 1.5 220 01:26 12.09.2019
2069 Clouds 28 1011 71 0 2.43 257.387 00:50 12.09.2019
2070 Clouds 29 1011 79 10000 2.1 210 00:31 12.09.2019
2071 Clouds 29 1011 71 0 1.99 243.975 23:47 11.09.2019
2072 Clouds 29 1012 79 10000 2.1 230 23:27 11.09.2019
2073 Clouds 29 1012 79 10000 2.1 230 22:58 11.09.2019
2074 Clouds 29 1012 79 10000 2.1 230 22:38 11.09.2019
2075 Clouds 29 1011 71 0 1.99 243.975 22:20 11.09.2019
2076 Clouds 29 1011 71 0 1.99 243.975 22:20 11.09.2019
2077 Clouds 29 1011 71 0 1.99 243.975 21:59 11.09.2019
2078 Clouds 29 1011 71 0 1.99 243.975 21:41 11.09.2019
2079 Clouds 30 1013 74 10000 2.6 230 21:22 11.09.2019
2080 Clouds 30 1013 74 10000 2.6 230 20:56 11.09.2019
2081 Clouds 30 1013 74 10000 2.6 230 20:38 11.09.2019
2082 Clouds 30 1013 74 10000 3.1 220 20:19 11.09.2019
2083 Clouds 30 1013 74 10000 3.1 220 19:56 11.09.2019
2084 Clouds 30 1013 74 10000 3.1 220 19:56 11.09.2019
2085 Clouds 30 1013 74 10000 3.1 220 19:37 11.09.2019
2086 Clouds 30 1013 74 10000 3.1 230 19:19 11.09.2019
2087 Clouds 30 1013 74 10000 3.1 230 18:43 11.09.2019
2088 Clouds 30 1013 74 10000 3.1 230 18:23 11.09.2019
2089 Clouds 30 1012 74 10000 3.1 240 17:58 11.09.2019
2090 Clouds 30 1012 74 10000 3.1 240 17:40 11.09.2019
2091 Clouds 30 1011 79 10000 2.6 240 17:21 11.09.2019
2092 Clouds 30 1011 79 10000 2.6 240 16:56 11.09.2019
2093 Clouds 30 1011 79 10000 2.6 240 16:56 11.09.2019
2094 Clouds 30 1011 79 10000 2.6 240 16:37 11.09.2019
2095 Clouds 30 1010 79 10000 3.6 250 16:19 11.09.2019
2096 Clouds 30 1010 79 10000 3.6 250 15:46 11.09.2019
2097 Clouds 30 1010 79 10000 3.6 250 15:23 11.09.2019
2098 Clouds 31 1009 74 10000 3.6 250 14:58 11.09.2019
2099 Clouds 31 1009 74 10000 3.6 250 14:38 11.09.2019
2100 Clouds 31 1009 74 10000 3.6 250 14:20 11.09.2019
2101 Clouds 31 1009 74 10000 4.1 250 13:57 11.09.2019
2102 Clouds 31 1009 74 10000 4.1 250 13:36 11.09.2019
2103 Clouds 31 1009 74 10000 4.6 250 13:18 11.09.2019
2104 Clouds 31 1009 74 10000 4.6 250 12:41 11.09.2019
2105 Clouds 31 1009 74 10000 4.6 250 12:21 11.09.2019
2106 Clouds 32 1009 66 10000 3.6 250 11:56 11.09.2019
2107 Clouds 32 1009 66 10000 3.6 250 11:37 11.09.2019
2108 Clouds 32 1009 66 10000 3.6 250 11:18 11.09.2019
2109 Clouds 32 1010 75 10000 4.6 250 10:40 11.09.2019
2110 Clouds 32 1010 75 10000 4.6 250 10:22 11.09.2019
2111 Clouds 32 1011 70 10000 4.1 250 09:56 11.09.2019
2112 Clouds 29 1009 68 0 3.36 263.993 09:36 11.09.2019
2113 Clouds 32 1012 70 10000 4.1 250 09:18 11.09.2019
2114 Clouds 32 1012 70 10000 4.1 250 08:40 11.09.2019
2115 Clouds 32 1012 70 10000 4.1 250 08:21 11.09.2019
2116 Clouds 30 1012 79 10000 4.1 250 07:46 11.09.2019
2117 Clouds 30 1012 79 10000 4.1 290 07:23 11.09.2019
2118 Clouds 30 1012 79 10000 4.1 290 06:54 11.09.2019
2119 Clouds 30 1012 79 10000 4.1 290 06:35 11.09.2019
2120 Clouds 29 1012 73 0 3.57 264.967 05:49 11.09.2019
2121 Clouds 29 1011 83 10000 4.1 270 05:29 11.09.2019
2122 Clouds 29 1011 83 10000 4.1 270 04:51 11.09.2019
2123 Clouds 29 1010 83 10000 4.1 290 03:37 11.09.2019
2124 Clouds 28 1010 88 10000 2.1 270 02:58 11.09.2019
2125 Clouds 28 1010 88 10000 2.1 270 02:28 11.09.2019
2126 Clouds 28 1009 83 10000 3.1 250 00:57 11.09.2019
2127 Clouds 28 1009 83 10000 3.1 250 00:31 11.09.2019
2128 Rain 29 1010 83 8000 4.6 290 23:58 10.09.2019
2129 Clear 28 1009 72 0 3.56 256.097 23:39 10.09.2019
2130 Clouds 29 1010 83 10000 3.1 290 23:20 10.09.2019
2131 Clouds 29 1010 83 10000 3.1 290 22:41 10.09.2019
2132 Clouds 29 1010 83 10000 3.1 290 22:20 10.09.2019
2133 Clouds 29 1011 79 10000 3.6 290 21:57 10.09.2019
2134 Clouds 29 1011 79 10000 3.6 290 21:38 10.09.2019
2135 Clouds 29 1011 79 10000 3.6 290 21:20 10.09.2019
2136 Clouds 28 1011 83 10000 2.6 260 20:58 10.09.2019
2137 Clouds 28 1011 83 10000 2.6 260 20:40 10.09.2019
2138 Clouds 28 1011 83 10000 2.6 260 20:22 10.09.2019
2139 Clouds 30 1012 79 10000 3.6 260 19:57 10.09.2019
2140 Clouds 30 1012 79 10000 3.6 260 19:38 10.09.2019
2141 Clouds 30 1011 79 10000 3.6 270 19:19 10.09.2019
2142 Clouds 30 1011 79 10000 3.6 270 18:58 10.09.2019
2143 Clouds 30 1011 79 10000 3.6 270 18:39 10.09.2019
2144 Clouds 30 1010 79 10000 3.6 280 18:21 10.09.2019
2145 Clouds 30 1010 79 10000 3.6 280 17:54 10.09.2019
2146 Clouds 29 1010 83 10000 2.1 290 17:36 10.09.2019
2147 Clouds 29 1010 83 10000 2.1 290 17:36 10.09.2019
2148 Clouds 29 1010 83 10000 2.1 290 17:18 10.09.2019
2149 Clouds 29 1010 83 10000 2.1 290 16:55 10.09.2019
2150 Clouds 29 1010 83 10000 2.1 290 16:55 10.09.2019
2151 Clouds 29 1010 83 10000 2.1 290 16:55 10.09.2019
2152 Clouds 29 1010 83 10000 2.1 290 16:36 10.09.2019
2153 Clouds 30 1009 79 10000 2.6 290 16:18 10.09.2019
2154 Clouds 30 1009 79 10000 2.6 290 15:42 10.09.2019
2155 Clouds 30 1009 79 10000 2.6 290 15:21 10.09.2019
2156 Clouds 31 1008 74 10000 3.6 290 14:55 10.09.2019
2157 Clouds 31 1008 74 10000 3.6 290 14:36 10.09.2019
2158 Clouds 31 1008 74 10000 4.1 290 14:18 10.09.2019
2159 Rain 29 1009 75 0 4.5 278.312 13:43 10.09.2019
2160 Clouds 31 1008 79 10000 4.6 290 13:22 10.09.2019
2161 Clouds 31 1008 79 10000 4.6 290 12:51 10.09.2019
2162 Clouds 31 1008 79 10000 4.6 290 12:28 10.09.2019
2163 Clouds 32 1008 70 10000 3.6 290 11:58 10.09.2019
2164 Clouds 32 1008 70 10000 3.6 290 11:40 10.09.2019
2165 Clouds 32 1009 66 10000 4.1 290 11:21 10.09.2019
2166 Clouds 32 1009 66 10000 4.1 290 10:42 10.09.2019
2167 Clouds 31 1010 74 10000 3.1 290 10:21 10.09.2019
2168 Clouds 31 1010 74 10000 3.1 290 09:59 10.09.2019
2169 Clouds 31 1010 74 10000 3.1 290 09:41 10.09.2019
2170 Clouds 31 1011 74 10000 3.1 290 09:19 10.09.2019
2171 Clouds 31 1011 74 10000 3.1 290 09:19 10.09.2019
2172 Clouds 31 1011 74 10000 3.1 290 08:47 10.09.2019
2173 Clouds 31 1011 74 10000 3.1 290 08:29 10.09.2019
2174 Clouds 31 1011 74 10000 3.1 300 07:56 10.09.2019
2175 Clouds 31 1011 74 10000 3.1 300 07:37 10.09.2019
2176 Clouds 31 1011 70 10000 3.1 290 07:19 10.09.2019
2177 Clouds 31 1011 70 10000 3.1 290 06:39 10.09.2019
2178 Clouds 30 1011 74 10000 3.6 280 06:19 10.09.2019
2179 Clouds 29 1010 83 10000 3.6 250 04:18 10.09.2019
2180 Clouds 29 1009 83 10000 3.6 250 02:38 10.09.2019
2181 Clouds 29 1009 79 10000 4.1 290 02:19 10.09.2019
2182 Clouds 29 1009 79 10000 4.1 290 01:50 10.09.2019
2183 Clouds 29 1009 79 10000 4.1 290 01:50 10.09.2019
2184 Clouds 29 1009 79 10000 4.1 290 01:50 10.09.2019
2185 Clouds 29 1009 79 10000 4.1 290 01:50 10.09.2019
2186 Clouds 29 1009 79 10000 4.1 290 01:50 10.09.2019
2187 Clouds 29 1009 79 10000 4.6 290 01:22 10.09.2019
2188 Clouds 29 1009 79 10000 4.6 290 00:36 10.09.2019
2189 Clouds 29 1009 79 10000 4.6 290 00:36 10.09.2019
2190 Clouds 29 1007 79 10000 3.6 270 23:56 09.09.2019
2191 Clouds 29 1007 79 10000 3.6 270 23:36 09.09.2019
2192 Clouds 29 1011 79 10000 4.1 290 23:18 09.09.2019
2193 Clouds 29 1011 79 10000 4.1 290 22:54 09.09.2019
2194 Clouds 29 1011 79 10000 4.1 290 22:36 09.09.2019
2195 Clouds 29 1011 79 10000 4.1 290 22:18 09.09.2019
2196 Clouds 29 1011 79 10000 4.1 290 21:54 09.09.2019
2197 Clouds 29 1011 79 10000 4.1 290 21:36 09.09.2019
2198 Clouds 29 1011 79 10000 4.6 280 21:18 09.09.2019
2199 Clouds 29 1011 79 10000 4.6 280 20:54 09.09.2019
2200 Clouds 29 1011 79 10000 4.6 280 20:36 09.09.2019
2201 Clouds 29 1012 79 10000 5.1 280 20:18 09.09.2019
2202 Clouds 29 1012 79 10000 5.1 280 19:55 09.09.2019
2203 Clouds 29 1012 79 10000 5.1 280 19:36 09.09.2019
2204 Clouds 29 1011 79 10000 5.1 280 19:18 09.09.2019
2205 Clouds 29 1011 79 10000 5.1 280 18:41 09.09.2019
2206 Clouds 29 1011 79 10000 5.7 290 18:22 09.09.2019
2207 Clouds 29 1011 79 10000 5.7 290 17:59 09.09.2019
2208 Clouds 29 1011 79 10000 5.7 290 17:41 09.09.2019
2209 Clouds 29 1010 79 10000 6.2 290 17:21 09.09.2019
2210 Clouds 29 1010 79 10000 6.2 290 16:57 09.09.2019
2211 Clouds 29 1010 79 10000 6.2 290 16:39 09.09.2019
2212 Clouds 30 1009 74 10000 6.2 290 16:20 09.09.2019
2213 Clouds 30 1009 74 10000 6.2 290 16:20 09.09.2019
2214 Clouds 30 1009 74 10000 6.2 290 15:56 09.09.2019
2215 Clouds 30 1009 74 10000 6.2 290 15:56 09.09.2019
2216 Clouds 30 1009 74 10000 6.2 290 15:37 09.09.2019
2217 Clouds 30 1009 74 10000 5.1 290 15:19 09.09.2019
2218 Clouds 30 1009 74 10000 5.1 290 14:57 09.09.2019
2219 Clouds 30 1009 74 10000 5.1 290 14:38 09.09.2019
2220 Clouds 31 1008 70 10000 5.1 290 14:19 09.09.2019
2221 Clouds 31 1008 70 10000 5.1 290 13:44 09.09.2019
2222 Clouds 31 1008 70 10000 5.7 300 13:21 09.09.2019
2223 Clouds 31 1008 70 10000 5.7 300 12:58 09.09.2019
2224 Clouds 31 1008 70 10000 5.7 300 12:58 09.09.2019
2225 Clouds 31 1008 70 10000 5.7 300 12:40 09.09.2019
2226 Clouds 31 1008 70 10000 5.7 300 12:40 09.09.2019
2227 Clouds 31 1009 74 10000 2.1 320 12:20 09.09.2019
2228 Clouds 31 1009 74 10000 2.1 320 11:48 09.09.2019
2229 Clouds 31 1009 74 10000 2.1 320 11:24 09.09.2019
2230 Clouds 31 1010 74 10000 3.6 290 10:59 09.09.2019
2231 Clouds 31 1010 74 10000 3.6 290 10:41 09.09.2019
2232 Clouds 31 1010 74 10000 2.1 300 10:21 09.09.2019
2233 Clouds 31 1010 74 10000 2.1 300 09:57 09.09.2019
2234 Rain 28 1009 77 0 5.48 268.923 09:38 09.09.2019
2235 Clouds 31 1011 74 10000 2.1 300 09:19 09.09.2019
2236 Clouds 31 1011 74 10000 2.1 300 09:19 09.09.2019
2237 Clouds 31 1011 74 10000 2.1 300 08:39 09.09.2019
2238 Clouds 30 1012 79 10000 2.1 330 08:20 09.09.2019
2239 Clouds 30 1012 79 10000 2.1 330 08:20 09.09.2019
2240 Clouds 30 1012 79 10000 2.1 330 07:47 09.09.2019
2241 Clouds 31 1012 74 10000 1.5 360 07:23 09.09.2019
2242 Clouds 31 1012 74 10000 1.5 360 06:58 09.09.2019
2243 Clouds 31 1012 74 10000 1.5 360 06:36 09.09.2019
2244 Clouds 29 1010 83 10000 2.1 360 04:56 09.09.2019
2245 Clouds 28 1009 83 10000 3.1 340 02:59 09.09.2019
2246 Clouds 28 1009 83 10000 3.1 340 02:38 09.09.2019
2247 Clouds 28 1009 83 10000 2.6 310 00:46 09.09.2019
2248 Clouds 28 1009 83 10000 3.6 290 00:22 09.09.2019
2249 Clouds 28 1009 83 10000 3.6 290 23:46 08.09.2019
2250 Clouds 28 1009 83 10000 3.6 290 23:24 08.09.2019
2251 Clouds 28 1010 83 10000 5.7 270 22:57 08.09.2019
2252 Clouds 28 1010 83 10000 5.7 270 22:38 08.09.2019
2253 Clouds 28 1011 88 10000 7.2 260 22:19 08.09.2019
2254 Clouds 28 1011 88 10000 7.2 260 21:42 08.09.2019
2255 Clouds 29 1012 83 10000 7.7 250 21:23 08.09.2019
2256 Clouds 29 1012 83 10000 7.7 250 20:58 08.09.2019
2257 Clouds 29 1012 83 10000 7.7 250 20:39 08.09.2019
2258 Clouds 29 1012 83 10000 7.7 270 20:20 08.09.2019
2259 Clouds 29 1012 83 10000 7.7 270 19:59 08.09.2019
2260 Clouds 29 1012 83 10000 7.7 270 19:38 08.09.2019
2261 Clouds 29 1012 83 10000 4.6 240 19:19 08.09.2019
2262 Clouds 29 1012 83 10000 4.6 240 18:57 08.09.2019
2263 Clouds 29 1012 83 10000 4.6 240 18:38 08.09.2019
2264 Clouds 27 1012 88 10000 4.1 250 18:18 08.09.2019
2265 Clouds 27 1012 88 10000 4.1 250 17:56 08.09.2019
2266 Clouds 27 1012 88 10000 4.1 250 17:36 08.09.2019
2267 Clouds 29 1011 83 10000 4.6 260 17:18 08.09.2019
2268 Clouds 29 1011 83 10000 4.6 260 16:43 08.09.2019
2269 Clouds 29 1010 79 10000 6.7 250 16:22 08.09.2019
2270 Clouds 29 1010 79 10000 6.7 250 15:58 08.09.2019
2271 Clouds 29 1010 79 10000 6.7 250 15:40 08.09.2019
2272 Clouds 31 1009 74 10000 5.7 250 15:21 08.09.2019
2273 Clouds 31 1009 74 10000 5.7 250 14:56 08.09.2019
2274 Clouds 31 1009 74 10000 5.7 250 14:37 08.09.2019
2275 Clouds 31 1009 74 10000 4.6 250 14:19 08.09.2019
2276 Clouds 31 1009 74 10000 4.6 250 13:55 08.09.2019
2277 Clouds 31 1009 74 10000 4.6 250 13:36 08.09.2019
2278 Clouds 31 1009 79 10000 5.7 250 13:18 08.09.2019
2279 Clouds 31 1009 79 10000 5.7 250 12:41 08.09.2019
2280 Clouds 31 1009 79 10000 5.7 250 12:41 08.09.2019
2281 Clouds 32 1009 70 10000 5.7 300 12:23 08.09.2019
2282 Clouds 32 1009 70 10000 5.7 300 11:58 08.09.2019
2283 Clouds 32 1009 70 10000 5.7 300 11:39 08.09.2019
2284 Clouds 32 1010 75 10000 5.1 290 11:20 08.09.2019
2285 Clouds 32 1010 75 10000 5.1 290 10:57 08.09.2019
2286 Clouds 32 1010 75 10000 5.1 290 10:57 08.09.2019
2287 Clouds 32 1010 75 10000 5.1 290 10:39 08.09.2019
2288 Clouds 31 1011 79 10000 5.1 290 10:21 08.09.2019
2289 Clouds 31 1011 79 10000 5.1 290 09:38 08.09.2019
2290 Clouds 31 1011 74 10000 5.1 290 09:20 08.09.2019
2291 Clouds 31 1011 74 10000 5.1 290 08:56 08.09.2019
2292 Clouds 31 1011 74 10000 5.1 290 08:56 08.09.2019
2293 Clouds 31 1011 74 10000 5.1 290 08:38 08.09.2019
2294 Clouds 31 1011 74 10000 5.1 290 08:38 08.09.2019
2295 Clouds 31 1012 74 10000 4.1 300 08:18 08.09.2019
2296 Clouds 31 1012 74 10000 4.1 300 08:18 08.09.2019
2297 Clouds 31 1012 74 10000 4.1 300 07:39 08.09.2019
2298 Clouds 30 1012 79 10000 3.6 290 07:20 08.09.2019
2299 Clouds 30 1012 79 10000 3.6 290 06:53 08.09.2019
2300 Clouds 30 1012 79 10000 3.6 290 06:31 08.09.2019
2301 Clouds 29 1012 83 10000 3.1 290 05:38 08.09.2019
2302 Clouds 28 1011 88 10000 4.1 280 03:56 08.09.2019
2303 Clouds 29 1011 72 0 2.33 296.455 02:57 08.09.2019
2304 Clouds 29 1011 72 0 2.33 296.455 02:26 08.09.2019
2305 Clouds 28 1010 83 10000 3.6 290 01:49 08.09.2019
2306 Clouds 28 1010 83 10000 3.6 290 01:22 08.09.2019
2307 Clouds 28 1010 83 10000 3.6 290 00:45 08.09.2019
2308 Clouds 28 1010 83 10000 3.6 290 00:26 08.09.2019
2309 Clouds 29 1010 74 10000 3.1 290 23:38 07.09.2019
2310 Clouds 28 1011 83 10000 4.1 240 23:20 07.09.2019
2311 Clouds 28 1011 83 10000 4.1 240 22:57 07.09.2019
2312 Clouds 28 1011 83 10000 4.1 240 22:39 07.09.2019
2313 Rain 28 1012 88 9000 3.6 240 22:20 07.09.2019
2314 Rain 28 1012 88 9000 3.6 240 22:20 07.09.2019
2315 Rain 28 1012 88 9000 3.6 240 21:42 07.09.2019
2316 Clouds 28 1013 83 10000 3.1 220 21:24 07.09.2019
2317 Clouds 28 1013 83 10000 3.1 220 20:57 07.09.2019
2318 Clouds 28 1013 83 10000 3.1 220 20:38 07.09.2019
2319 Rain 28 1013 83 9000 4.6 250 20:19 07.09.2019
2320 Rain 28 1013 83 9000 4.6 250 19:55 07.09.2019
2321 Rain 28 1013 83 9000 4.6 250 19:37 07.09.2019
2322 Clouds 28 1011 88 10000 8.7 270 19:18 07.09.2019
2323 Clouds 28 1011 88 10000 8.7 270 18:55 07.09.2019
2324 Clouds 28 1011 88 10000 8.7 270 18:55 07.09.2019
2325 Clouds 28 1011 88 10000 8.7 270 18:36 07.09.2019
2326 Rain 29 1012 71 0 2.4 225.759 18:18 07.09.2019
2327 Rain 29 1012 71 0 2.4 225.759 17:55 07.09.2019
2328 Rain 29 1012 71 0 2.4 225.759 17:55 07.09.2019
2329 Rain 29 1012 71 0 2.4 225.759 17:36 07.09.2019
2330 Rain 27 1010 88 9000 10.3 300 17:18 07.09.2019
2331 Rain 27 1010 88 9000 10.3 300 16:43 07.09.2019
2332 Rain 27 1010 88 9000 10.3 300 16:21 07.09.2019
2333 Clouds 30 1010 79 10000 4.6 290 15:50 07.09.2019
2334 Clouds 30 1010 79 10000 4.6 290 15:27 07.09.2019
2335 Clouds 30 1009 79 10000 3.6 310 14:58 07.09.2019
2336 Clouds 30 1009 79 10000 3.6 310 14:38 07.09.2019
2337 Clouds 30 1008 79 10000 2.6 320 14:20 07.09.2019
2338 Clouds 30 1008 79 10000 2.6 320 14:20 07.09.2019
2339 Clouds 30 1008 79 10000 2.6 320 13:59 07.09.2019
2340 Clouds 30 1008 79 10000 2.6 320 13:41 07.09.2019
2341 Clouds 31 1008 74 10000 2.6 340 13:23 07.09.2019
2342 Clouds 31 1008 74 10000 2.6 340 12:46 07.09.2019
2343 Clouds 30 1009 79 10000 2.6 290 12:26 07.09.2019
2344 Clouds 30 1009 79 10000 2.6 290 11:59 07.09.2019
2345 Clouds 30 1009 79 10000 2.6 290 11:40 07.09.2019
2346 Clouds 31 1009 74 10000 5.1 250 11:20 07.09.2019
2347 Clouds 31 1009 74 10000 5.1 250 10:41 07.09.2019
2348 Clouds 31 1009 74 10000 5.1 250 10:41 07.09.2019
2349 Clouds 31 1010 74 10000 5.1 250 10:22 07.09.2019
2350 Clouds 31 1010 74 10000 5.1 250 09:57 07.09.2019
2351 Clouds 31 1010 74 10000 5.1 250 09:39 07.09.2019
2352 Clouds 31 1010 74 10000 5.1 250 09:39 07.09.2019
2353 Clouds 31 1011 70 10000 6.7 250 09:20 07.09.2019
2354 Clouds 31 1011 70 10000 6.7 250 08:44 07.09.2019
2355 Clouds 31 1011 70 10000 6.7 250 08:26 07.09.2019
2356 Clouds 30 1011 74 10000 6.7 250 07:48 07.09.2019
2357 Clouds 30 1011 74 10000 6.7 250 07:28 07.09.2019
2358 Clouds 30 1011 74 10000 4.6 250 06:53 07.09.2019
2359 Clouds 30 1011 74 10000 4.6 250 06:29 07.09.2019
2360 Clouds 29 1010 79 10000 3.6 270 05:32 07.09.2019
2361 Clouds 28 1010 78 10000 3.6 250 04:25 07.09.2019
2362 Clouds 28 1009 78 10000 3.1 230 02:57 07.09.2019
2363 Clouds 27 1009 88 10000 5.1 240 02:21 07.09.2019
2364 Clouds 27 1009 88 10000 5.1 240 01:26 07.09.2019
2365 Rain 27 1009 88 7000 6.2 240 00:44 07.09.2019
2366 Rain 26 1010 94 7000 6.7 230 00:21 07.09.2019
2367 Rain 26 1010 94 7000 6.7 230 23:43 06.09.2019
2368 Rain 26 1010 94 7000 6.7 230 23:23 06.09.2019
2369 Rain 26 1010 94 7000 6.7 230 23:23 06.09.2019
2370 Rain 28 1009 74 0 2.63 210.814 22:59 06.09.2019
2371 Rain 28 1009 74 0 2.63 210.814 22:40 06.09.2019
2372 Clouds 27 1010 88 10000 4.1 230 22:19 06.09.2019
2373 Clouds 27 1010 88 10000 4.1 230 21:59 06.09.2019
2374 Clouds 27 1010 88 10000 4.1 230 21:40 06.09.2019
2375 Clouds 27 1010 88 10000 4.1 230 21:22 06.09.2019
2376 Rain 25 1011 100 6000 6.2 280 20:59 06.09.2019
2377 Rain 25 1011 100 6000 6.2 280 20:40 06.09.2019
2378 Rain 29 1011 83 6000 2.1 190 20:21 06.09.2019
2379 Rain 29 1011 83 6000 2.1 190 20:21 06.09.2019
2380 Rain 29 1011 83 6000 2.1 190 19:58 06.09.2019
2381 Rain 29 1011 83 6000 2.1 190 19:39 06.09.2019
2382 Clouds 29 1010 83 10000 2.6 220 19:20 06.09.2019
2383 Clouds 29 1010 83 10000 2.6 220 19:20 06.09.2019
2384 Clouds 29 1010 83 10000 2.6 220 18:47 06.09.2019
2385 Clouds 30 1010 74 10000 3.1 240 18:28 06.09.2019
2386 Clouds 30 1010 74 10000 3.1 240 17:59 06.09.2019
2387 Clouds 30 1010 74 10000 3.1 240 17:38 06.09.2019
2388 Rain 30 1009 79 10000 3.6 250 17:19 06.09.2019
2389 Rain 30 1009 79 10000 3.6 250 16:42 06.09.2019
2390 Clouds 30 1009 79 10000 4.6 230 16:19 06.09.2019
2391 Clouds 30 1009 79 10000 4.6 230 15:59 06.09.2019
2392 Clouds 30 1009 79 10000 4.6 230 15:39 06.09.2019
2393 Clouds 31 1008 74 10000 1 0 15:21 06.09.2019
2394 Clouds 31 1008 74 10000 1 0 14:40 06.09.2019
2395 Clouds 31 1008 74 10000 2.6 250 14:18 06.09.2019
2396 Clouds 31 1008 74 10000 2.6 250 13:43 06.09.2019
2397 Clouds 31 1008 74 10000 2.6 290 13:22 06.09.2019
2398 Clouds 31 1008 74 10000 2.6 290 13:22 06.09.2019
2399 Clouds 31 1008 74 10000 2.6 290 12:41 06.09.2019
2400 Clouds 32 1008 70 10000 3.1 250 12:23 06.09.2019
2401 Clouds 32 1008 70 10000 3.1 250 11:59 06.09.2019
2402 Clouds 32 1008 70 10000 3.1 250 11:40 06.09.2019
2403 Clouds 31 1009 74 10000 3.1 220 11:22 06.09.2019
2404 Clouds 31 1009 74 10000 3.1 220 10:54 06.09.2019
2405 Clouds 31 1009 74 10000 3.1 220 10:54 06.09.2019
2406 Clouds 31 1009 74 10000 3.1 220 10:36 06.09.2019
2407 Clouds 32 1009 70 10000 3.6 230 10:18 06.09.2019
2408 Clouds 32 1009 70 10000 3.6 230 09:38 06.09.2019
2409 Clouds 32 1010 70 10000 4.1 200 09:19 06.09.2019
2410 Clouds 32 1010 70 10000 4.1 200 08:54 06.09.2019
2411 Clouds 32 1010 70 10000 4.1 200 08:36 06.09.2019
2412 Clouds 32 1011 70 10000 4.1 200 08:18 06.09.2019
2413 Clouds 32 1011 70 10000 4.1 200 07:41 06.09.2019
2414 Clouds 31 1010 74 10000 3.6 200 07:22 06.09.2019
2415 Clouds 31 1010 74 10000 3.6 200 06:41 06.09.2019
2416 Clouds 30 1010 79 10000 2.6 200 05:57 06.09.2019
2417 Clouds 29 1010 83 10000 2.6 230 04:56 06.09.2019
2418 Clouds 29 1011 75 0 3.78 190.127 04:25 06.09.2019
2419 Clouds 28 1009 88 10000 3.1 230 03:23 06.09.2019
2420 Thunderstorm 28 1009 88 10000 3.1 220 01:31 06.09.2019
2421 Thunderstorm 29 1009 83 10000 3.6 150 00:22 06.09.2019
2422 Thunderstorm 29 1009 83 10000 3.6 150 23:42 05.09.2019
2423 Thunderstorm 29 1009 83 10000 3.1 140 23:22 05.09.2019
2424 Thunderstorm 29 1009 83 10000 3.1 140 22:46 05.09.2019
2425 Thunderstorm 29 1009 83 10000 3.1 140 22:27 05.09.2019
2426 Thunderstorm 29 1010 83 10000 3.1 140 21:58 05.09.2019
2427 Thunderstorm 29 1010 83 10000 3.1 140 21:40 05.09.2019
2428 Clouds 29 1011 77 0 3.58 172.135 21:20 05.09.2019
2429 Clouds 29 1011 77 0 3.58 172.135 20:58 05.09.2019
2430 Clouds 29 1011 75 0 3.35 178.597 20:40 05.09.2019
2431 Thunderstorm 30 1011 79 10000 4.1 150 20:21 05.09.2019
2432 Thunderstorm 30 1011 79 10000 4.1 150 19:59 05.09.2019
2433 Thunderstorm 30 1011 79 10000 4.1 150 19:41 05.09.2019
2434 Thunderstorm 30 1010 79 10000 3.6 150 19:22 05.09.2019
2435 Thunderstorm 30 1010 79 10000 3.6 150 18:45 05.09.2019
2436 Thunderstorm 30 1010 79 10000 3.6 150 18:45 05.09.2019
2437 Thunderstorm 30 1010 79 10000 3.6 150 18:27 05.09.2019
2438 Clouds 30 1010 79 10000 3.6 150 17:59 05.09.2019
2439 Clouds 30 1010 79 10000 3.6 150 17:40 05.09.2019
2440 Clouds 30 1010 79 10000 3.6 150 17:40 05.09.2019
2441 Clouds 30 1009 79 10000 4.1 150 17:22 05.09.2019
2442 Clouds 30 1009 79 10000 4.1 150 16:57 05.09.2019
2443 Clouds 30 1009 79 10000 4.1 150 16:57 05.09.2019
2444 Clouds 30 1009 79 10000 4.1 150 16:39 05.09.2019
2445 Clouds 30 1008 79 10000 3.1 150 16:19 05.09.2019
2446 Clouds 30 1008 79 10000 3.1 150 15:40 05.09.2019
2447 Clouds 30 1008 79 10000 3.1 150 15:40 05.09.2019
2448 Clouds 31 1008 70 10000 3.6 150 15:19 05.09.2019
2449 Clouds 31 1008 70 10000 3.6 150 14:59 05.09.2019
2450 Clouds 31 1008 70 10000 3.6 150 14:40 05.09.2019
2451 Clouds 32 1008 70 10000 3.1 150 14:20 05.09.2019
2452 Clouds 32 1008 70 10000 3.1 150 13:43 05.09.2019
2453 Clouds 31 1008 70 10000 3.6 150 13:23 05.09.2019
2454 Clouds 31 1008 70 10000 3.6 150 12:54 05.09.2019
2455 Clouds 31 1008 70 10000 3.6 150 12:36 05.09.2019
2456 Clouds 31 1008 70 10000 3.6 150 12:36 05.09.2019
2457 Clouds 31 1008 70 10000 3.6 150 12:36 05.09.2019
2458 Clouds 32 1008 70 10000 3.6 150 12:18 05.09.2019
2459 Clouds 32 1008 70 10000 3.6 150 11:43 05.09.2019
2460 Clouds 32 1009 70 10000 2.6 150 11:19 05.09.2019
2461 Clouds 32 1009 70 10000 2.6 150 10:42 05.09.2019
2462 Clouds 32 1010 66 10000 2.6 150 10:23 05.09.2019
2463 Clouds 32 1010 66 10000 2.6 150 09:58 05.09.2019
2464 Clouds 32 1010 66 10000 2.6 150 09:40 05.09.2019
2465 Clouds 32 1011 70 10000 3.1 140 09:19 05.09.2019
2466 Clouds 32 1011 70 10000 3.1 140 08:46 05.09.2019
2467 Clouds 32 1011 70 10000 3.1 140 08:27 05.09.2019
2468 Clouds 31 1011 70 10000 3.1 140 07:48 05.09.2019
2469 Clouds 31 1011 70 10000 3.1 140 07:29 05.09.2019
2470 Clouds 31 1011 70 10000 2.6 140 06:58 05.09.2019
2471 Clouds 31 1011 70 10000 2.6 140 06:33 05.09.2019
2472 Clouds 31 1010 74 10000 3.1 160 05:59 05.09.2019
2473 Clouds 31 1010 74 10000 3.1 160 05:37 05.09.2019
2474 Clouds 29 1010 79 10000 2.6 160 05:19 05.09.2019
2475 Clouds 29 1010 79 10000 2.6 160 04:29 05.09.2019
2476 Clouds 28 1009 83 10000 2.6 160 03:40 05.09.2019
2477 Clouds 29 1009 79 10000 3.1 160 02:54 05.09.2019
2478 Clouds 29 1009 79 10000 3.1 160 02:27 05.09.2019
2479 Clouds 29 1009 79 10000 2.6 150 01:41 05.09.2019
2480 Clouds 29 1009 79 10000 4.1 160 00:51 05.09.2019
2481 Clouds 29 1009 79 10000 3.1 160 00:23 05.09.2019
2482 Clouds 29 1009 79 10000 3.1 160 23:57 04.09.2019
2483 Clouds 29 1009 79 10000 3.1 160 23:39 04.09.2019
2484 Clouds 29 1009 79 10000 3.1 160 23:18 04.09.2019
2485 Clouds 29 1009 79 10000 3.1 160 23:18 04.09.2019
2486 Clouds 29 1009 79 10000 3.1 160 22:47 04.09.2019
2487 Clouds 29 1010 79 10000 3.1 160 22:19 04.09.2019
2488 Clouds 29 1010 79 10000 3.1 160 21:41 04.09.2019
2489 Clouds 29 1011 79 10000 3.1 160 21:21 04.09.2019
2490 Clouds 29 1011 79 10000 3.1 160 20:58 04.09.2019
2491 Clouds 29 1011 79 10000 3.1 160 20:40 04.09.2019
2492 Clouds 30 1011 74 10000 3.6 160 20:20 04.09.2019
2493 Clouds 30 1011 74 10000 3.6 160 19:58 04.09.2019
2494 Clouds 30 1011 74 10000 3.6 160 19:39 04.09.2019
2495 Clouds 30 1010 74 10000 3.1 160 19:20 04.09.2019
2496 Clouds 30 1010 74 10000 3.1 160 18:40 04.09.2019
2497 Clouds 30 1010 74 10000 3.1 130 18:20 04.09.2019
2498 Clouds 30 1010 74 10000 3.1 130 17:56 04.09.2019
2499 Clouds 30 1010 74 10000 3.1 130 17:37 04.09.2019
2500 Clouds 30 1009 74 10000 3.1 150 17:19 04.09.2019
2501 Clouds 30 1009 74 10000 3.1 150 16:48 04.09.2019
2502 Clouds 30 1009 74 10000 3.1 150 16:28 04.09.2019
2503 Clouds 30 1009 74 10000 2.6 180 15:59 04.09.2019
2504 Clouds 30 1009 74 10000 2.6 180 15:39 04.09.2019
2505 Clouds 30 1009 74 10000 2.6 180 15:39 04.09.2019
2506 Clouds 31 1008 70 10000 3.1 150 15:21 04.09.2019
2507 Clouds 31 1008 70 10000 3.1 150 14:57 04.09.2019
2508 Clouds 31 1008 70 10000 3.1 150 14:37 04.09.2019
2509 Clouds 31 1008 70 10000 3.1 150 14:19 04.09.2019
2510 -273 0 0 0 0 0 13:55 04.09.2019
2511 Clouds 29 1008 71 0 3.44 172.555 13:36 04.09.2019
2512 Clouds 32 1007 70 10000 2.6 150 13:18 04.09.2019
2513 Clouds 32 1007 70 10000 2.6 150 12:40 04.09.2019
2514 Clouds 32 1008 70 10000 3.1 160 12:22 04.09.2019
2515 Clouds 32 1008 70 10000 3.1 160 11:55 04.09.2019
2516 Clouds 32 1008 70 10000 3.1 160 11:37 04.09.2019
2517 Clouds 32 1009 66 10000 2.6 160 11:18 04.09.2019
2518 Clouds 32 1009 66 10000 2.6 160 10:44 04.09.2019
2519 Clouds 32 1009 66 10000 2.6 160 10:25 04.09.2019
2520 Clouds 32 1010 66 10000 3.1 140 09:57 04.09.2019
2521 Clouds 29 1008 70 0 2.66 168.292 09:39 04.09.2019
2522 Clouds 32 1011 66 10000 2.6 140 09:18 04.09.2019
2523 Clouds 32 1011 66 10000 2.6 140 08:41 04.09.2019
2524 Clouds 32 1011 66 10000 3.1 150 08:23 04.09.2019
2525 Clouds 32 1011 66 10000 3.1 150 07:56 04.09.2019
2526 Clouds 32 1011 66 10000 3.1 150 07:33 04.09.2019
2527 Clouds 31 1011 70 10000 3.1 150 06:49 04.09.2019
2528 Clouds 30 1011 74 10000 3.1 150 06:21 04.09.2019
2529 Clouds 29 1011 79 10000 2.6 150 04:53 04.09.2019
2530 Clouds 28 1010 83 10000 2.6 120 04:20 04.09.2019
2531 Clouds 29 1009 79 10000 2.6 200 01:49 04.09.2019
2532 Clouds 29 1009 79 10000 2.6 200 00:55 04.09.2019
2533 Clouds 29 1009 79 10000 2.6 200 00:35 04.09.2019
2534 Clouds 29 1009 79 10000 3.1 160 23:59 03.09.2019
2535 Clouds 29 1009 79 10000 3.1 160 23:38 03.09.2019
2536 Clouds 29 1010 79 10000 2.1 140 23:20 03.09.2019
2537 Clouds 29 1010 79 10000 2.1 140 22:40 03.09.2019
2538 Clouds 29 1011 79 10000 2.1 170 22:22 03.09.2019
2539 Clouds 29 1011 79 10000 2.1 170 21:56 03.09.2019
2540 Clouds 29 1011 79 10000 2.1 170 21:38 03.09.2019
2541 Clouds 29 1011 79 10000 2.1 190 21:20 03.09.2019
2542 Clouds 29 1011 79 10000 2.1 190 20:44 03.09.2019
2543 Clouds 29 1011 79 10000 2.1 190 20:24 03.09.2019
2544 Clouds 29 1011 79 10000 2.1 190 20:24 03.09.2019
2545 Clouds 29 1011 79 10000 2.1 190 19:57 03.09.2019
2546 Clouds 29 1011 79 10000 2.1 190 19:38 03.09.2019
2547 Clouds 29 1011 79 10000 2.1 190 19:19 03.09.2019
2548 Clouds 29 1011 79 10000 2.1 190 18:56 03.09.2019
2549 Clouds 29 1011 79 10000 2.1 190 18:38 03.09.2019
2550 Clouds 30 1010 74 10000 2.1 180 18:18 03.09.2019
2551 Clouds 30 1010 74 10000 2.1 180 17:42 03.09.2019
2552 Clouds 30 1010 74 10000 2.6 130 17:21 03.09.2019
2553 Clouds 30 1010 74 10000 2.6 130 16:59 03.09.2019
2554 Clouds 30 1010 74 10000 2.6 130 16:39 03.09.2019
2555 Clouds 30 1009 79 10000 3.1 130 16:21 03.09.2019
2556 Clouds 30 1009 79 10000 3.1 130 15:41 03.09.2019
2557 Clouds 31 1008 74 10000 3.1 200 15:22 03.09.2019
2558 Clouds 31 1008 74 10000 3.1 200 14:58 03.09.2019
2559 Clouds 31 1008 74 10000 3.1 200 14:40 03.09.2019
2560 Clouds 31 1008 74 10000 3.6 180 14:21 03.09.2019
2561 Clouds 31 1008 74 10000 3.6 180 13:58 03.09.2019
2562 Clouds 31 1008 74 10000 3.6 180 13:38 03.09.2019
2563 Clouds 31 1008 74 10000 3.6 150 13:19 03.09.2019
2564 Clouds 31 1008 74 10000 3.6 150 12:57 03.09.2019
2565 Clouds 31 1008 74 10000 3.6 150 12:38 03.09.2019
2566 Clouds 31 1009 74 10000 3.1 150 12:20 03.09.2019
2567 Clouds 31 1009 74 10000 3.1 150 11:42 03.09.2019
2568 Clouds 31 1009 74 10000 2.6 140 11:23 03.09.2019
2569 Clouds 31 1009 74 10000 2.6 140 10:57 03.09.2019
2570 Clouds 31 1009 74 10000 2.6 140 10:39 03.09.2019
2571 Clouds 31 1010 74 10000 2.6 140 10:20 03.09.2019
2572 Clouds 31 1010 74 10000 2.6 140 09:44 03.09.2019
2573 Clouds 31 1010 74 10000 2.6 140 09:26 03.09.2019
2574 Clouds 31 1011 70 10000 2.6 160 08:56 03.09.2019
2575 Clouds 31 1011 70 10000 2.6 160 08:56 03.09.2019
2576 Clouds 31 1011 70 10000 2.6 160 08:37 03.09.2019
2577 Clouds 31 1011 70 10000 2.1 200 08:18 03.09.2019
2578 Clouds 31 1011 70 10000 2.1 200 07:41 03.09.2019
2579 Clouds 30 1012 74 10000 2.1 210 07:23 03.09.2019
2580 Clouds 30 1012 74 10000 2.1 210 06:45 03.09.2019
2581 Clouds 30 1011 74 10000 2.6 200 05:53 03.09.2019
2582 Clouds 28 1010 83 10000 1.5 200 03:42 03.09.2019
2583 Clouds 28 1009 83 10000 2.1 160 02:46 03.09.2019
2584 Clouds 29 1009 79 10000 2.1 170 02:24 03.09.2019
2585 Clouds 29 1009 79 10000 2.1 170 01:50 03.09.2019
2586 Clouds 29 1009 79 10000 2.1 170 01:32 03.09.2019
2587 Clouds 29 1009 79 10000 2.1 190 00:43 03.09.2019
2588 Clouds 29 1009 79 10000 2.1 180 00:23 03.09.2019
2589 Clouds 29 1009 79 10000 2.1 180 23:40 02.09.2019
2590 Clouds 29 1010 79 10000 2.1 190 23:20 02.09.2019
2591 Clouds 29 1010 79 10000 2.1 190 23:20 02.09.2019
2592 Clouds 29 1010 79 10000 2.1 190 22:56 02.09.2019
2593 Clouds 29 1010 79 10000 2.1 190 22:38 02.09.2019
2594 Clouds 29 1011 79 10000 2.1 200 22:19 02.09.2019
2595 Clouds 29 1011 79 10000 2.1 200 21:57 02.09.2019
2596 Clouds 29 1011 79 10000 2.1 200 21:38 02.09.2019
2597 Clouds 29 1012 79 10000 2.6 160 21:20 02.09.2019
2598 Clouds 29 1012 79 10000 2.6 160 20:58 02.09.2019
2599 Clouds 29 1012 79 10000 2.6 160 20:39 02.09.2019
2600 Clouds 29 1012 79 10000 1.5 200 20:18 02.09.2019
2601 Clouds 29 1012 79 10000 1.5 200 20:18 02.09.2019
2602 Clouds 29 1012 79 10000 1.5 200 19:55 02.09.2019
2603 Clouds 29 1012 79 10000 1.5 200 19:55 02.09.2019
2604 Clouds 29 1012 79 10000 1.5 200 19:37 02.09.2019
2605 Clouds 29 1011 79 10000 2.1 200 19:19 02.09.2019
2606 Clouds 29 1011 79 10000 2.1 200 18:39 02.09.2019
2607 Clouds 30 1011 74 10000 2.6 200 18:21 02.09.2019
2608 Clouds 30 1011 74 10000 2.6 200 17:57 02.09.2019
2609 Clouds 30 1011 74 10000 2.6 200 17:57 02.09.2019
2610 Clouds 30 1011 74 10000 2.6 200 17:39 02.09.2019
2611 Clouds 30 1010 74 10000 2.6 200 17:19 02.09.2019
2612 Clouds 30 1010 74 10000 2.6 200 16:42 02.09.2019
2613 Clouds 30 1009 74 10000 2.6 200 16:23 02.09.2019
2614 Clouds 30 1009 74 10000 2.6 200 15:59 02.09.2019
2615 Clouds 30 1009 74 10000 2.6 200 15:41 02.09.2019
2616 Clouds 31 1009 70 10000 2.6 210 15:21 02.09.2019
2617 Clouds 31 1009 70 10000 2.6 210 14:56 02.09.2019
2618 Clouds 31 1009 70 10000 2.6 210 14:37 02.09.2019
2619 Clouds 31 1009 74 10000 2.1 230 14:19 02.09.2019
2620 Clouds 31 1009 74 10000 2.1 230 13:45 02.09.2019
2621 Clouds 32 1009 70 10000 2.6 220 13:25 02.09.2019
2622 Clouds 32 1009 70 10000 2.6 220 13:25 02.09.2019
2623 Clouds 32 1009 70 10000 2.6 220 12:57 02.09.2019
2624 Clouds 32 1009 70 10000 2.6 220 12:38 02.09.2019
2625 Clouds 31 1009 70 10000 2.6 200 12:18 02.09.2019
2626 Clouds 31 1009 70 10000 2.6 200 11:55 02.09.2019
2627 Clouds 31 1009 70 10000 2.6 200 11:36 02.09.2019
2628 Clouds 32 1010 70 10000 2.6 200 11:18 02.09.2019
2629 Clouds 32 1010 70 10000 2.6 200 10:42 02.09.2019
2630 Clouds 32 1010 70 10000 3.1 240 10:22 02.09.2019
2631 Clouds 32 1010 70 10000 3.1 240 09:58 02.09.2019
2632 Clouds 32 1010 70 10000 3.1 240 09:38 02.09.2019
2633 Clouds 32 1011 70 10000 3.6 200 09:20 02.09.2019
2634 Clouds 32 1011 70 10000 3.6 200 08:42 02.09.2019
2635 Clouds 31 1011 74 10000 2.1 150 08:21 02.09.2019
2636 Clouds 31 1011 74 10000 2.1 150 07:56 02.09.2019
2637 Clouds 31 1011 74 10000 2.1 150 07:37 02.09.2019
2638 Clouds 30 1011 79 10000 2.1 200 07:18 02.09.2019
2639 Clouds 30 1011 79 10000 2.1 200 06:41 02.09.2019
2640 Clouds 29 1011 79 10000 2.1 190 05:53 02.09.2019
2641 Clouds 29 1010 79 10000 1.5 190 05:24 02.09.2019
2642 Clouds 29 1010 79 10000 1.5 190 04:48 02.09.2019
2643 Clouds 28 1009 78 10000 2.6 180 01:59 02.09.2019
2644 Clouds 28 1009 78 10000 2.6 180 01:28 02.09.2019
2645 Clouds 28 1009 78 0 4.49 196.526 00:36 02.09.2019
2646 Thunderstorm 29 1009 83 10000 4.1 210 00:18 02.09.2019
2647 Thunderstorm 29 1009 83 10000 4.1 210 23:39 01.09.2019
2648 Thunderstorm 29 1010 79 10000 3.1 180 23:19 01.09.2019
2649 Thunderstorm 29 1010 79 10000 3.1 180 22:56 01.09.2019
2650 Thunderstorm 29 1010 79 10000 3.1 180 22:38 01.09.2019
2651 Thunderstorm 29 1010 79 10000 3.1 180 22:38 01.09.2019
2652 Rain 28 1010 79 0 4.19 188.431 22:18 01.09.2019
2653 Rain 28 1009 78 0 3.97 196.09 21:42 01.09.2019
2654 Clouds 28 1011 78 0 4.5 181.807 21:23 01.09.2019
2655 Clouds 28 1011 78 0 4.5 181.807 21:23 01.09.2019
2656 Clouds 28 1011 78 0 4.5 181.807 20:58 01.09.2019
2657 Clouds 28 1011 78 0 4.5 181.807 20:39 01.09.2019
2658 Clouds 30 1011 74 10000 3.1 180 20:19 01.09.2019
2659 Clouds 30 1011 74 10000 3.1 180 19:59 01.09.2019
2660 Clouds 30 1011 74 10000 3.1 180 19:40 01.09.2019
2661 Clouds 30 1011 74 10000 3.1 200 19:21 01.09.2019
2662 Clouds 30 1011 74 10000 3.1 200 18:48 01.09.2019
2663 Clouds 30 1009 74 10000 3.1 200 18:30 01.09.2019
2664 Clouds 30 1009 74 10000 3.1 200 17:59 01.09.2019
2665 Clouds 30 1009 74 10000 3.1 200 17:39 01.09.2019
2666 Clouds 31 1009 70 10000 3.6 200 17:21 01.09.2019
2667 Clouds 31 1009 70 10000 3.6 200 16:56 01.09.2019
2668 Clouds 31 1009 70 10000 3.6 200 16:37 01.09.2019
2669 Clouds 31 1009 70 10000 3.6 200 16:18 01.09.2019
2670 Clouds 31 1009 70 10000 3.6 200 15:42 01.09.2019
2671 Clouds 31 1008 66 10000 4.1 200 15:23 01.09.2019
2672 Clouds 31 1008 66 10000 4.1 200 14:44 01.09.2019
2673 Clouds 31 1008 66 10000 4.1 200 14:26 01.09.2019
2674 Clouds 31 1008 70 10000 4.1 200 13:59 01.09.2019
2675 Clouds 31 1008 70 10000 4.1 200 13:41 01.09.2019
2676 Clouds 31 1007 70 10000 4.1 200 13:23 01.09.2019
2677 Clouds 31 1007 70 10000 4.1 200 12:45 01.09.2019
2678 Clouds 31 1007 70 10000 4.1 200 12:26 01.09.2019
2679 Clouds 32 1008 66 10000 4.6 200 11:58 01.09.2019
2680 Clouds 32 1008 66 10000 4.6 200 11:38 01.09.2019
2681 Clouds 32 1009 66 10000 4.6 200 11:19 01.09.2019
2682 Clouds 32 1009 66 10000 4.6 200 10:45 01.09.2019
2683 Clouds 32 1009 66 10000 4.6 200 10:23 01.09.2019
2684 Clouds 32 1009 70 10000 4.1 200 09:48 01.09.2019
2685 Clouds 32 1009 70 10000 4.1 200 09:26 01.09.2019
2686 Clouds 32 1009 70 10000 4.1 200 09:26 01.09.2019
2687 Clouds 32 1010 70 10000 4.1 200 08:58 01.09.2019
2688 Clouds 32 1010 70 10000 4.1 200 08:39 01.09.2019
2689 Clouds 31 1010 70 10000 4.1 200 08:20 01.09.2019
2690 Clouds 31 1010 70 10000 4.1 200 07:42 01.09.2019
2691 Clouds 31 1010 70 10000 4.1 200 07:21 01.09.2019
2692 Clouds 31 1010 70 10000 4.1 200 06:39 01.09.2019
2693 Clouds 30 1010 74 10000 4.1 210 05:59 01.09.2019
2694 Clouds 30 1010 74 10000 4.1 210 05:59 01.09.2019
2695 Clouds 29 1009 74 10000 3.6 220 04:53 01.09.2019
2696 Clouds 29 1009 79 10000 3.6 220 04:19 01.09.2019
2697 Clouds 29 1009 79 10000 3.6 220 03:37 01.09.2019
2698 Clouds 29 1008 79 10000 4.1 210 02:40 01.09.2019
2699 Clouds 29 1008 79 10000 4.6 210 02:22 01.09.2019
2700 Clouds 29 1008 79 10000 4.6 210 01:30 01.09.2019
2701 Clouds 29 1008 79 10000 5.1 200 00:59 01.09.2019
2702 Clouds 29 1008 79 10000 5.1 200 00:40 01.09.2019
2703 Clouds 29 1009 79 10000 4.1 210 00:20 01.09.2019
2704 Clouds 29 1009 79 10000 4.1 210 23:43 31.08.2019
2705 Clouds 29 1009 79 10000 4.1 210 23:21 31.08.2019
2706 Clouds 29 1009 79 10000 4.1 210 22:56 31.08.2019
2707 Clouds 29 1009 79 10000 4.1 210 22:37 31.08.2019
2708 Clouds 29 1010 74 10000 3.6 220 22:19 31.08.2019
2709 Clouds 29 1010 74 10000 3.6 220 21:45 31.08.2019
2710 Clouds 29 1010 74 10000 3.1 220 21:23 31.08.2019
2711 Clouds 29 1010 74 10000 3.1 220 20:59 31.08.2019
2712 Clouds 29 1010 74 10000 3.1 220 20:41 31.08.2019
2713 Clouds 29 1010 74 10000 3.6 240 20:23 31.08.2019
2714 Clouds 29 1010 74 10000 3.6 240 19:43 31.08.2019
2715 Clouds 29 1009 74 10000 3.6 240 19:23 31.08.2019
2716 Clouds 29 1009 74 10000 3.6 240 18:58 31.08.2019
2717 Clouds 29 1009 74 10000 3.6 240 18:38 31.08.2019
2718 Clouds 29 1009 74 10000 4.1 240 18:19 31.08.2019
2719 Clouds 29 1009 74 10000 4.1 240 17:55 31.08.2019
2720 Clouds 29 1009 74 10000 4.1 240 17:37 31.08.2019
2721 Clouds 30 1008 70 10000 4.6 230 17:18 31.08.2019
2722 Clouds 30 1008 70 10000 4.6 230 16:55 31.08.2019
2723 Clouds 30 1008 70 10000 4.6 230 16:36 31.08.2019
2724 Clouds 30 1007 70 10000 4.6 250 16:18 31.08.2019
2725 Clouds 30 1007 70 10000 4.6 250 15:41 31.08.2019
2726 Clouds 31 1006 70 10000 4.6 250 15:19 31.08.2019
2727 Clouds 31 1006 70 10000 4.6 250 14:54 31.08.2019
2728 Clouds 31 1006 70 10000 4.6 250 14:36 31.08.2019
2729 Clouds 31 1006 70 10000 5.7 250 14:18 31.08.2019
2730 Clouds 31 1006 70 10000 5.7 250 13:39 31.08.2019
2731 Clouds 31 1006 70 10000 3.6 250 13:21 31.08.2019
2732 Clouds 31 1006 70 10000 3.6 250 13:21 31.08.2019
2733 Clouds 31 1006 70 10000 3.6 250 12:57 31.08.2019
2734 Clouds 31 1006 70 10000 3.6 250 12:38 31.08.2019
2735 Clouds 31 1007 74 10000 4.6 250 12:19 31.08.2019
2736 Clouds 31 1007 74 10000 4.6 250 11:44 31.08.2019
2737 Clouds 31 1007 74 10000 4.6 250 11:26 31.08.2019
2738 Clouds 31 1007 70 10000 5.1 240 10:57 31.08.2019
2739 Clouds 31 1007 70 10000 5.1 240 10:39 31.08.2019
2740 Clouds 31 1008 70 10000 5.1 250 10:18 31.08.2019
2741 Clouds 31 1008 70 10000 5.1 250 09:40 31.08.2019
2742 Clouds 31 1009 70 10000 5.1 250 09:22 31.08.2019
2743 Clouds 31 1009 70 10000 5.1 250 08:59 31.08.2019
2744 Clouds 31 1009 70 10000 5.1 250 08:40 31.08.2019
2745 Clouds 31 1009 70 10000 4.6 250 08:22 31.08.2019
2746 Clouds 31 1009 70 10000 4.6 250 07:40 31.08.2019
2747 Clouds 30 1009 74 10000 4.1 250 07:19 31.08.2019
2748 Clouds 28 1010 75 0 4.15 224.141 06:28 31.08.2019
2749 Clouds 28 1010 79 0 4.89 217.24 05:55 31.08.2019
2750 Clouds 28 1010 79 0 4.89 217.24 05:29 31.08.2019
2751 Clouds 29 1008 79 10000 5.1 250 04:30 31.08.2019
2752 Clouds 29 1008 79 10000 5.1 250 03:44 31.08.2019
2753 Clouds 28 1008 88 10000 2.1 220 02:23 31.08.2019
2754 Clouds 28 1008 88 10000 2.1 220 01:49 31.08.2019
2755 Clouds 28 1008 88 10000 2.1 220 01:49 31.08.2019
2756 Clouds 28 1008 88 10000 2.1 220 01:31 31.08.2019
2757 Clouds 29 1008 79 10000 4.1 240 00:48 31.08.2019
2758 Clouds 29 1009 83 10000 3.1 220 00:27 31.08.2019
2759 Clouds 29 1009 83 10000 3.1 220 23:51 30.08.2019
2760 Clouds 29 1009 83 10000 3.1 230 23:20 30.08.2019
2761 Clouds 29 1009 83 10000 3.1 230 22:59 30.08.2019
2762 Clouds 29 1009 83 10000 3.1 230 22:39 30.08.2019
2763 Clouds 29 1010 83 10000 3.6 260 22:21 30.08.2019
2764 Clouds 29 1010 83 10000 3.6 260 21:57 30.08.2019
2765 Clouds 29 1010 83 10000 3.6 260 21:37 30.08.2019
2766 Clouds 29 1010 83 10000 3.6 260 21:37 30.08.2019
2767 Clouds 29 1010 79 10000 4.6 250 21:18 30.08.2019
2768 Clouds 29 1010 79 10000 4.6 250 20:57 30.08.2019
2769 Clouds 29 1010 79 10000 4.6 250 20:38 30.08.2019
2770 Clouds 29 1011 83 10000 4.1 250 20:19 30.08.2019
2771 -273 0 0 0 0 0 19:55 30.08.2019
2772 Clouds 29 1011 83 10000 4.1 250 19:55 30.08.2019
2773 Clouds 29 1011 83 10000 4.1 250 19:36 30.08.2019
2774 Clouds 29 1010 79 10000 4.6 260 19:18 30.08.2019
2775 Clouds 29 1010 79 10000 4.6 260 19:18 30.08.2019
2776 Clouds 29 1010 79 10000 4.6 260 18:44 30.08.2019
2777 Clouds 28 1010 78 10000 1.5 120 18:24 30.08.2019
2778 Clouds 28 1010 78 10000 1.5 120 18:24 30.08.2019
2779 Clouds 28 1010 78 10000 1.5 120 17:57 30.08.2019
2780 Clouds 28 1010 78 10000 1.5 120 17:57 30.08.2019
2781 Clouds 28 1010 78 10000 1.5 120 17:39 30.08.2019
2782 Rain 27 1009 83 10000 0.5 0 17:19 30.08.2019
2783 Rain 27 1009 83 10000 0.5 0 16:56 30.08.2019
2784 Rain 27 1009 83 10000 0.5 0 16:38 30.08.2019
2785 Rain 27 1009 83 10000 0.5 0 16:38 30.08.2019
2786 Clouds 29 1008 79 10000 4.1 290 16:19 30.08.2019
2787 Clouds 29 1008 79 10000 4.1 290 15:39 30.08.2019
2788 Clouds 29 1008 79 10000 2.6 320 15:20 30.08.2019
2789 Clouds 29 1008 79 10000 2.6 320 14:45 30.08.2019
2790 Clouds 29 1008 79 10000 2.6 320 14:26 30.08.2019
2791 Rain 31 1007 70 10000 4.6 290 13:56 30.08.2019
2792 Rain 31 1007 70 10000 4.6 290 13:38 30.08.2019
2793 Clouds 31 1007 74 10000 4.6 290 13:20 30.08.2019
2794 Clouds 31 1007 74 10000 4.6 290 12:44 30.08.2019
2795 Clouds 31 1008 70 10000 4.6 300 12:25 30.08.2019
2796 Clouds 31 1008 70 10000 4.6 300 11:57 30.08.2019
2797 Clouds 31 1008 70 10000 4.6 300 11:39 30.08.2019
2798 Clouds 31 1008 70 10000 4.6 290 11:20 30.08.2019
2799 Clouds 31 1008 70 10000 4.6 290 10:37 30.08.2019
2800 Clouds 31 1009 70 10000 4.1 300 10:19 30.08.2019
2801 Clouds 31 1009 70 10000 4.1 300 09:55 30.08.2019
2802 Clouds 31 1009 70 10000 4.1 300 09:36 30.08.2019
2803 Clouds 31 1010 70 10000 4.1 330 09:18 30.08.2019
2804 Clouds 31 1010 70 10000 4.1 330 08:42 30.08.2019
2805 Clouds 31 1010 70 10000 4.1 330 08:23 30.08.2019
2806 Clouds 30 1010 74 10000 4.6 350 07:46 30.08.2019
2807 Clouds 30 1010 74 10000 4.6 350 07:25 30.08.2019
2808 Clouds 30 1010 70 10000 4.1 340 06:49 30.08.2019
2809 Clouds 30 1010 70 10000 4.1 340 06:30 30.08.2019
2810 Clouds 29 1009 74 10000 3.1 340 05:59 30.08.2019
2811 Clouds 29 1009 74 10000 1.5 360 04:59 30.08.2019
2812 Clouds 28 1008 78 10000 2.6 320 03:56 30.08.2019
2813 Clouds 28 1008 78 10000 2.6 320 03:34 30.08.2019
2814 Clouds 28 1008 78 10000 3.6 290 02:35 30.08.2019
2815 Rain 28 1008 78 9000 4.6 280 01:40 30.08.2019
2816 Clouds 28 1009 83 10000 6.7 260 00:46 30.08.2019
2817 Clouds 28 1009 83 10000 6.7 260 00:18 30.08.2019
2818 Clouds 28 1009 83 10000 6.7 260 23:42 29.08.2019
2819 Clouds 28 1010 78 10000 5.7 250 23:21 29.08.2019
2820 Clouds 28 1010 78 10000 5.7 250 23:21 29.08.2019
2821 Clouds 28 1010 78 10000 5.7 250 22:45 29.08.2019
2822 Clouds 28 1010 78 10000 5.7 250 22:45 29.08.2019
2823 Clouds 28 1010 78 10000 5.7 250 22:26 29.08.2019
2824 Clouds 28 1011 78 10000 6.7 260 21:58 29.08.2019
2825 Clouds 28 1011 78 10000 6.7 260 21:58 29.08.2019
2826 Clouds 28 1011 78 10000 6.7 260 21:58 29.08.2019
2827 Clouds 28 1011 78 10000 6.7 260 21:40 29.08.2019
2828 Clouds 28 1012 78 10000 6.2 260 21:21 29.08.2019
2829 Clouds 28 1012 78 10000 6.2 260 21:21 29.08.2019
2830 Clouds 28 1012 78 10000 6.2 260 20:57 29.08.2019
2831 Clouds 28 1012 78 10000 6.2 260 20:38 29.08.2019
2832 Rain 28 1012 78 9000 5.7 290 20:18 29.08.2019
2833 Rain 28 1012 78 9000 5.7 290 19:46 29.08.2019
2834 Rain 28 1012 78 9000 5.7 290 19:26 29.08.2019
2835 Clouds 28 1012 78 10000 5.7 290 18:57 29.08.2019
2836 Clouds 28 1012 78 10000 5.7 290 18:38 29.08.2019
2837 Clouds 28 1011 78 9000 7.2 290 18:18 29.08.2019
2838 Clouds 28 1011 78 9000 7.2 290 17:54 29.08.2019
2839 Clouds 28 1011 78 9000 7.2 290 17:36 29.08.2019
2840 Rain 28 1011 78 9000 7.2 300 17:18 29.08.2019
2841 Rain 28 1011 78 9000 7.2 300 17:18 29.08.2019
2842 Rain 27 1012 79 0 8.48 287.548 16:41 29.08.2019
2843 Clouds 28 1011 74 9000 8.7 300 16:22 29.08.2019
2844 Clouds 28 1011 74 9000 8.7 300 15:41 29.08.2019
2845 Clouds 28 1010 69 10000 8.2 300 15:21 29.08.2019
2846 Clouds 28 1010 69 10000 8.2 300 14:58 29.08.2019
2847 Clouds 28 1010 69 10000 8.2 300 14:39 29.08.2019
2848 Clouds 28 1010 78 10000 7.7 330 14:20 29.08.2019
2849 Clouds 28 1010 78 10000 7.7 330 13:56 29.08.2019
2850 Clouds 28 1010 78 10000 7.7 330 13:56 29.08.2019
2851 Clouds 28 1010 78 10000 7.7 330 13:37 29.08.2019
2852 Clouds 28 1011 78 10000 7.2 330 13:18 29.08.2019
2853 Clouds 28 1011 78 10000 7.2 330 12:56 29.08.2019
2854 Clouds 28 1011 78 10000 7.2 330 12:37 29.08.2019
2855 Clouds 28 1011 78 10000 5.1 310 12:19 29.08.2019
2856 Clouds 28 1011 78 10000 5.1 310 11:42 29.08.2019
2857 Rain 28 1011 83 10000 5.7 300 11:21 29.08.2019
2858 Rain 28 1011 83 10000 5.7 300 10:57 29.08.2019
2859 Rain 28 1011 83 10000 5.7 300 10:38 29.08.2019
2860 Rain 27 1012 83 8000 6.2 310 10:19 29.08.2019
2861 Rain 27 1012 83 8000 6.2 310 09:41 29.08.2019
2862 Rain 27 1013 83 8000 9.3 290 09:19 29.08.2019
2863 Rain 27 1013 83 8000 9.3 290 08:49 29.08.2019
2864 Rain 27 1013 83 8000 9.3 290 08:31 29.08.2019
2865 Clouds 27 1013 83 9000 7.7 290 07:59 29.08.2019
2866 Clouds 27 1013 83 9000 7.7 290 07:41 29.08.2019
2867 Rain 26 1013 88 6000 8.2 290 07:23 29.08.2019
2868 Rain 26 1013 88 6000 8.2 290 06:40 29.08.2019
2869 Rain 28 1012 73 0 3.64 223.999 05:52 29.08.2019
2870 Rain 28 1012 73 0 3.64 223.999 05:32 29.08.2019
2871 Rain 28 1012 73 0 3.64 223.999 04:49 29.08.2019
2872 Clouds 27 1010 83 10000 3.6 270 04:28 29.08.2019
2873 Rain 28 1010 73 0 3.74 244.697 02:18 29.08.2019
2874 Rain 28 1010 73 0 3.74 244.697 01:40 29.08.2019
2875 Rain 25 1010 94 6000 9.8 270 00:51 29.08.2019
2876 Rain 26 1010 94 6000 7.2 270 00:24 29.08.2019
2877 Rain 26 1010 94 6000 7.2 270 23:59 28.08.2019
2878 Rain 26 1010 94 6000 7.2 270 23:40 28.08.2019
2879 Rain 28 1010 74 0 4.07 201.72 23:22 28.08.2019
2880 Rain 28 1010 74 0 4.07 201.72 23:22 28.08.2019
2881 Rain 28 1010 74 0 4.07 201.72 22:56 28.08.2019
2882 Rain 27 1011 94 7000 3.1 230 22:38 28.08.2019
2883 Rain 27 1011 94 7000 3.1 230 22:18 28.08.2019
2884 Rain 27 1011 94 7000 3.1 230 22:18 28.08.2019
2885 Rain 27 1011 94 7000 3.1 230 21:46 28.08.2019
2886 Clouds 28 1012 88 10000 3.6 230 21:26 28.08.2019
2887 Clouds 28 1012 88 10000 3.6 230 20:59 28.08.2019
2888 Clouds 28 1012 88 10000 3.6 230 20:40 28.08.2019
2889 Clouds 28 1012 83 10000 6.2 260 20:22 28.08.2019
2890 Clouds 28 1012 83 10000 6.2 260 19:44 28.08.2019
2891 Clouds 28 1011 83 10000 6.7 270 19:22 28.08.2019
2892 Clouds 28 1011 83 10000 6.7 270 18:59 28.08.2019
2893 Clouds 28 1011 83 10000 6.7 270 18:40 28.08.2019
2894 Rain 28 1011 75 0 3.49 214.259 18:21 28.08.2019
2895 Rain 28 1011 75 0 3.49 214.259 17:39 28.08.2019
2896 Clouds 29 1009 79 10000 4.6 250 17:19 28.08.2019
2897 Clouds 29 1009 79 10000 4.6 250 16:55 28.08.2019
2898 Clouds 29 1009 79 10000 4.6 250 16:37 28.08.2019
2899 Clouds 30 1009 74 10000 3.1 250 16:18 28.08.2019
2900 Clouds 30 1009 74 10000 3.1 250 15:38 28.08.2019
2901 Clouds 30 1009 74 10000 3.1 250 15:38 28.08.2019
2902 Clouds 30 1009 74 10000 2.6 250 15:20 28.08.2019
2903 Clouds 30 1009 74 10000 2.6 250 14:58 28.08.2019
2904 Clouds 30 1009 74 10000 2.6 250 14:39 28.08.2019
2905 Clouds 31 1008 70 10000 3.1 250 14:20 28.08.2019
2906 Clouds 31 1008 70 10000 3.1 250 13:58 28.08.2019
2907 Clouds 31 1008 70 10000 3.1 250 13:39 28.08.2019
2908 Clouds 31 1008 70 10000 3.6 250 13:20 28.08.2019
2909 Clouds 31 1008 70 10000 3.6 250 12:42 28.08.2019
2910 Clouds 31 1009 70 10000 4.1 250 12:24 28.08.2019
2911 Clouds 31 1009 70 10000 4.1 250 11:57 28.08.2019
2912 Clouds 31 1009 70 10000 4.1 250 11:39 28.08.2019
2913 Clouds 31 1010 66 10000 3.1 250 11:20 28.08.2019
2914 Clouds 31 1010 66 10000 3.1 250 10:56 28.08.2019
2915 -273 0 0 0 0 0 10:56 28.08.2019
2916 Clouds 31 1010 66 10000 3.1 250 10:37 28.08.2019
2917 Clouds 31 1010 70 10000 3.1 260 10:19 28.08.2019
2918 Clouds 31 1010 70 10000 3.1 260 09:41 28.08.2019
2919 Clouds 31 1011 70 10000 4.1 250 09:21 28.08.2019
2920 Clouds 31 1011 70 10000 4.1 250 08:55 28.08.2019
2921 Clouds 31 1011 70 10000 4.1 250 08:36 28.08.2019
2922 Clouds 30 1011 74 10000 2.6 270 08:18 28.08.2019
2923 Clouds 30 1011 74 10000 2.6 270 07:37 28.08.2019
2924 Clouds 30 1011 70 10000 1.5 310 07:19 28.08.2019
2925 Clouds 30 1011 70 10000 1.5 310 06:46 28.08.2019
2926 Clouds 29 1011 74 10000 3.1 250 05:52 28.08.2019
2927 Clouds 28 1011 83 10000 2.6 230 04:40 28.08.2019
2928 Clouds 28 1008 78 10000 3.6 270 01:57 28.08.2019
2929 Clouds 28 1008 78 10000 3.6 270 01:30 28.08.2019
2930 Clouds 28 1008 78 10000 4.1 280 00:50 28.08.2019
2931 Clouds 28 1008 78 10000 4.1 280 00:32 28.08.2019
2932 Clouds 28 1009 78 10000 5.1 270 23:44 27.08.2019
2933 Clouds 27 1010 83 9000 5.7 260 23:22 27.08.2019
2934 Clouds 27 1010 83 9000 5.7 260 22:59 27.08.2019
2935 Clouds 27 1010 83 9000 5.7 260 22:41 27.08.2019
2936 Clouds 27 1011 83 9000 5.7 290 22:21 27.08.2019
2937 Clouds 27 1011 83 9000 5.7 290 21:56 27.08.2019
2938 Clouds 27 1011 83 9000 5.7 290 21:38 27.08.2019
2939 Rain 27 1012 88 6000 10.3 270 21:19 27.08.2019
2940 Rain 27 1012 88 6000 10.3 270 20:56 27.08.2019
2941 Rain 27 1012 88 6000 10.3 270 20:37 27.08.2019
2942 Clouds 27 1012 88 8000 10.3 300 20:19 27.08.2019
2943 Clouds 27 1012 88 8000 10.3 300 19:43 27.08.2019
2944 Clouds 27 1012 78 9000 8.2 310 19:25 27.08.2019
2945 Clouds 27 1012 78 9000 8.2 310 18:56 27.08.2019
2946 Clouds 27 1012 78 9000 8.2 310 18:37 27.08.2019
2947 Rain 26 1011 83 7000 10.3 320 18:18 27.08.2019
2948 Rain 26 1011 83 7000 10.3 320 17:43 27.08.2019
2949 Clouds 28 1011 73 0 2.92 211.25 17:24 27.08.2019
2950 Clouds 28 1011 73 0 2.92 211.25 16:57 27.08.2019
2951 Clouds 28 1011 73 0 2.92 211.25 16:38 27.08.2019
2952 Clouds 28 1011 73 0 2.92 211.25 16:19 27.08.2019
2953 Clouds 28 1011 73 0 2.92 211.25 15:42 27.08.2019
2954 Clouds 30 1009 74 10000 3.1 210 15:23 27.08.2019
2955 Clouds 30 1009 74 10000 3.1 210 14:59 27.08.2019
2956 Clouds 30 1009 74 10000 3.1 210 14:41 27.08.2019
2957 Clouds 30 1009 74 10000 3.1 210 14:41 27.08.2019
2958 Clouds 29 1009 68 0 2.57 195.511 14:23 27.08.2019
2959 Clouds 29 1009 68 0 2.57 195.511 13:43 27.08.2019
2960 Clouds 29 1009 67 0 1.88 208.437 13:24 27.08.2019
2961 Clouds 29 1009 67 0 1.88 208.437 12:56 27.08.2019
2962 Clouds 29 1009 67 0 1.88 208.437 12:37 27.08.2019
2963 Clouds 32 1009 62 10000 5.1 250 12:19 27.08.2019
2964 Clouds 32 1009 62 10000 5.1 250 11:45 27.08.2019
2965 Clouds 31 1010 66 10000 5.1 260 11:26 27.08.2019
2966 Clouds 31 1010 66 10000 5.1 260 10:46 27.08.2019
2967 Clouds 31 1010 66 10000 5.1 260 10:26 27.08.2019
2968 Clouds 31 1010 70 10000 4.6 270 09:59 27.08.2019
2969 Clouds 31 1010 70 10000 4.6 270 09:39 27.08.2019
2970 Clouds 30 1011 70 10000 5.1 290 09:21 27.08.2019
2971 Clouds 30 1011 70 10000 5.1 290 08:56 27.08.2019
2972 Clouds 30 1011 70 10000 5.1 290 08:37 27.08.2019
2973 Clouds 30 1011 70 10000 5.1 290 08:37 27.08.2019
2974 Clouds 29 1011 74 10000 5.1 270 08:18 27.08.2019
2975 Clouds 29 1011 74 10000 5.1 270 07:40 27.08.2019
2976 Clouds 29 1012 74 10000 6.2 270 07:19 27.08.2019
2977 Clouds 29 1012 74 10000 6.2 270 06:54 27.08.2019
2978 Clouds 28 1011 78 10000 3.6 290 06:26 27.08.2019
2979 Clouds 28 1011 78 10000 3.6 290 05:42 27.08.2019
2980 Rain 27 1011 78 9000 3.1 280 04:44 27.08.2019
2981 Rain 27 1010 78 9000 3.6 210 03:39 27.08.2019
2982 Rain 28 1010 74 9000 3.6 260 02:23 27.08.2019
2983 Rain 28 1009 74 9000 6.2 250 01:40 27.08.2019
2984 Rain 28 1009 74 9000 7.2 250 01:21 27.08.2019
2985 Rain 28 1009 74 9000 7.2 250 00:43 27.08.2019
2986 Clouds 27 1009 78 9000 7.7 250 00:23 27.08.2019
2987 Clouds 27 1009 78 9000 7.7 250 23:39 26.08.2019
2988 Rain 26 1011 88 7000 9.8 260 23:20 26.08.2019
2989 Rain 26 1011 88 7000 9.8 260 22:40 26.08.2019
2990 Rain 26 1011 88 8000 16.5 270 22:20 26.08.2019
2991 Rain 26 1011 88 8000 16.5 270 21:59 26.08.2019
2992 Rain 26 1011 88 8000 16.5 270 21:38 26.08.2019
2993 Rain 26 1011 88 8000 16.5 270 21:20 26.08.2019
2994 Clouds 28 1012 78 10000 3.1 180 20:56 26.08.2019
2995 Clouds 28 1012 78 10000 3.1 180 20:38 26.08.2019
2996 Thunderstorm 28 1012 83 9000 5.1 330 20:18 26.08.2019
2997 Thunderstorm 28 1012 83 9000 5.1 330 19:43 26.08.2019
2998 Thunderstorm 27 1012 83 9000 4.1 310 19:20 26.08.2019
2999 Thunderstorm 27 1012 83 9000 4.1 310 18:58 26.08.2019
3000 Thunderstorm 27 1012 83 9000 4.1 310 18:38 26.08.2019
3001 Rain 28 1012 80 0 4.69 184.305 18:19 26.08.2019
3002 Rain 28 1012 80 0 4.69 184.305 17:44 26.08.2019
3003 Clouds 30 1011 74 10000 2.6 230 17:20 26.08.2019
3004 Clouds 30 1011 74 10000 2.6 230 16:58 26.08.2019
3005 Clouds 30 1011 74 10000 2.6 230 16:39 26.08.2019
3006 Clouds 30 1011 74 10000 2.6 230 16:19 26.08.2019
3007 Clouds 30 1010 74 10000 3.6 210 15:56 26.08.2019
3008 Clouds 30 1010 74 10000 3.6 210 15:38 26.08.2019
3009 Clouds 30 1010 74 10000 3.6 210 15:20 26.08.2019
3010 Clouds 30 1009 74 10000 4.1 200 14:44 26.08.2019
3011 Clouds 30 1009 74 10000 4.1 200 14:23 26.08.2019
3012 Clouds 30 1009 74 10000 3.6 230 13:57 26.08.2019
3013 Clouds 30 1009 74 10000 3.6 230 13:37 26.08.2019
3014 Clouds 30 1009 74 10000 3.6 230 13:18 26.08.2019
3015 Clouds 30 1009 70 10000 3.6 230 12:43 26.08.2019
3016 Clouds 30 1009 70 10000 3.6 230 12:22 26.08.2019
3017 Clouds 31 1010 74 10000 2.6 220 11:44 26.08.2019
3018 Clouds 31 1010 74 10000 2.6 220 11:26 26.08.2019
3019 Clouds 31 1010 74 10000 3.1 220 10:59 26.08.2019
3020 Clouds 28 1010 78 0 5.82 197.019 10:41 26.08.2019
3021 Clouds 31 1012 70 10000 5.1 220 10:20 26.08.2019
3022 Clouds 31 1012 70 10000 5.1 220 09:47 26.08.2019
3023 Clouds 31 1012 70 10000 5.1 220 09:26 26.08.2019
3024 Clouds 30 1012 74 10000 5.1 210 08:59 26.08.2019
3025 Clouds 30 1012 74 10000 5.1 210 08:41 26.08.2019
3026 Clouds 30 1012 74 10000 5.1 210 08:22 26.08.2019
3027 Clouds 30 1012 79 10000 4.6 210 07:59 26.08.2019
3028 Clouds 30 1012 79 10000 4.6 210 07:38 26.08.2019
3029 Clouds 30 1012 79 10000 4.6 210 07:20 26.08.2019
3030 Clouds 30 1012 74 10000 4.6 210 06:40 26.08.2019
3031 Clouds 30 1012 74 10000 4.6 210 06:21 26.08.2019
3032 Clouds 30 1012 70 10000 4.1 230 05:48 26.08.2019
3033 Clouds 29 1011 79 10000 4.6 210 04:24 26.08.2019
3034 Clouds 29 1010 79 10000 5.1 220 02:48 26.08.2019
3035 Clouds 29 1010 74 10000 4.6 220 01:27 26.08.2019
3036 Clouds 29 1010 79 10000 4.6 220 00:46 26.08.2019
3037 Clouds 29 1010 79 10000 4.6 220 00:28 26.08.2019
3038 Clouds 29 1010 79 10000 4.6 220 23:58 25.08.2019
3039 Clouds 29 1010 79 10000 4.6 220 23:39 25.08.2019
3040 Clouds 29 1011 79 10000 5.1 220 23:18 25.08.2019
3041 Clouds 29 1011 79 10000 5.1 220 22:54 25.08.2019
3042 Clouds 29 1011 79 10000 5.1 220 22:36 25.08.2019
3043 Clouds 29 1012 79 10000 4.6 220 22:18 25.08.2019
3044 Clouds 29 1012 79 10000 4.6 220 21:41 25.08.2019
3045 Clouds 29 1012 79 10000 4.6 220 21:19 25.08.2019
3046 Clouds 29 1012 79 10000 4.1 220 20:59 25.08.2019
3047 Clouds 29 1012 79 10000 4.1 220 20:39 25.08.2019
3048 Clouds 29 1012 79 10000 5.1 230 20:19 25.08.2019
3049 Clouds 29 1012 79 10000 5.1 230 19:55 25.08.2019
3050 Clouds 29 1012 79 10000 5.1 230 19:37 25.08.2019
3051 Clouds 29 1012 79 10000 5.1 230 19:37 25.08.2019
3052 Clouds 30 1012 74 10000 5.1 220 19:18 25.08.2019
3053 Clouds 30 1012 74 10000 5.1 220 18:55 25.08.2019
3054 Clouds 30 1012 74 10000 5.1 220 18:55 25.08.2019
3055 Clouds 30 1012 74 10000 5.1 220 18:37 25.08.2019
3056 Clouds 30 1011 74 10000 4.6 230 18:18 25.08.2019
3057 Clouds 28 1012 75 0 5.36 224.818 17:40 25.08.2019
3058 Clouds 30 1011 74 10000 5.1 230 17:21 25.08.2019
3059 Clouds 30 1011 74 10000 5.1 230 16:43 25.08.2019
3060 Clouds 30 1011 74 10000 5.1 230 16:23 25.08.2019
3061 Clouds 30 1010 74 10000 4.6 250 15:58 25.08.2019
3062 Clouds 30 1010 74 10000 4.6 250 15:39 25.08.2019
3063 Clouds 30 1010 74 10000 4.6 250 15:21 25.08.2019
3064 Clouds 30 1009 74 10000 5.1 250 14:41 25.08.2019
3065 Clouds 30 1009 74 10000 5.1 250 14:23 25.08.2019
3066 Clouds 31 1009 70 10000 5.1 240 13:46 25.08.2019
3067 Clouds 31 1009 70 10000 5.1 240 13:22 25.08.2019
3068 Clouds 31 1009 70 10000 5.1 250 12:57 25.08.2019
3069 Clouds 31 1009 70 10000 5.1 250 12:39 25.08.2019
3070 Clouds 30 1010 74 10000 4.6 250 12:20 25.08.2019
3071 Clouds 30 1010 74 10000 4.6 250 11:57 25.08.2019
3072 Clouds 32 1010 66 10000 4.6 250 11:37 25.08.2019
3073 Clouds 32 1010 66 10000 4.6 250 11:18 25.08.2019
3074 Clouds 32 1010 66 10000 4.6 250 11:18 25.08.2019
3075 Clouds 32 1010 66 10000 4.6 250 10:55 25.08.2019
3076 Clouds 28 1010 75 0 5.63 227.493 10:36 25.08.2019
3077 Clouds 31 1011 70 10000 5.1 250 10:18 25.08.2019
3078 Clouds 28 1010 75 0 5.63 227.493 09:42 25.08.2019
3079 Clouds 30 1011 74 10000 4.6 230 09:23 25.08.2019
3080 Clouds 30 1011 74 10000 4.6 230 08:44 25.08.2019
3081 Clouds 30 1011 74 10000 4.6 230 08:25 25.08.2019
3082 Clouds 28 1013 74 0 5.48 227.454 07:47 25.08.2019
3083 Clouds 30 1012 70 10000 4.6 230 07:27 25.08.2019
3084 Clouds 28 1013 74 0 5.48 227.454 06:37 25.08.2019
3085 Clouds 28 1012 75 0 5.01 232.839 05:27 25.08.2019
3086 Clouds 28 1012 75 0 5.01 232.839 03:43 25.08.2019
3087 Clouds 28 1011 77 0 6.33 229.828 02:42 25.08.2019
3088 Clouds 28 1011 77 0 6.33 229.828 01:45 25.08.2019
3089 Clouds 28 1011 76 0 6.32 229.738 00:42 25.08.2019
3090 Rain 28 1011 76 0 5.75 237.064 00:22 25.08.2019
3091 Rain 28 1011 76 0 5.75 237.064 23:54 24.08.2019
3092 Rain 28 1011 76 0 5.75 237.064 23:24 24.08.2019
3093 Rain 28 1011 76 0 5.75 237.064 22:58 24.08.2019
3094 Rain 28 1011 76 0 5.75 237.064 22:40 24.08.2019
3095 Rain 28 1011 76 0 5.75 237.064 22:40 24.08.2019
3096 Rain 28 1011 76 0 5.75 237.064 22:19 24.08.2019
3097 Rain 28 1011 76 0 5.75 237.064 21:57 24.08.2019
3098 Rain 28 1011 76 0 5.75 237.064 21:39 24.08.2019
3099 Clouds 28 1013 75 0 4.7 233.081 21:20 24.08.2019
3100 Clouds 28 1013 75 0 4.7 233.081 21:20 24.08.2019
3101 Clouds 28 1013 75 0 4.7 233.081 20:57 24.08.2019
3102 Clouds 29 1012 79 10000 5.7 250 20:37 24.08.2019
3103 Clouds 29 1012 79 10000 5.7 250 20:18 24.08.2019
3104 Clouds 29 1012 79 10000 5.7 250 19:57 24.08.2019
3105 Clouds 29 1012 79 10000 5.7 250 19:38 24.08.2019
3106 Clouds 29 1012 79 10000 5.7 260 19:19 24.08.2019
3107 Clouds 29 1012 79 10000 5.7 260 18:45 24.08.2019
3108 Clouds 29 1012 79 10000 5.7 260 18:23 24.08.2019
3109 Clouds 28 1012 73 0 3.82 240.752 17:46 24.08.2019
3110 Clouds 29 1011 74 10000 6.2 260 17:27 24.08.2019
3111 Clouds 29 1011 74 10000 6.2 260 16:56 24.08.2019
3112 Clouds 29 1011 74 10000 6.2 260 16:36 24.08.2019
3113 Clouds 29 1011 74 10000 6.2 260 16:18 24.08.2019
3114 Clouds 30 1010 70 10000 5.7 260 15:43 24.08.2019
3115 Clouds 30 1010 70 10000 5.7 260 15:24 24.08.2019
3116 Clouds 30 1010 74 10000 6.2 280 14:55 24.08.2019
3117 Clouds 30 1010 74 10000 6.2 280 14:37 24.08.2019
3118 Clouds 28 1010 74 0 5.17 246.152 14:18 24.08.2019
3119 Clouds 28 1010 74 0 5.17 246.152 13:42 24.08.2019
3120 Clouds 30 1010 74 10000 5.1 290 13:22 24.08.2019
3121 Clouds 30 1010 74 10000 5.1 290 12:58 24.08.2019
3122 Clouds 30 1010 74 10000 5.1 290 12:39 24.08.2019
3123 Clouds 30 1010 74 10000 5.1 290 12:21 24.08.2019
3124 Clouds 31 1010 70 10000 6.2 270 11:46 24.08.2019
3125 Clouds 31 1010 70 10000 6.2 270 11:24 24.08.2019
3126 Clouds 31 1012 70 10000 5.1 240 10:57 24.08.2019
3127 Clouds 31 1012 70 10000 5.1 240 10:38 24.08.2019
3128 Clouds 32 1012 70 10000 4.6 250 10:19 24.08.2019
3129 Clouds 28 1010 73 0 4.1 246.902 09:40 24.08.2019
3130 Clouds 31 1012 70 10000 4.1 250 09:18 24.08.2019
3131 Clouds 31 1012 70 10000 4.1 250 08:41 24.08.2019
3132 Clouds 31 1012 70 10000 4.1 250 08:23 24.08.2019
3133 Clouds 31 1012 70 10000 4.1 250 07:50 24.08.2019
3134 Clouds 31 1012 70 10000 4.1 250 07:29 24.08.2019
3135 Clouds 30 1013 74 10000 4.6 250 06:31 24.08.2019
3136 Clouds 30 1012 74 10000 4.1 250 05:57 24.08.2019
3137 Clouds 29 1011 79 10000 3.6 260 05:35 24.08.2019
3138 Clouds 29 1011 79 10000 3.1 250 03:40 24.08.2019
3139 Clouds 29 1011 79 10000 3.6 250 02:39 24.08.2019
3140 Clouds 29 1010 79 10000 2.6 250 01:53 24.08.2019
3141 Clouds 29 1010 79 10000 3.1 270 01:22 24.08.2019
3142 Clouds 29 1010 79 10000 3.1 270 00:45 24.08.2019
3143 Clouds 29 1010 79 10000 3.1 270 00:21 24.08.2019
3144 Clouds 28 1011 83 10000 2.6 270 23:44 23.08.2019
3145 Clouds 28 1011 83 10000 2.6 270 23:19 23.08.2019
3146 Clouds 28 1011 77 0 4.26 246.743 22:44 23.08.2019
3147 Clouds 29 1012 79 10000 3.6 260 22:24 23.08.2019
3148 Clouds 29 1012 79 10000 3.6 260 21:55 23.08.2019
3149 Clouds 29 1012 79 10000 3.6 260 21:36 23.08.2019
3150 Clouds 29 1012 79 10000 3.6 260 21:36 23.08.2019
3151 Clouds 29 1012 79 10000 3.6 260 21:36 23.08.2019
3152 Clouds 29 1012 79 10000 3.1 270 21:18 23.08.2019
3153 Clouds 29 1012 79 10000 3.1 270 20:45 23.08.2019
3154 Clouds 29 1012 79 10000 3.1 270 20:27 23.08.2019
3155 Clouds 29 1013 79 10000 3.6 250 19:46 23.08.2019
3156 Clouds 29 1013 79 10000 3.6 250 19:46 23.08.2019
3157 Clouds 29 1013 79 10000 3.6 250 19:19 23.08.2019
3158 Clouds 29 1013 83 10000 3.1 260 18:55 23.08.2019
3159 Clouds 29 1013 83 10000 3.1 260 18:36 23.08.2019
3160 Clouds 29 1012 79 10000 3.1 240 18:18 23.08.2019
3161 Clouds 29 1012 79 10000 3.1 240 17:41 23.08.2019
3162 Clouds 29 1012 79 10000 3.1 240 17:23 23.08.2019
3163 Rain 28 1013 77 0 5.08 235.168 16:49 23.08.2019
3164 Clouds 27 1012 88 10000 2.1 150 16:49 23.08.2019
3165 Clouds 27 1011 100 10000 2.1 160 16:30 23.08.2019
3166 Clouds 27 1011 100 10000 2.1 160 15:59 23.08.2019
3167 Clouds 27 1011 100 10000 2.1 160 15:40 23.08.2019
3168 Clouds 27 1011 100 10000 2.1 160 15:21 23.08.2019
3169 Thunderstorm 26 1010 88 8000 2.6 90 14:56 23.08.2019
3170 Thunderstorm 26 1010 88 8000 2.6 90 14:37 23.08.2019
3171 Clouds 30 1010 74 10000 7.2 240 14:19 23.08.2019
3172 Clouds 30 1010 74 10000 7.2 240 13:42 23.08.2019
3173 Clouds 30 1010 74 10000 7.2 240 13:23 23.08.2019
3174 Clouds 31 1010 70 10000 5.7 240 12:59 23.08.2019
3175 Clouds 31 1010 70 10000 5.7 240 12:40 23.08.2019
3176 Clouds 31 1010 70 10000 5.7 240 12:21 23.08.2019
3177 Clouds 31 1010 70 10000 6.2 240 11:57 23.08.2019
3178 Clouds 31 1010 70 10000 6.2 240 11:39 23.08.2019
3179 Clouds 31 1011 70 10000 5.1 240 11:19 23.08.2019
3180 Clouds 31 1011 70 10000 5.1 240 10:55 23.08.2019
3181 Clouds 28 1010 76 0 5.06 237.818 10:37 23.08.2019
3182 Clouds 30 1012 74 10000 5.1 240 10:18 23.08.2019
3183 Clouds 30 1012 74 10000 5.1 240 09:43 23.08.2019
3184 Clouds 30 1012 74 10000 5.1 240 09:20 23.08.2019
3185 Clouds 30 1012 74 10000 5.1 240 08:45 23.08.2019
3186 Clouds 30 1012 74 10000 5.1 240 08:21 23.08.2019
3187 Clouds 30 1012 74 10000 6.2 250 07:57 23.08.2019
3188 Clouds 30 1012 74 10000 6.2 250 07:38 23.08.2019
3189 Clouds 30 1012 74 10000 6.2 250 07:20 23.08.2019
3190 Clouds 30 1012 74 10000 5.7 250 06:41 23.08.2019
3191 Clouds 30 1012 74 10000 5.7 250 06:22 23.08.2019
3192 Clouds 28 1013 76 0 4.39 244.171 05:44 23.08.2019
3193 Clouds 29 1011 74 10000 3.1 250 05:24 23.08.2019
3194 Clouds 29 1011 74 10000 5.7 250 03:42 23.08.2019
3195 Clouds 29 1011 74 10000 5.1 250 02:38 23.08.2019
3196 Clouds 29 1011 74 10000 5.1 250 02:20 23.08.2019
3197 Clouds 29 1010 74 10000 5.1 250 00:57 23.08.2019
3198 Clouds 29 1010 74 10000 5.1 250 00:37 23.08.2019
3199 Clouds 29 1011 74 10000 4.1 250 00:18 23.08.2019
3200 Clouds 29 1011 74 10000 4.1 250 23:40 22.08.2019
3201 Clouds 29 1011 74 10000 4.1 250 23:21 22.08.2019
3202 Rain 28 1011 76 0 6.07 259.758 22:42 22.08.2019
3203 Clouds 29 1012 74 10000 3.1 230 22:23 22.08.2019
3204 Clouds 29 1012 74 10000 3.1 230 21:58 22.08.2019
3205 Clouds 29 1012 74 10000 3.1 230 21:40 22.08.2019
3206 Clouds 29 1012 74 10000 3.1 230 21:21 22.08.2019
3207 Clouds 29 1012 79 10000 3.1 250 20:58 22.08.2019
3208 Clouds 29 1012 79 10000 3.1 250 20:39 22.08.2019
3209 Clouds 29 1012 79 10000 4.6 270 20:20 22.08.2019
3210 Clouds 29 1012 79 10000 4.6 270 19:56 22.08.2019
3211 Clouds 29 1012 79 10000 4.6 270 19:38 22.08.2019
3212 Clouds 29 1012 79 10000 4.6 270 19:38 22.08.2019
3213 Clouds 29 1012 79 10000 4.6 270 19:20 22.08.2019
3214 Clouds 29 1012 74 10000 2.6 260 18:57 22.08.2019
3215 Clouds 29 1012 74 10000 2.6 260 18:39 22.08.2019
3216 Clouds 29 1012 74 10000 5.7 280 18:18 22.08.2019
3217 Clouds 29 1012 74 10000 5.7 280 17:43 22.08.2019
3218 Clouds 30 1011 74 10000 6.7 260 17:24 22.08.2019
3219 Clouds 30 1011 74 10000 6.7 260 17:24 22.08.2019
3220 Clouds 28 1012 76 0 5.62 259.723 16:59 22.08.2019
3221 Clouds 28 1012 76 0 5.62 259.723 16:40 22.08.2019
3222 Clouds 30 1010 74 10000 6.7 260 16:21 22.08.2019
3223 Clouds 30 1010 74 10000 6.7 260 16:21 22.08.2019
3224 Clouds 30 1010 74 10000 6.7 260 16:21 22.08.2019
3225 Clouds 30 1010 74 10000 6.7 260 16:21 22.08.2019
3226 Clouds 30 1010 74 10000 6.7 260 15:59 22.08.2019
3227 Clouds 30 1010 74 10000 6.7 260 15:40 22.08.2019
3228 Clouds 30 1010 74 10000 6.7 260 15:21 22.08.2019
3229 Clouds 30 1010 74 10000 6.7 260 15:21 22.08.2019
3230 Clouds 30 1010 74 10000 4.1 250 15:21 22.08.2019
3231 Clouds 30 1010 74 10000 4.1 250 14:57 22.08.2019
3232 Clouds 30 1010 74 10000 4.1 250 14:38 22.08.2019
3233 Clouds 31 1010 70 10000 4.1 270 14:18 22.08.2019
3234 Clouds 31 1010 70 10000 4.1 270 13:55 22.08.2019
3235 Clouds 31 1010 70 10000 4.1 270 13:36 22.08.2019
3236 Clouds 31 1010 70 10000 4.1 270 13:18 22.08.2019
3237 Clouds 31 1010 70 10000 4.6 270 12:40 22.08.2019
3238 Clouds 31 1010 70 10000 4.6 270 12:21 22.08.2019
3239 Clouds 31 1010 70 10000 4.6 270 11:55 22.08.2019
3240 Clouds 32 1010 66 10000 4.6 260 11:36 22.08.2019
3241 Clouds 32 1010 66 10000 4.6 260 11:18 22.08.2019
3242 Clouds 32 1010 66 10000 4.6 260 10:57 22.08.2019
3243 Clouds 32 1010 66 10000 4.6 260 10:36 22.08.2019
3244 Clouds 31 1011 74 10000 4.1 260 10:18 22.08.2019
3245 Clouds 31 1011 74 10000 4.1 260 09:40 22.08.2019
3246 Clouds 31 1012 70 10000 4.6 260 09:21 22.08.2019
3247 Clouds 31 1012 70 10000 4.6 260 08:58 22.08.2019
3248 Clouds 31 1012 70 10000 4.6 260 08:39 22.08.2019
3249 Clouds 30 1012 74 10000 4.1 260 08:20 22.08.2019
3250 Clouds 30 1012 74 10000 4.1 260 07:42 22.08.2019
3251 Clouds 30 1012 70 10000 3.6 260 07:23 22.08.2019
3252 Clouds 30 1012 70 10000 3.6 260 06:55 22.08.2019
3253 Clouds 30 1012 70 10000 3.6 260 06:37 22.08.2019
3254 Clouds 30 1012 70 10000 4.6 260 06:18 22.08.2019
3255 Clouds 29 1011 83 10000 3.6 280 04:42 22.08.2019
3256 Clouds 29 1010 79 10000 4.1 250 02:56 22.08.2019
3257 Clouds 29 1010 79 10000 4.1 250 02:34 22.08.2019
3258 Clouds 29 1010 79 10000 4.1 250 01:26 22.08.2019
3259 Clouds 29 1010 74 10000 4.1 250 00:48 22.08.2019
3260 Clouds 29 1010 74 10000 4.1 250 00:30 22.08.2019
3261 Clouds 29 1010 74 10000 4.6 250 23:58 21.08.2019
3262 Clouds 29 1010 74 10000 4.6 250 23:39 21.08.2019
3263 Clouds 29 1011 79 10000 3.1 250 23:19 21.08.2019
3264 Clouds 29 1011 79 10000 3.1 250 22:56 21.08.2019
3265 Clouds 29 1011 79 10000 3.1 250 22:38 21.08.2019
3266 Clouds 29 1011 79 10000 3.1 250 22:19 21.08.2019
3267 Clouds 29 1012 79 10000 3.6 240 21:55 21.08.2019
3268 Clouds 29 1012 79 10000 3.6 240 21:37 21.08.2019
3269 Clouds 29 1012 79 10000 3.6 230 21:18 21.08.2019
3270 Clouds 29 1012 79 10000 3.6 230 20:43 21.08.2019
3271 Clouds 29 1012 79 10000 3.6 230 20:43 21.08.2019
3272 Clouds 29 1012 79 10000 3.6 230 20:24 21.08.2019
3273 Clouds 29 1012 74 10000 4.1 250 19:58 21.08.2019
3274 Clouds 29 1012 74 10000 4.1 250 19:39 21.08.2019
3275 Clouds 29 1012 79 10000 5.7 250 19:21 21.08.2019
3276 Clouds 29 1012 79 10000 5.7 250 18:56 21.08.2019
3277 Clouds 29 1012 79 10000 5.7 250 18:38 21.08.2019
3278 Clouds 29 1011 79 10000 3.1 240 18:19 21.08.2019
3279 Clouds 29 1011 79 10000 3.1 240 17:42 21.08.2019
3280 Clouds 29 1011 79 10000 3.1 240 17:21 21.08.2019
3281 Clouds 30 1011 74 10000 2.1 240 16:56 21.08.2019
3282 Clouds 30 1010 74 10000 3.1 260 16:37 21.08.2019
3283 Clouds 30 1010 74 10000 3.1 260 16:18 21.08.2019
3284 Clouds 30 1010 74 10000 3.1 260 15:56 21.08.2019
3285 Clouds 28 1012 76 0 6.13 254.459 15:37 21.08.2019
3286 Clouds 31 1010 70 10000 4.6 270 15:18 21.08.2019
3287 Clouds 28 1010 75 0 5.46 255.747 14:39 21.08.2019
3288 Clouds 28 1010 75 0 5.46 255.747 14:39 21.08.2019
3289 Clouds 32 1010 66 10000 4.1 280 14:21 21.08.2019
3290 Clouds 32 1010 66 10000 4.1 280 13:59 21.08.2019
3291 Clouds 32 1010 66 10000 4.1 280 13:59 21.08.2019
3292 Clouds 28 1010 75 0 5.46 255.747 13:40 21.08.2019
3293 Clouds 32 1009 70 10000 5.1 270 13:19 21.08.2019
3294 Clouds 32 1009 70 10000 5.1 270 12:57 21.08.2019
3295 Clouds 32 1009 70 10000 5.1 270 12:38 21.08.2019
3296 Clouds 32 1010 70 10000 4.6 290 12:19 21.08.2019
3297 Clouds 32 1010 70 10000 4.6 290 11:44 21.08.2019
3298 Clouds 32 1010 70 10000 4.6 290 11:24 21.08.2019
3299 Clouds 31 1011 70 10000 4.1 260 10:58 21.08.2019
3300 Clouds 31 1011 70 10000 4.1 260 10:40 21.08.2019
3301 Clouds 31 1011 70 10000 4.1 260 10:21 21.08.2019
3302 Clouds 31 1011 74 10000 3.6 250 09:58 21.08.2019
3303 Clouds 31 1011 74 10000 3.6 250 09:40 21.08.2019
3304 Clouds 31 1011 70 10000 3.6 220 09:21 21.08.2019
3305 Clouds 31 1011 70 10000 3.6 220 08:50 21.08.2019
3306 Clouds 31 1011 70 10000 3.6 220 08:26 21.08.2019
3307 Clouds 31 1012 70 10000 3.1 250 07:56 21.08.2019
3308 Clouds 31 1012 70 10000 3.1 250 07:37 21.08.2019
3309 Clouds 31 1012 70 10000 3.1 270 07:18 21.08.2019
3310 Clouds 28 1013 76 0 5.11 244.944 06:43 21.08.2019
3311 Clouds 30 1012 74 10000 3.1 270 06:19 21.08.2019
3312 Clouds 29 1011 79 10000 3.6 250 05:29 21.08.2019
3313 Clouds 29 1011 79 10000 3.6 250 04:51 21.08.2019
3314 Clouds 28 1010 83 10000 3.1 240 02:44 21.08.2019
3315 Clouds 28 1010 83 10000 2.6 260 01:36 21.08.2019
3316 Clouds 28 1010 83 10000 2.6 260 00:43 21.08.2019
3317 Clouds 28 1011 78 10000 2.6 260 00:21 21.08.2019
3318 Clouds 28 1010 79 0 5.15 272.228 23:45 20.08.2019
3319 Clouds 28 1010 79 0 5.15 272.228 23:45 20.08.2019
3320 Clouds 28 1011 78 10000 2.6 270 23:21 20.08.2019
3321 Clouds 28 1011 78 10000 2.6 270 22:59 20.08.2019
3322 Clouds 28 1011 78 10000 2.6 270 22:41 20.08.2019
3323 Clouds 28 1011 78 10000 2.6 270 22:22 20.08.2019
3324 Clouds 28 1013 78 10000 2.6 260 21:58 20.08.2019
3325 Clouds 28 1013 78 10000 2.6 260 21:39 20.08.2019
3326 Clouds 28 1013 78 10000 2.6 260 21:39 20.08.2019
3327 Clouds 28 1013 78 10000 2.6 300 21:20 20.08.2019
3328 Clouds 28 1013 78 10000 2.6 300 20:59 20.08.2019
3329 Clouds 28 1013 78 10000 2.6 300 20:41 20.08.2019
3330 Clouds 28 1013 78 10000 2.6 300 20:23 20.08.2019
3331 Clouds 28 1013 78 10000 3.1 280 19:41 20.08.2019
3332 Clouds 28 1013 78 10000 3.1 280 19:22 20.08.2019
3333 Clouds 28 1012 78 10000 2.6 230 18:58 20.08.2019
3334 Rain 28 1013 78 0 4.94 260.141 18:40 20.08.2019
3335 Rain 28 1012 76 0 4.81 271.406 18:19 20.08.2019
3336 Rain 28 1012 76 0 4.81 271.406 17:57 20.08.2019
3337 Rain 28 1012 76 0 4.81 271.406 17:39 20.08.2019
3338 Rain 28 1012 76 0 4.81 271.406 17:20 20.08.2019
3339 Rain 28 1012 76 0 4.81 271.406 17:20 20.08.2019
3340 Rain 28 1012 76 0 4.81 271.406 16:46 20.08.2019
3341 Rain 28 1012 76 0 4.81 271.406 16:26 20.08.2019
3342 Rain 28 1012 76 0 4.81 271.406 15:57 20.08.2019
3343 Rain 28 1012 76 0 4.81 271.406 15:57 20.08.2019
3344 Rain 28 1012 76 0 4.81 271.406 15:38 20.08.2019
3345 Clouds 30 1009 74 10000 4.1 300 15:18 20.08.2019
3346 Clouds 30 1009 74 10000 4.1 300 14:43 20.08.2019
3347 Clouds 31 1009 70 10000 5.1 270 14:22 20.08.2019
3348 Clouds 31 1009 70 10000 5.1 270 14:22 20.08.2019
3349 Clouds 31 1009 70 10000 5.1 270 13:57 20.08.2019
3350 Clouds 31 1009 70 10000 5.1 270 13:57 20.08.2019
3351 Clouds 31 1009 70 10000 5.1 270 13:39 20.08.2019
3352 Clouds 32 1010 70 10000 3.1 250 13:20 20.08.2019
3353 Clouds 32 1010 70 10000 3.1 250 12:51 20.08.2019
3354 Clouds 32 1010 70 10000 3.1 250 12:31 20.08.2019
3355 Clouds 31 1010 74 10000 2.6 300 11:59 20.08.2019
3356 Clouds 31 1010 74 10000 2.6 300 11:40 20.08.2019
3357 Clouds 31 1011 70 10000 2.6 300 11:21 20.08.2019
3358 Clouds 31 1011 70 10000 2.6 300 10:57 20.08.2019
3359 Clouds 31 1011 70 10000 2.6 300 10:39 20.08.2019
3360 Clouds 31 1011 70 10000 2.6 300 10:39 20.08.2019
3361 Rain 30 1012 74 10000 5.1 290 10:20 20.08.2019
3362 Rain 30 1012 74 10000 5.1 290 09:56 20.08.2019
3363 Rain 30 1012 74 10000 5.1 290 09:38 20.08.2019
3364 Rain 30 1012 74 10000 5.1 290 09:38 20.08.2019
3365 Clouds 31 1012 70 10000 2.6 310 09:20 20.08.2019
3366 Clouds 31 1012 70 10000 2.6 310 08:41 20.08.2019
3367 Clouds 31 1012 70 10000 2.6 310 08:23 20.08.2019
3368 Clouds 30 1012 74 10000 2.6 310 07:57 20.08.2019
3369 Clouds 30 1012 74 10000 2.6 310 07:38 20.08.2019
3370 Clouds 30 1012 79 10000 1.5 280 07:20 20.08.2019
3371 Rain 28 1013 77 0 4.22 251.218 06:43 20.08.2019
3372 Clouds 29 1012 79 10000 2.1 290 06:19 20.08.2019
3373 Clouds 29 1012 79 10000 2.1 290 05:41 20.08.2019
3374 Clouds 28 1011 83 10000 1 0 04:26 20.08.2019
3375 Clouds 27 1011 88 10000 0.5 0 02:48 20.08.2019
3376 Clouds 27 1010 88 10000 4.39 281 01:53 20.08.2019
3377 Clouds 27 1010 88 10000 0.5 0 01:20 20.08.2019
3378 Clouds 27 1010 88 10000 0.5 0 00:44 20.08.2019
3379 Clouds 27 1010 88 10000 0.5 0 00:24 20.08.2019
3380 Clouds 27 1010 88 10000 0.5 0 23:44 19.08.2019
3381 Clouds 27 1011 88 10000 0.5 0 23:19 19.08.2019
3382 Clouds 27 1011 88 10000 0.5 0 22:58 19.08.2019
3383 Clouds 27 1011 88 10000 0.5 0 22:40 19.08.2019
3384 Rain 27 1012 88 10000 1.5 360 22:20 19.08.2019
3385 Rain 27 1012 88 10000 1.5 360 21:57 19.08.2019
3386 Rain 27 1012 88 10000 1.5 360 21:38 19.08.2019
3387 Clouds 27 1012 88 10000 1.5 40 21:19 19.08.2019
3388 Clouds 27 1012 88 10000 1.5 40 20:54 19.08.2019
3389 Clouds 27 1012 88 10000 1.5 40 20:36 19.08.2019
3390 Clouds 28 1012 83 10000 1.5 30 20:18 19.08.2019
3391 Clouds 28 1012 83 10000 1.5 30 19:54 19.08.2019
3392 Clouds 28 1012 83 10000 1.5 30 19:36 19.08.2019
3393 Clouds 27 1011 88 9000 1.5 330 19:18 19.08.2019
3394 Clouds 27 1011 88 9000 1.5 330 18:40 19.08.2019
3395 Clouds 27 1011 88 9000 1.5 330 18:40 19.08.2019
3396 Clouds 27 1011 88 9000 0.5 0 18:21 19.08.2019
3397 Clouds 27 1011 88 9000 0.5 0 17:56 19.08.2019
3398 Clouds 27 1011 88 9000 0.5 0 17:37 19.08.2019
3399 Rain 26 1011 94 7000 1.5 270 17:19 19.08.2019
3400 Rain 26 1011 94 7000 1.5 270 16:54 19.08.2019
3401 Rain 26 1011 94 7000 1.5 270 16:36 19.08.2019
3402 Rain 26 1011 94 7000 2.6 270 16:18 19.08.2019
3403 Rain 26 1011 94 7000 2.6 270 16:18 19.08.2019
3404 Rain 26 1011 94 7000 2.6 270 15:43 19.08.2019
3405 Rain 26 1011 94 7000 2.6 270 15:19 19.08.2019
3406 Rain 26 1011 94 7000 2.1 290 14:44 19.08.2019
3407 Rain 26 1011 94 7000 2.1 290 14:24 19.08.2019
3408 Rain 25 1010 94 7000 9.3 330 13:58 19.08.2019
3409 Rain 28 1011 77 0 6.16 287.097 13:40 19.08.2019
3410 Clouds 29 1010 74 10000 4.1 270 13:20 19.08.2019
3411 Clouds 29 1010 74 10000 4.1 270 12:58 19.08.2019
3412 Clouds 29 1010 74 10000 4.1 270 12:40 19.08.2019
3413 Clouds 29 1010 74 10000 4.1 270 12:20 19.08.2019
3414 Clouds 29 1011 79 10000 3.1 280 11:41 19.08.2019
3415 Clouds 29 1011 79 10000 3.1 280 11:23 19.08.2019
3416 Clouds 28 1011 78 10000 3.1 320 10:58 19.08.2019
3417 Rain 27 1012 88 8000 2.6 310 10:38 19.08.2019
3418 Rain 27 1012 88 8000 2.6 310 10:19 19.08.2019
3419 Rain 27 1012 88 8000 2.6 310 09:54 19.08.2019
3420 Rain 27 1012 88 8000 2.6 310 09:36 19.08.2019
3421 Rain 26 1013 94 7000 5.7 320 09:18 19.08.2019
3422 Rain 26 1013 94 7000 5.7 320 08:41 19.08.2019
3423 Rain 26 1013 94 7000 5.7 320 08:20 19.08.2019
3424 Rain 28 1013 75 0 4.33 271.152 07:52 19.08.2019
3425 Rain 26 1012 88 9000 2.6 300 07:32 19.08.2019
3426 Rain 26 1012 88 9000 2.6 300 06:58 19.08.2019
3427 Rain 28 1013 75 0 4.33 271.152 06:36 19.08.2019
3428 Clouds 29 1012 79 10000 0.5 0 05:26 19.08.2019
3429 Clouds 27 1010 88 10000 4.11 274.798 04:33 19.08.2019
3430 Clouds 27 1010 88 10000 0.5 0 03:24 19.08.2019
3431 Clouds 28 1010 83 10000 2.1 340 02:29 19.08.2019
3432 Clouds 28 1010 83 10000 2.1 340 01:36 19.08.2019
3433 Clouds 27 1010 83 10000 2.1 330 00:44 19.08.2019
3434 Clouds 27 1010 83 10000 2.1 330 00:23 19.08.2019
3435 Clouds 26 1010 94 10000 2.1 360 23:43 18.08.2019
3436 Clouds 26 1010 94 10000 2.1 360 23:22 18.08.2019
3437 Rain 28 1011 75 0 2.81 345.597 22:57 18.08.2019
3438 Rain 28 1011 75 0 2.81 345.597 22:38 18.08.2019
3439 Rain 26 1012 94 7000 9.3 10 22:20 18.08.2019
3440 Rain 26 1012 94 7000 9.3 10 21:56 18.08.2019
3441 Rain 26 1012 94 7000 9.3 10 21:37 18.08.2019
3442 Rain 26 1012 94 7000 9.3 10 21:19 18.08.2019
3443 Rain 28 1013 75 0 3.85 341.471 20:44 18.08.2019
3444 Rain 28 1013 83 7000 7.7 310 20:26 18.08.2019
3445 Rain 28 1013 83 7000 7.7 310 20:26 18.08.2019
3446 Rain 28 1013 83 7000 7.7 310 19:56 18.08.2019
3447 Rain 28 1013 83 7000 7.7 310 19:38 18.08.2019
3448 Rain 28 1013 83 7000 7.7 310 19:19 18.08.2019
3449 Clouds 29 1012 79 10000 4.1 330 18:54 18.08.2019
3450 Clouds 29 1012 79 10000 4.1 330 18:36 18.08.2019
3451 Clouds 29 1011 74 10000 5.1 340 18:18 18.08.2019
3452 Clouds 29 1011 74 10000 5.1 340 17:42 18.08.2019
3453 Clouds 29 1011 74 10000 5.1 340 17:19 18.08.2019
3454 Clouds 28 1010 78 10000 4.6 330 16:57 18.08.2019
3455 Clouds 30 1010 74 10000 5.7 340 16:38 18.08.2019
3456 Clouds 30 1010 74 10000 5.7 340 16:20 18.08.2019
3457 Clouds 30 1010 74 10000 5.7 340 15:57 18.08.2019
3458 Clouds 30 1010 74 10000 5.7 340 15:38 18.08.2019
3459 Clouds 30 1010 74 10000 5.7 340 15:20 18.08.2019
3460 Clouds 30 1009 70 10000 5.1 350 14:54 18.08.2019
3461 Clouds 30 1009 70 10000 5.1 350 14:36 18.08.2019
3462 Clouds 28 1009 83 10000 3.6 60 14:18 18.08.2019
3463 Rain 28 1009 74 0 2.92 339.749 13:42 18.08.2019
3464 Clouds 31 1009 66 10000 6.2 340 13:24 18.08.2019
3465 Clouds 31 1009 66 10000 6.2 340 12:58 18.08.2019
3466 Clouds 31 1009 66 10000 6.2 340 12:39 18.08.2019
3467 Clouds 31 1009 66 10000 6.2 340 12:21 18.08.2019
3468 Clouds 29 1009 79 10000 3.6 310 11:43 18.08.2019
3469 Clouds 29 1009 79 10000 3.6 310 11:23 18.08.2019
3470 Clouds 31 1009 66 10000 5.1 320 10:59 18.08.2019
3471 Clouds 31 1009 66 10000 5.1 320 10:40 18.08.2019
3472 Clouds 31 1010 66 10000 4.1 10 10:19 18.08.2019
3473 Clouds 31 1010 66 10000 4.1 10 09:44 18.08.2019
3474 Clouds 31 1010 66 10000 4.1 10 09:21 18.08.2019
3475 Clouds 32 1010 62 10000 4.6 350 08:44 18.08.2019
3476 Clouds 32 1010 62 10000 4.6 350 08:25 18.08.2019
3477 Clouds 31 1011 66 10000 4.1 340 07:59 18.08.2019
3478 Clouds 31 1011 66 10000 4.1 340 07:39 18.08.2019
3479 Clouds 31 1011 66 10000 4.1 340 07:21 18.08.2019
3480 Clouds 30 1010 74 10000 2.1 30 05:45 18.08.2019
3481 Clouds 28 1011 75 0 2.9 341.016 04:44 18.08.2019
3482 Clouds 28 1009 83 10000 2.1 30 03:20 18.08.2019
3483 Clouds 28 1009 83 10000 2.1 30 02:43 18.08.2019
3484 Clouds 28 1009 83 10000 2.1 30 02:18 18.08.2019
3485 Clouds 28 1009 83 10000 2.1 30 01:28 18.08.2019
3486 Clouds 28 1009 83 10000 1.5 30 00:43 18.08.2019
3487 Clouds 28 1009 83 10000 1.5 30 00:24 18.08.2019
3488 Clouds 29 1009 79 10000 1.5 30 23:58 17.08.2019
3489 Clouds 28 1009 76 0 2.7 351.336 23:38 17.08.2019
3490 Clouds 29 1010 79 10000 1 0 23:20 17.08.2019
3491 Clouds 29 1010 79 10000 1 0 22:58 17.08.2019
3492 Clouds 29 1010 79 10000 1 0 22:40 17.08.2019
3493 Clouds 29 1010 79 10000 1 0 22:21 17.08.2019
3494 Clouds 29 1010 79 10000 2.1 360 21:55 17.08.2019
3495 Clouds 29 1010 79 10000 2.1 360 21:37 17.08.2019
3496 Clouds 29 1010 79 10000 2.1 360 21:19 17.08.2019
3497 Clouds 29 1011 79 10000 2.1 360 20:39 17.08.2019
3498 Clouds 29 1011 79 10000 2.1 360 20:20 17.08.2019
3499 Clouds 29 1010 79 10000 3.6 30 19:56 17.08.2019
3500 Clouds 29 1010 79 10000 3.6 30 19:37 17.08.2019
3501 Clouds 29 1010 79 10000 3.6 30 19:19 17.08.2019
3502 Clouds 29 1010 74 10000 3.6 20 18:39 17.08.2019
3503 Clouds 29 1009 74 10000 2.6 350 18:19 17.08.2019
3504 Clouds 29 1009 74 10000 2.6 350 17:56 17.08.2019
3505 Clouds 30 1009 70 10000 3.6 330 17:37 17.08.2019
3506 Clouds 30 1009 70 10000 3.6 330 17:19 17.08.2019
3507 Clouds 30 1009 70 10000 3.6 330 16:43 17.08.2019
3508 Clouds 30 1009 70 10000 3.6 330 16:25 17.08.2019
3509 Clouds 30 1008 70 10000 4.1 350 15:58 17.08.2019
3510 Clouds 30 1008 70 10000 4.1 350 15:39 17.08.2019
3511 Clouds 30 1008 70 10000 4.1 350 15:20 17.08.2019
3512 Clouds 31 1008 66 10000 5.1 340 14:41 17.08.2019
3513 Clouds 31 1008 66 10000 5.1 340 14:22 17.08.2019
3514 Clouds 31 1008 70 10000 4.1 340 13:48 17.08.2019
3515 Clouds 31 1008 70 10000 4.1 340 13:23 17.08.2019
3516 Clouds 31 1008 70 10000 3.6 360 12:58 17.08.2019
3517 Clouds 31 1008 70 10000 3.6 360 12:40 17.08.2019
3518 Clouds 31 1008 70 10000 3.1 320 12:19 17.08.2019
3519 Clouds 31 1008 70 10000 3.1 320 11:45 17.08.2019
3520 Clouds 31 1008 70 10000 3.1 320 11:21 17.08.2019
3521 Clouds 31 1009 66 10000 4.6 330 10:57 17.08.2019
3522 Clouds 31 1009 66 10000 4.6 330 10:57 17.08.2019
3523 Clouds 28 1009 77 0 4.02 343.792 10:39 17.08.2019
3524 Clouds 32 1010 66 10000 4.6 330 10:19 17.08.2019
3525 Clouds 32 1010 66 10000 4.6 330 09:48 17.08.2019
3526 Clouds 32 1010 66 10000 4.6 330 09:29 17.08.2019
3527 Clouds 31 1010 70 10000 3.6 330 08:54 17.08.2019
3528 -273 0 0 0 0 0 08:25 17.08.2019
3529 Clouds 31 1010 70 10000 4.6 360 07:51 17.08.2019
3530 Clouds 31 1010 70 10000 4.6 360 07:22 17.08.2019
3531 Clouds 30 1011 79 10000 4.1 330 06:54 17.08.2019
3532 Clouds 30 1010 74 10000 3.1 320 05:35 17.08.2019
3533 Clouds 29 1009 79 10000 4.1 340 04:29 17.08.2019
3534 Clouds 29 1009 79 10000 3.6 330 03:33 17.08.2019
3535 Clouds 29 1008 79 10000 4.1 340 01:48 17.08.2019
3536 Clouds 29 1008 79 10000 4.1 340 01:28 17.08.2019
3537 Clouds 29 1008 79 10000 4.1 340 00:55 17.08.2019
3538 Clouds 29 1008 79 10000 4.1 340 00:31 17.08.2019
3539 Clouds 29 1009 79 10000 4.1 320 23:52 16.08.2019
3540 Clouds 29 1009 79 10000 4.1 320 23:27 16.08.2019
3541 Clouds 29 1009 79 10000 4.6 320 22:57 16.08.2019
3542 Rain 28 1009 80 0 3.1 295.588 22:39 16.08.2019
3543 Clouds 29 1010 79 10000 4.1 320 22:19 16.08.2019
3544 Clouds 29 1010 79 10000 4.1 320 21:40 16.08.2019
3545 Clouds 29 1011 79 10000 4.6 310 21:20 16.08.2019
3546 Clouds 29 1011 79 10000 4.6 310 20:56 16.08.2019
3547 Clouds 29 1011 79 10000 4.6 310 20:37 16.08.2019
3548 Clouds 30 1011 74 10000 3.6 320 20:18 16.08.2019
3549 Clouds 30 1011 74 10000 3.6 320 19:43 16.08.2019
3550 Clouds 30 1011 74 10000 3.6 320 19:23 16.08.2019
3551 Clouds 30 1011 79 10000 3.6 330 18:54 16.08.2019
3552 Clouds 30 1011 79 10000 3.6 330 18:36 16.08.2019
3553 Clouds 30 1010 74 10000 4.1 300 18:18 16.08.2019
3554 Rain 28 1011 77 0 2.65 288.367 17:41 16.08.2019
3555 Rain 28 1011 77 0 2.65 288.367 17:41 16.08.2019
3556 Clouds 30 1009 74 10000 4.1 310 17:23 16.08.2019
3557 Clouds 30 1009 74 10000 4.1 310 17:23 16.08.2019
3558 Clouds 30 1009 74 10000 4.1 310 16:56 16.08.2019
3559 Clouds 30 1009 79 10000 4.1 300 16:37 16.08.2019
3560 Clouds 30 1009 79 10000 4.1 300 16:18 16.08.2019
3561 Clouds 30 1009 79 10000 4.1 300 15:40 16.08.2019
3562 Clouds 30 1009 79 10000 4.1 300 15:21 16.08.2019
3563 Clouds 30 1009 79 10000 4.1 300 15:21 16.08.2019
3564 Clouds 30 1008 79 10000 4.1 310 14:58 16.08.2019
3565 Clouds 30 1008 79 10000 4.1 310 14:39 16.08.2019
3566 Clouds 30 1008 79 10000 4.1 310 14:39 16.08.2019
3567 Clouds 30 1008 79 10000 4.1 310 14:19 16.08.2019
3568 Clouds 31 1008 74 10000 5.1 290 13:57 16.08.2019
3569 Clouds 31 1008 74 10000 5.1 290 13:37 16.08.2019
3570 Clouds 31 1008 74 10000 5.1 290 13:18 16.08.2019
3571 Clouds 30 1009 74 10000 4.6 320 12:38 16.08.2019
3572 Clouds 30 1009 74 10000 4.6 320 12:19 16.08.2019
3573 Clouds 31 1009 70 10000 5.1 310 11:42 16.08.2019
3574 Clouds 31 1009 70 10000 5.1 310 11:24 16.08.2019
3575 Clouds 31 1010 74 10000 3.6 300 10:44 16.08.2019
3576 Clouds 31 1010 74 10000 3.6 300 10:26 16.08.2019
3577 Clouds 31 1011 70 10000 4.6 310 09:58 16.08.2019
3578 Clouds 31 1011 70 10000 4.6 310 09:37 16.08.2019
3579 Clouds 31 1011 70 10000 4.6 310 09:18 16.08.2019
3580 Clouds 30 1011 74 10000 5.7 310 08:42 16.08.2019
3581 Clouds 30 1011 74 10000 5.7 310 08:21 16.08.2019
3582 Clouds 28 1011 83 10000 3.1 320 07:59 16.08.2019
3583 Clouds 28 1011 83 10000 3.1 320 07:41 16.08.2019
3584 Clouds 28 1011 83 10000 3.1 320 07:21 16.08.2019
3585 Clouds 30 1011 74 10000 4.1 300 06:32 16.08.2019
3586 Clouds 28 1012 73 0 2.1 283.083 05:43 16.08.2019
3587 Clouds 29 1010 79 10000 4.6 310 04:32 16.08.2019
3588 Clouds 29 1010 79 10000 3.6 310 02:47 16.08.2019
3589 Clouds 29 1010 83 10000 4.1 310 01:42 16.08.2019
3590 Clouds 29 1010 83 10000 4.1 310 01:19 16.08.2019
3591 Clouds 29 1010 79 10000 3.6 270 00:41 16.08.2019
3592 Clouds 29 1010 79 10000 3.6 300 00:21 16.08.2019
3593 Clouds 29 1010 79 10000 3.6 300 23:45 15.08.2019
3594 Clouds 29 1010 79 10000 3.6 300 23:22 15.08.2019
3595 Clouds 29 1011 79 10000 3.1 310 22:58 15.08.2019
3596 Clouds 28 1011 74 0 2.41 261.87 22:39 15.08.2019
3597 Clouds 29 1012 79 10000 3.1 300 22:21 15.08.2019
3598 Clouds 29 1012 79 10000 3.1 300 21:56 15.08.2019
3599 Clouds 29 1012 79 10000 3.1 300 21:38 15.08.2019
3600 Clouds 29 1012 79 10000 3.1 300 21:18 15.08.2019
3601 Clouds 29 1012 79 10000 3.1 300 20:43 15.08.2019
3602 Clouds 29 1012 79 10000 2.6 290 20:22 15.08.2019
3603 Clouds 29 1012 79 10000 2.6 290 19:58 15.08.2019
3604 Clouds 29 1012 79 10000 2.6 290 19:39 15.08.2019
3605 Clouds 30 1012 74 10000 3.6 270 19:21 15.08.2019
3606 Clouds 30 1012 74 10000 3.6 270 18:47 15.08.2019
3607 Clouds 30 1012 74 10000 3.6 270 18:23 15.08.2019
3608 Clouds 30 1011 74 10000 3.1 300 17:58 15.08.2019
3609 Rain 28 1012 76 0 3.73 285.251 17:38 15.08.2019
3610 Clouds 30 1011 74 10000 3.1 290 17:19 15.08.2019
3611 Clouds 30 1011 74 10000 3.1 290 16:56 15.08.2019
3612 Rain 28 1012 76 0 3.73 285.251 16:38 15.08.2019
3613 Clouds 30 1010 74 10000 4.1 300 16:20 15.08.2019
3614 Rain 28 1012 76 0 3.73 285.251 15:38 15.08.2019
3615 Clouds 31 1009 70 10000 5.1 300 15:19 15.08.2019
3616 Clouds 31 1009 70 10000 5.1 300 14:56 15.08.2019
3617 Clouds 31 1009 70 10000 5.1 300 14:37 15.08.2019
3618 Clouds 31 1009 70 10000 5.1 290 14:18 15.08.2019
3619 Clouds 31 1009 70 10000 5.1 290 13:55 15.08.2019
3620 Clouds 31 1009 70 10000 4.1 300 13:37 15.08.2019
3621 Clouds 31 1009 70 10000 4.1 300 13:18 15.08.2019
3622 Clouds 31 1009 70 10000 4.1 300 12:40 15.08.2019
3623 Clouds 31 1009 70 10000 4.1 300 12:20 15.08.2019
3624 Clouds 31 1010 70 10000 4.1 320 11:57 15.08.2019
3625 Clouds 31 1010 70 10000 4.1 320 11:57 15.08.2019
3626 Clouds 31 1010 70 10000 4.1 320 11:38 15.08.2019
3627 Clouds 31 1010 70 10000 3.6 310 11:18 15.08.2019
3628 Clouds 31 1010 70 10000 3.6 310 10:58 15.08.2019
3629 Clouds 31 1012 70 10000 2.6 320 10:37 15.08.2019
3630 Clouds 31 1012 70 10000 2.6 320 10:37 15.08.2019
3631 Clouds 31 1012 70 10000 2.6 320 10:18 15.08.2019
3632 Clouds 31 1012 70 10000 2.6 320 09:43 15.08.2019
3633 Clouds 31 1012 70 10000 2.6 320 09:22 15.08.2019
3634 Clouds 31 1012 74 10000 3.1 310 08:39 15.08.2019
3635 Clouds 31 1012 74 10000 3.1 310 08:21 15.08.2019
3636 Clouds 31 1012 74 10000 3.1 310 07:58 15.08.2019
3637 Rain 28 1013 74 0 2.84 275.494 07:39 15.08.2019
3638 Clouds 30 1012 74 10000 2.1 280 07:20 15.08.2019
3639 Clouds 30 1012 74 10000 2.1 280 06:48 15.08.2019
3640 Clouds 30 1012 74 10000 2.1 280 06:25 15.08.2019
3641 Clouds 29 1011 74 10000 3.1 290 05:30 15.08.2019
3642 Clouds 29 1011 74 10000 3.1 290 04:57 15.08.2019
3643 Clouds 29 1011 74 10000 4.1 290 03:57 15.08.2019
3644 Clouds 29 1011 74 10000 4.6 290 03:19 15.08.2019
3645 Clouds 29 1011 74 10000 4.6 290 02:26 15.08.2019
3646 Clouds 29 1010 79 10000 4.1 290 01:41 15.08.2019
3647 Clouds 29 1010 83 10000 4.6 280 00:56 15.08.2019
3648 Clouds 29 1010 83 10000 4.6 280 00:36 15.08.2019
3649 Clouds 29 1011 83 10000 3.6 280 00:18 15.08.2019
3650 Clouds 29 1011 83 10000 3.6 280 23:55 14.08.2019
3651 Clouds 29 1011 83 10000 3.6 280 23:37 14.08.2019
3652 Clouds 29 1011 79 10000 3.1 270 23:18 14.08.2019
3653 Clouds 28 1011 75 0 2.52 296.342 22:41 14.08.2019
3654 Clouds 29 1012 83 10000 2.6 290 22:22 14.08.2019
3655 Clouds 29 1012 83 10000 2.6 290 21:57 14.08.2019
3656 Clouds 29 1012 83 10000 2.6 290 21:39 14.08.2019
3657 Clouds 29 1012 83 10000 2.6 290 21:39 14.08.2019
3658 Clouds 29 1012 83 10000 2.6 290 21:20 14.08.2019
3659 Clouds 29 1012 83 10000 3.6 300 20:56 14.08.2019
3660 Clouds 29 1012 83 10000 3.6 300 20:38 14.08.2019
3661 Clouds 29 1013 83 10000 4.1 280 20:18 14.08.2019
3662 Clouds 29 1013 83 10000 4.1 280 19:41 14.08.2019
3663 Clouds 29 1012 83 10000 4.6 280 19:22 14.08.2019
3664 Clouds 29 1012 83 10000 4.6 280 18:59 14.08.2019
3665 Clouds 29 1012 83 10000 4.6 280 18:41 14.08.2019
3666 Clouds 29 1012 83 10000 4.6 280 18:23 14.08.2019
3667 Clouds 29 1012 83 10000 4.6 280 17:59 14.08.2019
3668 Clouds 29 1012 83 10000 4.6 280 17:40 14.08.2019
3669 Clouds 29 1012 83 10000 4.6 280 17:22 14.08.2019
3670 Clouds 30 1011 74 10000 3.6 280 16:57 14.08.2019
3671 Clouds 30 1010 74 10000 4.1 280 16:39 14.08.2019
3672 Clouds 30 1010 74 10000 4.1 280 16:19 14.08.2019
3673 Clouds 30 1010 74 10000 4.1 280 15:43 14.08.2019
3674 Clouds 30 1010 74 10000 4.1 280 15:43 14.08.2019
3675 Clouds 30 1010 74 10000 4.1 280 15:19 14.08.2019
3676 Clouds 30 1010 74 10000 4.1 280 14:57 14.08.2019
3677 Clouds 30 1010 74 10000 4.1 280 14:39 14.08.2019
3678 Clouds 30 1009 70 10000 4.6 290 14:19 14.08.2019
3679 Clouds 30 1009 70 10000 4.6 290 13:44 14.08.2019
3680 Clouds 30 1009 70 10000 4.6 290 13:24 14.08.2019
3681 Clouds 31 1009 70 10000 4.6 280 12:58 14.08.2019
3682 Clouds 31 1009 70 10000 4.6 280 12:39 14.08.2019
3683 Clouds 31 1010 74 10000 6.2 280 12:21 14.08.2019
3684 Clouds 31 1010 74 10000 6.2 280 11:57 14.08.2019
3685 Clouds 31 1010 74 10000 6.2 280 11:38 14.08.2019
3686 Clouds 31 1010 74 10000 6.2 280 11:38 14.08.2019
3687 Clouds 31 1010 74 10000 6.2 280 11:38 14.08.2019
3688 Clouds 31 1010 74 10000 6.2 280 11:38 14.08.2019
3689 Clouds 31 1011 74 10000 6.7 280 11:20 14.08.2019
3690 Clouds 29 1010 74 0 4.53 257.405 10:45 14.08.2019
3691 Clouds 31 1011 74 10000 5.7 270 10:24 14.08.2019
3692 Clouds 31 1011 74 10000 5.7 270 09:57 14.08.2019
3693 Clouds 29 1010 74 0 4.53 257.405 09:38 14.08.2019
3694 Clouds 31 1012 74 10000 5.7 270 09:19 14.08.2019
3695 Clouds 31 1012 74 10000 5.7 270 08:40 14.08.2019
3696 Clouds 31 1012 74 10000 5.7 270 08:21 14.08.2019
3697 Clouds 31 1012 74 10000 5.7 270 07:51 14.08.2019
3698 Clouds 30 1012 79 10000 5.7 270 07:32 14.08.2019
3699 Clouds 30 1012 79 10000 5.7 270 06:46 14.08.2019
3700 Clouds 28 1012 74 0 4.03 259.699 05:54 14.08.2019
3701 Clouds 28 1012 74 0 4.03 259.699 05:25 14.08.2019
3702 Clouds 29 1010 79 10000 7.2 270 03:38 14.08.2019
3703 Clouds 29 1010 74 10000 7.7 270 02:33 14.08.2019
3704 Clouds 29 1009 79 10000 7.7 280 01:49 14.08.2019
3705 Clouds 29 1009 79 10000 7.7 280 01:18 14.08.2019
3706 Rain 27 1010 78 0 5.09 292.259 23:51 13.08.2019
3707 Clouds 28 1010 83 10000 5.7 270 23:27 13.08.2019
3708 Clouds 28 1010 83 10000 5.7 270 23:00 13.08.2019
3709 Clouds 28 1010 83 10000 5.7 270 22:40 13.08.2019
3710 Clouds 28 1010 83 10000 5.7 270 22:40 13.08.2019
3711 Clouds 28 1010 83 10000 5.7 270 22:21 13.08.2019
3712 Clouds 28 1010 88 10000 5.1 260 21:58 13.08.2019
3713 Clouds 28 1010 88 10000 5.1 260 21:38 13.08.2019
3714 Clouds 28 1011 83 10000 4.6 260 21:19 13.08.2019
3715 Clouds 28 1011 83 10000 4.6 260 20:56 13.08.2019
3716 Clouds 28 1012 83 10000 7.7 260 20:37 13.08.2019
3717 Clouds 28 1012 83 10000 7.7 260 20:18 13.08.2019
3718 Clouds 28 1012 83 10000 7.7 260 19:43 13.08.2019
3719 Clouds 28 1012 83 10000 7.7 260 19:22 13.08.2019
3720 Clouds 29 1012 74 10000 8.7 280 18:59 13.08.2019
3721 Clouds 29 1012 74 10000 8.7 280 18:40 13.08.2019
3722 Clouds 29 1011 74 10000 9.8 280 18:20 13.08.2019
3723 Rain 28 1012 75 0 4.81 289.915 17:43 13.08.2019
3724 Clouds 28 1011 78 10000 8.7 290 17:22 13.08.2019
3725 Clouds 28 1011 78 10000 8.7 290 16:57 13.08.2019
3726 Clouds 28 1011 78 10000 8.7 290 16:39 13.08.2019
3727 Clouds 28 1010 83 10000 9.3 290 16:21 13.08.2019
3728 Clouds 28 1010 83 10000 9.3 290 15:59 13.08.2019
3729 Clouds 28 1010 83 10000 9.3 290 15:38 13.08.2019
3730 Clouds 28 1010 83 10000 9.3 290 15:19 13.08.2019
3731 Clouds 28 1010 83 10000 9.3 290 15:19 13.08.2019
3732 Rain 28 1009 78 9000 9.8 280 14:42 13.08.2019
3733 Rain 28 1010 78 9000 8.2 280 14:20 13.08.2019
3734 Rain 28 1010 78 9000 8.2 280 13:56 13.08.2019
3735 Rain 28 1010 78 9000 8.2 280 13:37 13.08.2019
3736 Rain 28 1010 78 9000 8.2 280 13:18 13.08.2019
3737 Clouds 28 1010 78 10000 7.7 280 12:41 13.08.2019
3738 Clouds 28 1010 78 10000 7.7 280 12:23 13.08.2019
3739 Clouds 28 1010 78 10000 8.2 280 11:59 13.08.2019
3740 Clouds 28 1010 78 10000 8.2 280 11:40 13.08.2019
3741 Clouds 28 1010 78 10000 8.2 280 11:21 13.08.2019
3742 Clouds 28 1010 78 10000 8.2 280 11:21 13.08.2019
3743 Clouds 28 1010 74 10000 10.3 280 10:57 13.08.2019
3744 Clouds 28 1010 74 10000 10.3 280 10:37 13.08.2019
3745 Clouds 28 1011 78 10000 11.8 290 10:19 13.08.2019
3746 Clouds 28 1011 78 10000 11.8 290 09:44 13.08.2019
3747 Clouds 28 1011 78 10000 11.8 290 09:23 13.08.2019
3748 Clouds 27 1012 83 8000 7.2 310 08:55 13.08.2019
3749 Clouds 27 1012 83 8000 7.2 310 08:37 13.08.2019
3750 Clouds 29 1012 77 0 4.66 224.149 08:18 13.08.2019
3751 Clouds 29 1012 77 0 4.66 224.149 07:38 13.08.2019
3752 Clouds 29 1012 77 0 4.66 224.149 07:38 13.08.2019
3753 Clouds 29 1012 77 0 4.66 224.149 07:20 13.08.2019
3754 Clouds 29 1012 77 0 4.66 224.149 06:43 13.08.2019
3755 Clouds 29 1011 76 0 6.09 238.983 05:46 13.08.2019
3756 Clouds 29 1009 79 10000 4.1 240 03:46 13.08.2019
3757 Clouds 29 1008 79 10000 5.7 240 02:22 13.08.2019
3758 Clouds 29 1008 74 10000 6.2 240 01:26 13.08.2019
3759 Clouds 29 1008 74 10000 5.1 250 00:47 13.08.2019
3760 Clouds 29 1009 79 10000 6.7 250 00:19 13.08.2019
3761 Clouds 29 1009 79 10000 6.7 250 23:43 12.08.2019
3762 Clouds 29 1009 79 10000 7.2 250 23:20 12.08.2019
3763 Rain 29 1009 76 0 7.18 240.408 22:40 12.08.2019
3764 Rain 29 1010 74 10000 7.2 270 22:20 12.08.2019
3765 Rain 29 1010 74 10000 7.2 270 21:57 12.08.2019
3766 Rain 29 1009 76 0 7.18 240.408 21:38 12.08.2019
3767 Clouds 29 1010 79 10000 4.6 270 21:19 12.08.2019
3768 Clouds 29 1010 79 10000 4.6 270 20:58 12.08.2019
3769 Clouds 29 1010 79 10000 4.6 270 20:58 12.08.2019
3770 Clouds 29 1010 79 10000 4.6 270 20:39 12.08.2019
3771 Clouds 29 1010 79 10000 4.6 270 20:20 12.08.2019
3772 Clouds 29 1010 79 10000 6.7 250 19:57 12.08.2019
3773 Clouds 30 1010 74 10000 8.7 250 19:38 12.08.2019
3774 Clouds 30 1010 74 10000 8.7 250 19:20 12.08.2019
3775 Clouds 30 1010 74 10000 8.7 250 18:56 12.08.2019
3776 Clouds 30 1010 74 10000 8.7 250 18:37 12.08.2019
3777 Clouds 30 1009 70 10000 4.6 260 18:19 12.08.2019
3778 Clouds 30 1009 70 10000 4.6 260 17:48 12.08.2019
3779 Clouds 30 1009 70 10000 4.6 260 17:29 12.08.2019
3780 Clouds 30 1009 70 10000 6.7 260 16:58 12.08.2019
3781 Rain 27 1010 82 0 6.13 230.094 16:39 12.08.2019
3782 Clouds 29 1008 79 10000 7.7 250 16:20 12.08.2019
3783 Clouds 29 1008 79 10000 7.7 250 16:20 12.08.2019
3784 Clouds 29 1008 79 10000 7.7 250 15:59 12.08.2019
3785 -273 0 0 0 0 0 15:41 12.08.2019
3786 Rain 27 1010 82 0 6.13 230.094 15:41 12.08.2019
3787 Clouds 30 1008 74 10000 10.3 260 15:21 12.08.2019
3788 Clouds 30 1008 74 10000 10.3 260 14:57 12.08.2019
3789 -273 0 0 0 0 0 14:57 12.08.2019
3790 Clouds 30 1008 74 10000 10.3 260 14:39 12.08.2019
3791 -273 0 0 0 0 0 14:20 12.08.2019
3792 -273 0 0 0 0 0 14:20 12.08.2019
3793 Clouds 30 1008 74 10000 10.8 250 13:47 12.08.2019
3794 Clouds 30 1008 74 10000 10.8 250 13:24 12.08.2019
3795 Clouds 29 1008 74 10000 7.7 270 12:59 12.08.2019
3796 Clouds 29 1008 74 10000 7.7 270 12:40 12.08.2019
3797 Clouds 29 1008 74 10000 12.3 260 12:18 12.08.2019
3798 Rain 28 1008 76 0 4.91 249.637 11:42 12.08.2019
3799 -273 0 0 0 0 0 11:41 12.08.2019
3800 Rain 28 1008 76 0 4.91 249.637 11:41 12.08.2019
3801 Clouds 30 1009 74 10000 10.3 260 11:23 12.08.2019
3802 Rain 28 1008 76 0 4.91 249.637 10:43 12.08.2019
3803 Clouds 29 1009 79 10000 7.7 280 10:23 12.08.2019
3804 Clouds 29 1009 79 10000 7.7 280 09:56 12.08.2019
3805 Clouds 29 1009 79 10000 7.7 280 09:38 12.08.2019
3806 Clouds 28 1012 76 0 5.52 264.412 09:19 12.08.2019
3807 Clouds 28 1012 76 0 5.52 264.412 09:19 12.08.2019
3808 Clouds 28 1012 76 0 5.52 264.412 09:19 12.08.2019
3809 Clouds 28 1012 76 0 5.52 264.412 08:58 12.08.2019
3810 Clouds 28 1012 76 0 5.52 264.412 08:38 12.08.2019
3811 Clouds 31 1011 70 10000 7.2 290 08:19 12.08.2019
3812 Clouds 31 1011 70 10000 7.2 290 07:52 12.08.2019
3813 Clouds 31 1011 70 10000 7.2 290 07:27 12.08.2019
3814 Clouds 30 1011 74 10000 6.7 300 06:50 12.08.2019
3815 Clouds 28 1011 74 0 4.62 271.564 05:39 12.08.2019
3816 Rain 28 1010 77 0 4.63 219.852 02:44 12.08.2019
3817 Clouds 29 1007 70 10000 7.2 300 01:55 12.08.2019
3818 Rain 28 1010 77 0 4.63 219.852 01:21 12.08.2019
3819 Rain 28 1010 77 0 4.63 219.852 00:58 12.08.2019
3820 Rain 28 1010 77 0 4.63 219.852 00:38 12.08.2019
3821 Clouds 29 1007 70 10000 6.7 270 00:19 12.08.2019
3822 Clouds 29 1007 70 10000 6.7 270 23:54 11.08.2019
3823 Clouds 29 1007 70 10000 6.7 270 23:36 11.08.2019
3824 Clouds 29 1008 74 10000 4.6 220 23:18 11.08.2019
3825 Clouds 29 1008 74 10000 4.6 220 23:18 11.08.2019
3826 Clouds 29 1009 70 10000 4.6 220 22:40 11.08.2019
3827 Clouds 29 1009 70 10000 4.6 220 22:19 11.08.2019
3828 Clouds 29 1009 70 10000 4.6 220 21:59 11.08.2019
3829 Rain 28 1010 81 0 6.72 211.644 21:40 11.08.2019
3830 Rain 28 1010 78 8000 6.7 230 21:21 11.08.2019
3831 Rain 28 1010 78 8000 6.7 230 20:57 11.08.2019
3832 Rain 28 1010 78 8000 6.7 230 20:57 11.08.2019
3833 Rain 28 1010 78 8000 6.7 230 20:39 11.08.2019
3834 Rain 28 1010 78 8000 6.7 230 20:20 11.08.2019
3835 Rain 29 1011 75 0 4.84 239.349 19:43 11.08.2019
3836 Rain 28 1010 78 7000 12.3 240 19:19 11.08.2019
3837 Rain 28 1010 78 7000 12.3 240 18:42 11.08.2019
3838 Rain 28 1010 78 7000 12.3 240 18:23 11.08.2019
3839 Rain 26 1010 83 6000 12.3 250 17:59 11.08.2019
3840 Rain 29 1010 75 0 5.03 242.676 17:40 11.08.2019
3841 Rain 29 1010 75 0 5.03 242.676 17:20 11.08.2019
3842 Rain 29 1010 75 0 5.03 242.676 16:56 11.08.2019
3843 Rain 29 1010 75 0 5.03 242.676 16:38 11.08.2019
3844 Rain 29 1010 75 0 5.03 242.676 16:19 11.08.2019
3845 Rain 29 1010 75 0 5.03 242.676 15:44 11.08.2019
3846 Rain 29 1008 76 0 4.28 253.985 15:24 11.08.2019
3847 Rain 29 1008 76 0 4.28 253.985 14:59 11.08.2019
3848 Rain 29 1008 76 0 4.28 253.985 14:39 11.08.2019
3849 Clouds 30 1007 79 10000 2.6 220 14:20 11.08.2019
3850 Clouds 30 1007 79 10000 2.6 220 13:44 11.08.2019
3851 Clouds 30 1007 79 10000 2.6 220 13:25 11.08.2019
3852 Clouds 30 1007 79 10000 3.6 200 12:56 11.08.2019
3853 Clouds 30 1007 79 10000 3.6 200 12:37 11.08.2019
3854 Clouds 31 1008 70 10000 3.1 200 12:18 11.08.2019
3855 Clouds 31 1008 70 10000 3.1 200 11:39 11.08.2019
3856 Clouds 31 1008 70 10000 3.1 200 11:21 11.08.2019
3857 Clouds 31 1008 70 10000 2.1 160 10:55 11.08.2019
3858 Rain 28 1008 78 0 3.32 255.291 10:37 11.08.2019
3859 Clouds 30 1009 70 9000 2.6 130 10:18 11.08.2019
3860 Clouds 30 1009 70 9000 2.6 130 09:42 11.08.2019
3861 Clouds 30 1009 70 9000 2.6 130 09:23 11.08.2019
3862 Clouds 29 1010 79 9000 2.6 150 08:49 11.08.2019
3863 Clouds 29 1010 79 9000 2.6 150 08:29 11.08.2019
3864 Clouds 27 1011 88 9000 0.5 0 07:57 11.08.2019
3865 Rain 27 1011 88 9000 1.5 80 07:30 11.08.2019
3866 Rain 27 1011 88 9000 1.5 80 06:46 11.08.2019
3867 Rain 27 1011 88 9000 1.5 80 06:28 11.08.2019
3868 Clouds 28 1011 78 0 3.8 226.184 04:40 11.08.2019
3869 Thunderstorm 28 1009 83 10000 0.5 0 02:50 11.08.2019
3870 Thunderstorm 28 1009 88 10000 4.16 215.312 01:56 11.08.2019
3871 Rain 28 1009 81 0 4.79 216.422 01:30 11.08.2019
3872 Rain 28 1009 81 0 4.79 216.422 00:55 11.08.2019
3873 Clouds 29 1009 79 10000 0.5 0 00:34 11.08.2019
3874 Clouds 29 1009 79 10000 0.5 0 23:49 10.08.2019
3875 Clouds 29 1009 79 10000 0.5 0 23:29 10.08.2019
3876 Clouds 29 1010 83 10000 1 0 22:54 10.08.2019
3877 Clouds 29 1010 79 10000 2.1 180 22:36 10.08.2019
3878 Clouds 29 1010 79 10000 2.1 180 22:18 10.08.2019
3879 Rain 28 1009 80 0 4.52 215.398 21:40 10.08.2019
3880 Clouds 29 1010 79 10000 2.1 180 21:21 10.08.2019
3881 Clouds 29 1010 79 10000 2.1 180 20:57 10.08.2019
3882 Clouds 29 1010 79 10000 2.1 180 20:39 10.08.2019
3883 Clouds 29 1010 79 10000 2.1 180 20:19 10.08.2019
3884 Clouds 29 1012 79 0 4.15 201.776 19:43 10.08.2019
3885 Clouds 30 1010 74 10000 2.1 180 19:24 10.08.2019
3886 Clouds 30 1010 74 10000 2.1 180 18:43 10.08.2019
3887 Clouds 30 1010 74 10000 2.1 180 18:25 10.08.2019
3888 Clouds 29 1009 74 10000 2.1 190 17:57 10.08.2019
3889 Clouds 29 1009 74 10000 2.1 190 17:38 10.08.2019
3890 Clouds 29 1009 74 10000 2.1 190 17:19 10.08.2019
3891 Clouds 29 1009 79 10000 1 0 16:43 10.08.2019
3892 Clouds 29 1009 79 10000 1 0 16:24 10.08.2019
3893 Clouds 30 1008 74 10000 1.5 270 15:48 10.08.2019
3894 Clouds 30 1008 74 10000 2.1 270 15:22 10.08.2019
3895 Clouds 30 1008 74 10000 2.1 270 14:44 10.08.2019
3896 Clouds 30 1008 74 10000 2.1 270 14:44 10.08.2019
3897 Clouds 30 1008 74 10000 2.1 270 14:21 10.08.2019
3898 Clouds 30 1008 74 10000 2.6 260 13:41 10.08.2019
3899 Clouds 30 1008 74 10000 2.6 240 13:20 10.08.2019
3900 Clouds 30 1008 74 10000 2.6 240 12:55 10.08.2019
3901 Clouds 30 1008 74 10000 2.6 240 12:37 10.08.2019
3902 Clouds 30 1008 74 10000 3.1 270 12:18 10.08.2019
3903 Clouds 29 1008 76 0 3.48 203.069 11:42 10.08.2019
3904 Clouds 31 1009 70 10000 4.6 250 11:22 10.08.2019
3905 Clouds 31 1009 70 10000 4.6 250 10:55 10.08.2019
3906 Clouds 31 1009 70 10000 4.6 250 10:37 10.08.2019
3907 Clouds 31 1009 74 10000 4.1 230 10:19 10.08.2019
3908 Clouds 31 1009 74 10000 4.1 230 09:42 10.08.2019
3909 Clouds 31 1009 74 10000 4.1 230 09:23 10.08.2019
3910 Clouds 31 1010 70 10000 1.5 200 08:42 10.08.2019
3911 Clouds 31 1010 70 10000 1.5 200 08:22 10.08.2019
3912 Clouds 31 1010 70 10000 3.6 240 07:54 10.08.2019
3913 Clouds 31 1010 70 10000 3.6 240 07:29 10.08.2019
3914 Clouds 31 1010 70 10000 3.6 240 07:29 10.08.2019
3915 Rain 29 1010 78 0 4.06 191.44 06:49 10.08.2019
3916 Clouds 29 1010 74 10000 2.6 240 06:49 10.08.2019
3917 Clouds 28 1010 74 10000 2.1 270 06:29 10.08.2019
3918 Clouds 28 1010 74 10000 2.1 270 05:27 10.08.2019
3919 Clouds 26 1009 88 10000 4.1 160 04:53 10.08.2019
3920 Rain 26 1009 83 10000 6.7 200 03:26 10.08.2019
3921 Clouds 26 1009 88 10000 7.2 200 02:28 10.08.2019
3922 Clouds 29 1008 79 10000 5.7 200 01:43 10.08.2019
3923 Clouds 29 1008 79 10000 5.7 200 01:23 10.08.2019
3924 Clouds 29 1008 79 10000 5.1 200 00:53 10.08.2019
3925 Clouds 29 1008 79 10000 5.1 200 00:27 10.08.2019
3926 Clouds 30 1008 74 10000 5.1 200 23:59 09.08.2019
3927 Clouds 30 1008 74 10000 5.1 200 23:38 09.08.2019
3928 Clouds 30 1009 74 10000 5.1 200 23:19 09.08.2019
3929 Clouds 29 1009 78 0 5.85 190.106 22:41 09.08.2019
3930 Clouds 30 1010 74 10000 5.7 200 22:23 09.08.2019
3931 Clouds 30 1010 74 10000 5.7 200 21:59 09.08.2019
3932 Clouds 30 1010 74 10000 5.7 200 21:39 09.08.2019
3933 Clouds 30 1010 79 10000 5.7 210 21:21 09.08.2019
3934 Clouds 30 1010 79 10000 5.7 210 20:56 09.08.2019
3935 Clouds 30 1010 79 10000 5.7 210 20:38 09.08.2019
3936 Clouds 30 1010 74 10000 6.2 200 20:18 09.08.2019
3937 Clouds 30 1010 74 10000 6.2 200 19:43 09.08.2019
3938 Clouds 30 1010 74 10000 6.2 200 19:22 09.08.2019
3939 Clouds 30 1010 74 10000 6.7 210 18:55 09.08.2019
3940 Clouds 30 1010 74 10000 6.7 210 18:36 09.08.2019
3941 Clouds 30 1009 74 10000 5.7 200 18:18 09.08.2019
3942 Clouds 30 1009 74 10000 5.7 200 17:42 09.08.2019
3943 Clouds 30 1009 74 10000 5.7 200 17:23 09.08.2019
3944 -273 0 0 0 0 0 16:54 09.08.2019
3945 Clouds 30 1009 74 10000 4.6 210 16:36 09.08.2019
3946 Clouds 30 1009 74 10000 4.6 200 16:18 09.08.2019
3947 Clouds 30 1009 74 10000 4.6 200 15:41 09.08.2019
3948 Clouds 30 1009 74 10000 4.6 200 15:21 09.08.2019
3949 Clouds 31 1008 70 10000 4.6 210 14:57 09.08.2019
3950 Clouds 31 1008 70 10000 4.6 210 14:37 09.08.2019
3951 Clouds 32 1008 70 10000 4.6 210 14:19 09.08.2019
3952 Clouds 32 1008 70 10000 4.6 210 13:44 09.08.2019
3953 Clouds 32 1008 70 10000 5.1 210 13:21 09.08.2019
3954 Clouds 32 1008 70 10000 5.1 210 12:48 09.08.2019
3955 Clouds 32 1008 70 10000 5.1 210 12:26 09.08.2019
3956 Clouds 32 1009 66 10000 4.6 200 11:59 09.08.2019
3957 Clouds 32 1009 66 10000 4.6 200 11:59 09.08.2019
3958 Clouds 32 1009 66 10000 4.6 200 11:40 09.08.2019
3959 Clouds 32 1009 66 10000 4.6 200 11:20 09.08.2019
3960 Rain 29 1009 76 0 7.26 188.608 10:41 09.08.2019
3961 Clouds 32 1010 66 10000 6.7 200 10:22 09.08.2019
3962 Clouds 32 1010 66 10000 6.7 200 09:59 09.08.2019
3963 Rain 29 1009 76 0 7.26 188.608 09:37 09.08.2019
3964 Clouds 32 1011 66 10000 6.7 200 09:18 09.08.2019
3965 Clouds 32 1011 66 10000 6.7 200 08:44 09.08.2019
3966 Clouds 32 1011 66 10000 6.7 200 08:25 09.08.2019
3967 -273 0 0 0 0 0 07:56 09.08.2019
3968 -273 0 0 0 0 0 07:56 09.08.2019
3969 Clouds 31 1011 70 10000 5.7 200 07:24 09.08.2019
3970 Clouds 31 1011 70 10000 5.7 200 06:59 09.08.2019
3971 Clouds 31 1011 70 10000 5.7 200 06:38 09.08.2019
3972 Clouds 30 1010 74 10000 5.1 200 06:20 09.08.2019
3973 Clouds 30 1009 74 10000 5.7 190 04:57 09.08.2019
3974 Clouds 30 1008 74 10000 6.2 190 02:26 09.08.2019
3975 Clouds 30 1008 74 10000 7.2 200 01:21 09.08.2019
3976 Clouds 30 1008 74 10000 4.6 210 00:41 09.08.2019
3977 Clouds 30 1008 74 10000 4.6 210 00:22 09.08.2019
3978 Clouds 30 1008 79 10000 5.7 200 23:55 08.08.2019
3979 Clouds 30 1008 79 10000 5.7 200 23:36 08.08.2019
3980 Clouds 30 1008 79 10000 5.7 200 23:18 08.08.2019
3981 Clouds 30 1008 74 10000 5.7 200 22:38 08.08.2019
3982 Clouds 30 1008 74 10000 5.7 200 22:19 08.08.2019
3983 Clouds 30 1009 74 10000 5.7 200 21:59 08.08.2019
3984 Clouds 30 1009 74 10000 5.7 200 21:41 08.08.2019
3985 Clouds 30 1009 74 10000 5.7 200 21:22 08.08.2019
3986 Clouds 30 1010 74 10000 5.1 190 20:57 08.08.2019
3987 Clouds 29 1010 78 0 7.14 194.385 20:39 08.08.2019
3988 Clouds 30 1010 74 10000 5.1 190 20:19 08.08.2019
3989 Clouds 30 1010 74 10000 5.1 190 19:47 08.08.2019
3990 Clouds 30 1010 74 10000 5.1 190 19:28 08.08.2019
3991 Clouds 30 1010 74 10000 5.1 180 18:45 08.08.2019
3992 Clouds 30 1010 74 10000 5.1 180 18:25 08.08.2019
3993 Clouds 30 1010 74 10000 4.6 200 17:59 08.08.2019
3994 Rain 29 1010 78 0 6.35 199.659 17:41 08.08.2019
3995 Clouds 30 1009 74 10000 5.1 200 17:22 08.08.2019
3996 Clouds 30 1009 74 10000 5.1 200 16:56 08.08.2019
3997 Clouds 30 1009 74 10000 5.1 200 16:37 08.08.2019
3998 Clouds 30 1009 74 10000 5.1 120 16:19 08.08.2019
3999 Clouds 30 1009 74 10000 5.1 120 15:56 08.08.2019
4000 Clouds 30 1009 74 10000 5.1 120 15:36 08.08.2019
4001 Clouds 31 1008 70 10000 6.2 190 15:18 08.08.2019
4002 Clouds 31 1008 70 10000 6.2 190 14:37 08.08.2019
4003 Clouds 31 1008 70 10000 6.2 190 14:18 08.08.2019
4004 Clouds 31 1008 70 10000 3.6 200 13:41 08.08.2019
4005 Clouds 31 1008 70 10000 3.6 200 13:23 08.08.2019
4006 Clouds 32 1008 66 10000 4.1 190 12:57 08.08.2019
4007 Clouds 32 1008 66 10000 4.1 190 12:37 08.08.2019
4008 Clouds 32 1008 66 10000 4.1 190 12:37 08.08.2019
4009 Clouds 32 1008 66 10000 4.1 200 12:18 08.08.2019
4010 Clouds 32 1008 66 10000 4.1 200 11:41 08.08.2019
4011 Clouds 32 1008 66 10000 4.1 200 11:23 08.08.2019
4012 Clouds 32 1008 70 10000 4.6 220 10:41 08.08.2019
4013 Clouds 32 1008 70 10000 4.6 220 10:22 08.08.2019
4014 Clouds 32 1009 66 10000 5.7 200 09:57 08.08.2019
4015 Clouds 32 1009 66 10000 5.7 200 09:39 08.08.2019
4016 Clouds 32 1010 66 10000 5.1 190 09:19 08.08.2019
4017 Clouds 32 1010 66 10000 5.1 190 08:40 08.08.2019
4018 Clouds 32 1010 66 10000 5.1 190 08:20 08.08.2019
4019 Clouds 31 1011 70 10000 5.1 210 07:42 08.08.2019
4020 Clouds 31 1010 70 10000 5.1 190 07:21 08.08.2019
4021 Clouds 31 1010 70 10000 5.1 190 06:58 08.08.2019
4022 Clouds 31 1010 70 10000 5.1 190 06:40 08.08.2019
4023 Clouds 30 1010 74 10000 5.7 200 05:54 08.08.2019
4024 Clouds 30 1009 70 10000 6.2 210 05:27 08.08.2019
4025 Clouds 30 1010 70 10000 5.7 220 03:54 08.08.2019
4026 Clouds 30 1010 70 10000 5.7 220 03:35 08.08.2019
4027 Clouds 30 1008 70 10000 5.7 220 01:39 08.08.2019
4028 Clouds 30 1008 74 10000 7.2 210 00:46 08.08.2019
4029 Clouds 30 1009 74 10000 6.2 210 00:20 08.08.2019
4030 Clouds 30 1009 74 10000 6.2 210 23:23 07.08.2019
4031 Clouds 30 1009 79 10000 6.7 210 22:59 07.08.2019
4032 Clouds 29 1010 80 0 7.97 205.234 22:41 07.08.2019
4033 Clouds 30 1010 74 10000 7.2 210 22:20 07.08.2019
4034 Clouds 30 1010 74 10000 7.2 210 21:57 07.08.2019
4035 Clouds 30 1010 74 10000 7.2 210 21:39 07.08.2019
4036 Clouds 30 1010 74 10000 7.2 210 21:20 07.08.2019
4037 Clouds 30 1010 74 10000 5.1 210 20:57 07.08.2019
4038 Clouds 30 1010 74 10000 5.1 210 20:38 07.08.2019
4039 Clouds 30 1011 74 10000 6.7 210 20:19 07.08.2019
4040 Clouds 30 1011 74 10000 6.7 210 19:55 07.08.2019
4041 Clouds 30 1011 74 10000 6.7 210 19:36 07.08.2019
4042 Clouds 30 1010 74 10000 5.7 210 19:18 07.08.2019
4043 Clouds 30 1010 74 10000 5.7 210 18:40 07.08.2019
4044 Clouds 30 1010 74 10000 6.2 220 18:19 07.08.2019
4045 Clouds 30 1010 74 10000 6.2 220 17:55 07.08.2019
4046 Clouds 30 1009 74 10000 6.2 210 17:37 07.08.2019
4047 Clouds 30 1009 74 10000 6.2 210 17:18 07.08.2019
4048 Clouds 30 1009 74 10000 6.2 210 16:56 07.08.2019
4049 Clouds 31 1008 70 10000 5.1 210 16:37 07.08.2019
4050 Rain 29 1010 78 0 6.84 216.316 16:37 07.08.2019
4051 Clouds 31 1008 70 10000 5.1 210 16:19 07.08.2019
4052 Rain 29 1010 78 0 6.84 216.316 15:43 07.08.2019
4053 Clouds 31 1008 70 10000 6.7 200 15:21 07.08.2019
4054 Rain 29 1008 76 0 7.32 211.711 14:50 07.08.2019
4055 Clouds 32 1008 70 10000 5.7 210 14:31 07.08.2019
4056 Clouds 32 1008 70 10000 5.7 210 13:59 07.08.2019
4057 Clouds 32 1008 70 10000 5.7 210 13:59 07.08.2019
4058 Clouds 32 1008 70 10000 5.7 210 13:40 07.08.2019
4059 Clouds 32 1008 66 10000 5.7 210 13:19 07.08.2019
4060 Clouds 32 1008 66 10000 5.7 210 12:57 07.08.2019
4061 Clouds 32 1008 66 10000 5.7 210 12:38 07.08.2019
4062 Clouds 33 1008 63 10000 5.7 210 12:19 07.08.2019
4063 Clouds 33 1008 63 10000 5.7 210 11:57 07.08.2019
4064 Clouds 33 1008 63 10000 5.7 210 11:39 07.08.2019
4065 Clouds 32 1009 66 10000 6.7 210 11:18 07.08.2019
4066 Clouds 29 1009 74 0 6.74 204.328 10:40 07.08.2019
4067 Clouds 33 1010 63 10000 5.7 200 10:20 07.08.2019
4068 Clouds 33 1010 63 10000 5.7 200 09:55 07.08.2019
4069 Clouds 32 1011 62 10000 5.7 210 09:37 07.08.2019
4070 Clouds 32 1011 62 10000 5.7 210 09:18 07.08.2019
4071 Clouds 32 1011 62 10000 5.7 210 08:45 07.08.2019
4072 Clouds 32 1011 62 10000 5.7 210 08:24 07.08.2019
4073 Clouds 31 1011 66 10000 7.2 210 07:50 07.08.2019
4074 Clouds 31 1011 66 10000 7.2 210 07:30 07.08.2019
4075 Clouds 31 1011 66 10000 7.2 210 06:44 07.08.2019
4076 Clouds 31 1011 66 10000 6.7 200 06:22 07.08.2019
4077 Clouds 29 1011 76 0 6.69 210.284 05:42 07.08.2019
4078 Clouds 30 1010 74 10000 5.7 210 04:37 07.08.2019
4079 Clouds 29 1009 79 10000 4.1 210 02:55 07.08.2019
4080 Clouds 29 1009 79 10000 4.1 210 02:36 07.08.2019
4081 Clouds 29 1009 79 10000 4.1 210 01:50 07.08.2019
4082 Clouds 29 1009 79 10000 5.1 220 00:54 07.08.2019
4083 Clouds 29 1009 79 10000 5.1 220 00:24 07.08.2019
4084 Clouds 30 1009 74 10000 5.1 220 23:58 06.08.2019
4085 Rain 28 1010 78 0 5.99 197.627 23:37 06.08.2019
4086 Clouds 30 1010 74 10000 5.1 220 23:18 06.08.2019
4087 Clouds 30 1010 74 10000 5.1 220 22:40 06.08.2019
4088 Clouds 30 1010 74 10000 5.1 220 22:21 06.08.2019
4089 Clouds 30 1011 74 10000 5.1 200 21:57 06.08.2019
4090 Clouds 30 1011 74 10000 5.1 200 21:38 06.08.2019
4091 Clouds 30 1011 74 10000 5.1 200 21:19 06.08.2019
4092 Clouds 29 1012 79 0 5.18 202.015 20:45 06.08.2019
4093 Clouds 30 1011 74 10000 4.6 200 20:27 06.08.2019
4094 Clouds 30 1011 74 10000 4.6 200 19:56 06.08.2019
4095 Clouds 30 1011 74 10000 4.6 200 19:37 06.08.2019
4096 Clouds 30 1011 70 10000 4.6 200 19:18 06.08.2019
4097 Clouds 30 1011 70 10000 4.6 200 18:41 06.08.2019
4098 Clouds 30 1011 70 10000 4.6 200 18:21 06.08.2019
4099 Clouds 31 1010 66 10000 4.6 190 17:57 06.08.2019
4100 Clouds 29 1011 80 0 6.27 189.12 17:37 06.08.2019
4101 Clouds 30 1010 74 10000 5.1 210 17:19 06.08.2019
4102 Clouds 30 1010 74 10000 5.1 210 16:47 06.08.2019
4103 Clouds 30 1010 74 10000 5.1 210 16:25 06.08.2019
4104 Clouds 31 1009 70 10000 4.1 190 15:59 06.08.2019
4105 Clouds 31 1009 70 10000 4.1 190 15:40 06.08.2019
4106 Clouds 31 1009 70 10000 4.1 190 15:22 06.08.2019
4107 Clouds 32 1008 62 10000 4.6 210 14:59 06.08.2019
4108 Clouds 29 1009 78 0 5.44 187.258 14:37 06.08.2019
4109 Clouds 32 1008 62 10000 5.1 210 14:19 06.08.2019
4110 Clouds 32 1008 62 10000 5.1 210 13:45 06.08.2019
4111 Clouds 32 1008 62 10000 5.1 210 13:27 06.08.2019
4112 Clouds 33 1008 59 10000 5.1 190 12:59 06.08.2019
4113 Clouds 33 1008 59 10000 5.1 190 12:40 06.08.2019
4114 Clouds 33 1008 63 10000 5.1 200 12:22 06.08.2019
4115 Clouds 29 1009 77 0 5.78 193.695 11:46 06.08.2019
4116 Clouds 33 1009 63 10000 5.1 200 11:21 06.08.2019
4117 Clouds 33 1009 63 10000 5.1 200 10:59 06.08.2019
4118 Clouds 29 1009 77 0 5.78 193.695 10:40 06.08.2019
4119 Clouds 33 1010 63 10000 4.6 200 10:21 06.08.2019
4120 Clouds 33 1010 63 10000 4.6 200 09:43 06.08.2019
4121 Clouds 33 1010 63 10000 4.6 200 09:22 06.08.2019
4122 Clouds 33 1011 63 10000 5.1 200 08:51 06.08.2019
4123 Clouds 33 1011 63 10000 5.1 200 08:30 06.08.2019
4124 Clouds 32 1011 66 10000 5.1 200 07:59 06.08.2019
4125 Clouds 31 1011 70 10000 5.1 200 07:31 06.08.2019
4126 Clouds 31 1011 70 10000 5.1 200 06:45 06.08.2019
4127 Clouds 31 1011 70 10000 5.1 200 06:24 06.08.2019
4128 Clouds 29 1011 79 0 5.78 190.103 05:46 06.08.2019
4129 Clouds 30 1009 74 10000 5.1 200 02:58 06.08.2019
4130 Clouds 30 1009 79 10000 5.1 210 01:26 06.08.2019
4131 Clouds 30 1009 74 10000 4.6 190 00:55 06.08.2019
4132 Clouds 30 1009 74 10000 5.1 190 00:23 06.08.2019
4133 Clouds 30 1010 74 10000 5.7 200 23:21 05.08.2019
4134 Clouds 30 1010 74 10000 5.7 200 22:59 05.08.2019
4135 Clouds 29 1010 77 0 4.91 196.438 22:39 05.08.2019
4136 Clouds 30 1010 79 10000 4.6 200 22:21 05.08.2019
4137 Clouds 29 1010 77 0 4.91 196.438 21:42 05.08.2019
4138 Clouds 30 1011 74 10000 4.6 190 21:21 05.08.2019
4139 Clouds 30 1011 74 10000 4.6 190 20:58 05.08.2019
4140 Clouds 30 1011 74 10000 4.6 190 20:40 05.08.2019
4141 Clouds 30 1011 74 10000 4.6 190 20:22 05.08.2019
4142 Clouds 30 1010 74 10000 4.1 190 19:59 05.08.2019
4143 Clouds 30 1010 74 10000 4.1 190 19:38 05.08.2019
4144 Clouds 30 1010 74 10000 4.1 190 19:20 05.08.2019
4145 Clouds 30 1011 79 10000 4.1 200 18:42 05.08.2019
4146 Clouds 31 1010 70 10000 4.1 180 18:21 05.08.2019
4147 Clouds 31 1010 70 10000 4.1 180 17:56 05.08.2019
4148 Clouds 31 1010 70 10000 4.1 180 17:38 05.08.2019
4149 Clouds 31 1010 70 10000 4.1 180 17:20 05.08.2019
4150 Clouds 29 1011 78 0 5.56 204.832 16:41 05.08.2019
4151 Clouds 31 1008 70 10000 5.1 200 16:23 05.08.2019
4152 Clouds 29 1011 78 0 5.56 204.832 15:43 05.08.2019
4153 Clouds 32 1008 70 10000 6.2 200 15:20 05.08.2019
4154 Rain 29 1008 76 0 5.76 209.603 14:42 05.08.2019
4155 Clouds 32 1008 70 10000 4.6 190 14:23 05.08.2019
4156 Clouds 32 1008 70 10000 4.6 190 13:57 05.08.2019
4157 Rain 29 1008 76 0 5.76 209.603 13:38 05.08.2019
4158 Clouds 33 1008 63 10000 4.6 190 13:18 05.08.2019
4159 Clouds 33 1008 63 10000 4.6 190 12:42 05.08.2019
4160 Clouds 33 1009 63 10000 5.7 190 12:19 05.08.2019
4161 Clouds 33 1009 63 10000 5.7 190 11:43 05.08.2019
4162 Clouds 33 1009 63 10000 5.7 190 11:43 05.08.2019
4163 Clouds 33 1009 63 10000 5.7 190 11:25 05.08.2019
4164 Clouds 32 1010 66 10000 5.7 150 10:48 05.08.2019
4165 Clouds 33 1011 66 10000 4.6 180 10:30 05.08.2019
4166 Clouds 33 1011 66 10000 4.6 180 09:57 05.08.2019
4167 Clouds 33 1011 66 10000 4.1 180 09:37 05.08.2019
4168 Clouds 33 1011 66 10000 4.1 180 09:19 05.08.2019
4169 Clouds 33 1011 66 10000 4.1 180 08:44 05.08.2019
4170 Clouds 33 1011 66 10000 4.1 180 08:24 05.08.2019
4171 Clouds 32 1011 66 10000 4.6 180 07:48 05.08.2019
4172 Clouds 32 1011 66 10000 4.6 180 07:28 05.08.2019
4173 Rain 29 1011 76 0 5.54 180.693 06:56 05.08.2019
4174 Clouds 31 1011 66 10000 5.1 190 06:21 05.08.2019
4175 Clouds 30 1010 74 10000 4.6 190 05:31 05.08.2019
4176 Clouds 30 1010 74 10000 4.6 190 04:50 05.08.2019
4177 Rain 29 1011 76 0 5.88 183.051 03:50 05.08.2019
4178 Clouds 30 1009 74 10000 4.6 180 02:38 05.08.2019
4179 Clouds 30 1009 74 10000 4.6 180 01:55 05.08.2019
4180 Clouds 30 1009 74 10000 4.6 180 01:19 05.08.2019
4181 Clouds 30 1009 74 10000 4.6 180 00:39 05.08.2019
4182 Clouds 30 1009 74 10000 4.6 180 00:19 05.08.2019
4183 Clouds 29 1009 78 0 5.7 186.834 23:43 04.08.2019
4184 Clouds 30 1010 79 10000 4.1 180 23:23 04.08.2019
4185 Clouds 30 1010 79 10000 4.1 180 22:57 04.08.2019
4186 Clouds 30 1010 79 10000 4.1 180 22:38 04.08.2019
4187 Clouds 30 1010 79 10000 4.1 180 22:19 04.08.2019
4188 Clouds 29 1009 78 0 5.7 186.834 21:46 04.08.2019
4189 Clouds 30 1011 79 10000 4.6 180 21:24 04.08.2019
4190 Clouds 30 1011 79 10000 4.6 180 20:59 04.08.2019
4191 Rain 29 1012 78 0 5.76 175.672 20:41 04.08.2019
4192 Rain 29 1012 78 0 5.76 175.672 20:41 04.08.2019
4193 Clouds 30 1011 79 10000 3.1 170 20:18 04.08.2019
4194 Clouds 30 1011 79 10000 3.1 170 19:48 04.08.2019
4195 Clouds 30 1011 79 10000 3.1 170 19:28 04.08.2019
4196 Clouds 30 1011 74 10000 3.6 180 18:58 04.08.2019
4197 Clouds 30 1011 74 10000 3.6 180 18:40 04.08.2019
4198 Clouds 30 1011 74 10000 3.6 180 18:20 04.08.2019
4199 Rain 28 1011 81 0 6.34 177.768 17:43 04.08.2019
4200 Clouds 31 1010 70 10000 3.1 180 17:22 04.08.2019
4201 Rain 28 1011 81 0 6.34 177.768 16:45 04.08.2019
4202 Clouds 31 1009 70 10000 4.1 180 16:26 04.08.2019
4203 Clouds 31 1009 70 10000 4.1 180 15:55 04.08.2019
4204 Rain 28 1011 81 0 6.34 177.768 15:37 04.08.2019
4205 Rain 28 1011 81 0 6.34 177.768 15:37 04.08.2019
4206 Rain 28 1011 81 0 6.34 177.768 15:37 04.08.2019
4207 Clouds 32 1009 66 10000 3.6 180 15:18 04.08.2019
4208 Rain 29 1009 77 0 4.99 182.917 14:42 04.08.2019
4209 Clouds 32 1009 66 10000 3.6 180 14:21 04.08.2019
4210 Rain 29 1009 77 0 4.99 182.917 13:43 04.08.2019
4211 Clouds 32 1009 66 10000 4.6 180 13:24 04.08.2019
4212 Clouds 32 1009 66 10000 4.6 180 12:55 04.08.2019
4213 Clouds 32 1009 66 10000 4.6 180 12:37 04.08.2019
4214 Clouds 33 1010 66 10000 4.6 170 12:18 04.08.2019
4215 Clouds 29 1010 79 0 5.87 172.212 11:39 04.08.2019
4216 Clouds 32 1010 70 10000 3.6 180 11:21 04.08.2019
4217 Clouds 29 1010 79 0 5.87 172.212 10:43 04.08.2019
4218 Clouds 29 1010 79 0 5.87 172.212 10:43 04.08.2019
4219 Clouds 32 1011 70 10000 4.1 180 10:21 04.08.2019
4220 Clouds 29 1010 79 0 5.87 172.212 09:46 04.08.2019
4221 Clouds 31 1011 74 10000 4.6 170 09:25 04.08.2019
4222 Clouds 31 1011 74 10000 4.6 170 08:57 04.08.2019
4223 Clouds 32 1012 66 10000 5.1 140 08:32 04.08.2019
4224 Clouds 32 1012 66 10000 5.1 140 07:54 04.08.2019
4225 Clouds 29 1012 79 0 6.19 169.391 07:23 04.08.2019
4226 Clouds 30 1011 79 10000 5.1 140 06:28 04.08.2019
4227 Clouds 30 1011 79 10000 5.1 140 05:57 04.08.2019
4228 Clouds 29 1010 79 10000 4.6 170 03:34 04.08.2019
4229 Clouds 30 1010 74 10000 3.6 170 01:52 04.08.2019
4230 Clouds 30 1010 74 10000 3.6 170 01:28 04.08.2019
4231 Clouds 30 1010 74 10000 3.6 170 00:41 04.08.2019
4232 Clouds 30 1010 74 10000 3.6 170 00:23 04.08.2019
4233 Rain 28 1010 79 0 6.05 181.193 23:42 03.08.2019
4234 Clouds 30 1011 79 10000 3.1 180 23:19 03.08.2019
4235 Clouds 30 1011 79 10000 3.1 180 22:59 03.08.2019
4236 Rain 28 1010 79 0 6.05 181.193 22:39 03.08.2019
4237 Clouds 30 1011 74 10000 5.1 170 22:19 03.08.2019
4238 Clouds 30 1011 74 10000 5.1 170 21:39 03.08.2019
4239 Clouds 30 1012 74 10000 4.6 170 21:20 03.08.2019
4240 Clouds 29 1012 77 0 5.68 177.821 20:45 03.08.2019
4241 Clouds 29 1012 77 0 5.68 177.821 20:45 03.08.2019
4242 Clouds 30 1012 79 10000 4.6 170 20:24 03.08.2019
4243 Clouds 30 1012 79 10000 4.6 170 19:55 03.08.2019
4244 Clouds 30 1012 79 10000 4.6 170 19:36 03.08.2019
4245 Clouds 30 1012 79 10000 4.6 170 19:18 03.08.2019
4246 Clouds 31 1011 70 10000 4.1 180 18:40 03.08.2019
4247 Clouds 31 1011 70 10000 4.6 170 18:21 03.08.2019
4248 Clouds 29 1011 78 0 6.22 174.962 17:42 03.08.2019
4249 Clouds 31 1010 70 10000 5.7 170 17:19 03.08.2019
4250 Clouds 29 1011 78 0 6.22 174.962 16:38 03.08.2019
4251 Clouds 31 1010 70 10000 4.6 170 16:20 03.08.2019
4252 Clouds 31 1010 70 10000 4.6 170 15:46 03.08.2019
4253 Clouds 31 1010 70 10000 4.6 170 15:25 03.08.2019
4254 Clouds 32 1009 66 10000 4.1 180 14:48 03.08.2019
4255 Clouds 32 1009 66 10000 4.1 180 14:24 03.08.2019
4256 Clouds 32 1009 66 10000 4.1 180 13:57 03.08.2019
4257 Clouds 29 1009 76 0 4.97 184.676 13:37 03.08.2019
4258 Clouds 32 1009 66 10000 5.1 170 13:19 03.08.2019
4259 Clouds 32 1009 66 10000 5.1 170 12:42 03.08.2019
4260 Clouds 32 1009 66 10000 5.1 170 12:23 03.08.2019
4261 Clouds 33 1010 66 10000 5.1 190 11:55 03.08.2019
4262 Clouds 33 1010 66 10000 4.6 180 11:35 03.08.2019
4263 Clouds 29 1010 77 0 4.64 179.136 10:47 03.08.2019
4264 Clouds 33 1011 63 10000 4.6 180 10:24 03.08.2019
4265 Clouds 29 1010 77 0 4.64 179.136 09:45 03.08.2019
4266 Clouds 29 1012 77 0 5.23 174.6 09:24 03.08.2019
4267 Clouds 29 1012 77 0 5.21 176.404 08:57 03.08.2019
4268 Clouds 32 1012 66 10000 3.6 180 08:25 03.08.2019
4269 Clouds 29 1012 77 0 5.21 176.404 07:38 03.08.2019
4270 Clouds 31 1012 70 10000 4.1 160 06:47 03.08.2019
4271 Clouds 31 1011 70 10000 3.6 170 05:59 03.08.2019
4272 Clouds 29 1010 79 10000 4.1 150 02:50 03.08.2019
4273 Clouds 29 1010 79 10000 4.1 150 02:23 03.08.2019
4274 Clouds 30 1010 74 10000 3.6 160 00:58 03.08.2019
4275 Clouds 30 1010 74 10000 3.6 160 00:31 03.08.2019
4276 Clouds 30 1010 74 10000 4.1 160 23:42 02.08.2019
4277 Clouds 30 1010 74 10000 4.1 160 23:20 02.08.2019
4278 Clouds 30 1010 74 10000 5.1 160 22:58 02.08.2019
4279 Rain 29 1010 76 0 5.3 176.646 22:40 02.08.2019
4280 Clouds 30 1011 74 10000 5.1 160 22:21 02.08.2019
4281 Clouds 30 1011 74 10000 5.1 160 21:55 02.08.2019
4282 Clouds 30 1011 74 10000 4.6 160 21:37 02.08.2019
4283 Clouds 30 1011 74 10000 4.6 160 21:18 02.08.2019
4284 Clouds 30 1011 74 10000 4.6 160 21:18 02.08.2019
4285 Rain 29 1013 75 0 5 172.962 20:42 02.08.2019
4286 Clouds 30 1012 70 10000 4.6 150 20:21 02.08.2019
4287 Clouds 30 1012 70 10000 4.6 150 19:49 02.08.2019
4288 Clouds 30 1012 70 10000 4.6 150 19:29 02.08.2019
4289 Clouds 30 1012 74 10000 4.6 160 18:47 02.08.2019
4290 Clouds 30 1012 74 10000 4.6 160 18:29 02.08.2019
4291 Clouds 30 1012 79 10000 3.6 140 17:56 02.08.2019
4292 Rain 29 1011 76 0 5.32 172.807 17:38 02.08.2019
4293 Clouds 31 1011 70 10000 4.1 160 17:18 02.08.2019
4294 Rain 29 1011 76 0 5.32 172.807 16:39 02.08.2019
4295 Clouds 31 1010 66 10000 4.6 160 16:20 02.08.2019
4296 Rain 29 1011 76 0 5.32 172.807 15:45 02.08.2019
4297 Clouds 32 1010 62 10000 4.6 150 15:20 02.08.2019
4298 Clouds 32 1010 62 10000 4.6 150 14:57 02.08.2019
4299 Rain 29 1010 75 0 5.37 175.822 14:39 02.08.2019
4300 Clouds 32 1009 66 10000 4.6 150 14:18 02.08.2019
4301 Clouds 32 1009 66 10000 4.6 150 13:42 02.08.2019
4302 Clouds 32 1009 66 10000 4.6 150 13:19 02.08.2019
4303 Clouds 32 1010 66 10000 4.6 150 12:41 02.08.2019
4304 Clouds 33 1010 63 10000 4.6 150 12:19 02.08.2019
4305 Rain 29 1010 74 0 4.8 178.052 11:40 02.08.2019
4306 Clouds 33 1011 63 10000 4.1 150 11:22 02.08.2019
4307 Rain 29 1010 74 0 4.8 178.052 10:44 02.08.2019
4308 Clouds 33 1012 63 10000 4.1 150 10:24 02.08.2019
4309 Clouds 33 1012 63 10000 4.1 150 09:53 02.08.2019
4310 Clouds 32 1012 66 10000 4.6 150 09:30 02.08.2019
4311 Clouds 32 1012 66 10000 4.6 150 08:56 02.08.2019
4312 Clouds 32 1012 66 10000 4.6 150 08:26 02.08.2019
4313 Clouds 32 1012 66 10000 4.6 150 07:59 02.08.2019
4314 Clouds 32 1012 66 10000 4.6 150 07:39 02.08.2019
4315 Clouds 31 1012 70 10000 4.1 150 07:21 02.08.2019
4316 Clouds 31 1012 70 10000 4.1 150 06:31 02.08.2019
4317 Rain 29 1012 75 0 4.32 168.401 05:42 02.08.2019
4318 Clouds 29 1010 79 10000 3.6 160 03:33 02.08.2019
4319 Clouds 29 1010 74 10000 4.1 160 02:38 02.08.2019
4320 Clouds 29 1010 74 10000 4.1 160 01:36 02.08.2019
4321 Clouds 29 1010 74 10000 3.6 150 00:31 02.08.2019
4322 Clouds 29 1010 70 0 4.18 167.841 23:44 01.08.2019
4323 Clouds 29 1011 74 10000 3.1 130 23:25 01.08.2019
4324 Clouds 29 1010 70 0 4.18 167.841 22:44 01.08.2019
4325 Clouds 30 1011 70 10000 3.1 130 22:25 01.08.2019
4326 Clouds 30 1011 70 10000 3.1 130 21:57 01.08.2019
4327 Clouds 30 1011 70 10000 3.1 130 21:38 01.08.2019
4328 Clouds 30 1012 74 10000 3.6 130 21:20 01.08.2019
4329 Clouds 30 1012 74 10000 3.6 130 20:46 01.08.2019
4330 Clouds 30 1012 74 10000 3.6 130 20:46 01.08.2019
4331 Clouds 30 1012 74 10000 3.6 130 20:23 01.08.2019
4332 Clouds 30 1012 74 10000 3.1 130 19:54 01.08.2019
4333 Clouds 30 1012 74 10000 3.1 130 19:36 01.08.2019
4334 Clouds 30 1012 74 10000 2.6 170 19:18 01.08.2019
4335 Clouds 30 1012 74 10000 2.6 170 18:42 01.08.2019
4336 Clouds 30 1012 74 10000 2.6 170 18:23 01.08.2019
4337 Clouds 29 1012 70 0 4.79 140.464 17:47 01.08.2019
4338 Clouds 30 1010 74 10000 2.6 160 17:27 01.08.2019
4339 Clouds 29 1012 70 0 4.79 140.464 16:45 01.08.2019
4340 Clouds 31 1010 70 10000 2.1 160 16:22 01.08.2019
4341 Clouds 29 1012 70 0 4.79 140.464 15:46 01.08.2019
4342 Clouds 31 1010 66 10000 2.1 180 15:22 01.08.2019
4343 Clouds 31 1010 66 10000 2.1 180 14:59 01.08.2019
4344 Clouds 31 1010 66 10000 2.1 180 14:41 01.08.2019
4345 Clouds 31 1010 66 10000 2.1 180 14:18 01.08.2019
4346 Clouds 32 1010 66 10000 2.1 170 13:56 01.08.2019
4347 Clouds 29 1011 63 0 1.58 153.386 13:38 01.08.2019
4348 Clouds 32 1010 66 10000 2.6 180 13:20 01.08.2019
4349 Clouds 32 1010 66 10000 2.6 180 12:41 01.08.2019
4350 Clouds 32 1010 66 10000 2.6 180 12:22 01.08.2019
4351 Clouds 29 1011 63 0 1.19 155.488 11:43 01.08.2019
4352 Clouds 32 1011 62 10000 2.6 180 11:24 01.08.2019
4353 Clouds 29 1011 63 0 1.19 155.488 10:46 01.08.2019
4354 Clouds 32 1012 62 10000 2.1 180 10:28 01.08.2019
4355 Clouds 32 1012 62 10000 2.1 180 09:59 01.08.2019
4356 Clouds 29 1011 63 0 1.19 155.488 09:41 01.08.2019
4357 Clouds 29 1011 63 0 1.19 155.488 09:41 01.08.2019
4358 Clouds 29 1013 65 0 1.58 160.51 09:22 01.08.2019
4359 Clouds 28 1013 65 0 1.16 166.18 08:45 01.08.2019
4360 Clouds 31 1013 66 10000 2.1 180 08:20 01.08.2019
4361 Clouds 31 1013 66 10000 2.1 180 07:50 01.08.2019
4362 Clouds 31 1013 66 10000 2.1 180 07:25 01.08.2019
4363 Clouds 31 1013 66 10000 1.5 160 06:49 01.08.2019
4364 Clouds 30 1012 70 10000 1.5 200 05:51 01.08.2019
4365 Clouds 28 1011 78 10000 1.5 160 04:24 01.08.2019
4366 Clouds 29 1011 74 10000 1.5 160 02:35 01.08.2019
4367 Clouds 29 1011 74 10000 2.1 180 00:46 01.08.2019
4368 Clouds 29 1011 74 10000 2.1 180 00:24 01.08.2019
4369 Clouds 29 1011 74 10000 2.1 200 23:43 31.07.2019
4370 Clouds 29 1011 74 10000 2.1 200 23:21 31.07.2019
4371 Clouds 29 1012 74 10000 1.5 180 22:58 31.07.2019
4372 Clouds 29 1012 74 10000 1.5 180 22:39 31.07.2019
4373 Clouds 29 1012 74 10000 1.5 180 22:21 31.07.2019
4374 Clouds 29 1013 74 10000 1.5 190 21:38 31.07.2019
4375 Clouds 29 1013 74 10000 1.5 190 21:19 31.07.2019
4376 Clouds 29 1013 74 10000 1.5 190 20:48 31.07.2019
4377 Clouds 29 1013 74 10000 1.5 190 20:22 31.07.2019
4378 Clouds 30 1012 70 10000 1 0 19:43 31.07.2019
4379 Clouds 30 1012 70 10000 1 0 19:24 31.07.2019
4380 Clouds 29 1012 74 10000 1 0 18:53 31.07.2019
4381 Clouds 30 1011 70 10000 0.5 0 18:29 31.07.2019
4382 Clouds 30 1011 70 10000 0.5 0 17:59 31.07.2019
4383 Clouds 28 1012 64 0 0.82 104.427 17:40 31.07.2019
4384 Clouds 30 1010 70 10000 1.5 200 17:20 31.07.2019
4385 Clouds 28 1012 64 0 0.82 104.427 16:46 31.07.2019
4386 Clouds 31 1010 66 10000 1.5 190 16:20 31.07.2019
4387 Clouds 28 1012 64 0 0.82 104.427 15:46 31.07.2019
4388 Clouds 31 1009 66 10000 1 0 15:26 31.07.2019
4389 Clouds 31 1009 66 10000 1 0 14:59 31.07.2019
4390 Clouds 28 1011 65 0 0.49 303.947 14:40 31.07.2019
4391 Clouds 32 1009 62 10000 1.5 220 14:18 31.07.2019
4392 Clouds 32 1009 62 10000 1.5 220 13:45 31.07.2019
4393 Clouds 32 1009 62 10000 1.5 220 13:26 31.07.2019
4394 Clouds 32 1010 62 10000 1 0 12:57 31.07.2019
4395 Clouds 32 1010 62 10000 1 0 12:38 31.07.2019
4396 Clouds 32 1010 62 10000 1 0 12:18 31.07.2019
4397 Clouds 28 1011 65 0 0.49 215.335 11:39 31.07.2019
4398 Clouds 28 1011 65 0 0.49 215.335 11:39 31.07.2019
4399 Clouds 31 1011 66 10000 1.5 90 11:20 31.07.2019
4400 Clouds 28 1011 65 0 0.49 215.335 10:44 31.07.2019
4401 Clouds 31 1012 66 10000 2.1 80 10:21 31.07.2019
4402 Clouds 31 1012 66 10000 2.1 80 09:57 31.07.2019
4403 Clouds 28 1011 65 0 0.49 215.335 09:38 31.07.2019
4404 Clouds 31 1012 66 10000 2.6 100 09:20 31.07.2019
4405 Clouds 28 1013 64 0 0.34 77.707 08:41 31.07.2019
4406 Clouds 31 1012 66 10000 1.5 100 08:21 31.07.2019
4407 Clouds 31 1012 66 10000 1.5 100 07:35 31.07.2019
4408 Clouds 31 1012 66 10000 1.5 90 06:44 31.07.2019
4409 Clouds 28 1011 78 10000 0.75 126.809 04:56 31.07.2019
4410 Clouds 27 1010 83 10000 0.28 216.341 03:25 31.07.2019
4411 Clouds 28 1010 78 10000 0.6 111.265 00:20 31.07.2019
4412 Clouds 28 1010 65 0 0.6 111.265 23:40 30.07.2019
4413 Clouds 28 1011 78 10000 0.6 111.265 23:19 30.07.2019
4414 Clouds 28 1010 65 0 0.6 111.265 22:46 30.07.2019
4415 Clouds 29 1012 74 10000 0.6 111.265 22:25 30.07.2019
4416 Clouds 29 1012 74 10000 0.6 111.265 21:56 30.07.2019
4417 Clouds 29 1012 74 10000 1.5 60 21:36 30.07.2019
4418 Clouds 29 1012 74 10000 1.5 60 21:18 30.07.2019
4419 Clear 28 1012 66 0 1.43 35.212 20:42 30.07.2019
4420 Clouds 29 1012 74 10000 0.5 0 20:23 30.07.2019
4421 Clouds 29 1012 74 10000 0.5 0 19:58 30.07.2019
4422 Clouds 29 1012 74 10000 0.5 0 19:39 30.07.2019
4423 Clouds 29 1012 74 10000 1.43 35.212 18:58 30.07.2019
4424 Clouds 29 1012 74 10000 1.43 35.212 18:38 30.07.2019
4425 Clouds 29 1011 70 10000 1 0 18:18 30.07.2019
4426 Clouds 28 1011 65 0 0.82 313.564 17:41 30.07.2019
4427 Clouds 30 1010 70 10000 1.5 80 17:19 30.07.2019
4428 Clouds 30 1010 70 10000 1.5 80 16:51 30.07.2019
4429 Clouds 30 1009 70 10000 2.1 90 16:21 30.07.2019
4430 Clouds 30 1009 70 10000 2.1 90 15:58 30.07.2019
4431 Clouds 31 1009 66 10000 1.5 90 15:37 30.07.2019
4432 Clouds 31 1009 66 10000 1.5 90 15:18 30.07.2019
4433 Clouds 31 1009 66 10000 1.5 90 14:42 30.07.2019
4434 Clouds 31 1009 66 10000 1.5 90 14:20 30.07.2019
4435 Clouds 28 1010 65 0 0.93 271.227 13:47 30.07.2019
4436 Clouds 32 1009 62 10000 1 0 13:29 30.07.2019
4437 Clouds 32 1009 62 10000 1 0 12:58 30.07.2019
4438 Clouds 32 1009 62 10000 1 0 12:39 30.07.2019
4439 Clouds 31 1009 66 10000 1 0 12:21 30.07.2019
4440 Clear 28 1010 68 0 0.03 60.945 11:40 30.07.2019
4441 Clouds 32 1010 62 10000 1 0 11:20 30.07.2019
4442 Clouds 28 1010 68 0 0.42 295.346 10:46 30.07.2019
4443 Clouds 32 1011 62 10000 1 0 10:27 30.07.2019
4444 Clouds 32 1011 62 10000 1 0 09:50 30.07.2019
4445 Clouds 31 1011 66 10000 2.1 90 09:31 30.07.2019
4446 Clouds 31 1011 66 10000 2.1 90 08:58 30.07.2019
4447 Clouds 31 1011 66 10000 2.1 90 08:31 30.07.2019
4448 Clouds 27 1012 68 0 0.86 96.016 07:48 30.07.2019
4449 Clouds 27 1012 68 0 0.86 96.016 07:29 30.07.2019
4450 Clouds 27 1012 68 0 0.86 96.016 06:48 30.07.2019
4451 Clouds 30 1011 70 10000 1.5 80 06:28 30.07.2019
4452 Clouds 30 1011 70 10000 1.5 80 05:34 30.07.2019
4453 Clouds 28 1009 78 10000 0.28 111.379 03:28 30.07.2019
4454 Clouds 28 1009 78 10000 1 0 01:21 30.07.2019
4455 Clouds 28 1009 78 10000 0.5 0 00:22 30.07.2019
4456 Clouds 28 1010 67 0 0.15 173.447 23:47 29.07.2019
4457 Clouds 29 1010 74 10000 0.15 173.447 23:28 29.07.2019
4458 Clouds 29 1010 74 10000 0.15 173.447 22:58 29.07.2019
4459 Clouds 28 1010 67 0 0.15 173.447 22:39 29.07.2019
4460 Clouds 29 1011 74 10000 0.15 173.447 22:20 29.07.2019
4461 Clouds 29 1011 74 10000 0.15 173.447 21:59 29.07.2019
4462 Clouds 28 1010 67 0 0.15 173.447 21:41 29.07.2019
4463 Clouds 29 1011 74 10000 0.96 178.8 21:22 29.07.2019
4464 Clouds 29 1011 74 10000 0.96 178.8 20:55 29.07.2019
4465 Clouds 29 1011 74 10000 0.96 178.8 20:36 29.07.2019
4466 Clouds 29 1011 74 10000 0.96 178.8 20:18 29.07.2019
4467 Clouds 28 1012 67 0 0.96 178.8 19:41 29.07.2019
4468 Clouds 29 1011 70 10000 0.96 178.8 19:21 29.07.2019
4469 Clouds 29 1011 70 10000 0.96 178.8 18:43 29.07.2019
4470 Clouds 29 1010 74 10000 1.37 155.283 18:23 29.07.2019
4471 Clouds 29 1010 74 10000 1.37 155.283 17:56 29.07.2019
4472 Clouds 28 1011 67 0 1.37 155.283 17:37 29.07.2019
4473 Clouds 30 1010 66 10000 0.5 0 17:19 29.07.2019
4474 Clouds 28 1011 67 0 1.37 155.283 16:42 29.07.2019
4475 Clouds 30 1009 70 10000 1.37 155.283 16:23 29.07.2019
4476 Clouds 30 1009 70 10000 1.37 155.283 15:53 29.07.2019
4477 Clouds 31 1008 66 10000 1.5 250 15:34 29.07.2019
4478 Clouds 31 1008 66 10000 1.5 250 14:57 29.07.2019
4479 Clouds 32 1008 62 10000 1.5 270 14:38 29.07.2019
4480 Clouds 32 1008 62 10000 1.5 270 14:20 29.07.2019
4481 Clouds 32 1008 62 10000 1.5 270 14:20 29.07.2019
4482 Clouds 28 1010 68 0 2.21 176.082 13:43 29.07.2019
4483 Clouds 32 1008 66 10000 1.5 250 13:23 29.07.2019
4484 Clouds 32 1008 66 10000 1.5 250 12:43 29.07.2019
4485 Clouds 32 1008 66 10000 1.5 250 12:24 29.07.2019
4486 Clouds 28 1009 65 0 1.74 161.783 11:45 29.07.2019
4487 Clouds 30 1009 70 10000 1 0 11:23 29.07.2019
4488 Clouds 30 1009 70 10000 1 0 10:57 29.07.2019
4489 Clouds 31 1010 66 10000 1.5 120 10:39 29.07.2019
4490 Clouds 31 1010 66 10000 1.5 120 10:20 29.07.2019
4491 Clouds 28 1009 65 0 1.74 161.783 09:40 29.07.2019
4492 Clouds 30 1011 70 10000 1 0 09:19 29.07.2019
4493 Clouds 28 1012 63 0 1.86 209.569 08:41 29.07.2019
4494 Clouds 31 1011 66 10000 1.5 210 08:20 29.07.2019
4495 Clouds 28 1012 63 0 1.86 209.569 07:45 29.07.2019
4496 Clouds 30 1011 70 10000 1 0 07:23 29.07.2019
4497 Clouds 28 1012 63 0 1.01 222.316 05:50 29.07.2019
4498 Clouds 29 1010 74 10000 1.5 190 04:54 29.07.2019
4499 Clouds 28 1009 78 10000 1 0 02:27 29.07.2019
4500 Clouds 28 1010 65 0 1.5 244.976 01:45 29.07.2019
4501 Clouds 28 1009 78 10000 1 0 01:23 29.07.2019
4502 Clouds 28 1009 78 10000 1 0 00:50 29.07.2019
4503 Clouds 28 1010 78 10000 0.5 0 00:22 29.07.2019
4504 Clouds 28 1010 66 0 0.95 239.482 23:41 28.07.2019
4505 Clouds 29 1010 74 10000 0.5 0 23:19 28.07.2019
4506 Clouds 29 1010 74 10000 0.5 0 23:19 28.07.2019
4507 Clouds 28 1010 66 0 0.95 239.482 22:41 28.07.2019
4508 Clouds 29 1011 74 10000 0.5 0 22:22 28.07.2019
4509 Clouds 29 1011 74 10000 0.5 0 21:49 28.07.2019
4510 Clouds 29 1012 74 10000 0.5 0 21:19 28.07.2019
4511 Clouds 28 1012 64 0 0.98 222.554 20:48 28.07.2019
4512 Clouds 29 1012 74 10000 0.5 0 20:29 28.07.2019
4513 Clouds 29 1012 74 10000 0.5 0 19:56 28.07.2019
4514 Clouds 29 1011 74 10000 0.5 0 19:38 28.07.2019
4515 Clouds 29 1011 74 10000 0.5 0 19:19 28.07.2019
4516 Clouds 29 1011 74 10000 0.5 0 18:43 28.07.2019
4517 Clouds 29 1011 74 10000 0.5 0 18:24 28.07.2019
4518 Clouds 28 1011 63 0 0.95 274.789 17:43 28.07.2019
4519 Clouds 29 1010 74 10000 0.5 0 17:22 28.07.2019
4520 Clouds 29 1010 74 10000 0.5 0 16:58 28.07.2019
4521 Clouds 29 1010 74 10000 0.5 0 16:58 28.07.2019
4522 Clouds 28 1011 63 0 0.95 274.789 16:39 28.07.2019
4523 Clouds 30 1009 70 10000 0.5 0 16:21 28.07.2019
4524 Clouds 30 1009 70 10000 0.5 0 15:43 28.07.2019
4525 Clouds 30 1009 70 10000 0.5 0 15:21 28.07.2019
4526 Clouds 28 1009 63 0 1.48 298.709 14:38 28.07.2019
4527 Clouds 31 1008 66 10000 1.5 320 14:19 28.07.2019
4528 Clouds 31 1008 66 10000 1.5 320 13:55 28.07.2019
4529 Clouds 28 1009 63 0 1.48 298.709 13:36 28.07.2019
4530 Clouds 31 1008 66 10000 1.5 300 13:18 28.07.2019
4531 Clouds 31 1008 66 10000 1.5 300 12:40 28.07.2019
4532 Clouds 31 1008 66 10000 1.5 300 12:22 28.07.2019
4533 Clouds 28 1009 64 0 2.17 276.873 11:48 28.07.2019
4534 Clouds 31 1009 66 10000 2.1 290 11:27 28.07.2019
4535 Clouds 28 1009 64 0 2.17 276.873 10:42 28.07.2019
4536 Clouds 31 1010 66 10000 2.6 280 10:22 28.07.2019
4537 Clouds 31 1010 66 10000 2.6 280 09:57 28.07.2019
4538 Clouds 31 1011 66 10000 2.6 270 09:38 28.07.2019
4539 Clouds 31 1011 66 10000 2.6 270 09:19 28.07.2019
4540 Clouds 31 1011 66 10000 2.6 270 08:41 28.07.2019
4541 Clouds 31 1011 66 10000 2.6 270 08:21 28.07.2019
4542 Clouds 28 1011 65 0 1.39 292.454 07:39 28.07.2019
4543 Clouds 30 1011 70 10000 1.5 280 06:47 28.07.2019
4544 Clouds 30 1011 70 10000 2.1 270 05:59 28.07.2019
4545 Clouds 28 1010 78 10000 2.1 280 04:37 28.07.2019
4546 Clouds 29 1009 74 10000 1.5 300 02:24 28.07.2019
4547 Clouds 29 1009 74 10000 1.5 290 01:25 28.07.2019
4548 Clouds 29 1009 74 10000 1.5 290 00:49 28.07.2019
4549 Clouds 29 1009 74 10000 1.5 290 00:24 28.07.2019
4550 Clouds 28 1010 68 0 2.27 303.047 23:47 27.07.2019
4551 Clouds 29 1011 74 10000 1.5 250 23:22 27.07.2019
4552 Clouds 28 1010 68 0 2.27 303.047 22:42 27.07.2019
4553 Clouds 29 1012 74 10000 1 0 22:23 27.07.2019
4554 Clouds 29 1012 74 10000 1 0 21:44 27.07.2019
4555 Clouds 29 1012 74 10000 1 0 21:22 27.07.2019
4556 Clouds 29 1012 74 10000 0.5 0 20:54 27.07.2019
4557 Clouds 29 1012 74 10000 1.5 280 20:30 27.07.2019
4558 Clouds 29 1012 74 10000 1.5 280 19:58 27.07.2019
4559 Clouds 28 1012 69 0 2.12 303.233 19:38 27.07.2019
4560 Clouds 29 1011 79 10000 2.1 240 19:19 27.07.2019
4561 Clouds 29 1011 79 10000 2.1 240 18:46 27.07.2019
4562 Clouds 29 1011 79 10000 2.1 240 18:28 27.07.2019
4563 Clouds 28 1011 71 0 2.87 274.704 17:49 27.07.2019
4564 Clouds 29 1010 74 10000 0.5 0 17:31 27.07.2019
4565 Clouds 29 1010 74 10000 0.5 0 16:54 27.07.2019
4566 Clouds 30 1009 74 10000 1 0 16:34 27.07.2019
4567 Clouds 30 1009 74 10000 1 0 15:56 27.07.2019
4568 Clouds 30 1009 74 10000 1 0 15:28 27.07.2019
4569 Clouds 31 1008 70 10000 1.5 280 14:59 27.07.2019
4570 Clouds 29 1009 66 0 2.84 288.601 14:41 27.07.2019
4571 Clouds 31 1008 70 10000 2.1 270 14:21 27.07.2019
4572 Clouds 29 1009 66 0 2.84 288.601 13:46 27.07.2019
4573 Clouds 31 1008 70 10000 2.6 270 13:22 27.07.2019
4574 Clouds 31 1008 70 10000 2.6 270 12:49 27.07.2019
4575 Clouds 31 1008 70 10000 2.6 270 12:26 27.07.2019
4576 Clouds 31 1008 70 10000 2.6 270 11:46 27.07.2019
4577 Clouds 31 1008 70 10000 2.6 270 11:25 27.07.2019
4578 Clouds 31 1009 70 10000 2.1 280 10:57 27.07.2019
4579 Clouds 28 1009 64 0 1.49 258.6 10:39 27.07.2019
4580 Clouds 31 1010 70 10000 1.5 250 10:20 27.07.2019
4581 Clouds 28 1009 64 0 1.49 258.6 09:40 27.07.2019
4582 Clouds 31 1011 70 10000 1 0 09:22 27.07.2019
4583 Clouds 31 1011 70 10000 1 0 08:48 27.07.2019
4584 Clouds 31 1011 70 10000 1 0 08:29 27.07.2019
4585 Clouds 30 1012 74 10000 1.7 286.001 07:50 27.07.2019
4586 Clouds 30 1011 70 10000 1 0 07:27 27.07.2019
4587 Clouds 30 1011 70 10000 1 0 06:56 27.07.2019
4588 Clouds 30 1011 70 10000 1 0 06:30 27.07.2019
4589 Clouds 28 1011 66 0 1.77 284.146 05:49 27.07.2019
4590 Clouds 28 1010 83 10000 1.5 240 04:59 27.07.2019
4591 Rain 28 1010 78 9000 1.77 284.146 04:30 27.07.2019
4592 Clouds 28 1009 78 10000 0.5 0 02:58 27.07.2019
4593 Clouds 28 1009 78 10000 0.5 0 02:31 27.07.2019
4594 Clouds 28 1009 78 10000 0.5 0 01:44 27.07.2019
4595 Clouds 29 1009 74 10000 2.76 319.261 00:58 27.07.2019
4596 Clouds 29 1009 74 10000 2.76 319.261 00:32 27.07.2019
4597 Clouds 29 1009 74 10000 2.77 321.476 23:53 26.07.2019
4598 Clouds 29 1010 74 10000 1.5 340 23:32 26.07.2019
4599 Clouds 29 1010 74 10000 1.5 340 22:56 26.07.2019
4600 Clouds 29 1011 74 10000 1.5 360 22:38 26.07.2019
4601 Clouds 29 1011 74 10000 1.5 360 22:20 26.07.2019
4602 Clouds 28 1010 71 0 2.77 321.476 21:44 26.07.2019
4603 Clouds 28 1010 71 0 2.77 321.476 21:44 26.07.2019
4604 Clouds 29 1011 74 10000 1.5 10 21:19 26.07.2019
4605 Clouds 28 1012 70 0 2.94 327.493 20:42 26.07.2019
4606 Clouds 29 1011 74 10000 2.1 350 20:22 26.07.2019
4607 Clouds 29 1011 74 10000 2.1 350 19:43 26.07.2019
4608 Clouds 29 1011 74 10000 2.1 350 19:24 26.07.2019
4609 Clouds 29 1011 74 10000 1.5 330 18:57 26.07.2019
4610 Clouds 29 1011 74 10000 1.5 330 18:37 26.07.2019
4611 Clouds 29 1010 74 10000 2.1 350 18:19 26.07.2019
4612 Clouds 28 1010 68 0 2.37 310.457 17:44 26.07.2019
4613 Clouds 30 1010 70 10000 2.1 350 17:19 26.07.2019
4614 Clouds 30 1010 70 10000 2.1 350 16:57 26.07.2019
4615 Clouds 28 1010 68 0 2.37 310.457 16:38 26.07.2019
4616 Clouds 30 1009 70 10000 1.5 330 16:19 26.07.2019
4617 Clouds 30 1009 70 10000 1.5 330 15:55 26.07.2019
4618 Clouds 28 1010 68 0 2.37 310.457 15:36 26.07.2019
4619 Clouds 30 1008 70 10000 1.5 310 15:18 26.07.2019
4620 Clouds 29 1009 65 0 2.26 314.875 14:42 26.07.2019
4621 Clouds 31 1008 66 10000 1.5 310 14:22 26.07.2019
4622 Clouds 31 1008 66 10000 1.5 310 13:40 26.07.2019
4623 Clouds 31 1008 66 10000 1.5 310 13:22 26.07.2019
4624 Clouds 31 1008 70 10000 2.1 320 12:48 26.07.2019
4625 Clouds 31 1008 70 10000 2.1 320 12:20 26.07.2019
4626 Clouds 28 1009 66 0 2.06 299.99 11:40 26.07.2019
4627 Clouds 31 1010 66 10000 2.6 330 11:21 26.07.2019
4628 Clouds 31 1010 66 10000 2.6 330 10:58 26.07.2019
4629 Clouds 31 1011 66 10000 2.6 290 10:38 26.07.2019
4630 Clouds 31 1011 66 10000 2.6 290 09:59 26.07.2019
4631 Clouds 28 1009 66 0 2.06 299.99 09:41 26.07.2019
4632 Clouds 31 1011 70 10000 2.1 320 09:21 26.07.2019
4633 Clouds 28 1012 68 0 2.25 247.019 08:40 26.07.2019
4634 Clouds 31 1012 70 10000 2.1 290 08:20 26.07.2019
4635 Clouds 31 1012 70 10000 2.1 290 07:36 26.07.2019
4636 Clouds 31 1012 66 10000 3.1 290 06:58 26.07.2019
4637 Clouds 29 1011 74 10000 2.6 290 05:23 26.07.2019
4638 Clouds 29 1010 74 10000 2.6 310 04:29 26.07.2019
4639 Clouds 28 1011 70 0 2.76 249.071 03:44 26.07.2019
4640 Clouds 28 1010 70 0 2.77 264.291 01:45 26.07.2019
4641 Clouds 29 1010 74 10000 2.6 310 00:50 26.07.2019
4642 Clouds 29 1010 74 10000 2.6 310 00:25 26.07.2019
4643 Clouds 29 1011 74 10000 2.6 330 23:26 25.07.2019
4644 Clouds 29 1011 74 10000 2.6 330 23:26 25.07.2019
4645 Clouds 29 1011 74 10000 2.6 330 22:59 25.07.2019
4646 Clouds 28 1010 73 0 3.01 256.937 22:41 25.07.2019
4647 Clouds 29 1012 79 10000 2.1 350 22:21 25.07.2019
4648 Clouds 29 1012 79 10000 2.1 350 21:47 25.07.2019
4649 Clouds 29 1012 79 10000 2.1 350 21:23 25.07.2019
4650 Clouds 29 1012 79 10000 2.1 350 20:49 25.07.2019
4651 Clouds 29 1012 79 10000 2.1 350 20:30 25.07.2019
4652 Clouds 29 1012 74 10000 2.1 320 19:55 25.07.2019
4653 Clouds 29 1012 74 10000 2.1 320 19:37 25.07.2019
4654 Clouds 29 1012 74 10000 2.1 320 19:19 25.07.2019
4655 Clouds 29 1012 74 10000 2.1 320 18:40 25.07.2019
4656 Clouds 29 1011 74 10000 3.1 320 18:22 25.07.2019
4657 Clouds 29 1011 72 0 3.09 271.817 17:48 25.07.2019
4658 Clouds 29 1010 79 10000 2.1 310 17:30 25.07.2019
4659 Clouds 29 1010 79 10000 2.1 310 16:47 25.07.2019
4660 Clouds 30 1010 74 10000 3.1 310 16:29 25.07.2019
4661 Clouds 30 1010 74 10000 3.1 310 15:58 25.07.2019
4662 Clouds 29 1011 72 0 3.09 271.817 15:38 25.07.2019
4663 Clouds 30 1009 70 10000 3.1 290 15:19 25.07.2019
4664 Clouds 29 1009 71 0 4.1 271.48 14:41 25.07.2019
4665 Clouds 31 1009 70 10000 3.6 320 14:22 25.07.2019
4666 Clouds 29 1009 71 0 4.1 271.48 13:44 25.07.2019
4667 Clouds 31 1009 70 10000 3.6 290 13:26 25.07.2019
4668 Clouds 31 1009 70 10000 3.6 290 12:55 25.07.2019
4669 Clouds 31 1009 70 10000 3.6 290 12:28 25.07.2019
4670 Clear 29 1010 68 0 3.03 270.208 11:45 25.07.2019
4671 Clouds 31 1011 70 10000 4.1 300 11:24 25.07.2019
4672 Clouds 31 1011 70 10000 4.1 300 10:55 25.07.2019
4673 Clouds 31 1011 70 10000 4.1 300 10:55 25.07.2019
4674 Clear 29 1010 68 0 3.03 270.208 10:36 25.07.2019
4675 Clouds 31 1011 66 10000 3.6 290 10:18 25.07.2019
4676 Clouds 31 1011 66 10000 3.6 290 09:40 25.07.2019
4677 Clouds 32 1012 66 10000 3.1 290 08:59 25.07.2019
4678 Clouds 29 1012 70 0 2.47 264.266 08:40 25.07.2019
4679 Clouds 31 1012 70 10000 3.1 270 07:55 25.07.2019
4680 Clouds 30 1012 74 10000 3.1 270 07:30 25.07.2019
4681 Clouds 30 1012 74 10000 3.1 270 06:42 25.07.2019
4682 Clouds 30 1012 74 10000 3.1 270 06:42 25.07.2019
4683 Clouds 28 1012 72 0 2.88 243.488 05:37 25.07.2019
4684 Clouds 29 1011 79 10000 2.6 270 05:18 25.07.2019
4685 Clouds 29 1010 79 10000 2.6 270 04:31 25.07.2019
4686 Clouds 29 1010 79 10000 5.1 270 01:31 25.07.2019
4687 Clouds 29 1010 79 10000 5.1 270 00:45 25.07.2019
4688 Clouds 29 1010 79 10000 5.1 270 00:19 25.07.2019
4689 Clouds 29 1010 79 10000 5.1 270 23:45 24.07.2019
4690 Clouds 29 1010 79 10000 5.1 270 23:27 24.07.2019
4691 Clouds 28 1011 83 10000 1.5 260 22:55 24.07.2019
4692 Clouds 28 1010 70 0 2.62 229.984 22:36 24.07.2019
4693 Clouds 28 1011 78 10000 1.5 220 22:18 24.07.2019
4694 Clouds 28 1010 70 0 2.62 229.984 21:42 24.07.2019
4695 Rain 26 1011 83 10000 4.6 250 21:21 24.07.2019
4696 Clouds 29 1011 71 0 2.92 232.66 20:48 24.07.2019
4697 Rain 29 1012 74 10000 4.6 260 20:30 24.07.2019
4698 Rain 29 1012 74 10000 4.6 260 20:00 24.07.2019
4699 Clouds 29 1011 71 0 2.92 232.66 19:41 24.07.2019
4700 Clouds 29 1011 71 0 2.92 232.66 19:21 24.07.2019
4701 Clouds 29 1011 79 10000 2.1 260 18:45 24.07.2019
4702 Clouds 29 1011 79 10000 2.1 260 18:25 24.07.2019
4703 Clouds 30 1010 74 10000 2.6 250 17:56 24.07.2019
4704 Clouds 29 1010 71 0 2.61 228.479 17:37 24.07.2019
4705 Clouds 30 1009 74 10000 3.1 260 17:18 24.07.2019
4706 Clouds 29 1010 71 0 2.61 228.479 16:40 24.07.2019
4707 Clouds 30 1009 74 10000 2.6 260 16:21 24.07.2019
4708 Clouds 29 1010 71 0 2.61 228.479 15:39 24.07.2019
4709 Clouds 31 1008 70 10000 2.6 280 15:21 24.07.2019
4710 Clouds 29 1008 67 0 2.74 230.181 14:47 24.07.2019
4711 Clouds 31 1008 70 10000 2.6 280 14:23 24.07.2019
4712 Clouds 31 1008 70 10000 2.6 280 13:58 24.07.2019
4713 Clouds 31 1008 70 10000 2.6 280 13:36 24.07.2019
4714 Clouds 32 1008 66 10000 2.6 240 13:18 24.07.2019
4715 Clouds 32 1008 66 10000 2.6 240 12:45 24.07.2019
4716 Clouds 32 1008 66 10000 2.6 240 12:22 24.07.2019
4717 Clouds 31 1008 70 10000 3.6 250 11:37 24.07.2019
4718 Clouds 31 1008 70 10000 3.6 250 11:19 24.07.2019
4719 Clouds 29 1008 67 0 2.6 247.414 10:43 24.07.2019
4720 Clouds 31 1009 70 10000 2.6 270 10:24 24.07.2019
4721 Clouds 29 1008 67 0 2.6 247.414 09:44 24.07.2019
4722 Clouds 31 1009 70 10000 2.1 260 09:24 24.07.2019
4723 Clouds 31 1009 70 10000 2.1 260 08:54 24.07.2019
4724 Clouds 30 1010 74 10000 2.6 270 08:27 24.07.2019
4725 Clouds 30 1010 74 10000 2.6 270 07:50 24.07.2019
4726 Clouds 31 1010 66 10000 2.6 260 07:23 24.07.2019
4727 Clouds 31 1010 66 10000 2.6 260 06:28 24.07.2019
4728 Clouds 29 1009 74 10000 2.6 280 05:26 24.07.2019
4729 Clouds 28 1008 78 10000 2.6 280 01:58 24.07.2019
4730 Clouds 28 1008 78 10000 2.6 280 01:28 24.07.2019
4731 Clouds 29 1008 74 10000 2.6 280 00:54 24.07.2019
4732 Clouds 29 1008 74 10000 3.1 280 00:22 24.07.2019
4733 Clouds 28 1008 77 0 3.98 305.648 23:41 23.07.2019
4734 Clouds 29 1008 74 10000 2.6 280 23:22 23.07.2019
4735 Clouds 28 1008 77 0 3.98 305.648 22:39 23.07.2019
4736 Clouds 29 1009 74 10000 2.6 300 22:19 23.07.2019
4737 Clouds 29 1009 74 10000 2.6 300 21:57 23.07.2019
4738 Clouds 29 1009 74 10000 2.6 300 21:39 23.07.2019
4739 Clouds 29 1009 74 10000 2.6 300 21:21 23.07.2019
4740 Clouds 29 1009 74 10000 3.1 300 20:44 23.07.2019
4741 Clouds 29 1009 74 10000 3.1 300 20:21 23.07.2019
4742 Clouds 29 1009 74 10000 3.1 300 19:41 23.07.2019
4743 Clouds 29 1009 74 10000 3.1 300 19:19 23.07.2019
4744 Clouds 30 1009 70 10000 3.6 300 18:43 23.07.2019
4745 Clouds 30 1009 70 10000 3.6 300 18:23 23.07.2019
4746 Clouds 29 1009 74 0 4.55 306.298 17:44 23.07.2019
4747 Clouds 30 1008 70 10000 5.1 290 17:25 23.07.2019
4748 Clouds 30 1008 70 10000 5.1 290 16:51 23.07.2019
4749 Clouds 30 1007 70 10000 4.6 290 16:28 23.07.2019
4750 Clouds 30 1007 70 10000 4.6 290 15:59 23.07.2019
4751 Clouds 29 1009 74 0 4.55 306.298 15:40 23.07.2019
4752 Clouds 31 1007 70 10000 5.1 290 15:21 23.07.2019
4753 Clouds 29 1007 75 0 4.08 315.506 14:38 23.07.2019
4754 Clouds 32 1007 62 10000 5.1 290 14:19 23.07.2019
4755 Clouds 32 1007 62 10000 5.1 290 13:56 23.07.2019
4756 Clouds 32 1007 62 10000 5.1 290 13:56 23.07.2019
4757 Clouds 29 1007 75 0 4.08 315.506 13:38 23.07.2019
4758 Clouds 32 1007 62 10000 5.7 290 13:20 23.07.2019
4759 Clouds 32 1007 62 10000 5.7 290 12:45 23.07.2019
4760 Clouds 32 1007 62 10000 5.7 290 12:25 23.07.2019
4761 Clouds 29 1008 75 0 4.73 306.792 11:46 23.07.2019
4762 Clouds 29 1008 75 0 4.73 306.792 11:27 23.07.2019
4763 Clouds 29 1008 75 0 4.73 306.792 10:54 23.07.2019
4764 Clouds 31 1008 74 10000 3.1 300 10:36 23.07.2019
4765 Clouds 31 1008 74 10000 3.1 300 10:18 23.07.2019
4766 Clouds 31 1009 70 10000 3.6 270 09:40 23.07.2019
4767 Clouds 31 1009 70 10000 3.6 270 09:18 23.07.2019
4768 Clouds 31 1009 70 10000 3.6 270 08:40 23.07.2019
4769 Clouds 31 1009 70 10000 3.6 270 08:19 23.07.2019
4770 Clouds 30 1009 79 10000 5.1 270 07:51 23.07.2019
4771 Clouds 30 1008 74 10000 4.6 280 07:33 23.07.2019
4772 Clouds 30 1008 74 10000 4.6 280 06:38 23.07.2019
4773 Clouds 30 1008 74 10000 4.6 280 06:38 23.07.2019
4774 Clouds 30 1008 74 10000 4.6 280 05:51 23.07.2019
4775 Clouds 29 1007 79 10000 5.1 270 01:58 23.07.2019
4776 Clouds 29 1007 79 10000 5.1 270 01:27 23.07.2019
4777 Clouds 29 1006 83 10000 6.2 280 00:28 23.07.2019
4778 Clouds 29 1007 79 10000 4.1 280 23:41 22.07.2019
4779 Clouds 29 1007 79 10000 4.1 280 23:21 22.07.2019
4780 Clouds 29 1008 83 10000 4.6 280 22:58 22.07.2019
4781 Clouds 28 1008 79 0 5.91 283.484 22:40 22.07.2019
4782 Clouds 29 1008 83 10000 5.1 280 22:20 22.07.2019
4783 Clouds 29 1008 83 10000 5.1 280 22:20 22.07.2019
4784 Clouds 28 1008 79 0 5.91 283.484 21:42 22.07.2019
4785 Clouds 29 1009 79 10000 5.7 270 21:21 22.07.2019
4786 Clouds 29 1009 79 10000 5.7 270 20:48 22.07.2019
4787 Clouds 29 1009 79 10000 5.7 270 20:29 22.07.2019
4788 Clouds 29 1009 79 10000 6.2 280 19:54 22.07.2019
4789 Clouds 29 1009 79 10000 6.2 280 19:36 22.07.2019
4790 Clouds 29 1008 83 10000 5.7 280 19:18 22.07.2019
4791 Clouds 29 1008 83 10000 5.7 280 18:40 22.07.2019
4792 Clouds 29 1008 83 10000 5.7 280 18:22 22.07.2019
4793 Rain 29 1009 79 0 7.06 278.611 17:42 22.07.2019
4794 Clouds 29 1007 79 10000 6.7 270 17:23 22.07.2019
4795 Rain 29 1009 79 0 7.06 278.611 16:42 22.07.2019
4796 Rain 29 1009 79 0 7.06 278.611 16:21 22.07.2019
4797 Clouds 29 1006 79 10000 6.7 280 15:59 22.07.2019
4798 Rain 29 1009 79 0 7.06 278.611 15:37 22.07.2019
4799 Clouds 29 1006 79 10000 7.2 290 15:18 22.07.2019
4800 Rain 29 1006 78 0 6.47 292.631 14:43 22.07.2019
4801 Clouds 30 1005 74 10000 7.7 290 14:20 22.07.2019
4802 Clouds 30 1005 74 10000 7.7 290 13:47 22.07.2019
4803 Clouds 30 1005 74 10000 7.7 290 13:28 22.07.2019
4804 Clouds 30 1006 70 10000 7.2 280 12:46 22.07.2019
4805 Clouds 30 1006 70 10000 7.2 280 12:27 22.07.2019
4806 Clouds 29 1006 78 0 7.68 287.937 11:45 22.07.2019
4807 Rain 28 1007 74 9000 7.2 240 11:25 22.07.2019
4808 Rain 28 1007 74 9000 7.2 240 10:53 22.07.2019
4809 Clouds 29 1006 78 0 7.68 287.937 10:30 22.07.2019
4810 Clouds 29 1006 78 0 7.68 287.937 09:45 22.07.2019
4811 Rain 29 1008 77 0 6.6 289.041 09:25 22.07.2019
4812 Rain 29 1008 77 0 6.6 289.041 08:47 22.07.2019
4813 Clouds 30 1009 79 10000 5.7 270 08:26 22.07.2019
4814 Clouds 30 1009 79 10000 5.7 270 07:59 22.07.2019
4815 Rain 29 1008 77 0 6.6 289.041 07:40 22.07.2019
4816 Clouds 30 1008 79 10000 6.2 270 07:21 22.07.2019
4817 Clouds 29 1006 79 10000 5.1 270 03:58 22.07.2019
4818 Clouds 28 1007 78 0 7.04 290.22 02:45 22.07.2019
4819 Clouds 29 1006 79 10000 5.1 270 00:58 22.07.2019
4820 Clouds 29 1006 79 10000 5.1 270 00:29 22.07.2019
4821 Clouds 29 1007 79 10000 6.2 270 23:57 21.07.2019
4822 Clouds 29 1008 79 10000 6.2 270 23:36 21.07.2019
4823 Clouds 29 1008 79 10000 6.2 270 22:55 21.07.2019
4824 Clouds 30 1008 74 10000 6.7 270 22:36 21.07.2019
4825 Clouds 30 1008 74 10000 6.7 270 22:18 21.07.2019
4826 Clouds 29 1007 77 0 6.41 289.873 21:44 21.07.2019
4827 Clouds 30 1008 74 10000 6.7 260 21:24 21.07.2019
4828 Clouds 30 1008 74 10000 6.7 260 20:55 21.07.2019
4829 Clouds 29 1009 76 0 6.27 282.704 20:37 21.07.2019
4830 Clouds 30 1009 74 10000 6.7 260 20:19 21.07.2019
4831 Clouds 29 1009 76 0 6.27 282.704 19:47 21.07.2019
4832 Clouds 30 1008 74 10000 7.7 270 19:24 21.07.2019
4833 Clouds 29 1009 76 0 6.27 282.704 18:48 21.07.2019
4834 Clouds 29 1009 76 0 6.27 282.704 18:48 21.07.2019
4835 Clouds 30 1007 74 10000 8.2 270 18:26 21.07.2019
4836 Clouds 29 1008 76 0 7.04 274.49 17:44 21.07.2019
4837 Clouds 30 1007 74 10000 7.7 270 17:20 21.07.2019
4838 Clouds 30 1007 74 10000 7.7 270 16:58 21.07.2019
4839 Clouds 30 1006 74 10000 7.7 270 16:39 21.07.2019
4840 Clouds 30 1006 74 10000 7.7 270 16:20 21.07.2019
4841 Clouds 30 1006 79 10000 7.2 270 15:37 21.07.2019
4842 Clouds 30 1006 79 10000 7.2 270 15:19 21.07.2019
4843 Clouds 29 1006 75 0 7.92 269.327 14:42 21.07.2019
4844 Clouds 31 1006 74 10000 7.7 260 14:23 21.07.2019
4845 Clouds 31 1006 74 10000 7.7 260 13:52 21.07.2019
4846 Clouds 31 1006 74 10000 7.2 260 13:32 21.07.2019
4847 Clouds 29 1006 76 0 7.84 269.642 12:45 21.07.2019
4848 Clouds 31 1006 70 10000 8.7 260 12:26 21.07.2019
4849 Clouds 31 1006 70 10000 8.7 260 11:52 21.07.2019
4850 Clouds 31 1007 74 10000 7.7 260 11:31 21.07.2019
4851 Clouds 31 1007 74 10000 7.7 260 10:58 21.07.2019
4852 Rain 29 1006 75 0 7.52 272.186 10:40 21.07.2019
4853 Rain 29 1006 75 0 7.52 272.186 10:22 21.07.2019
4854 Rain 29 1006 75 0 7.52 272.186 09:38 21.07.2019
4855 Clouds 31 1008 74 10000 7.7 250 09:20 21.07.2019
4856 Clouds 29 1009 75 0 7.33 276.25 08:45 21.07.2019
4857 Clouds 29 1009 75 0 7.33 276.25 08:45 21.07.2019
4858 Clouds 31 1008 74 10000 7.2 250 08:26 21.07.2019
4859 Clouds 29 1009 75 0 7.33 276.25 07:38 21.07.2019
4860 Clouds 29 1009 75 0 7.33 276.25 07:38 21.07.2019
4861 Clouds 31 1008 74 10000 6.7 250 06:52 21.07.2019
4862 Clouds 29 1008 76 0 7.33 259.476 05:43 21.07.2019
4863 Rain 29 1006 79 9000 9.3 240 02:52 21.07.2019
4864 Clouds 29 1006 79 10000 8.2 240 01:19 21.07.2019
4865 Rain 29 1007 78 0 8.27 255.186 00:40 21.07.2019
4866 Clouds 29 1007 79 10000 8.7 240 00:18 21.07.2019
4867 Clouds 29 1007 79 0 7.64 253.675 23:41 20.07.2019
4868 Clouds 29 1008 83 10000 7.7 240 23:21 20.07.2019
4869 Clouds 29 1007 79 0 7.64 253.675 22:45 20.07.2019
4870 Clouds 29 1008 79 10000 8.7 240 22:22 20.07.2019
4871 Clouds 29 1008 79 10000 8.7 240 21:56 20.07.2019
4872 Clouds 29 1007 79 0 7.64 253.675 21:37 20.07.2019
4873 Clouds 30 1009 74 10000 8.2 240 21:18 20.07.2019
4874 Rain 29 1009 77 0 8.41 259.449 20:40 20.07.2019
4875 Clouds 30 1009 74 10000 8.2 240 20:18 20.07.2019
4876 Rain 29 1009 77 0 8.41 259.449 19:45 20.07.2019
4877 Clouds 30 1009 74 10000 8.2 240 19:20 20.07.2019
4878 Rain 29 1009 77 0 8.41 259.449 18:42 20.07.2019
4879 Clouds 29 1008 83 10000 7.7 240 18:20 20.07.2019
4880 Clouds 29 1008 83 10000 7.7 240 17:53 20.07.2019
4881 Clouds 29 1007 83 10000 8.2 240 17:23 20.07.2019
4882 Rain 29 1008 78 0 8.66 255.319 16:44 20.07.2019
4883 Clouds 30 1007 74 10000 7.7 240 16:26 20.07.2019
4884 Clouds 30 1007 74 10000 7.7 240 15:58 20.07.2019
4885 Clouds 30 1007 74 10000 7.2 250 15:38 20.07.2019
4886 Clouds 30 1007 74 10000 7.2 250 15:20 20.07.2019
4887 Rain 29 1007 78 0 8.44 254.545 14:47 20.07.2019
4888 Clouds 31 1006 70 10000 8.7 240 14:24 20.07.2019
4889 Rain 29 1007 78 0 8.44 254.545 13:39 20.07.2019
4890 Clouds 31 1006 74 10000 8.2 240 13:20 20.07.2019
4891 Clouds 31 1006 74 10000 8.2 240 13:20 20.07.2019
4892 Clouds 31 1006 74 10000 8.2 240 12:54 20.07.2019
4893 Clouds 31 1007 70 10000 9.3 240 12:24 20.07.2019
4894 Clouds 31 1007 70 10000 9.3 240 11:57 20.07.2019
4895 Clouds 31 1007 74 10000 7.7 240 11:24 20.07.2019
4896 Clouds 31 1007 74 10000 7.7 240 10:55 20.07.2019
4897 Clouds 30 1008 74 10000 7.7 240 10:36 20.07.2019
4898 Clouds 30 1008 74 10000 7.7 240 10:18 20.07.2019
4899 Clouds 30 1008 74 10000 7.7 240 10:18 20.07.2019
4900 Rain 29 1007 76 0 9.93 250.392 09:45 20.07.2019
4901 Rain 29 1009 78 0 9.42 250.376 09:22 20.07.2019
4902 Rain 29 1009 77 0 9.39 255.659 08:45 20.07.2019
4903 Clouds 30 1008 74 10000 7.2 230 08:20 20.07.2019
4904 Clouds 30 1008 79 10000 6.7 240 07:21 20.07.2019
4905 Rain 29 1009 77 0 9.39 255.659 06:41 20.07.2019
4906 Clouds 29 1007 79 10000 7.7 250 04:31 20.07.2019
4907 Clouds 29 1007 83 10000 9.3 250 03:40 20.07.2019
4908 Clouds 29 1007 79 10000 9.3 260 01:21 20.07.2019
4909 Rain 28 1007 78 0 9.88 264.897 00:47 20.07.2019
4910 Rain 29 1007 78 0 9.74 269.229 00:21 20.07.2019
4911 Rain 29 1007 78 0 9.74 269.229 23:45 19.07.2019
4912 Clouds 29 1007 83 10000 7.2 260 23:26 19.07.2019
4913 Clouds 29 1007 83 10000 7.2 260 22:50 19.07.2019
4914 Clouds 29 1008 83 10000 8.7 250 22:26 19.07.2019
4915 Clouds 29 1008 83 10000 8.7 250 21:53 19.07.2019
4916 Clouds 29 1009 79 10000 8.7 270 21:34 19.07.2019
4917 Clouds 29 1009 79 10000 8.7 270 20:59 19.07.2019
4918 Clouds 29 1009 76 0 9.48 273.871 20:40 19.07.2019
4919 Clouds 29 1009 79 10000 8.2 250 20:22 19.07.2019
4920 Clouds 29 1008 79 10000 7.2 260 19:35 19.07.2019
4921 Clouds 29 1008 79 10000 7.2 260 18:47 19.07.2019
4922 Clouds 29 1008 79 10000 7.2 260 18:25 19.07.2019
4923 Clouds 29 1008 79 10000 8.2 270 17:57 19.07.2019
4924 Clouds 29 1007 79 10000 7.2 260 17:32 19.07.2019
4925 Clouds 29 1007 79 10000 7.2 260 16:59 19.07.2019
4926 Clouds 29 1008 75 0 8 278.508 16:40 19.07.2019
4927 Rain 27 1007 88 9000 6.7 270 16:18 19.07.2019
4928 Clouds 29 1008 75 0 8 278.508 15:47 19.07.2019
4929 Rain 28 1007 83 9000 8.2 270 15:29 19.07.2019
4930 Rain 29 1007 76 0 9.54 273.065 14:47 19.07.2019
4931 Clouds 28 1007 83 10000 7.2 280 14:27 19.07.2019
4932 Clouds 28 1007 83 10000 7.2 280 13:58 19.07.2019
4933 Clouds 28 1007 83 10000 7.2 280 13:39 19.07.2019
4934 Clouds 28 1007 83 10000 7.2 280 13:20 19.07.2019
4935 Rain 27 1007 88 8000 9.3 280 12:45 19.07.2019
4936 Rain 27 1007 88 8000 9.3 280 12:26 19.07.2019
4937 Rain 28 1007 78 0 10.35 266.61 11:46 19.07.2019
4938 Rain 30 1007 79 8000 9.3 250 11:19 19.07.2019
4939 Rain 30 1007 79 8000 9.3 250 10:56 19.07.2019
4940 Clouds 30 1008 74 10000 9.3 240 10:37 19.07.2019
4941 Clouds 30 1008 74 10000 9.3 240 10:18 19.07.2019
4942 Rain 28 1007 78 0 10.35 266.61 09:43 19.07.2019
4943 Clouds 29 1009 79 10000 8.7 240 09:22 19.07.2019
4944 Clouds 29 1009 79 10000 8.7 240 08:50 19.07.2019
4945 Clouds 29 1009 79 10000 10.18 270.647 08:27 19.07.2019
4946 Clouds 28 1009 78 10000 8.2 250 07:32 19.07.2019
4947 Clouds 28 1009 78 10000 8.2 250 06:33 19.07.2019
4948 Clouds 29 1006 74 10000 8.7 270 02:58 19.07.2019
4949 Rain 28 1008 77 0 9.58 294.328 01:42 19.07.2019
4950 Clouds 29 1007 79 10000 10.8 260 00:47 19.07.2019
4951 Clouds 29 1008 79 10000 8.2 270 23:59 18.07.2019
4952 Rain 29 1008 72 0 10.03 300.365 23:40 18.07.2019
4953 Clouds 29 1009 79 10000 9.3 270 23:22 18.07.2019
4954 Clouds 29 1009 79 10000 9.3 270 22:44 18.07.2019
4955 Clouds 29 1009 74 10000 10.3 270 22:20 18.07.2019
4956 Clouds 29 1009 74 10000 10.3 270 21:56 18.07.2019
4957 Clouds 29 1009 74 10000 10.3 270 21:37 18.07.2019
4958 Clouds 28 1009 83 10000 10.3 270 21:18 18.07.2019
4959 Rain 28 1011 73 0 7.77 297.297 20:42 18.07.2019
4960 Clouds 29 1010 74 10000 9.8 280 20:23 18.07.2019
4961 Rain 28 1011 73 0 7.77 297.297 19:47 18.07.2019
4962 Clouds 29 1009 74 10000 9.3 280 19:27 18.07.2019
4963 Clouds 29 1009 74 10000 9.3 280 18:50 18.07.2019
4964 Rain 29 1009 74 7000 9.3 300 18:22 18.07.2019
4965 Rain 29 1009 74 7000 9.3 300 17:56 18.07.2019
4966 Rain 29 1009 74 7000 9.3 300 17:37 18.07.2019
4967 Clouds 29 1008 74 9000 9.8 280 17:19 18.07.2019
4968 Clouds 29 1008 74 9000 9.8 280 16:49 18.07.2019
4969 Clouds 29 1008 74 9000 9.8 280 16:25 18.07.2019
4970 Clouds 29 1008 74 9000 9.8 280 15:55 18.07.2019
4971 Clouds 29 1008 74 9000 9.8 280 15:36 18.07.2019
4972 Clouds 29 1007 74 9000 10.3 280 14:56 18.07.2019
4973 Clouds 29 1007 74 9000 10.3 280 14:37 18.07.2019
4974 Clouds 29 1007 74 9000 10.3 280 14:37 18.07.2019
4975 Clouds 29 1007 70 9000 8.7 280 13:59 18.07.2019
4976 Clouds 29 1007 70 9000 8.7 280 13:37 18.07.2019
4977 Clouds 29 1007 74 10000 8.7 280 13:18 18.07.2019
4978 Clouds 29 1007 74 10000 8.7 280 12:44 18.07.2019
4979 Rain 28 1008 78 9000 6.7 280 12:20 18.07.2019
4980 Rain 28 1009 73 0 8.62 293.429 11:50 18.07.2019
4981 Rain 28 1009 78 9000 6.7 280 11:32 18.07.2019
4982 Rain 28 1009 78 9000 6.7 280 10:52 18.07.2019
4983 Rain 28 1009 69 9000 5.7 300 10:23 18.07.2019
4984 Rain 28 1009 69 9000 5.7 300 09:44 18.07.2019
4985 Rain 26 1010 88 9000 5.1 290 09:23 18.07.2019
4986 Rain 26 1010 88 9000 5.1 290 08:46 18.07.2019
4987 Rain 26 1011 83 8000 9.8 310 08:19 18.07.2019
4988 Rain 26 1011 83 8000 9.8 310 07:37 18.07.2019
4989 Rain 26 1011 88 8000 10.3 330 07:19 18.07.2019
4990 Clouds 27 1010 88 10000 7.7 270 06:35 18.07.2019
4991 Clouds 29 1009 70 10000 7.7 270 04:21 18.07.2019
4992 Clouds 28 1008 78 10000 8.2 250 02:52 18.07.2019
4993 Clouds 27 1008 83 9000 8.7 250 01:38 18.07.2019
4994 Rain 26 1009 83 8000 6.7 270 00:28 18.07.2019
4995 Rain 26 1009 83 8000 6.7 270 23:49 17.07.2019
4996 Rain 24 1010 100 8000 8.2 260 23:19 17.07.2019
4997 Rain 24 1010 100 8000 8.2 260 22:44 17.07.2019
4998 Rain 25 1010 87 0 9.55 248.136 22:23 17.07.2019
4999 Rain 25 1010 87 0 9.55 248.136 21:59 17.07.2019
5000 Rain 25 1010 87 0 9.55 248.136 21:40 17.07.2019
5001 Rain 25 1010 87 0 9.55 248.136 21:40 17.07.2019
5002 Rain 26 1012 88 0 7.7 269.352 21:21 17.07.2019
5003 Rain 25 1012 93 0 7.02 264.869 20:58 17.07.2019
5004 Rain 25 1012 93 0 7.02 264.869 20:39 17.07.2019
5005 Rain 28 1012 78 9000 8.7 250 20:20 17.07.2019
5006 Rain 28 1012 78 9000 8.7 250 19:43 17.07.2019
5007 Clouds 28 1011 78 9000 7.7 240 19:22 17.07.2019
5008 Clouds 28 1011 78 9000 7.7 240 18:56 17.07.2019
5009 Clouds 28 1011 78 9000 7.7 240 18:38 17.07.2019
5010 Clouds 28 1011 78 9000 8.2 250 18:18 17.07.2019
5011 Clouds 28 1011 78 9000 8.2 250 17:43 17.07.2019
5012 Clouds 28 1011 78 9000 8.2 250 17:23 17.07.2019
5013 Clouds 28 1010 78 9000 10.8 250 16:42 17.07.2019
5014 Clouds 28 1010 78 9000 10.8 250 16:22 17.07.2019
5015 Clouds 28 1009 78 9000 10.3 250 15:51 17.07.2019
5016 Clouds 28 1009 78 9000 10.3 250 15:32 17.07.2019
5017 Clouds 28 1009 78 9000 11.8 250 14:58 17.07.2019
5018 Clouds 28 1009 78 9000 11.8 250 14:40 17.07.2019
5019 Clouds 27 1009 83 9000 9.3 230 14:21 17.07.2019
5020 Clouds 27 1009 83 9000 9.3 230 13:56 17.07.2019
5021 Clouds 27 1009 83 9000 9.3 230 13:36 17.07.2019
5022 Rain 25 1009 94 8000 8.7 230 13:18 17.07.2019
5023 Rain 25 1009 94 8000 8.7 230 12:39 17.07.2019
5024 Rain 27 1010 84 0 8.11 251.009 12:19 17.07.2019
5025 Rain 27 1010 84 0 8.11 251.009 11:43 17.07.2019
5026 Clouds 29 1010 74 10000 3.6 240 11:20 17.07.2019
5027 Clouds 29 1010 74 10000 3.6 240 10:50 17.07.2019
5028 Clouds 29 1010 74 10000 3.6 240 10:25 17.07.2019
5029 Clouds 30 1011 70 10000 5.7 250 09:46 17.07.2019
5030 Clouds 30 1011 70 10000 5.7 250 09:28 17.07.2019
5031 Clouds 30 1011 70 10000 6.7 270 08:58 17.07.2019
5032 Clouds 30 1011 70 10000 6.7 270 08:39 17.07.2019
5033 Clouds 29 1012 74 10000 5.7 240 08:21 17.07.2019
5034 Clouds 29 1012 74 10000 5.7 240 07:41 17.07.2019
5035 Clouds 28 1011 74 10000 5.7 230 07:22 17.07.2019
5036 Clouds 28 1011 74 10000 5.7 230 06:46 17.07.2019
5037 Clouds 28 1011 74 10000 5.7 230 06:46 17.07.2019
5038 Clouds 28 1011 74 10000 5.7 230 06:28 17.07.2019
5039 Clouds 28 1011 78 10000 6.7 230 05:42 17.07.2019
5040 Clouds 28 1010 74 10000 9.8 250 05:20 17.07.2019
5041 Rain 27 1010 78 8000 9.3 270 04:22 17.07.2019
5042 Rain 26 1009 83 7000 10.8 300 02:47 17.07.2019
5043 Clouds 29 1009 75 0 6.45 268.151 01:58 17.07.2019
5044 Rain 27 1009 74 8000 7.2 290 01:24 17.07.2019
5045 Rain 27 1009 74 8000 7.2 290 00:43 17.07.2019
5046 Clouds 29 1010 79 10000 6.2 290 00:23 17.07.2019
5047 Clouds 29 1010 79 10000 6.2 290 23:49 16.07.2019
5048 Clouds 29 1010 79 10000 6.2 290 23:28 16.07.2019
5049 Clouds 29 1010 79 10000 6.2 280 22:57 16.07.2019
5050 Clouds 29 1010 79 10000 6.2 280 22:39 16.07.2019
5051 Clouds 29 1010 79 10000 4.6 270 22:19 16.07.2019
5052 Clouds 29 1010 79 10000 4.6 270 21:43 16.07.2019
5053 Clouds 28 1011 74 10000 7.2 240 21:20 16.07.2019
5054 Clouds 28 1011 74 10000 7.2 240 20:56 16.07.2019
5055 Clouds 28 1011 74 10000 7.2 240 20:38 16.07.2019
5056 Clouds 29 1011 74 10000 5.7 260 20:19 16.07.2019
5057 Clouds 29 1011 74 10000 5.7 260 19:44 16.07.2019
5058 Clouds 29 1011 74 10000 5.7 260 19:26 16.07.2019
5059 Clouds 29 1011 74 10000 8.2 260 18:45 16.07.2019
5060 Clouds 30 1010 70 10000 5.1 270 18:21 16.07.2019
5061 Clouds 30 1010 70 10000 5.1 270 17:58 16.07.2019
5062 Rain 29 1011 73 0 7.18 290.986 17:38 16.07.2019
5063 Rain 29 1011 73 0 7.18 290.986 17:20 16.07.2019
5064 Rain 29 1011 73 0 7.18 290.986 16:40 16.07.2019
5065 Clouds 30 1009 70 10000 6.2 270 16:19 16.07.2019
5066 Clouds 30 1009 70 10000 6.2 270 15:41 16.07.2019
5067 Clouds 30 1009 74 10000 6.7 270 15:21 16.07.2019
5068 Clouds 30 1009 74 10000 6.7 270 14:58 16.07.2019
5069 Clouds 30 1009 74 10000 6.7 270 14:39 16.07.2019
5070 Clouds 30 1008 74 10000 7.7 260 14:20 16.07.2019
5071 Clouds 30 1008 74 10000 7.7 260 13:44 16.07.2019
5072 Clouds 30 1008 74 10000 7.7 260 13:44 16.07.2019
5073 Clouds 30 1009 70 10000 7.7 260 13:21 16.07.2019
5074 Clouds 30 1009 70 10000 7.7 260 12:45 16.07.2019
5075 Clouds 31 1009 70 10000 7.2 270 12:21 16.07.2019
5076 Clouds 31 1009 70 10000 7.2 270 11:58 16.07.2019
5077 Clouds 31 1009 70 10000 7.2 270 11:40 16.07.2019
5078 Clouds 31 1009 70 10000 7.2 270 11:40 16.07.2019
5079 Clouds 31 1010 70 10000 8.2 280 11:22 16.07.2019
5080 Clouds 31 1010 70 10000 8.2 280 10:47 16.07.2019
5081 Clouds 32 1010 66 10000 8.2 280 10:22 16.07.2019
5082 Clouds 32 1010 66 10000 8.2 280 09:58 16.07.2019
5083 Clouds 32 1010 66 10000 8.2 280 09:40 16.07.2019
5084 Clouds 31 1011 66 10000 7.2 280 09:19 16.07.2019
5085 Clouds 31 1011 66 10000 7.2 280 08:42 16.07.2019
5086 Clouds 31 1011 70 10000 7.2 280 08:20 16.07.2019
5087 Clouds 31 1011 70 10000 7.2 280 07:42 16.07.2019
5088 Clouds 30 1011 74 10000 6.7 290 07:24 16.07.2019
5089 Clouds 30 1011 74 10000 6.7 290 06:47 16.07.2019
5090 Clouds 30 1011 74 10000 6.7 290 06:26 16.07.2019
5091 Clouds 29 1010 70 10000 6.2 300 05:36 16.07.2019
5092 Clouds 29 1009 74 10000 7.2 280 05:18 16.07.2019
5093 Rain 29 1011 73 0 7.68 280.173 03:54 16.07.2019
5094 Rain 28 1010 74 0 8.62 271.734 03:20 16.07.2019
5095 Clouds 28 1009 78 10000 9.8 290 02:30 16.07.2019
5096 Clouds 28 1009 78 10000 9.8 290 01:44 16.07.2019
5097 Clouds 29 1009 74 10000 10.3 290 00:47 16.07.2019
5098 Rain 29 1009 79 9000 8.2 290 00:20 16.07.2019
5099 Rain 29 1009 79 9000 8.2 290 23:47 15.07.2019
5100 Rain 29 1009 79 9000 8.2 290 23:29 15.07.2019
5101 Clouds 29 1010 70 10000 7.7 290 22:48 15.07.2019
5102 Clouds 29 1010 70 10000 7.7 290 22:22 15.07.2019
5103 Clouds 29 1012 74 10000 7.2 280 21:59 15.07.2019
5104 Clouds 29 1012 74 10000 7.2 280 21:40 15.07.2019
5105 Clouds 28 1012 78 10000 5.1 310 21:20 15.07.2019
5106 Clouds 28 1012 78 10000 5.1 310 20:56 15.07.2019
5107 Clouds 28 1012 78 10000 5.1 310 20:38 15.07.2019
5108 Clouds 29 1012 74 10000 7.2 290 20:19 15.07.2019
5109 Clouds 29 1012 74 10000 7.2 290 19:40 15.07.2019
5110 Clouds 29 1011 74 10000 7.7 290 19:20 15.07.2019
5111 Clouds 29 1011 74 10000 7.7 290 18:54 15.07.2019
5112 Clouds 29 1011 74 10000 7.7 290 18:36 15.07.2019
5113 Clouds 29 1011 74 10000 7.7 290 18:18 15.07.2019
5114 Clouds 29 1011 74 10000 7.7 290 17:42 15.07.2019
5115 Clouds 29 1011 74 10000 7.7 290 17:23 15.07.2019
5116 Clouds 28 1010 78 10000 9.8 290 16:59 15.07.2019
5117 Clouds 28 1010 78 10000 9.8 290 16:38 15.07.2019
5118 Clouds 28 1010 83 10000 9.3 290 16:20 15.07.2019
5119 Clouds 28 1010 83 10000 9.3 290 15:54 15.07.2019
5120 Clouds 28 1010 83 10000 9.3 290 15:36 15.07.2019
5121 Rain 29 1010 74 10000 5.1 310 15:18 15.07.2019
5122 Rain 29 1010 74 10000 5.1 310 14:41 15.07.2019
5123 Rain 29 1010 74 10000 5.1 310 14:22 15.07.2019
5124 Clouds 30 1009 66 10000 4.6 300 13:49 15.07.2019
5125 Clouds 30 1009 66 10000 5.7 300 13:21 15.07.2019
5126 Clouds 30 1009 66 10000 5.7 300 12:57 15.07.2019
5127 Clouds 30 1009 66 10000 5.7 300 12:39 15.07.2019
5128 Clouds 30 1010 66 10000 6.2 300 12:20 15.07.2019
5129 Clouds 30 1010 66 10000 6.2 300 11:41 15.07.2019
5130 Clouds 30 1010 70 10000 6.2 290 11:21 15.07.2019
5131 Clouds 30 1010 70 10000 6.2 290 10:45 15.07.2019
5132 Clouds 30 1010 70 10000 6.2 290 10:25 15.07.2019
5133 Clouds 29 1011 74 10000 7.2 310 09:44 15.07.2019
5134 Clouds 29 1011 74 10000 7.2 310 09:25 15.07.2019
5135 Clouds 31 1011 66 10000 6.2 290 08:49 15.07.2019
5136 Clouds 31 1011 66 10000 6.2 290 08:27 15.07.2019
5137 Clouds 30 1012 70 10000 3.1 300 07:57 15.07.2019
5138 Clouds 30 1012 70 10000 3.1 300 07:36 15.07.2019
5139 Clouds 29 1011 68 0 4.03 286.77 06:50 15.07.2019
5140 Clouds 29 1011 67 0 3.03 264.263 06:30 15.07.2019
5141 Clouds 29 1011 67 0 3.03 264.263 05:43 15.07.2019
5142 Rain 28 1011 78 10000 5.1 290 04:52 15.07.2019
5143 Rain 28 1011 78 10000 5.1 290 04:34 15.07.2019
5144 Clouds 28 1010 78 10000 2.1 320 03:30 15.07.2019
5145 Clouds 28 1010 78 10000 2.1 340 02:26 15.07.2019
5146 Clouds 28 1009 78 10000 1 0 01:38 15.07.2019
5147 Clouds 28 1010 83 10000 1 0 00:54 15.07.2019
5148 Clouds 28 1010 83 10000 1 0 00:29 15.07.2019
5149 Rain 29 1010 70 0 2.79 228.14 00:00 15.07.2019
5150 Rain 29 1010 70 0 2.79 228.14 23:41 14.07.2019
5151 Thunderstorm 29 1011 74 10000 1 0 23:21 14.07.2019
5152 Thunderstorm 29 1011 74 10000 1 0 22:58 14.07.2019
5153 Thunderstorm 29 1011 74 10000 1 0 22:39 14.07.2019
5154 Thunderstorm 28 1012 78 10000 3.1 300 22:21 14.07.2019
5155 Thunderstorm 28 1012 78 10000 3.1 300 21:46 14.07.2019
5156 Clouds 28 1012 78 10000 4.6 290 21:20 14.07.2019
5157 Clouds 28 1012 78 10000 4.6 290 20:59 14.07.2019
5158 Clouds 28 1012 78 10000 4.6 290 20:39 14.07.2019
5159 Clouds 29 1012 74 10000 2.1 250 20:20 14.07.2019
5160 Clouds 29 1012 74 10000 2.1 250 19:56 14.07.2019
5161 Clouds 29 1012 74 10000 2.1 250 19:38 14.07.2019
5162 Clouds 30 1012 74 10000 1.5 230 19:19 14.07.2019
5163 Clouds 30 1012 74 10000 1.5 230 18:41 14.07.2019
5164 Clouds 30 1012 74 10000 1.5 230 18:41 14.07.2019
5165 Clouds 30 1011 70 10000 2.1 240 18:22 14.07.2019
5166 Clouds 30 1011 70 10000 2.1 240 17:58 14.07.2019
5167 Clouds 30 1011 70 10000 2.1 240 17:23 14.07.2019
5168 Clouds 30 1010 70 10000 1.5 240 16:55 14.07.2019
5169 -273 0 0 0 0 0 16:26 14.07.2019
5170 Clouds 31 1009 66 10000 1.5 200 15:58 14.07.2019
5171 Clouds 31 1009 66 10000 1.5 200 15:40 14.07.2019
5172 Clouds 31 1009 66 10000 1.5 200 15:22 14.07.2019
5173 Clouds 32 1008 62 10000 1.5 200 14:45 14.07.2019
5174 Clouds 32 1009 62 10000 2.6 200 14:20 14.07.2019
5175 Clouds 32 1009 62 10000 2.6 200 13:46 14.07.2019
5176 Clouds 32 1009 62 10000 2.6 200 13:24 14.07.2019
5177 Clouds 32 1009 70 10000 2.6 200 12:57 14.07.2019
5178 Clouds 32 1009 70 10000 2.6 200 12:38 14.07.2019
5179 Clouds 32 1010 70 10000 3.6 180 12:18 14.07.2019
5180 Clouds 32 1010 70 10000 3.6 180 11:45 14.07.2019
5181 Clouds 32 1010 62 10000 3.1 190 11:20 14.07.2019
5182 Clouds 32 1010 62 10000 3.1 190 11:20 14.07.2019
5183 Clouds 32 1010 62 10000 3.1 190 10:43 14.07.2019
5184 Clouds 32 1011 66 10000 2.1 140 10:21 14.07.2019
5185 Clouds 32 1011 66 10000 2.1 140 09:48 14.07.2019
5186 Clouds 32 1011 66 10000 2.1 140 09:29 14.07.2019
5187 Clouds 32 1012 66 10000 2.1 180 08:46 14.07.2019
5188 Clouds 32 1012 66 10000 2.1 180 08:27 14.07.2019
5189 Clouds 29 1012 69 0 1.95 156.531 07:43 14.07.2019
5190 Clouds 31 1012 70 10000 1.5 140 07:19 14.07.2019
5191 Clouds 30 1012 74 10000 1 0 05:46 14.07.2019
5192 Clouds 28 1010 78 10000 1.5 150 03:53 14.07.2019
5193 Clouds 28 1010 78 10000 1.5 150 03:34 14.07.2019
5194 Clouds 29 1010 74 10000 1.5 180 02:52 14.07.2019
5195 Clouds 29 1010 74 10000 1.5 180 02:22 14.07.2019
5196 Clouds 29 1010 74 10000 1.5 180 01:45 14.07.2019
5197 Clouds 28 1010 78 10000 2.1 220 01:24 14.07.2019
5198 Clouds 28 1010 78 10000 2.1 220 00:41 14.07.2019
5199 Clouds 29 1011 79 10000 2.1 210 00:20 14.07.2019
5200 Clouds 29 1011 79 10000 2.1 210 23:56 13.07.2019
5201 Clouds 29 1011 79 10000 2.1 210 23:37 13.07.2019
5202 Clouds 29 1011 79 10000 2.6 190 23:19 13.07.2019
5203 Clouds 29 1011 79 10000 2.6 190 22:41 13.07.2019
5204 Clouds 30 1012 74 10000 3.1 160 22:21 13.07.2019
5205 Clouds 30 1012 74 10000 3.1 160 21:45 13.07.2019
5206 Clouds 30 1012 74 10000 2.6 160 21:20 13.07.2019
5207 Clouds 30 1012 74 10000 2.6 160 20:51 13.07.2019
5208 Clouds 30 1012 74 10000 2.6 160 20:32 13.07.2019
5209 Clouds 30 1013 74 10000 2.6 160 19:50 13.07.2019
5210 Clouds 30 1013 74 10000 2.6 160 19:29 13.07.2019
5211 Clouds 30 1012 74 10000 1.5 170 18:46 13.07.2019
5212 Clouds 30 1011 74 10000 1.5 160 18:24 13.07.2019
5213 Clouds 30 1011 74 10000 1.5 160 17:56 13.07.2019
5214 Clouds 30 1011 74 10000 1.5 160 17:37 13.07.2019
5215 Clouds 30 1010 74 10000 2.1 150 17:18 13.07.2019
5216 Clouds 30 1010 74 10000 2.1 150 16:42 13.07.2019
5217 Clouds 30 1010 74 10000 2.1 150 16:23 13.07.2019
5218 Clouds 31 1010 66 10000 2.1 160 15:46 13.07.2019
5219 Clouds 31 1010 70 10000 2.6 110 15:23 13.07.2019
5220 Clouds 31 1010 70 10000 2.6 110 14:46 13.07.2019
5221 Clouds 31 1010 70 10000 2.6 110 14:26 13.07.2019
5222 Clouds 32 1010 66 10000 2.1 110 13:56 13.07.2019
5223 Clouds 32 1010 66 10000 2.1 110 13:37 13.07.2019
5224 Clouds 32 1010 66 10000 2.6 130 13:18 13.07.2019
5225 Clouds 32 1010 66 10000 2.6 130 12:40 13.07.2019
5226 Clouds 32 1010 66 10000 2.6 130 12:40 13.07.2019
5227 Clouds 32 1010 66 10000 3.1 130 12:22 13.07.2019
5228 Clouds 32 1010 66 10000 3.1 130 12:22 13.07.2019
5229 Clouds 32 1010 66 10000 3.1 130 11:52 13.07.2019
5230 Clouds 32 1011 66 10000 3.1 140 11:20 13.07.2019
5231 Clouds 32 1011 66 10000 3.1 140 10:45 13.07.2019
5232 Clouds 32 1011 66 10000 3.1 140 10:25 13.07.2019
5233 Clouds 32 1011 70 10000 3.1 140 09:59 13.07.2019
5234 Clouds 32 1011 70 10000 3.1 140 09:41 13.07.2019
5235 Clouds 32 1012 70 10000 2.6 150 09:18 13.07.2019
5236 Clouds 32 1012 70 10000 2.6 150 08:41 13.07.2019
5237 Clouds 32 1012 70 10000 2.6 150 08:22 13.07.2019
5238 Clouds 31 1012 70 10000 2.6 130 07:30 13.07.2019
5239 Clouds 31 1013 74 10000 3.6 140 06:49 13.07.2019
5240 Clouds 31 1012 74 10000 3.1 150 05:59 13.07.2019
5241 Clouds 31 1012 74 10000 3.1 150 05:29 13.07.2019
5242 Clouds 29 1011 79 10000 2.6 120 04:24 13.07.2019
5243 Clouds 29 1011 79 10000 2.6 120 03:57 13.07.2019
5244 Clouds 29 1011 79 10000 2.6 120 03:38 13.07.2019
5245 Clouds 28 1011 76 0 4.93 142.297 02:18 13.07.2019
5246 Clouds 28 1011 76 0 4.93 142.297 01:41 13.07.2019
5247 Clouds 29 1010 79 10000 2.1 150 01:19 13.07.2019
5248 Clouds 29 1010 79 10000 2.1 150 00:54 13.07.2019
5249 Clouds 29 1011 69 0 3.09 153.344 00:19 13.07.2019
5250 Clouds 29 1011 69 0 3.09 153.344 23:48 12.07.2019
5251 Clouds 29 1011 69 0 3.09 153.344 23:29 12.07.2019
5252 Clouds 29 1011 69 0 3.09 153.344 22:46 12.07.2019
5253 Thunderstorm 29 1012 79 10000 2.1 150 22:24 12.07.2019
5254 Thunderstorm 29 1012 79 10000 2.1 150 21:43 12.07.2019
5255 Clouds 29 1012 79 10000 5.1 110 21:23 12.07.2019
5256 Clouds 29 1012 79 10000 5.1 110 20:57 12.07.2019
5257 Clouds 29 1012 79 10000 5.1 110 20:39 12.07.2019
5258 Clouds 30 1012 74 10000 2.6 130 20:21 12.07.2019
5259 Clouds 30 1012 74 10000 2.6 130 19:42 12.07.2019
5260 Clouds 30 1012 74 10000 2.6 130 19:24 12.07.2019
5261 Clouds 30 1012 74 10000 2.6 130 18:46 12.07.2019
5262 Clouds 30 1012 74 10000 2.1 110 18:22 12.07.2019
5263 Clouds 30 1012 74 10000 2.1 110 17:55 12.07.2019
5264 Clouds 30 1012 74 10000 2.1 110 17:30 12.07.2019
5265 Clouds 30 1011 74 10000 2.1 110 16:52 12.07.2019
5266 Clouds 30 1011 74 10000 2.1 110 16:25 12.07.2019
5267 Clouds 30 1010 74 10000 2.1 100 15:56 12.07.2019
5268 Clouds 30 1010 74 10000 2.1 100 15:36 12.07.2019
5269 Clouds 31 1009 70 10000 2.1 120 15:18 12.07.2019
5270 Clouds 31 1009 70 10000 2.1 120 14:43 12.07.2019
5271 Clouds 31 1009 70 10000 2.1 130 14:20 12.07.2019
5272 Clouds 31 1009 70 10000 2.1 130 13:43 12.07.2019
5273 Clouds 32 1009 66 10000 2.1 150 13:21 12.07.2019
5274 Clouds 32 1009 66 10000 2.1 150 12:41 12.07.2019
5275 Clouds 32 1010 66 10000 2.6 130 12:23 12.07.2019
5276 Clouds 32 1010 66 10000 2.6 130 11:46 12.07.2019
5277 Clouds 29 1010 72 0 3.29 130.102 11:24 12.07.2019
5278 Clouds 29 1010 72 0 3.29 130.102 10:55 12.07.2019
5279 Clouds 32 1011 70 10000 3.1 140 10:37 12.07.2019
5280 Clouds 32 1011 70 10000 3.1 140 10:19 12.07.2019
5281 Clouds 32 1011 70 10000 3.1 140 09:51 12.07.2019
5282 Clouds 32 1011 70 10000 3.6 130 09:24 12.07.2019
5283 Clouds 32 1011 70 10000 3.6 130 08:45 12.07.2019
5284 Clouds 31 1012 70 10000 4.1 130 08:22 12.07.2019
5285 Clouds 31 1012 70 10000 4.1 130 07:47 12.07.2019
5286 Clouds 31 1012 70 10000 4.1 130 07:29 12.07.2019
5287 Clouds 30 1012 74 10000 3.6 130 06:29 12.07.2019
5288 Clouds 30 1011 74 10000 3.1 160 05:50 12.07.2019
5289 Clouds 28 1010 83 10000 3.1 140 03:46 12.07.2019
5290 Clouds 28 1010 78 10000 2.1 140 01:50 12.07.2019
5291 Clouds 28 1010 78 10000 2.1 140 01:32 12.07.2019
5292 Clouds 29 1010 74 10000 2.1 130 00:34 12.07.2019
5293 Clouds 29 1010 74 10000 2.6 130 23:56 11.07.2019
5294 Clouds 29 1010 74 10000 2.6 130 23:37 11.07.2019
5295 Clouds 29 1010 74 10000 2.6 130 23:37 11.07.2019
5296 Clouds 29 1010 74 10000 2.6 130 23:37 11.07.2019
5297 Clouds 29 1011 79 10000 2.6 120 23:18 11.07.2019
5298 Clouds 29 1011 79 10000 2.6 120 22:42 11.07.2019
5299 Clouds 29 1011 79 10000 2.6 120 22:23 11.07.2019
5300 Clouds 29 1011 79 10000 2.6 120 22:23 11.07.2019
5301 Clouds 29 1011 74 10000 2.1 110 21:43 11.07.2019
5302 Clouds 29 1012 74 10000 2.1 110 21:20 11.07.2019
5303 Clouds 29 1012 74 10000 2.1 110 20:59 11.07.2019
5304 Clouds 29 1012 74 10000 2.1 110 20:41 11.07.2019
5305 Clouds 29 1012 74 10000 2.1 110 20:22 11.07.2019
5306 Clouds 29 1012 74 10000 2.1 110 19:54 11.07.2019
5307 Clouds 29 1012 74 10000 2.1 110 19:36 11.07.2019
5308 Clouds 29 1011 74 10000 2.6 140 19:18 11.07.2019
5309 Clouds 29 1011 74 10000 2.6 140 18:38 11.07.2019
5310 Clouds 30 1011 70 10000 1.5 140 18:20 11.07.2019
5311 Clouds 30 1011 70 10000 1.5 140 17:43 11.07.2019
5312 Clouds 30 1010 70 10000 1 0 17:25 11.07.2019
5313 Clouds 30 1010 70 10000 1 0 16:52 11.07.2019
5314 Clouds 30 1010 70 10000 1 0 16:24 11.07.2019
5315 Clouds 30 1010 70 10000 1 0 15:55 11.07.2019
5316 Clouds 30 1010 70 10000 1 0 15:36 11.07.2019
5317 Clouds 31 1009 66 10000 1 0 15:18 11.07.2019
5318 Clouds 31 1009 66 10000 1 0 14:43 11.07.2019
5319 Clouds 31 1009 66 10000 1.5 100 14:22 11.07.2019
5320 Clouds 31 1009 66 10000 1.5 100 13:47 11.07.2019
5321 Clouds 31 1009 66 10000 1.5 100 13:28 11.07.2019
5322 Clouds 31 1009 66 10000 1.5 100 12:47 11.07.2019
5323 Clouds 31 1009 66 10000 1.5 100 12:28 11.07.2019
5324 Clouds 32 1009 62 10000 2.1 90 11:59 11.07.2019
5325 Clouds 32 1009 62 10000 2.1 90 11:41 11.07.2019
5326 Clouds 32 1009 59 10000 2.6 90 11:22 11.07.2019
5327 Clouds 32 1009 59 10000 2.6 90 10:46 11.07.2019
5328 Clouds 32 1010 62 10000 2.1 90 10:19 11.07.2019
5329 Clouds 32 1010 62 10000 2.1 90 09:47 11.07.2019
5330 Clouds 32 1010 62 10000 2.1 90 09:28 11.07.2019
5331 Clouds 31 1011 66 10000 3.1 90 08:52 11.07.2019
5332 Clouds 31 1011 66 10000 3.1 90 08:26 11.07.2019
5333 Clouds 31 1011 66 10000 2.6 98 07:53 11.07.2019
5334 Clouds 31 1011 66 10000 2.6 98 07:34 11.07.2019
5335 Clouds 31 1011 66 10000 2.6 80 06:41 11.07.2019
5336 Clouds 29 1011 58 0 1.26 111.42 05:53 11.07.2019
5337 Clouds 28 1011 74 10000 1 0 05:30 11.07.2019
5338 Clouds 28 1011 74 10000 1 0 04:55 11.07.2019
5339 Clouds 27 1009 78 10000 1 0 02:41 11.07.2019
5340 Clouds 27 1009 78 10000 0.5 0 01:38 11.07.2019
5341 Clouds 27 1009 78 10000 3.06 135.807 00:29 11.07.2019
5342 Clouds 27 1009 78 10000 2.66 160.203 23:37 10.07.2019
5343 Clouds 28 1010 74 10000 2.66 160.203 23:18 10.07.2019
5344 Clouds 28 1010 74 10000 2.66 160.203 22:46 10.07.2019
5345 Clouds 28 1010 74 10000 0.5 0 22:21 10.07.2019
5346 Clouds 28 1010 74 10000 0.5 0 21:45 10.07.2019
5347 Clouds 28 1010 74 10000 0.5 0 21:26 10.07.2019
5348 Clouds 28 1010 74 10000 1 0 20:57 10.07.2019
5349 Clouds 28 1010 74 10000 1 0 20:39 10.07.2019
5350 Clouds 29 1010 70 10000 2.1 100 20:19 10.07.2019
5351 Clouds 29 1010 70 10000 2.1 100 19:53 10.07.2019
5352 Clouds 28 1010 74 10000 2.1 100 19:22 10.07.2019
5353 Clouds 28 1010 74 10000 2.1 100 18:57 10.07.2019
5354 Clouds 28 1010 74 10000 2.1 100 18:38 10.07.2019
5355 Clouds 28 1009 74 10000 2.6 130 18:20 10.07.2019
5356 Clouds 28 1009 74 10000 2.6 130 17:41 10.07.2019
5357 Clouds 28 1008 78 10000 1 0 17:20 10.07.2019
5358 Clouds 28 1008 78 10000 1 0 16:37 10.07.2019
5359 Clouds 28 1008 78 10000 0.5 0 16:18 10.07.2019
5360 Clouds 28 1008 78 10000 0.5 0 15:45 10.07.2019
5361 Clouds 28 1008 74 10000 2.6 100 15:21 10.07.2019
5362 Clouds 28 1008 74 10000 2.6 100 14:41 10.07.2019
5363 Clouds 28 1008 74 10000 2.6 100 14:23 10.07.2019
5364 Clouds 29 1008 74 10000 1 0 13:52 10.07.2019
5365 Clouds 29 1008 70 10000 1 0 13:19 10.07.2019
5366 Clouds 29 1008 70 10000 1 0 13:19 10.07.2019
5367 Clouds 29 1008 70 10000 1 0 12:58 10.07.2019
5368 Clouds 29 1008 70 10000 1 0 12:58 10.07.2019
5369 Clouds 29 1008 70 10000 1 0 12:58 10.07.2019
5370 Clouds 29 1008 70 10000 1 0 12:38 10.07.2019
5371 Clouds 29 1008 70 10000 1 0 12:19 10.07.2019
5372 Clouds 29 1008 70 10000 1 0 11:47 10.07.2019
5373 Clouds 28 1009 78 10000 0.5 0 11:21 10.07.2019
5374 Clouds 28 1009 78 10000 0.5 0 10:46 10.07.2019
5375 Clouds 28 1009 78 10000 0.5 0 10:23 10.07.2019
5376 Clouds 27 1010 88 10000 1 0 09:44 10.07.2019
5377 Clouds 27 1011 83 9000 4.1 50 09:21 10.07.2019
5378 Clouds 27 1011 83 9000 4.1 50 08:55 10.07.2019
5379 Clouds 27 1011 83 9000 4.1 50 08:36 10.07.2019
5380 Rain 27 1012 83 8000 4.1 60 08:18 10.07.2019
5381 Rain 27 1012 83 8000 4.1 60 07:42 10.07.2019
5382 Rain 27 1012 88 8000 1.5 40 07:20 10.07.2019
5383 Rain 27 1011 88 7000 3.1 60 05:59 10.07.2019
5384 Rain 27 1011 88 7000 3.1 60 05:39 10.07.2019
5385 Rain 27 1010 88 9000 0.5 0 04:28 10.07.2019
5386 Clouds 28 1009 78 10000 4.1 220 00:48 10.07.2019
5387 Clouds 28 1009 78 10000 4.1 220 00:29 10.07.2019
5388 Clouds 29 1009 77 0 4.84 157.203 23:42 09.07.2019
5389 Clouds 29 1009 77 0 4.84 157.203 23:21 09.07.2019
5390 Clouds 29 1009 77 0 4.84 157.203 22:42 09.07.2019
5391 Clouds 29 1010 79 10000 3.6 180 22:24 09.07.2019
5392 Clouds 29 1010 79 10000 3.6 180 21:59 09.07.2019
5393 Clouds 29 1010 79 10000 3.6 180 21:40 09.07.2019
5394 Clouds 30 1010 74 10000 3.1 180 21:22 09.07.2019
5395 Clouds 30 1010 74 10000 3.1 180 20:43 09.07.2019
5396 Clouds 30 1010 74 10000 3.1 180 20:43 09.07.2019
5397 Clouds 30 1011 74 10000 3.1 180 20:24 09.07.2019
5398 Clouds 30 1011 74 10000 3.1 180 19:42 09.07.2019
5399 Clouds 30 1010 74 10000 3.6 170 19:24 09.07.2019
5400 Clouds 30 1010 74 10000 3.6 170 18:47 09.07.2019
5401 Clouds 30 1010 74 10000 3.6 170 18:26 09.07.2019
5402 Clouds 30 1010 74 10000 3.6 170 18:26 09.07.2019
5403 Clouds 30 1010 74 10000 4.1 170 17:57 09.07.2019
5404 Clouds 30 1010 74 10000 4.1 170 17:38 09.07.2019
5405 Clouds 30 1009 74 10000 4.1 170 17:19 09.07.2019
5406 Clouds 30 1009 74 10000 4.1 170 16:50 09.07.2019
5407 Clouds 30 1008 74 10000 4.6 180 16:25 09.07.2019
5408 Clouds 30 1008 74 10000 4.6 180 15:50 09.07.2019
5409 Clouds 30 1008 74 10000 4.6 180 15:32 09.07.2019
5410 Clouds 30 1008 79 10000 4.1 160 14:58 09.07.2019
5411 Clouds 30 1008 79 10000 4.1 160 14:39 09.07.2019
5412 Clouds 30 1008 79 10000 4.6 160 14:19 09.07.2019
5413 Clouds 30 1008 79 10000 4.6 160 13:45 09.07.2019
5414 Clouds 30 1008 79 10000 4.6 160 13:27 09.07.2019
5415 Clouds 30 1008 79 10000 4.6 160 13:27 09.07.2019
5416 Clouds 29 1008 83 10000 4.6 160 12:41 09.07.2019
5417 Clouds 29 1009 76 0 5.09 173.175 12:22 09.07.2019
5418 Clouds 29 1009 76 0 5.09 173.175 12:22 09.07.2019
5419 Clouds 29 1009 76 0 5.09 173.175 11:58 09.07.2019
5420 Clouds 29 1009 76 0 5.09 173.175 11:39 09.07.2019
5421 Thunderstorm 27 1009 83 7000 3.1 10 11:21 09.07.2019
5422 Thunderstorm 27 1009 83 7000 3.1 10 11:21 09.07.2019
5423 Thunderstorm 27 1009 83 7000 3.1 10 10:54 09.07.2019
5424 Thunderstorm 27 1009 83 7000 3.1 10 10:33 09.07.2019
5425 Rain 32 1010 70 9000 4.1 160 09:42 09.07.2019
5426 Clouds 32 1010 70 10000 3.6 130 09:22 09.07.2019
5427 Clouds 32 1010 70 10000 3.6 130 08:55 09.07.2019
5428 Clouds 32 1010 70 10000 3.6 130 08:37 09.07.2019
5429 Clouds 29 1009 79 10000 3.1 180 03:59 05.07.2019
5430 Clouds 29 1009 79 10000 3.1 180 03:38 05.07.2019
5431 Clouds 29 1008 79 10000 3.1 180 03:19 05.07.2019
5432 Clouds 29 1008 79 10000 3.1 180 02:45 05.07.2019
5433 Clouds 29 1008 79 10000 2.6 170 01:44 05.07.2019
5434 Clouds 29 1008 79 10000 2.6 170 01:25 05.07.2019
5435 Clouds 29 1009 74 10000 2.6 180 00:47 05.07.2019
5436 Clouds 30 1009 70 10000 3.1 180 00:20 05.07.2019
5437 Clouds 30 1009 70 10000 3.1 180 23:23 04.07.2019
5438 Clouds 30 1010 74 10000 2.6 180 22:58 04.07.2019
5439 Clouds 30 1010 74 10000 2.6 180 22:40 04.07.2019
5440 Clouds 30 1010 70 10000 2.6 160 22:19 04.07.2019
5441 Clouds 30 1010 70 10000 2.6 160 21:40 04.07.2019
5442 Clouds 30 1010 70 10000 2.6 160 21:22 04.07.2019
5443 Clouds 30 1011 70 10000 2.6 150 20:55 04.07.2019
5444 Clouds 30 1011 70 10000 2.6 150 20:37 04.07.2019
5445 Clouds 30 1011 70 10000 2.1 180 20:18 04.07.2019
5446 Clouds 30 1011 70 10000 2.1 180 19:41 04.07.2019
5447 Clouds 30 1010 74 10000 3.1 160 19:20 04.07.2019
5448 Clouds 30 1010 74 10000 3.1 160 18:44 04.07.2019
5449 Clouds 30 1010 74 10000 2.6 170 18:26 04.07.2019
5450 Clouds 30 1010 74 10000 2.6 170 17:48 04.07.2019
5451 Clouds 30 1009 74 10000 3.1 150 17:19 04.07.2019
5452 Clouds 30 1009 74 10000 3.1 150 16:36 04.07.2019
5453 Clouds 31 1008 66 10000 3.6 160 15:42 04.07.2019
5454 Clouds 31 1008 66 10000 3.6 160 15:24 04.07.2019
5455 Clouds 31 1008 70 10000 3.1 160 14:56 04.07.2019
5456 Clouds 31 1008 70 10000 3.1 160 14:37 04.07.2019
5457 Clouds 32 1008 66 10000 3.6 160 14:18 04.07.2019
5458 Clouds 32 1008 66 10000 3.6 160 13:55 04.07.2019
5459 Clouds 32 1008 66 10000 3.6 160 13:37 04.07.2019
5460 Clouds 32 1008 66 10000 3.1 150 13:18 04.07.2019
5461 Clouds 32 1008 66 10000 3.1 150 12:38 04.07.2019
5462 Clouds 32 1008 66 10000 3.1 150 12:19 04.07.2019
5463 Clouds 32 1008 66 10000 3.1 150 11:40 04.07.2019
5464 Clouds 32 1009 66 10000 3.1 150 11:20 04.07.2019
5465 Clouds 32 1009 66 10000 3.1 150 10:44 04.07.2019
5466 Clouds 32 1009 66 10000 3.1 150 10:25 04.07.2019
5467 Clouds 32 1010 66 10000 3.6 140 09:46 04.07.2019
5468 Clouds 32 1010 66 10000 3.6 140 09:26 04.07.2019
5469 Clouds 32 1010 66 10000 3.1 140 08:57 04.07.2019
5470 Clouds 32 1010 66 10000 3.1 140 08:29 04.07.2019
5471 Clouds 32 1010 66 10000 3.6 140 07:57 04.07.2019
5472 Clouds 32 1010 66 10000 3.6 140 07:37 04.07.2019
5473 Clouds 31 1010 70 10000 4.1 140 07:18 04.07.2019
5474 Clouds 30 1010 74 10000 3.1 140 05:59 04.07.2019
5475 Clouds 30 1010 74 10000 3.1 140 05:41 04.07.2019
5476 Clouds 29 1009 74 10000 2.6 150 03:48 04.07.2019
5477 Clouds 29 1009 79 10000 3.1 150 01:46 04.07.2019
5478 Clouds 29 1009 79 10000 3.1 150 01:26 04.07.2019
5479 Clouds 29 1009 74 10000 2.6 140 00:39 04.07.2019
5480 Clouds 29 1009 79 10000 3.1 140 23:52 03.07.2019
5481 Clouds 29 1010 79 10000 3.1 150 23:20 03.07.2019
5482 Clouds 29 1010 79 10000 3.1 150 22:56 03.07.2019
5483 Clouds 29 1010 79 10000 3.1 150 22:37 03.07.2019
5484 Clouds 30 1010 74 10000 3.1 140 22:18 03.07.2019
5485 Clouds 30 1010 74 10000 3.1 140 21:50 03.07.2019
5486 Clouds 30 1010 74 10000 3.1 140 21:31 03.07.2019
5487 Clouds 30 1011 70 10000 3.6 150 20:47 03.07.2019
5488 Clouds 30 1011 70 10000 3.6 150 20:29 03.07.2019
5489 Clouds 30 1011 70 10000 3.6 150 20:29 03.07.2019
5490 Clouds 30 1011 74 10000 3.6 150 19:57 03.07.2019
5491 Clouds 30 1011 74 10000 3.6 150 19:39 03.07.2019
5492 Clouds 30 1010 70 10000 4.1 150 18:56 03.07.2019
5493 Clouds 30 1010 70 10000 4.1 150 18:37 03.07.2019
5494 Clouds 30 1010 70 10000 3.6 160 18:19 03.07.2019
5495 Clouds 30 1010 70 10000 3.6 160 17:49 03.07.2019
5496 Clouds 30 1009 70 10000 2.6 170 17:19 03.07.2019
5497 Clouds 30 1009 70 10000 2.6 170 16:45 03.07.2019
5498 Clouds 30 1009 70 10000 2.6 170 16:24 03.07.2019
5499 Clouds 30 1008 70 10000 3.6 170 15:54 03.07.2019
5500 Clouds 30 1008 70 10000 3.6 170 15:36 03.07.2019
5501 Clouds 31 1008 66 10000 2.6 190 15:18 03.07.2019
5502 Clouds 31 1008 66 10000 2.6 190 14:42 03.07.2019
5503 Clouds 31 1008 66 10000 3.6 190 14:20 03.07.2019
5504 Clouds 31 1008 66 10000 3.6 190 13:43 03.07.2019
5505 Clouds 32 1008 62 10000 3.1 180 13:24 03.07.2019
5506 Clouds 32 1008 62 10000 3.1 180 12:51 03.07.2019
5507 Clouds 32 1008 62 10000 3.6 170 12:19 03.07.2019
5508 Clouds 29 1009 71 0 3.72 177.444 11:43 03.07.2019
5509 Clouds 32 1009 66 10000 3.1 180 11:23 03.07.2019
5510 Clouds 32 1009 66 10000 3.1 180 10:57 03.07.2019
5511 Clouds 32 1009 66 10000 3.1 180 10:37 03.07.2019
5512 Clouds 32 1010 62 10000 3.1 170 10:18 03.07.2019
5513 Clouds 32 1010 62 10000 3.1 170 09:40 03.07.2019
5514 Clouds 32 1010 62 10000 3.1 180 09:20 03.07.2019
5515 Clouds 32 1010 62 10000 3.1 180 08:52 03.07.2019
5516 Clouds 32 1010 62 10000 3.1 180 08:31 03.07.2019
5517 Clouds 31 1011 66 10000 3.6 160 07:46 03.07.2019
5518 Clouds 31 1011 66 10000 3.6 160 07:28 03.07.2019
5519 Clouds 31 1011 66 10000 4.1 160 06:30 03.07.2019
5520 Clouds 30 1010 70 10000 3.6 160 05:35 03.07.2019
5521 Clouds 29 1009 74 10000 3.1 180 04:44 03.07.2019
5522 Clouds 29 1009 74 10000 4.1 160 03:26 03.07.2019
5523 Clouds 29 1009 74 10000 3.1 170 02:27 03.07.2019
5524 Clouds 29 1009 74 10000 3.6 170 01:21 03.07.2019
5525 Clouds 29 1009 74 10000 3.6 170 00:52 03.07.2019
5526 Clouds 29 1009 74 10000 2.1 180 00:32 03.07.2019
5527 Clouds 29 1009 74 10000 2.1 180 23:38 02.07.2019
5528 Clouds 29 1009 74 10000 2.1 180 23:38 02.07.2019
5529 Clouds 29 1009 74 10000 2.6 190 23:20 02.07.2019
5530 Clouds 29 1009 74 10000 2.6 190 22:57 02.07.2019
5531 Clouds 29 1009 74 10000 2.6 190 22:38 02.07.2019
5532 Clouds 29 1010 74 10000 2.6 190 22:20 02.07.2019
5533 Clouds 29 1010 74 10000 2.6 190 21:46 02.07.2019
5534 Clouds 29 1010 74 10000 2.6 190 21:46 02.07.2019
5535 Clouds 29 1011 74 10000 2.1 190 21:24 02.07.2019
5536 Clouds 29 1011 74 10000 2.1 190 20:59 02.07.2019
5537 Clouds 29 1011 74 10000 2.1 190 20:40 02.07.2019
5538 Clouds 29 1010 74 10000 2.1 200 20:22 02.07.2019
5539 Clouds 29 1010 74 10000 2.1 200 19:44 02.07.2019
5540 Clouds 29 1010 74 10000 2.1 210 19:24 02.07.2019
5541 Clouds 29 1010 74 10000 2.1 210 18:58 02.07.2019
5542 Clouds 29 1010 74 10000 2.6 240 18:37 02.07.2019
5543 Clouds 29 1010 74 10000 2.6 240 18:18 02.07.2019
5544 Clouds 29 1010 74 10000 2.6 240 17:37 02.07.2019
5545 Clouds 30 1009 70 10000 3.1 240 17:19 02.07.2019
5546 Clouds 30 1009 70 10000 3.1 240 16:45 02.07.2019
5547 Clouds 30 1008 70 10000 3.1 240 16:26 02.07.2019
5548 Clouds 30 1008 70 10000 3.1 240 15:42 02.07.2019
5549 Clouds 30 1008 70 10000 3.1 250 15:23 02.07.2019
5550 Clouds 30 1008 70 10000 3.1 250 14:49 02.07.2019
5551 Clouds 30 1008 70 10000 3.1 250 14:28 02.07.2019
5552 Clouds 31 1008 70 10000 2.6 230 13:45 02.07.2019
5553 Clouds 31 1008 66 10000 2.6 210 13:20 02.07.2019
5554 Clouds 31 1008 66 10000 2.6 210 12:46 02.07.2019
5555 Clouds 31 1008 66 10000 2.6 200 12:25 02.07.2019
5556 Clouds 31 1008 66 10000 2.6 200 11:57 02.07.2019
5557 Clouds 31 1008 66 10000 2.6 200 11:39 02.07.2019
5558 Clouds 31 1009 66 10000 3.1 200 11:18 02.07.2019
5559 Clouds 31 1009 66 10000 3.1 200 10:44 02.07.2019
5560 Clouds 31 1009 66 10000 3.6 200 10:24 02.07.2019
5561 Clouds 31 1009 66 10000 3.6 200 09:44 02.07.2019
5562 Clouds 31 1010 66 10000 3.6 190 09:21 02.07.2019
5563 Clouds 31 1010 66 10000 3.6 190 08:42 02.07.2019
5564 Clouds 31 1010 66 10000 4.1 200 08:20 02.07.2019
5565 Clouds 31 1010 66 10000 4.1 200 07:53 02.07.2019
5566 Clouds 31 1010 70 10000 3.6 190 07:21 02.07.2019
5567 Clouds 31 1010 70 10000 3.6 190 06:49 02.07.2019
5568 Clouds 30 1010 70 10000 2.6 190 06:25 02.07.2019
5569 Clouds 29 1009 74 10000 2.6 210 04:57 02.07.2019
5570 Clouds 29 1008 74 10000 4.1 220 01:37 02.07.2019
5571 Clouds 29 1009 74 10000 3.6 200 23:49 01.07.2019
5572 Clouds 29 1009 74 10000 3.6 230 23:22 01.07.2019
5573 Clouds 29 1009 74 10000 3.6 230 22:46 01.07.2019
5574 Clouds 29 1009 74 10000 3.6 230 22:27 01.07.2019
5575 Clouds 29 1010 79 10000 3.1 230 21:48 01.07.2019
5576 Clouds 30 1010 74 10000 4.1 240 21:26 01.07.2019
5577 Clouds 30 1010 74 10000 4.1 240 20:52 01.07.2019
5578 Clouds 30 1010 74 10000 3.6 250 20:22 01.07.2019
5579 Clouds 30 1010 74 10000 3.6 250 20:22 01.07.2019
5580 Clouds 30 1010 74 10000 3.6 250 19:59 01.07.2019
5581 Clouds 30 1010 74 10000 3.6 250 19:40 01.07.2019
5582 Clouds 30 1010 74 10000 4.1 250 19:22 01.07.2019
5583 Clouds 30 1010 74 10000 4.1 250 18:53 01.07.2019
5584 Clouds 30 1010 74 10000 4.1 250 18:31 01.07.2019
5585 Clouds 30 1009 79 10000 4.1 240 17:59 01.07.2019
5586 Clouds 30 1009 79 10000 4.1 240 17:41 01.07.2019
5587 Clouds 30 1008 74 10000 3.6 250 17:21 01.07.2019
5588 Clouds 30 1008 74 10000 3.6 250 16:47 01.07.2019
5589 Clouds 30 1008 74 10000 3.6 250 16:25 01.07.2019
5590 Clouds 30 1008 79 10000 4.6 250 15:54 01.07.2019
5591 Clouds 30 1008 79 10000 4.6 250 15:36 01.07.2019
5592 Clouds 31 1007 70 10000 3.6 260 15:18 01.07.2019
5593 Clouds 31 1007 70 10000 3.6 260 14:42 01.07.2019
5594 Clouds 31 1007 74 10000 4.1 280 14:19 01.07.2019
5595 Clouds 31 1007 74 10000 4.1 280 13:40 01.07.2019
5596 Clouds 32 1007 70 10000 4.1 270 13:22 01.07.2019
5597 Clouds 32 1007 70 10000 4.1 270 12:44 01.07.2019
5598 Clouds 32 1007 70 10000 4.1 270 12:23 01.07.2019
5599 Clouds 32 1008 70 10000 3.6 270 11:58 01.07.2019
5600 Clouds 32 1008 70 10000 3.6 270 11:38 01.07.2019
5601 Clouds 32 1009 70 10000 3.1 270 11:18 01.07.2019
5602 Clouds 32 1009 70 10000 3.1 270 10:46 01.07.2019
5603 Clouds 32 1010 70 10000 3.1 270 10:22 01.07.2019
5604 Clouds 32 1010 70 10000 3.1 270 09:45 01.07.2019
5605 Clouds 32 1010 70 10000 3.1 270 09:27 01.07.2019
5606 Clouds 32 1010 66 10000 3.1 270 08:59 01.07.2019
5607 Clouds 32 1010 66 10000 3.1 270 08:35 01.07.2019
5608 Clouds 31 1010 74 10000 3.6 260 07:37 01.07.2019
5609 Clouds 31 1010 74 10000 3.1 250 06:51 01.07.2019
5610 Clouds 30 1009 79 10000 2.6 270 05:23 01.07.2019
5611 Clouds 29 1008 79 10000 3.6 290 01:27 01.07.2019
5612 Clouds 29 1008 83 10000 3.1 290 00:44 01.07.2019
5613 Clouds 29 1009 79 10000 3.1 290 00:22 01.07.2019
5614 Clouds 29 1009 79 10000 3.1 290 23:39 30.06.2019
5615 Clouds 30 1009 74 10000 2.6 300 23:18 30.06.2019
5616 Clouds 30 1009 74 10000 2.6 300 22:39 30.06.2019
5617 Clouds 30 1010 79 10000 3.1 300 22:19 30.06.2019
5618 Clouds 30 1010 79 10000 3.1 300 21:41 30.06.2019
5619 Clouds 30 1010 79 10000 3.1 300 21:41 30.06.2019
5620 Clouds 30 1010 79 10000 2.6 300 21:19 30.06.2019
5621 Clouds 30 1010 79 10000 2.6 300 20:55 30.06.2019
5622 Clouds 30 1010 79 10000 2.6 300 20:36 30.06.2019
5623 Clouds 30 1010 79 10000 3.1 310 20:18 30.06.2019
5624 Clouds 30 1010 79 10000 3.1 310 19:43 30.06.2019
5625 Clouds 30 1010 79 10000 3.1 310 19:24 30.06.2019
5626 Clouds 30 1009 79 10000 3.1 300 18:26 30.06.2019
5627 Clouds 30 1009 79 10000 3.1 300 17:57 30.06.2019
5628 Clouds 30 1009 79 10000 3.1 300 17:38 30.06.2019
5629 Clouds 30 1009 79 10000 3.6 310 17:18 30.06.2019
5630 Clouds 29 1010 74 0 5.36 308.02 16:45 30.06.2019
5631 Clouds 30 1008 79 10000 4.1 310 16:25 30.06.2019
5632 Clouds 30 1008 79 10000 4.1 310 15:37 30.06.2019
5633 Clouds 30 1008 74 10000 5.1 320 15:18 30.06.2019
5634 Clouds 30 1008 74 10000 5.1 320 14:50 30.06.2019
5635 Clouds 30 1008 74 10000 5.1 320 14:30 30.06.2019
5636 Clouds 31 1007 74 10000 5.7 320 13:48 30.06.2019
5637 Clouds 31 1007 74 10000 5.7 320 13:29 30.06.2019
5638 Clouds 32 1007 70 10000 5.1 320 12:52 30.06.2019
5639 Clouds 32 1007 70 10000 5.1 320 12:28 30.06.2019
5640 Clouds 32 1008 70 10000 5.1 330 11:58 30.06.2019
5641 Clouds 32 1008 70 10000 5.1 330 11:38 30.06.2019
5642 Clouds 32 1008 70 10000 5.1 330 11:38 30.06.2019
5643 Clouds 32 1010 75 10000 5.1 330 11:19 30.06.2019
5644 Clouds 32 1010 75 10000 5.1 330 10:45 30.06.2019
5645 Clouds 31 1009 79 10000 4.6 330 10:20 30.06.2019
5646 Clouds 31 1009 79 10000 4.6 330 09:57 30.06.2019
5647 Clouds 31 1009 79 10000 4.6 330 09:37 30.06.2019
5648 Clouds 31 1009 74 10000 3.6 320 09:19 30.06.2019
5649 Clouds 31 1009 74 10000 3.6 320 08:40 30.06.2019
5650 Clouds 31 1010 74 10000 3.6 310 08:20 30.06.2019
5651 Clouds 31 1010 74 10000 3.6 310 07:41 30.06.2019
5652 Clouds 31 1010 74 10000 4.1 300 07:22 30.06.2019
5653 Clouds 31 1010 74 10000 4.1 300 06:31 30.06.2019
5654 Clouds 29 1009 79 10000 7.2 280 03:32 30.06.2019
5655 Clouds 28 1009 83 10000 7.2 250 01:52 30.06.2019
5656 Clouds 28 1009 83 10000 7.2 250 00:45 30.06.2019
5657 Clouds 29 1009 83 10000 4.1 260 00:23 30.06.2019
5658 Clouds 29 1009 83 10000 4.1 260 23:43 29.06.2019
5659 Clouds 29 1010 83 10000 3.1 300 23:22 29.06.2019
5660 Clouds 29 1010 83 10000 3.1 300 22:46 29.06.2019
5661 Clouds 29 1011 83 10000 1 0 22:22 29.06.2019
5662 Clouds 29 1011 83 10000 1 0 21:55 29.06.2019
5663 Clouds 29 1011 79 10000 1.5 330 21:25 29.06.2019
5664 Clouds 29 1011 79 10000 1.5 330 20:47 29.06.2019
5665 Clouds 29 1011 79 10000 1.5 330 20:29 29.06.2019
5666 Clouds 28 1011 83 10000 1.5 320 19:58 29.06.2019
5667 Clouds 28 1011 83 10000 1.5 320 19:39 29.06.2019
5668 Rain 29 1011 74 10000 3.1 40 19:19 29.06.2019
5669 Rain 29 1011 74 10000 3.1 40 18:47 29.06.2019
5670 Clouds 30 1011 74 10000 3.1 300 18:24 29.06.2019
5671 Clouds 30 1011 74 10000 3.1 300 17:37 29.06.2019
5672 Clouds 30 1009 79 10000 3.1 310 17:19 29.06.2019
5673 Clouds 30 1009 79 10000 3.1 310 16:42 29.06.2019
5674 Clouds 30 1009 79 10000 3.1 310 15:59 29.06.2019
5675 Clouds 31 1008 74 10000 3.6 310 15:32 29.06.2019
5676 Clouds 31 1008 74 10000 3.6 310 14:46 29.06.2019
5677 Clouds 31 1008 74 10000 3.6 310 14:27 29.06.2019
5678 Clouds 31 1008 79 10000 4.1 300 13:56 29.06.2019
5679 Clouds 31 1008 79 10000 4.1 300 13:37 29.06.2019
5680 Clouds 32 1008 75 10000 4.6 300 13:19 29.06.2019
5681 Clouds 32 1008 75 10000 4.6 300 12:40 29.06.2019
5682 Clouds 32 1009 75 10000 4.1 300 12:22 29.06.2019
5683 Clouds 32 1009 75 10000 4.1 300 11:45 29.06.2019
5684 Clouds 32 1009 75 10000 4.1 300 11:27 29.06.2019
5685 Clouds 32 1010 75 10000 2.6 320 10:51 29.06.2019
5686 Clouds 32 1010 75 10000 2.6 320 10:22 29.06.2019
5687 Clouds 32 1010 75 10000 3.1 330 09:57 29.06.2019
5688 Clouds 32 1010 75 10000 2.6 320 08:55 29.06.2019
5689 Clouds 32 1010 75 10000 2.6 320 08:31 29.06.2019
5690 Clouds 31 1011 79 10000 2.6 320 07:45 29.06.2019
5691 Clouds 31 1010 74 10000 3.1 320 06:55 29.06.2019
5692 Clouds 31 1010 74 10000 3.1 320 06:36 29.06.2019
5693 Clouds 31 1010 74 10000 2.6 320 06:18 29.06.2019
5694 Clouds 30 1009 74 10000 4.1 320 01:43 29.06.2019
5695 Clouds 30 1009 79 10000 4.1 340 00:51 29.06.2019
5696 Clouds 30 1009 79 10000 4.6 330 23:53 28.06.2019
5697 Clouds 30 1010 79 10000 4.6 330 23:21 28.06.2019
5698 Clouds 30 1010 79 10000 4.6 330 22:47 28.06.2019
5699 Clouds 30 1011 79 10000 4.6 330 22:21 28.06.2019
5700 Clouds 30 1011 79 10000 4.6 330 21:45 28.06.2019
5701 Clouds 30 1011 79 10000 4.6 330 21:19 28.06.2019
5702 Clouds 30 1011 79 10000 4.6 330 20:42 28.06.2019
5703 Clouds 30 1011 74 10000 5.1 330 20:19 28.06.2019
5704 Clouds 30 1011 74 10000 5.1 330 19:42 28.06.2019
5705 Clouds 30 1011 74 10000 5.1 330 19:23 28.06.2019
5706 Clouds 30 1011 79 10000 4.6 330 18:41 28.06.2019
5707 Clouds 30 1010 74 10000 4.1 320 18:22 28.06.2019
5708 Clouds 30 1010 74 10000 4.1 320 17:46 28.06.2019
5709 Clouds 30 1010 74 10000 4.1 320 17:25 28.06.2019
5710 Clouds 30 1009 79 10000 4.1 330 16:46 28.06.2019
5711 Clouds 30 1009 79 10000 4.1 330 16:20 28.06.2019
5712 Clouds 30 1009 79 10000 4.1 330 15:45 28.06.2019
5713 Clouds 31 1008 70 10000 4.1 310 15:18 28.06.2019
5714 Clouds 31 1008 70 10000 4.1 310 14:42 28.06.2019
5715 Clouds 31 1008 70 10000 4.1 310 14:21 28.06.2019
5716 Clouds 31 1008 74 10000 4.1 310 13:49 28.06.2019
5717 Clouds 31 1008 74 10000 4.1 310 13:29 28.06.2019
5718 Clouds 31 1008 74 10000 4.1 320 12:53 28.06.2019
5719 Clouds 31 1008 74 10000 4.1 320 12:33 28.06.2019
5720 Clouds 32 1009 70 10000 3.6 320 11:44 28.06.2019
5721 Clouds 29 1010 71 0 4.48 321.805 11:19 28.06.2019
5722 Clouds 29 1010 71 0 4.48 321.805 11:19 28.06.2019
5723 Clouds 29 1010 71 0 4.48 321.805 10:42 28.06.2019
5724 Clouds 32 1010 70 10000 4.1 330 10:19 28.06.2019
5725 Clouds 32 1010 70 10000 4.1 330 09:46 28.06.2019
5726 Clouds 32 1010 70 10000 4.1 330 09:28 28.06.2019
5727 Clouds 32 1010 70 10000 4.1 330 08:43 28.06.2019
5728 Clouds 32 1010 70 10000 4.1 330 08:24 28.06.2019
5729 Clouds 32 1011 70 10000 2.6 350 07:43 28.06.2019
5730 Clouds 31 1011 74 10000 3.1 350 06:54 28.06.2019
5731 Clouds 29 1010 79 10000 3.6 330 04:35 28.06.2019
5732 Clouds 29 1009 79 10000 3.6 330 00:48 28.06.2019
5733 Clouds 30 1009 74 10000 3.6 330 00:20 28.06.2019
5734 Clouds 30 1009 74 10000 3.6 330 23:46 27.06.2019
5735 Clouds 30 1009 74 10000 3.6 330 23:46 27.06.2019
5736 Clouds 30 1009 74 10000 3.6 330 23:24 27.06.2019
5737 Clouds 30 1011 74 10000 3.1 330 22:44 27.06.2019
5738 Clouds 30 1011 74 10000 3.1 330 22:25 27.06.2019
5739 Clouds 30 1011 74 10000 2.6 330 21:58 27.06.2019
5740 Clouds 30 1011 74 10000 2.6 330 21:40 27.06.2019
5741 Clouds 30 1011 74 10000 3.6 330 21:20 27.06.2019
5742 Clouds 30 1011 74 10000 3.6 330 20:49 27.06.2019
5743 Clouds 30 1011 74 10000 3.6 330 20:31 27.06.2019
5744 Clouds 30 1011 74 10000 3.6 310 19:50 27.06.2019
5745 Clouds 30 1011 74 10000 3.6 310 19:30 27.06.2019
5746 Clouds 29 1012 74 0 4.26 336.639 18:55 27.06.2019
5747 Clouds 29 1012 74 0 4.26 336.639 18:33 27.06.2019
5748 Clouds 29 1010 75 0 4.35 317.608 17:58 27.06.2019
5749 Clouds 29 1010 75 0 4.35 317.608 17:37 27.06.2019
5750 Clouds 29 1010 75 0 4.35 317.608 17:19 27.06.2019
5751 Clouds 29 1010 75 0 4.35 317.608 16:39 27.06.2019
5752 Clouds 29 1010 75 0 4.35 317.608 16:19 27.06.2019
5753 Clouds 29 1010 75 0 4.35 317.608 16:19 27.06.2019
5754 Clouds 29 1010 75 0 4.35 317.608 15:45 27.06.2019
5755 Clouds 29 1009 75 0 4.28 316.326 15:26 27.06.2019
5756 Clouds 29 1009 75 0 4.28 316.326 14:52 27.06.2019
5757 Clouds 31 1008 70 10000 3.1 310 14:30 27.06.2019
5758 Clouds 31 1008 70 10000 3.1 310 13:56 27.06.2019
5759 Clouds 31 1008 70 10000 3.1 310 13:36 27.06.2019
5760 Clouds 31 1008 70 10000 3.6 300 13:18 27.06.2019
5761 Clouds 31 1008 70 10000 3.6 300 12:40 27.06.2019
5762 Clouds 31 1009 70 10000 3.1 300 12:21 27.06.2019
5763 Clouds 31 1009 70 10000 3.1 300 11:42 27.06.2019
5764 Clouds 32 1009 70 10000 2.6 300 11:21 27.06.2019
5765 Clouds 32 1009 70 10000 2.6 300 10:55 27.06.2019
5766 Clouds 32 1009 70 10000 2.6 300 10:36 27.06.2019
5767 Clouds 31 1010 74 10000 2.6 300 10:18 27.06.2019
5768 Clouds 31 1010 74 10000 2.6 300 09:37 27.06.2019
5769 Clouds 31 1011 74 10000 2.6 280 09:19 27.06.2019
5770 Clouds 31 1011 74 10000 2.6 280 08:44 27.06.2019
5771 Clouds 30 1011 79 10000 2.1 320 08:22 27.06.2019
5772 Clouds 30 1011 79 10000 2.1 320 07:39 27.06.2019
5773 Clouds 30 1011 79 10000 1 0 06:54 27.06.2019
5774 Clouds 30 1011 79 10000 1 0 06:29 27.06.2019
5775 Clouds 29 1009 79 10000 1 0 03:50 27.06.2019
5776 Clouds 29 1009 79 10000 1 0 02:40 27.06.2019
5777 Clouds 29 1009 83 10000 1.5 280 01:18 27.06.2019
5778 Clouds 29 1009 83 10000 1.5 280 00:45 27.06.2019
5779 Clouds 29 1009 79 10000 2.1 280 00:24 27.06.2019
5780 Clouds 29 1009 79 10000 2.1 280 23:42 26.06.2019
5781 Clouds 29 1010 83 10000 1.5 290 23:22 26.06.2019
5782 Clouds 29 1010 83 10000 1.5 290 22:55 26.06.2019
5783 Clouds 29 1010 83 10000 1.5 290 22:37 26.06.2019
5784 Clouds 30 1010 74 10000 2.1 290 22:18 26.06.2019
5785 Clouds 30 1010 74 10000 2.1 290 21:41 26.06.2019
5786 Clouds 30 1011 79 10000 2.6 300 21:19 26.06.2019
5787 Clouds 30 1011 79 10000 2.6 300 20:50 26.06.2019
5788 Clouds 30 1011 79 10000 2.6 300 20:30 26.06.2019
5789 Clouds 30 1011 79 10000 3.1 280 19:57 26.06.2019
5790 Clouds 30 1011 79 10000 3.1 280 19:38 26.06.2019
5791 Clouds 30 1011 79 10000 3.6 280 19:19 26.06.2019
5792 Clouds 30 1011 79 10000 3.6 280 18:44 26.06.2019
5793 Clouds 30 1011 79 10000 3.1 290 18:21 26.06.2019
5794 Clouds 30 1011 79 10000 3.1 290 17:47 26.06.2019
5795 Clouds 30 1011 79 10000 3.1 290 17:27 26.06.2019
5796 Clouds 30 1011 79 10000 3.1 290 17:27 26.06.2019
5797 Clouds 30 1011 79 10000 3.1 290 17:27 26.06.2019
5798 Clouds 30 1009 79 10000 4.6 290 16:52 26.06.2019
5799 Clouds 30 1009 79 10000 4.6 290 16:30 26.06.2019
5800 Clouds 30 1009 79 10000 4.6 290 16:30 26.06.2019
5801 Clouds 31 1009 74 10000 5.1 290 15:58 26.06.2019
5802 Clouds 31 1009 74 10000 5.1 290 15:29 26.06.2019
5803 Clouds 31 1008 74 10000 4.6 280 14:57 26.06.2019
5804 Clouds 31 1008 74 10000 4.6 280 14:57 26.06.2019
5805 Clouds 31 1008 74 10000 4.6 280 14:37 26.06.2019
5806 Clouds 32 1008 70 10000 4.1 270 14:18 26.06.2019
5807 Clouds 32 1008 70 10000 4.1 270 13:39 26.06.2019
5808 Clouds 32 1009 70 10000 3.1 290 13:18 26.06.2019
5809 Clouds 32 1009 70 10000 3.1 290 12:40 26.06.2019
5810 Clouds 32 1009 70 10000 3.1 270 12:20 26.06.2019
5811 Clouds 32 1009 70 10000 3.1 270 11:38 26.06.2019
5812 Clouds 32 1010 70 10000 2.1 270 11:18 26.06.2019
5813 Clouds 32 1010 70 10000 2.1 270 10:39 26.06.2019
5814 Clouds 32 1010 70 10000 2.1 280 10:20 26.06.2019
5815 Clouds 32 1010 70 10000 2.1 280 09:36 26.06.2019
5816 Clouds 32 1010 70 10000 2.1 280 09:36 26.06.2019
5817 Clouds 32 1011 70 10000 2.1 250 09:18 26.06.2019
5818 Clouds 32 1011 70 10000 2.1 250 08:38 26.06.2019
5819 Clouds 31 1011 74 10000 2.1 250 08:19 26.06.2019
5820 Clouds 31 1011 74 10000 2.1 250 07:41 26.06.2019
5821 Clouds 31 1011 74 10000 1.5 250 06:33 26.06.2019
5822 Clouds 29 1010 83 10000 1 0 03:34 26.06.2019
5823 Clouds 29 1009 79 10000 3.1 300 00:42 26.06.2019
5824 Clouds 29 1009 79 10000 2.1 300 00:18 26.06.2019
5825 Clouds 29 1009 79 10000 2.1 300 23:39 25.06.2019
5826 Clouds 29 1010 83 10000 3.1 280 23:20 25.06.2019
5827 Clouds 29 1010 83 10000 3.1 280 22:42 25.06.2019
5828 Clouds 29 1010 83 10000 3.1 280 22:23 25.06.2019
5829 Clouds 29 1010 79 10000 2.1 300 21:51 25.06.2019
5830 Clouds 29 1010 79 10000 2.1 300 21:27 25.06.2019
5831 Clouds 30 1011 79 10000 3.1 290 20:59 25.06.2019
5832 Clouds 30 1011 79 10000 3.1 290 20:37 25.06.2019
5833 Clouds 30 1011 79 10000 3.1 280 20:18 25.06.2019
5834 Clouds 30 1011 79 10000 3.1 280 20:18 25.06.2019
5835 Clouds 30 1011 79 10000 3.1 280 19:45 25.06.2019
5836 Clouds 30 1011 79 10000 3.1 270 19:22 25.06.2019
5837 Clouds 30 1011 79 10000 3.1 270 18:43 25.06.2019
5838 Clouds 30 1011 79 10000 3.1 270 18:24 25.06.2019
5839 -273 0 0 0 0 0 17:48 25.06.2019
5840 -273 0 0 0 0 0 17:28 25.06.2019
5841 -273 0 0 0 0 0 17:28 25.06.2019
5842 -273 0 0 0 0 0 17:28 25.06.2019
5843 -273 0 0 0 0 0 17:28 25.06.2019
5844 Clouds 30 1010 79 10000 5.1 270 16:55 25.06.2019
5845 Clouds 30 1010 79 10000 5.1 270 16:55 25.06.2019
5846 Clouds 30 1010 79 10000 5.1 270 16:37 25.06.2019
5847 Clouds 30 1009 79 10000 5.1 270 16:18 25.06.2019
5848 Clouds 30 1009 79 10000 5.1 270 15:39 25.06.2019
5849 Clouds 31 1009 74 10000 5.7 270 15:20 25.06.2019
5850 Clouds 31 1009 74 10000 5.7 270 15:20 25.06.2019
5851 Clouds 31 1009 74 10000 5.7 270 14:50 25.06.2019
5852 Clouds 31 1009 74 10000 5.7 270 14:31 25.06.2019
5853 Clouds 31 1008 74 10000 5.7 270 13:43 25.06.2019
5854 Clouds 31 1008 74 10000 5.7 270 13:24 25.06.2019
5855 Clouds 32 1009 70 10000 6.7 260 12:43 25.06.2019
5856 Clouds 32 1009 70 10000 6.7 260 12:24 25.06.2019
5857 Clouds 32 1009 70 10000 6.7 260 12:24 25.06.2019
5858 Clouds 32 1009 70 10000 6.7 260 11:46 25.06.2019
5859 Clouds 32 1009 70 10000 6.7 260 11:25 25.06.2019
5860 Clouds 32 1010 70 10000 6.2 260 10:58 25.06.2019
5861 Clouds 32 1010 70 10000 6.2 260 10:37 25.06.2019
5862 Clouds 32 1010 70 10000 5.7 260 10:19 25.06.2019
5863 Clouds 32 1010 70 10000 5.7 260 09:40 25.06.2019
5864 Clouds 32 1010 70 10000 5.7 260 09:22 25.06.2019
5865 Clouds 31 1011 74 10000 5.7 260 08:59 25.06.2019
5866 Clouds 31 1011 74 10000 5.7 260 08:31 25.06.2019
5867 Clouds 31 1011 74 10000 3.6 270 07:51 25.06.2019
5868 Clouds 31 1011 74 10000 3.6 270 07:31 25.06.2019
5869 Clouds 31 1011 70 10000 4.1 270 06:49 25.06.2019
5870 Clouds 31 1010 74 10000 4.1 270 06:23 25.06.2019
5871 Clouds 29 1009 83 10000 4.6 270 02:44 25.06.2019
5872 Clouds 29 1008 83 10000 6.2 270 01:18 25.06.2019
5873 Clouds 29 1008 83 10000 6.2 270 00:25 25.06.2019
5874 Clouds 29 1009 75 0 4.61 292.482 23:52 24.06.2019
5875 Clouds 29 1009 83 10000 3.6 280 23:33 24.06.2019
5876 Clouds 29 1009 75 0 4.61 292.482 22:49 24.06.2019
5877 Clouds 30 1010 79 10000 3.6 270 22:22 24.06.2019
5878 Clouds 30 1010 79 10000 3.6 270 21:58 24.06.2019
5879 Clouds 30 1010 79 10000 3.6 270 21:37 24.06.2019
5880 Clouds 30 1010 79 10000 3.6 270 21:37 24.06.2019
5881 Clouds 30 1010 79 10000 3.1 280 21:18 24.06.2019
5882 Clouds 30 1010 79 10000 3.1 280 20:43 24.06.2019
5883 Clouds 30 1010 79 10000 3.1 280 20:23 24.06.2019
5884 Clouds 30 1010 79 10000 3.6 300 19:58 24.06.2019
5885 Clouds 30 1010 79 10000 3.6 300 19:39 24.06.2019
5886 Clouds 30 1009 79 10000 3.1 300 19:21 24.06.2019
5887 Clouds 30 1009 79 10000 3.1 300 18:41 24.06.2019
5888 Clouds 30 1009 79 10000 4.1 290 18:20 24.06.2019
5889 Clouds 30 1009 79 10000 4.1 290 17:37 24.06.2019
5890 Clouds 30 1008 74 10000 5.1 290 17:18 24.06.2019
5891 Clouds 30 1008 74 10000 5.1 290 16:45 24.06.2019
5892 Clouds 30 1007 79 10000 6.7 280 16:20 24.06.2019
5893 Clouds 30 1007 79 10000 6.7 280 15:44 24.06.2019
5894 Clouds 30 1007 79 10000 6.7 280 15:25 24.06.2019
5895 Clouds 31 1007 74 10000 7.2 280 14:39 24.06.2019
5896 Clouds 31 1007 74 10000 8.2 280 14:20 24.06.2019
5897 Clouds 31 1007 74 10000 8.2 280 13:35 24.06.2019
5898 -273 0 0 0 0 0 12:58 24.06.2019
5899 Clouds 32 1007 70 10000 7.2 290 12:39 24.06.2019
5900 Clouds 32 1008 75 10000 6.2 290 12:20 24.06.2019
5901 Clouds 32 1008 75 10000 6.2 290 11:44 24.06.2019
5902 Clouds 32 1008 75 10000 6.2 290 11:26 24.06.2019
5903 Clouds 32 1008 70 10000 6.7 270 10:52 24.06.2019
5904 Clouds 32 1008 70 10000 6.7 270 10:33 24.06.2019
5905 Clouds 32 1009 70 10000 6.7 270 09:56 24.06.2019
5906 Clouds 32 1009 70 10000 6.7 270 09:37 24.06.2019
5907 Clouds 31 1009 74 10000 6.7 290 09:18 24.06.2019
5908 Clouds 31 1009 74 10000 6.7 290 08:36 24.06.2019
5909 Clouds 31 1009 74 10000 6.2 280 07:50 24.06.2019
5910 Clouds 31 1009 74 10000 6.2 280 07:27 24.06.2019
5911 -273 0 0 0 0 0 06:57 24.06.2019
5912 Clouds 30 1009 79 10000 6.7 280 06:23 24.06.2019
5913 Clouds 30 1009 74 10000 6.7 280 05:31 24.06.2019
5914 Clouds 30 1008 74 10000 7.2 290 04:34 24.06.2019
5915 Clouds 30 1008 74 10000 7.7 280 03:44 24.06.2019
5916 Clouds 29 1007 79 10000 6.2 280 02:35 24.06.2019
5917 Clouds 29 1007 79 10000 6.7 280 01:54 24.06.2019
5918 Clouds 29 1007 79 10000 6.7 280 01:28 24.06.2019
5919 Clouds 30 1007 74 10000 6.7 280 00:46 24.06.2019
5920 Clouds 30 1007 79 10000 5.7 270 00:20 24.06.2019
5921 Clouds 30 1007 79 10000 5.7 270 23:47 23.06.2019
5922 Clouds 30 1007 79 10000 5.7 270 23:28 23.06.2019
5923 Clouds 30 1008 79 10000 6.7 270 22:57 23.06.2019
5924 Clouds 30 1008 79 10000 6.7 270 22:39 23.06.2019
5925 Clouds 30 1009 79 10000 7.2 270 22:19 23.06.2019
5926 Clouds 30 1009 79 10000 7.2 270 21:41 23.06.2019
5927 Clouds 30 1009 79 10000 7.2 270 21:41 23.06.2019
5928 Clouds 30 1009 79 10000 7.2 270 21:22 23.06.2019
5929 Clouds 30 1009 79 10000 5.7 290 20:49 23.06.2019
5930 Clouds 30 1009 79 10000 5.7 290 20:29 23.06.2019
5931 Clouds 30 1009 79 10000 5.7 280 19:47 23.06.2019
5932 Clouds 30 1009 79 10000 5.7 280 19:23 23.06.2019
5933 Clouds 30 1009 79 10000 6.2 280 18:55 23.06.2019
5934 Clouds 30 1009 79 10000 6.2 280 18:36 23.06.2019
5935 Clouds 30 1008 79 10000 5.7 280 18:18 23.06.2019
5936 Clouds 30 1008 79 10000 5.7 280 17:39 23.06.2019
5937 Clouds 30 1008 84 10000 5.7 280 17:21 23.06.2019
5938 Clouds 30 1008 84 10000 5.7 280 16:43 23.06.2019
5939 Clouds 30 1007 84 10000 6.2 280 16:24 23.06.2019
5940 Clouds 30 1007 84 10000 6.2 280 15:42 23.06.2019
5941 Clouds 31 1007 74 10000 6.7 280 15:23 23.06.2019
5942 Clouds 31 1007 74 10000 6.7 280 14:56 23.06.2019
5943 Clouds 31 1007 74 10000 6.7 280 14:37 23.06.2019
5944 Clouds 31 1006 74 10000 5.7 270 14:18 23.06.2019
5945 Clouds 31 1006 74 10000 5.7 270 13:42 23.06.2019
5946 Clouds 31 1007 79 10000 5.7 270 13:20 23.06.2019
5947 Clouds 31 1007 79 10000 5.7 270 12:54 23.06.2019
5948 Clouds 31 1007 79 10000 5.7 270 12:36 23.06.2019
5949 Clouds 31 1007 74 10000 6.2 280 12:18 23.06.2019
5950 Clouds 31 1007 74 10000 6.2 280 11:42 23.06.2019
5951 Clouds 31 1007 74 10000 6.2 270 11:24 23.06.2019
5952 Clouds 31 1007 74 10000 6.2 270 10:47 23.06.2019
5953 Clouds 31 1008 74 10000 6.2 270 10:20 23.06.2019
5954 Clouds 31 1008 74 10000 6.2 270 09:53 23.06.2019
5955 Clouds 31 1009 74 10000 5.1 270 09:21 23.06.2019
5956 Clouds 31 1009 74 10000 5.1 270 08:46 23.06.2019
5957 Clouds 31 1009 74 10000 5.1 270 08:27 23.06.2019
5958 Clouds 31 1009 74 10000 5.7 270 07:55 23.06.2019
5959 Clouds 31 1009 70 10000 5.1 270 07:24 23.06.2019
5960 Clouds 28 1010 78 0 5.1 270.416 06:54 23.06.2019
5961 Clouds 30 1008 84 10000 4.1 260 05:55 23.06.2019
5962 Clouds 28 1009 79 0 5.1 265.602 04:38 23.06.2019
5963 Clouds 29 1007 83 10000 5.7 260 02:20 23.06.2019
5964 Clouds 29 1007 83 10000 5.7 260 01:37 23.06.2019
5965 Clouds 29 1007 83 10000 6.7 250 00:37 23.06.2019
5966 Clouds 29 1008 83 10000 5.1 260 23:57 22.06.2019
5967 Clouds 29 1008 83 10000 5.1 260 23:38 22.06.2019
5968 Clouds 29 1008 83 10000 5.1 250 23:20 22.06.2019
5969 Clouds 29 1008 83 10000 5.1 250 22:44 22.06.2019
5970 Clouds 29 1009 83 10000 4.6 260 22:22 22.06.2019
5971 Clouds 29 1009 83 10000 4.6 260 21:41 22.06.2019
5972 Clouds 29 1009 89 10000 4.6 270 21:20 22.06.2019
5973 Clouds 29 1009 89 10000 4.6 270 20:51 22.06.2019
5974 Clouds 29 1009 89 10000 4.6 270 20:25 22.06.2019
5975 Clouds 29 1009 89 10000 5.1 250 19:50 22.06.2019
5976 Clouds 29 1009 89 10000 5.1 250 19:28 22.06.2019
5977 Clouds 29 1009 83 10000 5.7 260 18:56 22.06.2019
5978 Clouds 29 1009 83 10000 5.7 260 18:36 22.06.2019
5979 Clouds 29 1009 89 10000 5.7 240 18:18 22.06.2019
5980 Clouds 29 1009 89 10000 5.7 240 17:38 22.06.2019
5981 Clouds 30 1008 79 10000 6.2 260 17:18 22.06.2019
5982 Clouds 30 1008 79 10000 6.2 260 16:39 22.06.2019
5983 Clouds 30 1008 84 10000 5.7 230 16:20 22.06.2019
5984 Clouds 30 1008 84 10000 5.7 230 15:40 22.06.2019
5985 Clouds 31 1007 74 10000 6.2 250 15:22 22.06.2019
5986 Clouds 31 1007 74 10000 6.2 250 14:41 22.06.2019
5987 Clouds 31 1007 79 10000 5.7 250 14:20 22.06.2019
5988 Clouds 31 1007 79 10000 5.7 250 13:42 22.06.2019
5989 Clouds 31 1007 74 10000 5.7 260 13:23 22.06.2019
5990 Rain 28 1008 79 0 7.03 270.806 12:53 22.06.2019
5991 Clouds 31 1008 74 10000 6.7 260 12:34 22.06.2019
5992 Clouds 31 1008 74 10000 6.7 260 11:58 22.06.2019
5993 Clouds 31 1008 74 10000 6.7 260 11:34 22.06.2019
5994 Clouds 32 1008 75 10000 5.7 270 10:54 22.06.2019
5995 Clouds 31 1009 79 10000 4.6 270 10:21 22.06.2019
5996 Clouds 31 1009 79 10000 4.6 270 10:21 22.06.2019
5997 Clouds 31 1009 79 10000 4.6 270 10:21 22.06.2019
5998 Clouds 31 1009 79 10000 4.6 270 09:55 22.06.2019
5999 Clouds 31 1009 79 10000 4.6 270 09:23 22.06.2019
6000 Clouds 31 1009 74 10000 4.6 270 08:44 22.06.2019
6001 Clouds 31 1009 74 10000 4.6 270 08:25 22.06.2019
6002 Clouds 31 1009 74 10000 4.6 270 07:35 22.06.2019
6003 Clouds 31 1010 74 10000 4.6 250 06:56 22.06.2019
6004 Clouds 30 1009 79 10000 5.7 250 05:23 22.06.2019
6005 Clouds 29 1008 83 10000 5.7 230 02:33 22.06.2019
6006 Clouds 29 1008 83 10000 5.1 240 01:24 22.06.2019
6007 Clouds 29 1008 83 10000 5.1 240 00:46 22.06.2019
6008 Clouds 29 1008 83 10000 4.6 220 00:22 22.06.2019
6009 Clouds 29 1008 83 10000 4.6 220 23:44 21.06.2019
6010 Clouds 29 1009 83 10000 5.1 240 23:22 21.06.2019
6011 Clouds 29 1009 83 10000 5.1 240 22:50 21.06.2019
6012 Clouds 29 1009 83 10000 5.1 240 22:24 21.06.2019
6013 Clouds 29 1010 83 10000 6.2 240 21:55 21.06.2019
6014 Clouds 29 1010 83 10000 6.2 240 21:36 21.06.2019
6015 Clouds 29 1010 83 10000 6.2 240 21:36 21.06.2019
6016 Clouds 29 1010 83 10000 4.6 250 21:18 21.06.2019
6017 Clouds 29 1010 83 10000 4.6 250 20:44 21.06.2019
6018 Clouds 30 1010 84 10000 4.6 250 20:21 21.06.2019
6019 Clouds 30 1010 84 10000 4.6 250 19:35 21.06.2019
6020 Clouds 30 1010 79 10000 5.7 250 18:49 21.06.2019
6021 Clouds 30 1010 79 10000 5.7 250 18:30 21.06.2019
6022 Clouds 30 1009 79 10000 5.7 250 17:47 21.06.2019
6023 Clouds 30 1009 79 10000 5.7 250 17:28 21.06.2019
6024 Clouds 30 1009 84 10000 5.1 250 16:41 21.06.2019
6025 Clouds 30 1009 84 10000 5.1 250 16:22 21.06.2019
6026 Clouds 30 1008 84 10000 4.6 250 15:40 21.06.2019
6027 Clouds 31 1008 79 10000 5.1 250 15:21 21.06.2019
6028 Clouds 31 1008 79 10000 5.1 250 14:49 21.06.2019
6029 Clouds 31 1008 79 10000 5.1 250 14:30 21.06.2019
6030 Clouds 31 1008 79 10000 4.6 250 13:55 21.06.2019
6031 Clouds 31 1008 79 10000 4.6 250 13:33 21.06.2019
6032 Clouds 31 1008 79 10000 4.6 250 12:59 21.06.2019
6033 Clouds 31 1008 79 10000 4.6 250 12:39 21.06.2019
6034 Clouds 32 1009 75 10000 5.7 260 12:18 21.06.2019
6035 Clouds 32 1009 75 10000 5.7 260 11:46 21.06.2019
6036 Clouds 32 1009 75 10000 5.7 260 11:24 21.06.2019
6037 Clouds 32 1009 75 10000 4.6 250 10:51 21.06.2019
6038 Clouds 32 1010 75 10000 5.1 250 10:22 21.06.2019
6039 Clouds 32 1010 75 10000 5.1 250 09:58 21.06.2019
6040 Clouds 32 1010 75 10000 5.1 250 09:39 21.06.2019
6041 Clouds 32 1010 75 10000 5.1 240 09:19 21.06.2019
6042 Clouds 32 1010 75 10000 5.1 240 08:42 21.06.2019
6043 Clouds 31 1010 79 10000 4.1 240 08:22 21.06.2019
6044 Clouds 31 1010 79 10000 4.1 240 08:22 21.06.2019
6045 Clouds 31 1010 79 10000 4.1 240 07:50 21.06.2019
6046 Clouds 31 1010 79 10000 4.1 240 07:27 21.06.2019
6047 Clouds 30 1010 84 10000 4.6 240 06:53 21.06.2019
6048 Clouds 30 1010 84 10000 4.6 240 06:53 21.06.2019
6049 Clouds 30 1010 79 10000 3.6 240 06:20 21.06.2019
6050 Clouds 30 1010 79 10000 3.6 240 05:25 21.06.2019
6051 Clouds 29 1009 83 10000 3.1 230 04:26 21.06.2019
6052 Clouds 29 1009 83 10000 2.6 230 03:33 21.06.2019
6053 Clouds 29 1008 83 10000 3.6 220 02:48 21.06.2019
6054 Clouds 29 1008 83 10000 3.6 220 01:48 21.06.2019
6055 Clouds 29 1008 83 10000 3.6 230 00:55 21.06.2019
6056 Clouds 29 1009 83 10000 4.1 230 00:22 21.06.2019
6057 Clouds 29 1009 83 10000 4.1 230 00:22 21.06.2019
6058 Clouds 29 1009 83 10000 4.1 230 23:47 20.06.2019
6059 Clouds 29 1010 83 10000 3.6 220 23:22 20.06.2019
6060 Clouds 29 1010 83 10000 3.6 220 22:58 20.06.2019
6061 Clouds 29 1010 83 10000 3.6 220 22:58 20.06.2019
6062 Clouds 29 1010 83 10000 3.6 220 22:38 20.06.2019
6063 Clouds 29 1010 83 10000 4.6 220 22:20 20.06.2019
6064 Clouds 29 1010 83 10000 4.6 220 21:48 20.06.2019
6065 Clouds 29 1011 89 10000 3.6 230 21:19 20.06.2019
6066 Clouds 29 1011 89 10000 3.6 230 20:48 20.06.2019
6067 Clouds 29 1011 89 10000 3.6 230 20:27 20.06.2019
6068 Clouds 29 1011 83 10000 3.6 220 19:58 20.06.2019
6069 Clouds 29 1011 83 10000 3.6 220 19:39 20.06.2019
6070 Clouds 29 1010 89 10000 3.6 230 19:18 20.06.2019
6071 Clouds 29 1010 89 10000 3.6 230 18:43 20.06.2019
6072 Clouds 29 1010 89 10000 3.6 230 18:23 20.06.2019
6073 Clouds 29 1010 89 10000 4.6 240 17:55 20.06.2019
6074 Clouds 29 1010 89 10000 4.6 240 17:37 20.06.2019
6075 Clouds 30 1009 84 10000 4.1 250 16:57 20.06.2019
6076 Clouds 30 1009 84 10000 4.1 250 16:39 20.06.2019
6077 Clouds 30 1009 84 10000 4.6 250 16:18 20.06.2019
6078 Clouds 30 1009 84 10000 4.6 250 15:42 20.06.2019
6079 Clouds 30 1008 84 10000 4.1 250 15:22 20.06.2019
6080 Clouds 30 1008 84 10000 4.1 250 14:50 20.06.2019
6081 Clouds 30 1008 84 10000 4.1 250 14:24 20.06.2019
6082 Clouds 30 1008 84 10000 3.6 240 13:42 20.06.2019
6083 Clouds 30 1008 79 10000 3.6 240 13:21 20.06.2019
6084 Clouds 30 1008 79 10000 3.6 240 12:54 20.06.2019
6085 Clouds 30 1008 79 10000 3.6 240 12:36 20.06.2019
6086 Rain 30 1009 79 10000 4.1 220 12:18 20.06.2019
6087 Rain 30 1009 79 10000 4.1 220 11:39 20.06.2019
6088 Clouds 30 1009 84 10000 4.1 220 11:20 20.06.2019
6089 Clouds 30 1009 84 10000 4.1 220 10:42 20.06.2019
6090 Clouds 30 1010 84 10000 5.7 240 10:23 20.06.2019
6091 Clouds 30 1010 84 10000 5.7 240 09:41 20.06.2019
6092 Clouds 30 1010 84 10000 5.7 240 09:41 20.06.2019
6093 Clouds 30 1010 84 10000 5.7 240 09:23 20.06.2019
6094 Clouds 30 1010 84 10000 5.7 240 08:47 20.06.2019
6095 Clouds 30 1010 84 10000 5.7 240 08:28 20.06.2019
6096 Clouds 30 1011 84 10000 6.2 250 07:55 20.06.2019
6097 Clouds 30 1011 84 10000 6.2 250 07:31 20.06.2019
6098 Clouds 31 1011 79 10000 5.1 240 06:57 20.06.2019
6099 Clouds 30 1010 84 10000 4.1 250 06:18 20.06.2019
6100 Clouds 29 1009 83 10000 5.7 250 03:39 20.06.2019
6101 Clouds 29 1009 83 10000 6.2 270 00:44 20.06.2019
6102 Clouds 29 1009 83 10000 6.7 260 00:25 20.06.2019
6103 Clouds 29 1009 83 10000 6.7 260 23:42 19.06.2019
6104 Clouds 29 1009 83 10000 5.7 260 23:24 19.06.2019
6105 Clouds 29 1009 83 10000 5.7 260 22:48 19.06.2019
6106 Clouds 29 1009 83 10000 5.7 260 22:24 19.06.2019
6107 Clouds 29 1010 83 10000 5.1 260 21:55 19.06.2019
6108 Clouds 29 1010 83 10000 5.1 260 21:37 19.06.2019
6109 Clouds 29 1010 83 10000 5.1 260 21:37 19.06.2019
6110 Rain 29 1011 79 9000 5.7 250 21:18 19.06.2019
6111 Rain 29 1011 79 9000 5.7 250 20:39 19.06.2019
6112 Clouds 29 1011 74 10000 6.2 270 20:20 19.06.2019
6113 Clouds 29 1011 74 10000 6.2 270 19:43 19.06.2019
6114 Clouds 29 1011 74 10000 6.2 270 19:24 19.06.2019
6115 Rain 29 1010 74 9000 5.1 280 18:55 19.06.2019
6116 Clouds 29 1010 74 10000 6.7 270 18:23 19.06.2019
6117 Clouds 29 1010 74 10000 6.7 270 17:42 19.06.2019
6118 Clouds 28 1009 83 10000 7.2 240 17:24 19.06.2019
6119 Clouds 28 1009 83 10000 7.2 240 17:24 19.06.2019
6120 Clouds 28 1009 83 10000 7.2 240 16:43 19.06.2019
6121 Clouds 27 1009 88 10000 7.2 240 16:22 19.06.2019
6122 Clouds 27 1009 88 10000 7.2 240 15:58 19.06.2019
6123 Clouds 27 1009 88 10000 7.2 240 15:40 19.06.2019
6124 Rain 29 1009 76 0 7.74 277.479 15:19 19.06.2019
6125 Rain 29 1009 76 0 7.74 277.479 14:42 19.06.2019
6126 Rain 27 1009 83 10000 8.7 240 14:22 19.06.2019
6127 Rain 27 1009 83 10000 8.7 240 13:43 19.06.2019
6128 Rain 27 1009 83 10000 8.7 240 13:25 19.06.2019
6129 Rain 28 1009 83 10000 6.7 250 12:48 19.06.2019
6130 Rain 27 1009 88 6000 4.6 290 12:22 19.06.2019
6131 Rain 27 1009 88 6000 4.6 290 11:58 19.06.2019
6132 Rain 27 1009 88 6000 4.6 290 11:39 19.06.2019
6133 Rain 26 1010 88 6000 4.1 280 11:20 19.06.2019
6134 Rain 26 1010 88 6000 4.1 280 11:20 19.06.2019
6135 Rain 26 1010 88 6000 4.1 280 10:45 19.06.2019
6136 Rain 26 1010 88 6000 4.1 280 10:27 19.06.2019
6137 Rain 29 1008 77 0 6.58 285.742 09:51 19.06.2019
6138 Rain 29 1010 77 0 3.28 288.744 09:23 19.06.2019
6139 Rain 29 1010 77 0 3.28 288.744 08:58 19.06.2019
6140 Rain 28 1010 78 0 3.32 295.662 08:38 19.06.2019
6141 Rain 28 1010 78 0 3.32 295.662 08:19 19.06.2019
6142 Rain 28 1010 78 0 3.32 295.662 07:43 19.06.2019
6143 Clouds 27 1010 83 8000 4.6 260 07:22 19.06.2019
6144 Clouds 27 1010 83 8000 4.6 260 06:36 19.06.2019
6145 Rain 27 1009 88 6000 6.2 360 06:18 19.06.2019
6146 Rain 27 1009 88 6000 6.2 360 05:24 19.06.2019
6147 Rain 28 1010 78 0 4.01 276.823 03:53 19.06.2019
6148 Clouds 29 1008 83 10000 5.7 270 02:35 19.06.2019
6149 Clouds 29 1008 83 10000 4.6 270 01:39 19.06.2019
6150 Clouds 29 1008 83 10000 5.1 280 00:54 19.06.2019
6151 Clouds 29 1008 83 10000 5.1 280 00:36 19.06.2019
6152 Clouds 29 1009 83 10000 5.1 270 23:58 18.06.2019
6153 Clouds 29 1009 83 10000 5.1 270 23:37 18.06.2019
6154 Clouds 29 1009 83 10000 5.7 280 23:19 18.06.2019
6155 Clouds 29 1009 83 10000 5.7 280 22:41 18.06.2019
6156 Clouds 29 1010 83 10000 5.7 280 22:21 18.06.2019
6157 Clouds 29 1010 83 10000 5.7 280 21:44 18.06.2019
6158 Clouds 29 1010 89 10000 3.1 280 21:22 18.06.2019
6159 Clouds 29 1010 89 10000 3.1 280 20:58 18.06.2019
6160 Clouds 29 1010 89 10000 3.1 280 20:38 18.06.2019
6161 Clouds 29 1011 83 10000 3.6 290 20:19 18.06.2019
6162 Clouds 29 1011 83 10000 3.6 290 19:39 18.06.2019
6163 Clouds 29 1011 83 10000 3.1 300 19:21 18.06.2019
6164 Clouds 29 1011 83 10000 3.1 300 18:49 18.06.2019
6165 Clouds 29 1011 83 10000 3.1 300 18:25 18.06.2019
6166 Clouds 29 1010 83 10000 3.6 320 17:48 18.06.2019
6167 Clouds 30 1010 79 10000 5.7 290 17:22 18.06.2019
6168 Clouds 30 1010 79 10000 5.7 290 16:58 18.06.2019
6169 Clouds 30 1010 79 10000 5.7 290 16:39 18.06.2019
6170 Clouds 30 1009 79 10000 4.6 280 16:21 18.06.2019
6171 Clouds 30 1009 79 10000 4.6 280 15:41 18.06.2019
6172 Clouds 30 1009 74 10000 5.7 290 15:22 18.06.2019
6173 Clouds 30 1009 74 10000 5.7 290 14:56 18.06.2019
6174 Clouds 30 1009 74 10000 5.7 290 14:37 18.06.2019
6175 Clouds 30 1009 74 10000 6.7 300 14:18 18.06.2019
6176 Clouds 30 1009 74 10000 6.7 300 13:49 18.06.2019
6177 Clouds 30 1009 74 10000 6.7 300 13:29 18.06.2019
6178 Clouds 30 1009 79 10000 6.7 290 12:46 18.06.2019
6179 Clouds 30 1009 79 10000 6.7 290 12:28 18.06.2019
6180 Clouds 30 1010 74 10000 6.7 290 11:50 18.06.2019
6181 Clouds 28 1010 83 10000 7.2 300 11:24 18.06.2019
6182 Clouds 28 1010 83 10000 7.2 300 10:59 18.06.2019
6183 Clouds 28 1010 83 10000 7.2 300 10:40 18.06.2019
6184 Clouds 31 1011 74 10000 6.7 320 10:21 18.06.2019
6185 Clouds 31 1011 74 10000 6.7 320 09:51 18.06.2019
6186 Clouds 31 1011 74 10000 6.7 320 09:24 18.06.2019
6187 Clouds 31 1011 74 10000 4.6 300 08:50 18.06.2019
6188 Clouds 31 1011 74 10000 4.6 300 08:30 18.06.2019
6189 Clouds 31 1012 74 10000 5.1 300 07:56 18.06.2019
6190 Clouds 31 1012 74 10000 5.1 300 07:26 18.06.2019
6191 Clouds 30 1012 74 10000 5.7 310 06:55 18.06.2019
6192 Clouds 30 1011 74 10000 6.2 300 05:25 18.06.2019
6193 Clouds 29 1009 79 10000 6.2 300 04:21 18.06.2019
6194 Clouds 28 1009 83 10000 5.7 300 02:48 18.06.2019
6195 Clouds 29 1009 83 10000 4.6 320 01:27 18.06.2019
6196 Clouds 29 1009 83 10000 4.6 310 00:58 18.06.2019
6197 Clouds 29 1009 83 10000 4.6 310 00:36 18.06.2019
6198 Clouds 29 1010 83 10000 4.1 310 00:18 18.06.2019
6199 Clouds 29 1010 83 10000 4.1 310 23:38 17.06.2019
6200 Clouds 30 1010 79 10000 4.1 320 23:18 17.06.2019
6201 Clouds 30 1010 79 10000 4.1 320 22:41 17.06.2019
6202 Clouds 30 1011 79 10000 5.7 300 22:21 17.06.2019
6203 Clouds 30 1011 79 10000 5.7 300 21:45 17.06.2019
6204 Clouds 30 1011 79 10000 5.7 300 21:45 17.06.2019
6205 Clouds 30 1011 79 10000 3.6 290 21:24 17.06.2019
6206 Clouds 30 1011 79 10000 3.6 290 20:44 17.06.2019
6207 Clouds 30 1011 79 10000 3.6 290 20:44 17.06.2019
6208 Clouds 30 1012 79 10000 5.1 300 20:25 17.06.2019
6209 Clouds 30 1012 79 10000 5.1 300 19:57 17.06.2019
6210 Clouds 30 1012 79 10000 5.1 300 19:39 17.06.2019
6211 Clouds 30 1012 79 10000 3.6 300 19:21 17.06.2019
6212 Clouds 30 1012 79 10000 3.6 300 18:39 17.06.2019
6213 Clouds 30 1011 74 10000 3.6 290 18:18 17.06.2019
6214 Clouds 30 1011 74 10000 3.6 290 17:58 17.06.2019
6215 Clouds 30 1011 74 10000 3.6 290 17:39 17.06.2019
6216 Clouds 30 1011 74 10000 5.1 290 17:20 17.06.2019
6217 Clouds 30 1011 74 10000 5.1 290 16:42 17.06.2019
6218 Clouds 30 1011 74 10000 5.1 290 16:24 17.06.2019
6219 Clouds 30 1010 74 10000 5.1 300 15:45 17.06.2019
6220 Clouds 30 1010 79 10000 3.1 280 15:20 17.06.2019
6221 Clouds 30 1010 79 10000 3.1 280 14:58 17.06.2019
6222 Clouds 30 1010 79 10000 3.1 280 14:40 17.06.2019
6223 Clouds 30 1009 84 10000 4.6 270 14:21 17.06.2019
6224 Clouds 30 1009 84 10000 4.6 270 13:44 17.06.2019
6225 Clouds 31 1009 79 10000 4.1 300 13:21 17.06.2019
6226 Clouds 31 1009 79 10000 4.1 300 12:47 17.06.2019
6227 Clouds 30 1010 79 10000 5.1 300 12:24 17.06.2019
6228 Clouds 30 1010 79 10000 5.1 300 11:45 17.06.2019
6229 Clouds 30 1010 79 10000 5.1 300 11:26 17.06.2019
6230 Clouds 30 1011 84 10000 5.1 300 10:56 17.06.2019
6231 Clouds 30 1011 84 10000 5.1 300 10:38 17.06.2019
6232 Clouds 28 1011 83 10000 5.1 300 10:20 17.06.2019
6233 Clouds 28 1011 83 10000 5.1 300 09:39 17.06.2019
6234 Clouds 31 1012 74 10000 3.1 310 09:20 17.06.2019
6235 Clouds 31 1012 74 10000 3.1 310 08:41 17.06.2019
6236 Clouds 31 1012 70 10000 3.1 300 08:22 17.06.2019
6237 Clouds 31 1012 70 10000 3.1 300 07:40 17.06.2019
6238 Clouds 31 1012 74 10000 3.6 300 07:21 17.06.2019
6239 Clouds 31 1012 74 10000 3.6 300 06:34 17.06.2019
6240 Clouds 30 1012 79 10000 3.6 290 05:44 17.06.2019
6241 Clouds 29 1011 83 10000 2.6 280 04:39 17.06.2019
6242 Clouds 29 1011 83 10000 3.1 290 03:45 17.06.2019
6243 Clouds 29 1010 83 10000 2.6 300 02:58 17.06.2019
6244 Clouds 29 1010 83 10000 2.6 300 02:40 17.06.2019
6245 Clouds 29 1009 83 10000 3.6 300 01:43 17.06.2019
6246 Clouds 29 1010 83 10000 3.6 340 01:25 17.06.2019
6247 Clouds 29 1010 83 10000 3.6 340 00:44 17.06.2019
6248 Clouds 29 1010 83 10000 3.1 300 00:21 17.06.2019
6249 Clouds 29 1010 83 10000 3.1 300 23:43 16.06.2019
6250 Rain 29 1011 83 10000 3.1 310 23:22 16.06.2019
6251 Rain 29 1011 83 10000 3.1 310 22:56 16.06.2019
6252 Rain 29 1011 83 10000 3.1 310 22:38 16.06.2019
6253 Clouds 30 1012 79 10000 3.6 300 22:18 16.06.2019
6254 Clouds 30 1012 79 10000 3.6 300 21:41 16.06.2019
6255 Clouds 30 1012 79 10000 3.1 300 21:23 16.06.2019
6256 Clouds 30 1012 79 10000 3.1 300 20:59 16.06.2019
6257 Clouds 30 1012 79 10000 3.1 300 20:37 16.06.2019
6258 Clouds 30 1011 79 10000 1.5 280 20:18 16.06.2019
6259 Clouds 30 1011 79 10000 1.5 280 20:18 16.06.2019
6260 Clouds 30 1011 79 10000 1.5 280 19:42 16.06.2019
6261 Clouds 30 1011 79 10000 1.5 280 19:22 16.06.2019
6262 Clouds 30 1011 79 10000 1.5 280 18:59 16.06.2019
6263 Clouds 30 1011 79 10000 1.5 280 18:40 16.06.2019
6264 Clouds 30 1011 79 10000 1.5 280 18:20 16.06.2019
6265 Clouds 30 1011 79 10000 1.5 280 17:48 16.06.2019
6266 Clouds 30 1010 79 10000 2.1 280 17:23 16.06.2019
6267 Clouds 30 1010 79 10000 2.1 280 16:57 16.06.2019
6268 Clouds 30 1010 79 10000 2.1 280 16:39 16.06.2019
6269 Clouds 30 1010 79 10000 2.1 280 16:39 16.06.2019
6270 Clouds 30 1009 79 10000 2.1 280 16:21 16.06.2019
6271 Clouds 30 1009 79 10000 2.1 280 15:44 16.06.2019
6272 Clouds 31 1009 74 10000 2.1 260 15:24 16.06.2019
6273 Clouds 31 1009 74 10000 2.1 260 14:45 16.06.2019
6274 Clouds 31 1009 74 10000 2.1 260 14:24 16.06.2019
6275 Clouds 31 1009 74 10000 2.1 260 13:52 16.06.2019
6276 Clouds 31 1009 74 10000 2.1 260 13:28 16.06.2019
6277 Clouds 31 1009 74 10000 2.1 270 12:58 16.06.2019
6278 Clouds 31 1009 74 10000 2.1 270 12:40 16.06.2019
6279 Clouds 31 1009 74 10000 2.1 270 12:20 16.06.2019
6280 Clouds 31 1009 74 10000 2.1 270 12:20 16.06.2019
6281 Clouds 31 1009 74 10000 2.1 270 11:46 16.06.2019
6282 Clouds 32 1010 75 10000 2.6 270 11:21 16.06.2019
6283 Clouds 32 1010 75 10000 2.6 270 10:56 16.06.2019
6284 Clouds 32 1010 75 10000 2.6 270 10:38 16.06.2019
6285 Clouds 32 1010 70 10000 2.6 270 10:18 16.06.2019
6286 Clouds 32 1010 70 10000 2.6 270 09:39 16.06.2019
6287 Clouds 31 1011 79 10000 2.1 260 09:21 16.06.2019
6288 Clouds 31 1011 79 10000 2.1 260 08:41 16.06.2019
6289 Clouds 31 1011 79 10000 3.1 270 08:19 16.06.2019
6290 Clouds 31 1011 79 10000 3.1 270 07:44 16.06.2019
6291 Clouds 30 1011 84 10000 3.1 280 07:19 16.06.2019
6292 Clouds 30 1011 84 10000 3.1 280 06:43 16.06.2019
6293 Clouds 30 1011 79 10000 2.1 280 05:51 16.06.2019
6294 Clouds 29 1010 83 10000 2.1 280 04:56 16.06.2019
6295 Clouds 29 1010 83 10000 2.1 280 03:58 16.06.2019
6296 Clouds 29 1010 83 10000 2.1 280 03:33 16.06.2019
6297 Clouds 29 1009 79 10000 2.6 290 02:36 16.06.2019
6298 Clouds 29 1009 79 10000 3.1 290 01:47 16.06.2019
6299 Clouds 29 1009 79 10000 3.1 300 01:27 16.06.2019
6300 Clouds 29 1009 79 10000 3.1 300 00:41 16.06.2019
6301 Clouds 29 1009 79 10000 2.6 310 00:22 16.06.2019
6302 Clouds 29 1009 79 10000 2.6 310 23:46 15.06.2019
6303 Clouds 29 1009 79 10000 2.6 310 23:25 15.06.2019
6304 Clouds 29 1010 79 10000 4.1 280 22:50 15.06.2019
6305 Clouds 29 1010 79 10000 4.1 280 22:28 15.06.2019
6306 Clouds 28 1011 83 10000 4.1 300 21:58 15.06.2019
6307 Clouds 28 1011 83 10000 4.1 300 21:40 15.06.2019
6308 Clouds 27 1011 94 10000 1.84 206.886 21:20 15.06.2019
6309 Clouds 27 1011 94 10000 1.95 207.854 20:43 15.06.2019
6310 Rain 27 1011 88 8000 1 0 20:22 15.06.2019
6311 Rain 27 1011 88 8000 1 0 19:46 15.06.2019
6312 Rain 27 1011 88 8000 1 0 19:46 15.06.2019
6313 Rain 27 1011 88 7000 2.1 360 19:24 15.06.2019
6314 Rain 27 1011 88 7000 2.1 360 18:42 15.06.2019
6315 Drizzle 30 1010 74 10000 2.79 224.144 18:23 15.06.2019
6316 Drizzle 30 1010 74 10000 2.79 224.144 17:44 15.06.2019
6317 Clouds 30 1010 79 10000 0.5 0 17:26 15.06.2019
6318 Clouds 30 1010 79 10000 0.5 0 16:49 15.06.2019
6319 Clouds 30 1009 79 10000 1 0 16:21 15.06.2019
6320 Clouds 30 1009 79 10000 1 0 15:45 15.06.2019
6321 Clouds 31 1008 74 10000 1.5 250 15:24 15.06.2019
6322 Clouds 31 1008 74 10000 1.5 250 14:56 15.06.2019
6323 Clouds 31 1008 74 10000 1.5 250 14:37 15.06.2019
6324 Clouds 32 1008 75 10000 2.6 250 14:18 15.06.2019
6325 Clouds 32 1008 75 10000 2.6 250 13:42 15.06.2019
6326 Clouds 32 1008 75 10000 3.1 250 13:20 15.06.2019
6327 Clouds 32 1008 75 10000 3.1 250 12:52 15.06.2019
6328 Clouds 32 1008 70 10000 2.6 210 12:27 15.06.2019
6329 Clouds 32 1008 70 10000 2.6 210 12:27 15.06.2019
6330 Clouds 32 1008 70 10000 2.6 210 11:54 15.06.2019
6331 Clouds 32 1008 70 10000 2.6 210 11:35 15.06.2019
6332 Clouds 32 1009 70 10000 2.1 210 10:55 15.06.2019
6333 Clouds 32 1009 70 10000 2.1 210 10:37 15.06.2019
6334 Clouds 32 1009 70 10000 2.1 230 10:19 15.06.2019
6335 Clouds 32 1009 70 10000 2.1 230 09:43 15.06.2019
6336 Clouds 32 1010 70 10000 1.5 230 09:23 15.06.2019
6337 Clouds 32 1010 70 10000 1.5 230 08:53 15.06.2019
6338 Clouds 32 1010 70 10000 1.5 230 08:32 15.06.2019
6339 Clouds 31 1011 79 10000 2.6 200 07:50 15.06.2019
6340 Clouds 31 1010 74 10000 3.1 190 07:24 15.06.2019
6341 Clouds 31 1010 74 10000 3.1 190 06:39 15.06.2019
6342 Clouds 31 1010 74 10000 3.1 190 06:39 15.06.2019
6343 Clouds 30 1010 79 10000 2.1 180 06:00 15.06.2019
6344 Clouds 30 1010 79 10000 2.1 180 05:25 15.06.2019
6345 Clouds 30 1010 79 10000 2.1 180 04:44 15.06.2019
6346 Clouds 29 1009 83 10000 2.1 180 03:42 15.06.2019
6347 Rain 29 1009 83 10000 2.6 190 02:56 15.06.2019
6348 Clouds 29 1008 83 10000 2.1 180 02:22 15.06.2019
6349 Clouds 29 1008 83 10000 2.1 180 01:43 15.06.2019
6350 Clouds 29 1008 83 10000 2.6 170 00:56 15.06.2019
6351 Clouds 29 1008 83 10000 2.6 170 00:37 15.06.2019
6352 Clouds 29 1009 83 10000 4.1 160 23:54 14.06.2019
6353 Clouds 29 1009 83 10000 4.1 160 23:26 14.06.2019
6354 Clouds 29 1010 83 10000 2.1 170 22:45 14.06.2019
6355 Clouds 29 1010 83 10000 2.6 160 22:23 14.06.2019
6356 Clouds 29 1010 83 10000 2.6 160 22:00 14.06.2019
6357 Clouds 29 1010 83 10000 2.6 160 21:40 14.06.2019
6358 Clouds 30 1011 79 10000 1.5 170 21:21 14.06.2019
6359 Clouds 30 1011 79 10000 1.5 170 20:42 14.06.2019
6360 Clouds 30 1011 79 10000 2.1 160 20:18 14.06.2019
6361 Clouds 30 1011 79 10000 2.1 160 19:54 14.06.2019
6362 Clouds 30 1011 79 10000 2.6 180 19:24 14.06.2019
6363 Clouds 30 1011 79 10000 2.6 180 18:59 14.06.2019
6364 Clouds 30 1011 79 10000 2.6 180 18:41 14.06.2019
6365 Clouds 30 1011 79 10000 2.6 180 18:41 14.06.2019
6366 Clouds 30 1010 79 10000 2.1 180 18:22 14.06.2019
6367 Clouds 30 1010 79 10000 2.1 180 17:49 14.06.2019
6368 Clouds 30 1010 79 10000 2.1 180 17:30 14.06.2019
6369 Clouds 30 1009 79 10000 1.5 180 16:58 14.06.2019
6370 Clouds 30 1009 79 10000 1.5 180 16:40 14.06.2019
6371 Clouds 30 1008 79 10000 2.1 180 16:19 14.06.2019
6372 Clouds 30 1008 79 10000 2.1 180 15:41 14.06.2019
6373 Clouds 31 1008 79 10000 2.6 190 15:23 14.06.2019
6374 Clouds 31 1008 79 10000 2.6 190 15:23 14.06.2019
6375 Clouds 31 1008 79 10000 2.6 190 14:56 14.06.2019
6376 Clouds 31 1008 79 10000 2.6 190 14:38 14.06.2019
6377 Clouds 31 1008 74 10000 2.6 200 14:19 14.06.2019
6378 Clouds 31 1008 74 10000 2.6 200 14:19 14.06.2019
6379 Clouds 31 1008 74 10000 2.6 200 13:42 14.06.2019
6380 Clouds 32 1008 70 10000 2.6 200 13:24 14.06.2019
6381 Clouds 32 1008 70 10000 2.6 200 12:42 14.06.2019
6382 Clouds 32 1008 70 10000 2.6 200 12:42 14.06.2019
6383 Clouds 32 1008 70 10000 2.6 200 12:24 14.06.2019
6384 Clouds 32 1008 70 10000 2.6 200 11:57 14.06.2019
6385 Clouds 32 1008 70 10000 2.6 200 11:38 14.06.2019
6386 Clouds 32 1009 75 10000 2.6 180 11:20 14.06.2019
6387 Clouds 32 1009 75 10000 2.6 180 10:42 14.06.2019
6388 Clouds 31 1009 74 10000 3.1 170 10:18 14.06.2019
6389 Clouds 31 1009 74 10000 3.1 170 09:43 14.06.2019
6390 Clouds 31 1010 74 10000 2.6 180 09:22 14.06.2019
6391 Clouds 31 1010 74 10000 2.6 180 08:46 14.06.2019
6392 Clouds 31 1010 74 10000 2.1 160 08:19 14.06.2019
6393 Clouds 31 1010 74 10000 2.1 160 07:50 14.06.2019
6394 Clouds 31 1010 79 10000 2.1 160 07:21 14.06.2019
6395 Clouds 31 1010 79 10000 2.1 160 06:35 14.06.2019
6396 Clouds 30 1010 79 10000 2.6 160 05:58 14.06.2019
6397 Clouds 30 1010 79 10000 2.6 160 05:58 14.06.2019
6398 Clouds 30 1009 79 10000 2.6 150 05:21 14.06.2019
6399 Clouds 30 1009 79 10000 2.6 150 04:46 14.06.2019
6400 Clouds 29 1009 83 10000 2.1 180 03:52 14.06.2019
6401 Clouds 29 1009 83 10000 2.1 180 03:26 14.06.2019
6402 Clouds 29 1008 83 10000 3.1 180 02:55 14.06.2019
6403 Clouds 29 1008 83 10000 3.1 180 02:27 14.06.2019
6404 Clouds 29 1008 83 10000 3.1 180 02:27 14.06.2019
6405 Clouds 29 1008 83 10000 3.1 180 02:27 14.06.2019
6406 Clouds 29 1008 83 10000 3.1 160 00:58 14.06.2019
6407 Clouds 29 1009 89 10000 2.1 180 00:23 14.06.2019
6408 Clouds 29 1009 89 10000 2.1 180 23:59 13.06.2019
6409 Clouds 29 1009 89 10000 2.1 180 23:41 13.06.2019
6410 Clouds 30 1009 79 10000 2.1 190 23:22 13.06.2019
6411 Clouds 30 1009 79 10000 2.1 190 22:40 13.06.2019
6412 Clouds 30 1010 79 10000 2.6 190 22:22 13.06.2019
6413 Clouds 30 1010 79 10000 2.6 190 21:40 13.06.2019
6414 Clouds 30 1011 79 10000 2.6 200 21:20 13.06.2019
6415 Clouds 30 1011 79 10000 2.6 200 20:58 13.06.2019
6416 Clouds 30 1011 79 10000 2.6 200 20:39 13.06.2019
6417 Clouds 30 1011 79 10000 2.6 210 20:19 13.06.2019
6418 Clouds 30 1011 79 10000 2.6 210 19:42 13.06.2019
6419 Clouds 30 1011 79 10000 2.6 210 19:42 13.06.2019
6420 Clouds 29 1010 83 10000 2.6 210 19:22 13.06.2019
6421 Clouds 29 1010 83 10000 2.6 210 18:58 13.06.2019
6422 Clouds 29 1010 83 10000 2.6 210 18:40 13.06.2019
6423 Clouds 29 1010 83 10000 2.6 240 18:21 13.06.2019
6424 Clouds 29 1010 83 10000 2.6 240 17:43 13.06.2019
6425 Clouds 30 1009 79 10000 3.1 240 17:20 13.06.2019
6426 Clouds 30 1009 79 10000 3.1 240 16:53 13.06.2019
6427 Clouds 30 1009 79 10000 3.1 250 16:22 13.06.2019
6428 Clouds 30 1009 79 10000 3.1 250 15:59 13.06.2019
6429 Clouds 30 1009 79 10000 3.1 250 15:40 13.06.2019
6430 Clouds 31 1008 79 10000 3.1 250 15:19 13.06.2019
6431 Clouds 31 1008 79 10000 3.1 250 14:48 13.06.2019
6432 Clouds 31 1008 79 10000 3.1 250 14:29 13.06.2019
6433 Clouds 31 1008 74 10000 2.6 210 13:47 13.06.2019
6434 Clouds 32 1008 70 10000 3.6 200 13:22 13.06.2019
6435 Clouds 32 1008 70 10000 3.6 200 12:59 13.06.2019
6436 Clouds 32 1008 70 10000 3.6 200 12:39 13.06.2019
6437 Clouds 32 1008 70 10000 3.1 200 12:21 13.06.2019
6438 Clouds 32 1008 70 10000 3.1 200 11:44 13.06.2019
6439 Clouds 31 1009 74 10000 3.6 200 11:25 13.06.2019
6440 Clouds 31 1009 74 10000 3.6 200 10:48 13.06.2019
6441 Clouds 31 1009 74 10000 3.6 200 10:28 13.06.2019
6442 Clouds 31 1010 74 10000 3.1 200 09:52 13.06.2019
6443 Clouds 31 1010 74 10000 3.1 200 09:29 13.06.2019
6444 Clouds 32 1010 75 10000 2.6 200 08:56 13.06.2019
6445 Clouds 32 1010 75 10000 2.6 200 08:56 13.06.2019
6446 Clouds 32 1010 75 10000 2.6 200 08:56 13.06.2019
6447 Clouds 32 1010 75 10000 2.6 200 08:38 13.06.2019
6448 Clouds 31 1011 74 10000 2.6 200 08:19 13.06.2019
6449 Clouds 31 1011 74 10000 2.6 200 07:38 13.06.2019
6450 Clouds 30 1011 79 10000 3.1 200 07:19 13.06.2019
6451 Clouds 30 1011 79 10000 3.1 200 06:40 13.06.2019
6452 Clouds 29 1010 83 10000 2.6 210 06:21 13.06.2019
6453 Clouds 29 1010 83 10000 2.6 210 05:39 13.06.2019
6454 Clouds 29 1010 83 10000 3.1 200 05:19 13.06.2019
6455 Clouds 29 1009 83 10000 3.1 230 03:49 13.06.2019
6456 Clouds 29 1008 83 10000 3.1 230 01:59 13.06.2019
6457 Clouds 29 1009 83 10000 3.1 230 00:36 13.06.2019
6458 Clouds 29 1009 83 10000 3.1 220 23:38 12.06.2019
6459 Clouds 29 1010 83 10000 2.1 220 23:20 12.06.2019
6460 Clouds 29 1010 83 10000 2.1 220 22:41 12.06.2019
6461 Clouds 29 1010 83 10000 3.1 240 22:22 12.06.2019
6462 Clouds 29 1010 83 10000 3.1 240 21:47 12.06.2019
6463 Clouds 29 1010 83 10000 3.1 240 21:28 12.06.2019
6464 Clouds 29 1011 83 10000 3.1 240 20:49 12.06.2019
6465 Clouds 29 1011 83 10000 3.1 240 20:31 12.06.2019
6466 Clouds 30 1010 79 10000 2.1 220 19:59 12.06.2019
6467 Clouds 30 1010 79 10000 2.1 220 19:40 12.06.2019
6468 Clouds 29 1010 83 10000 2.6 220 19:22 12.06.2019
6469 Clouds 29 1010 83 10000 2.6 220 18:49 12.06.2019
6470 Clouds 29 1010 83 10000 2.6 220 18:28 12.06.2019
6471 Clouds 30 1010 79 10000 2.6 220 17:51 12.06.2019
6472 Clouds 30 1009 79 10000 3.1 220 17:23 12.06.2019
6473 Clouds 30 1009 79 10000 3.1 220 16:59 12.06.2019
6474 Clouds 30 1009 79 10000 3.1 220 16:39 12.06.2019
6475 Clouds 30 1009 79 10000 2.1 220 16:20 12.06.2019
6476 Clouds 30 1009 79 10000 2.1 220 15:46 12.06.2019
6477 Clouds 30 1009 79 10000 2.1 220 15:28 12.06.2019
6478 Clouds 30 1008 79 10000 3.1 190 14:39 12.06.2019
6479 Clouds 31 1007 74 10000 2.6 210 14:20 12.06.2019
6480 Clouds 31 1007 74 10000 2.6 210 13:42 12.06.2019
6481 Clouds 32 1007 70 10000 3.6 200 13:20 12.06.2019
6482 Clouds 32 1007 70 10000 3.6 200 12:56 12.06.2019
6483 Clouds 32 1007 70 10000 3.6 200 12:37 12.06.2019
6484 Clouds 32 1008 70 10000 4.6 200 12:19 12.06.2019
6485 Clouds 32 1008 70 10000 4.6 200 12:19 12.06.2019
6486 Clouds 32 1008 70 10000 4.6 200 11:44 12.06.2019
6487 Clouds 32 1008 70 10000 4.6 200 11:26 12.06.2019
6488 Clouds 32 1008 70 10000 4.6 200 10:50 12.06.2019
6489 Clouds 32 1009 70 10000 4.1 200 10:25 12.06.2019
6490 Clouds 32 1009 70 10000 4.1 200 09:45 12.06.2019
6491 Clouds 31 1010 74 10000 3.6 210 09:23 12.06.2019
6492 Clouds 31 1010 74 10000 3.6 210 08:53 12.06.2019
6493 Clouds 31 1011 74 10000 4.6 210 08:21 12.06.2019
6494 Clouds 31 1011 74 10000 4.6 210 07:39 12.06.2019
6495 Clouds 31 1011 74 10000 4.6 200 06:54 12.06.2019
6496 Clouds 30 1010 79 10000 5.1 200 05:27 12.06.2019
6497 Clouds 29 1009 83 10000 4.6 210 04:34 12.06.2019
6498 Clouds 29 1008 83 10000 4.6 210 01:32 12.06.2019
6499 Clouds 29 1008 83 10000 3.6 220 00:40 12.06.2019
6500 Clouds 28 1010 81 0 3.74 228.706 23:48 11.06.2019
6501 Clouds 29 1009 89 10000 4.6 210 23:29 11.06.2019
6502 Clouds 29 1009 89 10000 4.6 210 22:44 11.06.2019
6503 Clouds 29 1010 83 10000 5.1 230 22:20 11.06.2019
6504 Clouds 29 1010 83 10000 5.1 230 21:57 11.06.2019
6505 Clouds 29 1010 83 10000 5.1 230 21:38 11.06.2019
6506 Clouds 29 1010 83 10000 4.6 240 21:20 11.06.2019
6507 Clouds 29 1010 83 10000 4.6 240 20:48 11.06.2019
6508 Clouds 29 1010 89 10000 3.6 240 20:26 11.06.2019
6509 Clouds 29 1010 89 10000 3.6 240 19:55 11.06.2019
6510 Clouds 29 1010 89 10000 3.6 240 19:35 11.06.2019
6511 Clouds 29 1010 83 10000 3.6 230 18:58 11.06.2019
6512 Clouds 29 1010 89 10000 3.6 240 18:23 11.06.2019
6513 Clouds 29 1010 89 10000 3.6 240 17:57 11.06.2019
6514 Clouds 29 1010 89 10000 3.6 240 17:39 11.06.2019
6515 Clouds 29 1009 89 10000 3.1 240 17:19 11.06.2019
6516 Clouds 29 1009 89 10000 3.1 240 16:42 11.06.2019
6517 Clouds 30 1008 84 10000 4.6 250 16:23 11.06.2019
6518 Clouds 30 1008 84 10000 4.6 250 15:43 11.06.2019
6519 Clouds 30 1007 79 10000 5.1 240 15:24 11.06.2019
6520 Clouds 30 1007 79 10000 5.1 240 14:54 11.06.2019
6521 Clouds 31 1007 74 10000 5.7 240 14:23 11.06.2019
6522 Clouds 31 1007 74 10000 5.7 240 13:57 11.06.2019
6523 Clouds 31 1007 74 10000 5.7 240 13:37 11.06.2019
6524 Clouds 31 1007 79 10000 4.1 240 13:18 11.06.2019
6525 Clouds 31 1007 79 10000 4.1 240 12:40 11.06.2019
6526 Clouds 32 1007 70 10000 3.6 210 12:21 11.06.2019
6527 Clouds 32 1007 70 10000 3.6 210 11:41 11.06.2019
6528 Clouds 31 1008 79 10000 3.6 210 11:21 11.06.2019
6529 Clouds 31 1008 79 10000 3.6 210 10:50 11.06.2019
6530 Clouds 31 1008 79 10000 3.6 210 10:26 11.06.2019
6531 Clouds 31 1008 74 10000 3.6 210 09:50 11.06.2019
6532 Clouds 31 1009 79 10000 3.6 210 09:25 11.06.2019
6533 Clouds 31 1009 79 10000 3.6 210 08:49 11.06.2019
6534 Clouds 31 1009 79 10000 3.6 210 08:30 11.06.2019
6535 Clouds 30 1009 79 10000 2.6 210 07:57 11.06.2019
6536 Clouds 30 1009 79 10000 2.6 210 07:31 11.06.2019
6537 Clouds 30 1009 79 10000 3.1 210 06:52 11.06.2019
6538 Clouds 29 1009 83 10000 5.7 200 05:20 11.06.2019
6539 Clouds 29 1008 83 10000 4.6 210 04:27 11.06.2019
6540 Clouds 28 1007 83 10000 5.7 220 01:53 11.06.2019
6541 Clouds 28 1007 88 10000 5.7 220 00:49 11.06.2019
6542 Clouds 28 1007 83 10000 4.1 220 00:23 11.06.2019
6543 Clouds 28 1007 83 10000 4.1 220 23:44 10.06.2019
6544 Clouds 28 1008 83 10000 4.1 220 23:19 10.06.2019
6545 Clouds 28 1008 83 10000 4.1 220 22:42 10.06.2019
6546 Clouds 29 1009 79 10000 4.6 220 22:24 10.06.2019
6547 Clouds 29 1009 79 10000 4.6 220 21:41 10.06.2019
6548 Clouds 29 1009 79 10000 4.1 220 21:23 10.06.2019
6549 Clouds 29 1009 79 10000 4.1 220 20:59 10.06.2019
6550 Clouds 29 1009 79 10000 4.1 220 20:40 10.06.2019
6551 Clouds 29 1010 79 10000 2.6 250 20:21 10.06.2019
6552 Clouds 29 1010 79 10000 2.6 250 19:43 10.06.2019
6553 Clouds 29 1010 79 10000 3.6 210 19:22 10.06.2019
6554 Clouds 29 1010 79 10000 3.6 210 18:56 10.06.2019
6555 Clouds 29 1010 79 10000 3.6 210 18:38 10.06.2019
6556 Clouds 29 1009 79 10000 5.1 250 18:19 10.06.2019
6557 Clouds 29 1009 79 10000 5.1 250 18:19 10.06.2019
6558 Clouds 29 1009 79 10000 5.1 250 17:43 10.06.2019
6559 Clouds 29 1008 79 10000 7.2 250 17:23 10.06.2019
6560 Clouds 29 1008 79 10000 7.2 250 16:49 10.06.2019
6561 Clouds 29 1008 79 10000 7.2 250 16:30 10.06.2019
6562 Clouds 28 1007 83 10000 6.7 250 15:57 10.06.2019
6563 Clouds 28 1007 83 10000 6.7 250 15:38 10.06.2019
6564 Clouds 29 1007 79 10000 5.1 220 15:20 10.06.2019
6565 Clouds 29 1007 79 10000 5.1 220 14:41 10.06.2019
6566 Clouds 32 1006 70 10000 7.2 210 14:23 10.06.2019
6567 Clouds 32 1006 70 10000 7.2 210 13:46 10.06.2019
6568 Clouds 32 1006 70 10000 7.2 210 13:26 10.06.2019
6569 Clouds 32 1007 70 10000 7.2 200 12:53 10.06.2019
6570 Clouds 32 1007 70 10000 7.2 200 12:30 10.06.2019
6571 Clouds 32 1007 70 10000 7.2 200 11:54 10.06.2019
6572 Clouds 32 1007 70 10000 7.2 200 11:30 10.06.2019
6573 Clouds 32 1007 70 10000 7.2 200 10:59 10.06.2019
6574 Clouds 32 1007 70 10000 7.2 200 10:40 10.06.2019
6575 Clouds 32 1008 70 10000 7.7 200 10:18 10.06.2019
6576 Clouds 32 1008 70 10000 7.7 200 09:50 10.06.2019
6577 Clouds 32 1008 70 10000 7.7 200 09:29 10.06.2019
6578 Clouds 32 1008 70 10000 7.7 200 09:29 10.06.2019
6579 Clouds 32 1008 70 10000 7.7 200 08:48 10.06.2019
6580 Clouds 32 1008 70 10000 7.7 200 08:26 10.06.2019
6581 Clouds 31 1009 79 10000 7.7 200 07:40 10.06.2019
6582 Clouds 29 1008 89 10000 6.7 210 04:42 10.06.2019
6583 Clouds 29 1008 83 10000 6.7 220 02:29 10.06.2019
6584 Clouds 29 1007 83 10000 6.7 220 01:49 10.06.2019
6585 Clouds 29 1007 83 10000 6.2 220 01:19 10.06.2019
6586 Clouds 29 1007 83 10000 6.2 220 00:37 10.06.2019
6587 Clouds 29 1008 83 10000 7.7 210 23:46 09.06.2019
6588 Clouds 29 1008 83 10000 7.7 220 23:22 09.06.2019
6589 Clouds 29 1008 83 10000 7.7 220 22:47 09.06.2019
6590 Clouds 29 1008 83 10000 7.7 220 22:26 09.06.2019
6591 Clouds 29 1009 83 10000 6.7 220 21:48 09.06.2019
6592 Clouds 29 1009 83 10000 6.7 220 21:29 09.06.2019
6593 Clouds 28 1009 83 10000 7.2 220 20:59 09.06.2019
6594 Clouds 28 1009 83 10000 7.2 220 20:41 09.06.2019
6595 Clouds 28 1009 78 10000 6.7 210 20:21 09.06.2019
6596 Clouds 28 1009 78 10000 6.7 210 20:21 09.06.2019
6597 Clouds 28 1009 78 10000 6.7 210 19:43 09.06.2019
6598 Clouds 28 1009 78 10000 6.7 210 19:43 09.06.2019
6599 Clouds 28 1009 83 10000 7.7 210 19:18 09.06.2019
6600 Clouds 28 1009 83 10000 7.7 210 18:43 09.06.2019
6601 Clouds 29 1008 79 10000 8.2 230 18:25 09.06.2019
6602 Clouds 29 1008 79 10000 8.2 230 17:56 09.06.2019
6603 Clouds 29 1008 79 10000 8.2 230 17:30 09.06.2019
6604 Clouds 29 1007 74 10000 9.8 220 16:59 09.06.2019
6605 Clouds 29 1007 74 10000 9.8 220 16:40 09.06.2019
6606 Clouds 28 1007 83 10000 11.8 240 16:20 09.06.2019
6607 Clouds 28 1007 83 10000 11.8 240 15:50 09.06.2019
6608 Clouds 28 1007 83 10000 11.8 240 15:29 09.06.2019
6609 Clouds 29 1007 83 10000 7.2 220 14:55 09.06.2019
6610 Clouds 29 1007 83 10000 7.2 220 14:36 09.06.2019
6611 Clouds 28 1006 83 10000 7.2 250 14:18 09.06.2019
6612 Clouds 28 1006 83 10000 7.2 250 13:44 09.06.2019
6613 Rain 29 1008 79 0 9.61 233.731 12:56 09.06.2019
6614 Clouds 30 1008 79 10000 8.2 240 12:34 09.06.2019
6615 Clouds 30 1008 79 10000 8.2 240 12:34 09.06.2019
6616 Clouds 30 1008 79 10000 8.2 240 11:51 09.06.2019
6617 Clouds 30 1008 79 10000 8.2 240 11:30 09.06.2019
6618 -273 0 0 0 0 0 10:59 09.06.2019
6619 -273 0 0 0 0 0 10:59 09.06.2019
6620 Clouds 31 1008 74 10000 8.7 240 10:40 09.06.2019
6621 Clouds 30 1009 74 10000 8.7 220 10:20 09.06.2019
6622 Clouds 30 1009 74 10000 8.7 220 09:38 09.06.2019
6623 Clouds 30 1010 74 10000 8.7 220 09:20 09.06.2019
6624 Clouds 30 1010 74 10000 8.7 220 08:45 09.06.2019
6625 Clouds 30 1010 74 10000 9.8 220 07:53 09.06.2019
6626 Clouds 29 1010 77 0 9.62 226.566 06:48 09.06.2019
6627 Clouds 28 1009 83 10000 8.7 220 06:29 09.06.2019
6628 Clouds 28 1008 83 9000 7.7 220 03:21 09.06.2019
6629 Clouds 28 1008 83 9000 7.7 220 01:37 09.06.2019
6630 Clouds 28 1008 83 9000 8.7 230 01:19 09.06.2019
6631 Clouds 28 1008 83 9000 8.7 230 00:31 09.06.2019
6632 Clouds 28 1009 88 9000 6.7 220 23:41 08.06.2019
6633 Clouds 28 1010 81 0 9.15 221.518 23:23 08.06.2019
6634 Clouds 28 1010 81 0 9.15 221.518 22:56 08.06.2019
6635 Clouds 28 1010 81 0 9.15 221.518 22:37 08.06.2019
6636 Clouds 28 1010 81 0 9.15 221.518 22:18 08.06.2019
6637 Clouds 28 1010 81 0 9.15 221.518 21:49 08.06.2019
6638 Rain 30 1009 79 9000 5.1 220 21:24 08.06.2019
6639 Rain 30 1009 79 9000 5.1 220 20:46 08.06.2019
6640 Clouds 30 1010 79 10000 7.2 230 20:25 08.06.2019
6641 Clouds 30 1010 79 10000 7.2 230 19:58 08.06.2019
6642 Clouds 30 1010 79 10000 7.2 230 19:39 08.06.2019
6643 Clouds 30 1009 79 10000 7.2 220 19:19 08.06.2019
6644 Clouds 30 1009 79 10000 7.2 220 18:43 08.06.2019
6645 Clouds 30 1008 79 10000 5.7 230 18:25 08.06.2019
6646 Clouds 30 1008 79 10000 5.7 230 17:46 08.06.2019
6647 Clouds 30 1008 79 10000 7.7 220 17:22 08.06.2019
6648 Clouds 30 1008 79 10000 7.7 220 16:54 08.06.2019
6649 Clouds 30 1008 79 10000 7.7 220 16:35 08.06.2019
6650 Clouds 30 1008 79 10000 8.2 230 15:53 08.06.2019
6651 Clouds 30 1008 79